<?xml version="1.0" encoding="UTF-8" standalone="no" ?>
<gpx xmlns="http://www.topografix.com/GPX/1/1" xmlns:xsi="http://www.w3.org/2001/XMLSchema-instance" xsi:schemaLocation="http://www.topografix.com/GPX/1/1 http://www.topografix.com/GPX/1/1/gpx.xsd" version="1.1" creator="VisuGPX - https://www.visugpx.com">
  <metadata>
    <name>Sortie du 28 Septembre 2014</name>
    <desc><![CDATA[Vers Forêt la Folie]]></desc>
  </metadata>
  <trk>
    <name><![CDATA[Sortie du 28 Septembre 2014_1]]></name>
    <trkseg>
      <trkpt lat="49.24332" lon="1.67969">
        <ele>117</ele>
        <time>2014-09-28T06:53:20.000Z</time>
      </trkpt>
      <trkpt lat="49.24354" lon="1.67931">
        <ele>135</ele>
        <time>2014-09-28T06:53:40.000Z</time>
      </trkpt>
      <trkpt lat="49.24361" lon="1.6792">
        <ele>137</ele>
        <time>2014-09-28T06:53:58.000Z</time>
      </trkpt>
      <trkpt lat="49.24354" lon="1.67919">
        <ele>132</ele>
        <time>2014-09-28T06:54:02.000Z</time>
      </trkpt>
      <trkpt lat="49.24344" lon="1.67921">
        <ele>130</ele>
        <time>2014-09-28T06:54:06.000Z</time>
      </trkpt>
      <trkpt lat="49.24339" lon="1.67924">
        <ele>129</ele>
        <time>2014-09-28T06:54:08.000Z</time>
      </trkpt>
      <trkpt lat="49.2433" lon="1.67921">
        <ele>129</ele>
        <time>2014-09-28T06:54:12.000Z</time>
      </trkpt>
      <trkpt lat="49.24322" lon="1.67918">
        <ele>129</ele>
        <time>2014-09-28T06:54:16.000Z</time>
      </trkpt>
      <trkpt lat="49.24322" lon="1.67918">
        <ele>129</ele>
        <time>2014-09-28T06:54:18.000Z</time>
      </trkpt>
      <trkpt lat="49.24315" lon="1.67915">
        <ele>130</ele>
        <time>2014-09-28T06:54:20.000Z</time>
      </trkpt>
      <trkpt lat="49.24308" lon="1.67912">
        <ele>131</ele>
        <time>2014-09-28T06:54:24.000Z</time>
      </trkpt>
      <trkpt lat="49.24308" lon="1.67912">
        <ele>131</ele>
        <time>2014-09-28T06:54:26.000Z</time>
      </trkpt>
      <trkpt lat="49.24308" lon="1.67912">
        <ele>131</ele>
        <time>2014-09-28T06:54:28.000Z</time>
      </trkpt>
      <trkpt lat="49.24302" lon="1.67905">
        <ele>131</ele>
        <time>2014-09-28T06:54:30.000Z</time>
      </trkpt>
      <trkpt lat="49.24302" lon="1.67905">
        <ele>131</ele>
        <time>2014-09-28T06:54:32.000Z</time>
      </trkpt>
      <trkpt lat="49.24297" lon="1.67898">
        <ele>132</ele>
        <time>2014-09-28T06:54:34.000Z</time>
      </trkpt>
      <trkpt lat="49.24291" lon="1.67892">
        <ele>133</ele>
        <time>2014-09-28T06:54:38.000Z</time>
      </trkpt>
      <trkpt lat="49.24284" lon="1.67891">
        <ele>134</ele>
        <time>2014-09-28T06:54:42.000Z</time>
      </trkpt>
      <trkpt lat="49.24276" lon="1.67888">
        <ele>135</ele>
        <time>2014-09-28T06:54:46.000Z</time>
      </trkpt>
      <trkpt lat="49.24267" lon="1.67886">
        <ele>137</ele>
        <time>2014-09-28T06:54:50.000Z</time>
      </trkpt>
      <trkpt lat="49.2426" lon="1.67883">
        <ele>139</ele>
        <time>2014-09-28T06:54:54.000Z</time>
      </trkpt>
      <trkpt lat="49.2425" lon="1.67882">
        <ele>139</ele>
        <time>2014-09-28T06:54:58.000Z</time>
      </trkpt>
      <trkpt lat="49.2424" lon="1.67881">
        <ele>139</ele>
        <time>2014-09-28T06:55:02.000Z</time>
      </trkpt>
      <trkpt lat="49.24232" lon="1.67879">
        <ele>140</ele>
        <time>2014-09-28T06:55:06.000Z</time>
      </trkpt>
      <trkpt lat="49.24232" lon="1.67879">
        <ele>140</ele>
        <time>2014-09-28T06:55:08.000Z</time>
      </trkpt>
      <trkpt lat="49.24224" lon="1.67877">
        <ele>141</ele>
        <time>2014-09-28T06:55:10.000Z</time>
      </trkpt>
      <trkpt lat="49.24224" lon="1.67877">
        <ele>141</ele>
        <time>2014-09-28T06:55:12.000Z</time>
      </trkpt>
      <trkpt lat="49.24216" lon="1.67874">
        <ele>144</ele>
        <time>2014-09-28T06:55:14.000Z</time>
      </trkpt>
      <trkpt lat="49.24207" lon="1.67872">
        <ele>145</ele>
        <time>2014-09-28T06:55:18.000Z</time>
      </trkpt>
      <trkpt lat="49.24207" lon="1.67872">
        <ele>145</ele>
        <time>2014-09-28T06:55:20.000Z</time>
      </trkpt>
      <trkpt lat="49.24207" lon="1.67872">
        <ele>145</ele>
        <time>2014-09-28T06:55:22.000Z</time>
      </trkpt>
      <trkpt lat="49.24198" lon="1.67868">
        <ele>146</ele>
        <time>2014-09-28T06:55:24.000Z</time>
      </trkpt>
      <trkpt lat="49.24191" lon="1.67863">
        <ele>146</ele>
        <time>2014-09-28T06:55:28.000Z</time>
      </trkpt>
      <trkpt lat="49.24183" lon="1.6786">
        <ele>147</ele>
        <time>2014-09-28T06:55:32.000Z</time>
      </trkpt>
      <trkpt lat="49.24183" lon="1.6786">
        <ele>147</ele>
        <time>2014-09-28T06:55:34.000Z</time>
      </trkpt>
      <trkpt lat="49.24176" lon="1.67856">
        <ele>148</ele>
        <time>2014-09-28T06:55:36.000Z</time>
      </trkpt>
      <trkpt lat="49.24168" lon="1.67852">
        <ele>148</ele>
        <time>2014-09-28T06:55:40.000Z</time>
      </trkpt>
      <trkpt lat="49.24161" lon="1.67846">
        <ele>148</ele>
        <time>2014-09-28T06:55:44.000Z</time>
      </trkpt>
      <trkpt lat="49.24157" lon="1.67844">
        <ele>148</ele>
        <time>2014-09-28T06:55:48.000Z</time>
      </trkpt>
      <trkpt lat="49.24153" lon="1.67842">
        <ele>149</ele>
        <time>2014-09-28T06:55:50.000Z</time>
      </trkpt>
      <trkpt lat="49.24148" lon="1.67841">
        <ele>149</ele>
        <time>2014-09-28T06:55:52.000Z</time>
      </trkpt>
      <trkpt lat="49.24144" lon="1.67841">
        <ele>150</ele>
        <time>2014-09-28T06:55:54.000Z</time>
      </trkpt>
      <trkpt lat="49.24139" lon="1.6784">
        <ele>150</ele>
        <time>2014-09-28T06:55:56.000Z</time>
      </trkpt>
      <trkpt lat="49.24131" lon="1.67838">
        <ele>151</ele>
        <time>2014-09-28T06:55:58.000Z</time>
      </trkpt>
      <trkpt lat="49.24131" lon="1.67838">
        <ele>151</ele>
        <time>2014-09-28T06:56:00.000Z</time>
      </trkpt>
      <trkpt lat="49.24121" lon="1.67837">
        <ele>151</ele>
        <time>2014-09-28T06:56:02.000Z</time>
      </trkpt>
      <trkpt lat="49.24111" lon="1.67836">
        <ele>152</ele>
        <time>2014-09-28T06:56:06.000Z</time>
      </trkpt>
      <trkpt lat="49.24111" lon="1.67836">
        <ele>152</ele>
        <time>2014-09-28T06:56:08.000Z</time>
      </trkpt>
      <trkpt lat="49.24103" lon="1.67834">
        <ele>153</ele>
        <time>2014-09-28T06:56:10.000Z</time>
      </trkpt>
      <trkpt lat="49.24103" lon="1.67834">
        <ele>153</ele>
        <time>2014-09-28T06:56:12.000Z</time>
      </trkpt>
      <trkpt lat="49.24094" lon="1.6783">
        <ele>154</ele>
        <time>2014-09-28T06:56:14.000Z</time>
      </trkpt>
      <trkpt lat="49.24085" lon="1.67826">
        <ele>156</ele>
        <time>2014-09-28T06:56:18.000Z</time>
      </trkpt>
      <trkpt lat="49.24085" lon="1.67826">
        <ele>156</ele>
        <time>2014-09-28T06:56:20.000Z</time>
      </trkpt>
      <trkpt lat="49.24077" lon="1.67822">
        <ele>157</ele>
        <time>2014-09-28T06:56:22.000Z</time>
      </trkpt>
      <trkpt lat="49.24077" lon="1.67822">
        <ele>157</ele>
        <time>2014-09-28T06:56:24.000Z</time>
      </trkpt>
      <trkpt lat="49.24071" lon="1.67818">
        <ele>158</ele>
        <time>2014-09-28T06:56:26.000Z</time>
      </trkpt>
      <trkpt lat="49.24071" lon="1.67818">
        <ele>158</ele>
        <time>2014-09-28T06:56:28.000Z</time>
      </trkpt>
      <trkpt lat="49.24063" lon="1.67815">
        <ele>159</ele>
        <time>2014-09-28T06:56:30.000Z</time>
      </trkpt>
      <trkpt lat="49.24055" lon="1.67812">
        <ele>159</ele>
        <time>2014-09-28T06:56:34.000Z</time>
      </trkpt>
      <trkpt lat="49.24047" lon="1.67807">
        <ele>161</ele>
        <time>2014-09-28T06:56:39.000Z</time>
      </trkpt>
      <trkpt lat="49.24047" lon="1.67807">
        <ele>161</ele>
        <time>2014-09-28T06:56:42.000Z</time>
      </trkpt>
      <trkpt lat="49.2404" lon="1.67804">
        <ele>161</ele>
        <time>2014-09-28T06:56:44.000Z</time>
      </trkpt>
      <trkpt lat="49.2404" lon="1.67804">
        <ele>161</ele>
        <time>2014-09-28T06:56:46.000Z</time>
      </trkpt>
      <trkpt lat="49.24033" lon="1.678">
        <ele>163</ele>
        <time>2014-09-28T06:56:48.000Z</time>
      </trkpt>
      <trkpt lat="49.24026" lon="1.67798">
        <ele>164</ele>
        <time>2014-09-28T06:56:52.000Z</time>
      </trkpt>
      <trkpt lat="49.24018" lon="1.67795">
        <ele>165</ele>
        <time>2014-09-28T06:56:55.000Z</time>
      </trkpt>
      <trkpt lat="49.2401" lon="1.67789">
        <ele>165</ele>
        <time>2014-09-28T06:56:59.000Z</time>
      </trkpt>
      <trkpt lat="49.24" lon="1.67784">
        <ele>166</ele>
        <time>2014-09-28T06:57:03.000Z</time>
      </trkpt>
      <trkpt lat="49.23994" lon="1.67783">
        <ele>165</ele>
        <time>2014-09-28T06:57:05.000Z</time>
      </trkpt>
      <trkpt lat="49.23983" lon="1.67776">
        <ele>164</ele>
        <time>2014-09-28T06:57:09.000Z</time>
      </trkpt>
      <trkpt lat="49.23983" lon="1.67776">
        <ele>164</ele>
        <time>2014-09-28T06:57:11.000Z</time>
      </trkpt>
      <trkpt lat="49.23973" lon="1.67768">
        <ele>166</ele>
        <time>2014-09-28T06:57:13.000Z</time>
      </trkpt>
      <trkpt lat="49.23972" lon="1.67759">
        <ele>164</ele>
        <time>2014-09-28T06:57:15.000Z</time>
      </trkpt>
      <trkpt lat="49.23973" lon="1.67747">
        <ele>163</ele>
        <time>2014-09-28T06:57:17.000Z</time>
      </trkpt>
      <trkpt lat="49.23973" lon="1.67737">
        <ele>162</ele>
        <time>2014-09-28T06:57:19.000Z</time>
      </trkpt>
      <trkpt lat="49.23976" lon="1.67726">
        <ele>162</ele>
        <time>2014-09-28T06:57:21.000Z</time>
      </trkpt>
      <trkpt lat="49.23978" lon="1.67716">
        <ele>161</ele>
        <time>2014-09-28T06:57:23.000Z</time>
      </trkpt>
      <trkpt lat="49.23981" lon="1.67705">
        <ele>161</ele>
        <time>2014-09-28T06:57:25.000Z</time>
      </trkpt>
      <trkpt lat="49.23984" lon="1.67693">
        <ele>160</ele>
        <time>2014-09-28T06:57:27.000Z</time>
      </trkpt>
      <trkpt lat="49.23987" lon="1.67682">
        <ele>159</ele>
        <time>2014-09-28T06:57:29.000Z</time>
      </trkpt>
      <trkpt lat="49.2399" lon="1.67672">
        <ele>159</ele>
        <time>2014-09-28T06:57:31.000Z</time>
      </trkpt>
      <trkpt lat="49.23993" lon="1.67661">
        <ele>159</ele>
        <time>2014-09-28T06:57:33.000Z</time>
      </trkpt>
      <trkpt lat="49.23995" lon="1.67651">
        <ele>159</ele>
        <time>2014-09-28T06:57:35.000Z</time>
      </trkpt>
      <trkpt lat="49.23998" lon="1.67641">
        <ele>158</ele>
        <time>2014-09-28T06:57:37.000Z</time>
      </trkpt>
      <trkpt lat="49.24001" lon="1.6763">
        <ele>158</ele>
        <time>2014-09-28T06:57:39.000Z</time>
      </trkpt>
      <trkpt lat="49.24004" lon="1.67618">
        <ele>158</ele>
        <time>2014-09-28T06:57:41.000Z</time>
      </trkpt>
      <trkpt lat="49.24006" lon="1.67605">
        <ele>158</ele>
        <time>2014-09-28T06:57:43.000Z</time>
      </trkpt>
      <trkpt lat="49.24009" lon="1.67593">
        <ele>158</ele>
        <time>2014-09-28T06:57:45.000Z</time>
      </trkpt>
      <trkpt lat="49.24011" lon="1.67581">
        <ele>158</ele>
        <time>2014-09-28T06:57:47.000Z</time>
      </trkpt>
      <trkpt lat="49.24014" lon="1.67569">
        <ele>158</ele>
        <time>2014-09-28T06:57:49.000Z</time>
      </trkpt>
      <trkpt lat="49.24015" lon="1.67557">
        <ele>159</ele>
        <time>2014-09-28T06:57:51.000Z</time>
      </trkpt>
      <trkpt lat="49.24015" lon="1.67546">
        <ele>160</ele>
        <time>2014-09-28T06:57:53.000Z</time>
      </trkpt>
      <trkpt lat="49.24017" lon="1.67535">
        <ele>160</ele>
        <time>2014-09-28T06:57:55.000Z</time>
      </trkpt>
      <trkpt lat="49.24019" lon="1.67523">
        <ele>160</ele>
        <time>2014-09-28T06:57:57.000Z</time>
      </trkpt>
      <trkpt lat="49.24022" lon="1.67512">
        <ele>160</ele>
        <time>2014-09-28T06:57:59.000Z</time>
      </trkpt>
      <trkpt lat="49.24025" lon="1.67501">
        <ele>160</ele>
        <time>2014-09-28T06:58:01.000Z</time>
      </trkpt>
      <trkpt lat="49.24027" lon="1.6749">
        <ele>161</ele>
        <time>2014-09-28T06:58:03.000Z</time>
      </trkpt>
      <trkpt lat="49.2403" lon="1.67478">
        <ele>161</ele>
        <time>2014-09-28T06:58:05.000Z</time>
      </trkpt>
      <trkpt lat="49.24032" lon="1.67468">
        <ele>161</ele>
        <time>2014-09-28T06:58:07.000Z</time>
      </trkpt>
      <trkpt lat="49.24035" lon="1.67457">
        <ele>161</ele>
        <time>2014-09-28T06:58:09.000Z</time>
      </trkpt>
      <trkpt lat="49.24036" lon="1.67446">
        <ele>161</ele>
        <time>2014-09-28T06:58:11.000Z</time>
      </trkpt>
      <trkpt lat="49.24039" lon="1.67434">
        <ele>161</ele>
        <time>2014-09-28T06:58:13.000Z</time>
      </trkpt>
      <trkpt lat="49.24041" lon="1.67422">
        <ele>161</ele>
        <time>2014-09-28T06:58:15.000Z</time>
      </trkpt>
      <trkpt lat="49.24044" lon="1.67411">
        <ele>161</ele>
        <time>2014-09-28T06:58:17.000Z</time>
      </trkpt>
      <trkpt lat="49.24047" lon="1.67399">
        <ele>161</ele>
        <time>2014-09-28T06:58:19.000Z</time>
      </trkpt>
      <trkpt lat="49.2405" lon="1.67388">
        <ele>161</ele>
        <time>2014-09-28T06:58:21.000Z</time>
      </trkpt>
      <trkpt lat="49.24053" lon="1.67376">
        <ele>161</ele>
        <time>2014-09-28T06:58:23.000Z</time>
      </trkpt>
      <trkpt lat="49.24055" lon="1.67365">
        <ele>161</ele>
        <time>2014-09-28T06:58:25.000Z</time>
      </trkpt>
      <trkpt lat="49.24058" lon="1.67353">
        <ele>161</ele>
        <time>2014-09-28T06:58:27.000Z</time>
      </trkpt>
      <trkpt lat="49.24061" lon="1.67341">
        <ele>162</ele>
        <time>2014-09-28T06:58:29.000Z</time>
      </trkpt>
      <trkpt lat="49.24063" lon="1.6733">
        <ele>162</ele>
        <time>2014-09-28T06:58:31.000Z</time>
      </trkpt>
      <trkpt lat="49.24064" lon="1.67318">
        <ele>162</ele>
        <time>2014-09-28T06:58:33.000Z</time>
      </trkpt>
      <trkpt lat="49.24064" lon="1.67308">
        <ele>162</ele>
        <time>2014-09-28T06:58:35.000Z</time>
      </trkpt>
      <trkpt lat="49.24062" lon="1.67298">
        <ele>162</ele>
        <time>2014-09-28T06:58:37.000Z</time>
      </trkpt>
      <trkpt lat="49.2406" lon="1.67288">
        <ele>162</ele>
        <time>2014-09-28T06:58:39.000Z</time>
      </trkpt>
      <trkpt lat="49.24057" lon="1.67278">
        <ele>162</ele>
        <time>2014-09-28T06:58:41.000Z</time>
      </trkpt>
      <trkpt lat="49.24055" lon="1.67267">
        <ele>162</ele>
        <time>2014-09-28T06:58:43.000Z</time>
      </trkpt>
      <trkpt lat="49.24053" lon="1.67257">
        <ele>162</ele>
        <time>2014-09-28T06:58:45.000Z</time>
      </trkpt>
      <trkpt lat="49.24051" lon="1.67247">
        <ele>163</ele>
        <time>2014-09-28T06:58:47.000Z</time>
      </trkpt>
      <trkpt lat="49.24049" lon="1.67236">
        <ele>162</ele>
        <time>2014-09-28T06:58:49.000Z</time>
      </trkpt>
      <trkpt lat="49.24048" lon="1.67225">
        <ele>162</ele>
        <time>2014-09-28T06:58:51.000Z</time>
      </trkpt>
      <trkpt lat="49.24046" lon="1.67215">
        <ele>163</ele>
        <time>2014-09-28T06:58:53.000Z</time>
      </trkpt>
      <trkpt lat="49.24045" lon="1.67206">
        <ele>163</ele>
        <time>2014-09-28T06:58:54.000Z</time>
      </trkpt>
      <trkpt lat="49.24043" lon="1.67196">
        <ele>163</ele>
        <time>2014-09-28T06:58:57.000Z</time>
      </trkpt>
      <trkpt lat="49.24043" lon="1.67196">
        <ele>163</ele>
        <time>2014-09-28T06:58:59.000Z</time>
      </trkpt>
      <trkpt lat="49.24041" lon="1.67179">
        <ele>163</ele>
        <time>2014-09-28T06:59:01.000Z</time>
      </trkpt>
      <trkpt lat="49.24039" lon="1.6717">
        <ele>164</ele>
        <time>2014-09-28T06:59:02.000Z</time>
      </trkpt>
      <trkpt lat="49.24038" lon="1.67161">
        <ele>164</ele>
        <time>2014-09-28T06:59:05.000Z</time>
      </trkpt>
      <trkpt lat="49.24036" lon="1.67152">
        <ele>164</ele>
        <time>2014-09-28T06:59:07.000Z</time>
      </trkpt>
      <trkpt lat="49.24035" lon="1.67143">
        <ele>164</ele>
        <time>2014-09-28T06:59:08.000Z</time>
      </trkpt>
      <trkpt lat="49.24033" lon="1.67134">
        <ele>165</ele>
        <time>2014-09-28T06:59:10.000Z</time>
      </trkpt>
      <trkpt lat="49.24031" lon="1.67124">
        <ele>165</ele>
        <time>2014-09-28T06:59:13.000Z</time>
      </trkpt>
      <trkpt lat="49.2403" lon="1.67115">
        <ele>165</ele>
        <time>2014-09-28T06:59:15.000Z</time>
      </trkpt>
      <trkpt lat="49.24028" lon="1.67107">
        <ele>166</ele>
        <time>2014-09-28T06:59:16.000Z</time>
      </trkpt>
      <trkpt lat="49.24028" lon="1.67107">
        <ele>166</ele>
        <time>2014-09-28T06:59:19.000Z</time>
      </trkpt>
      <trkpt lat="49.24025" lon="1.6709">
        <ele>167</ele>
        <time>2014-09-28T06:59:21.000Z</time>
      </trkpt>
      <trkpt lat="49.24023" lon="1.67081">
        <ele>167</ele>
        <time>2014-09-28T06:59:22.000Z</time>
      </trkpt>
      <trkpt lat="49.24022" lon="1.67072">
        <ele>167</ele>
        <time>2014-09-28T06:59:25.000Z</time>
      </trkpt>
      <trkpt lat="49.24021" lon="1.67064">
        <ele>167</ele>
        <time>2014-09-28T06:59:27.000Z</time>
      </trkpt>
      <trkpt lat="49.24021" lon="1.67064">
        <ele>167</ele>
        <time>2014-09-28T06:59:29.000Z</time>
      </trkpt>
      <trkpt lat="49.24018" lon="1.67047">
        <ele>168</ele>
        <time>2014-09-28T06:59:31.000Z</time>
      </trkpt>
      <trkpt lat="49.24016" lon="1.67038">
        <ele>168</ele>
        <time>2014-09-28T06:59:33.000Z</time>
      </trkpt>
      <trkpt lat="49.24015" lon="1.67029">
        <ele>168</ele>
        <time>2014-09-28T06:59:35.000Z</time>
      </trkpt>
      <trkpt lat="49.24014" lon="1.67021">
        <ele>168</ele>
        <time>2014-09-28T06:59:37.000Z</time>
      </trkpt>
      <trkpt lat="49.24012" lon="1.67012">
        <ele>169</ele>
        <time>2014-09-28T06:59:39.000Z</time>
      </trkpt>
      <trkpt lat="49.2401" lon="1.67003">
        <ele>169</ele>
        <time>2014-09-28T06:59:40.000Z</time>
      </trkpt>
      <trkpt lat="49.2401" lon="1.67003">
        <ele>169</ele>
        <time>2014-09-28T06:59:43.000Z</time>
      </trkpt>
      <trkpt lat="49.24007" lon="1.66987">
        <ele>170</ele>
        <time>2014-09-28T06:59:45.000Z</time>
      </trkpt>
      <trkpt lat="49.24005" lon="1.66978">
        <ele>170</ele>
        <time>2014-09-28T06:59:46.000Z</time>
      </trkpt>
      <trkpt lat="49.24003" lon="1.66969">
        <ele>170</ele>
        <time>2014-09-28T06:59:49.000Z</time>
      </trkpt>
      <trkpt lat="49.24002" lon="1.66961">
        <ele>170</ele>
        <time>2014-09-28T06:59:50.000Z</time>
      </trkpt>
      <trkpt lat="49.24002" lon="1.66961">
        <ele>170</ele>
        <time>2014-09-28T06:59:53.000Z</time>
      </trkpt>
      <trkpt lat="49.23998" lon="1.66945">
        <ele>171</ele>
        <time>2014-09-28T06:59:55.000Z</time>
      </trkpt>
      <trkpt lat="49.23998" lon="1.66945">
        <ele>171</ele>
        <time>2014-09-28T06:59:57.000Z</time>
      </trkpt>
      <trkpt lat="49.23995" lon="1.66929">
        <ele>171</ele>
        <time>2014-09-28T06:59:59.000Z</time>
      </trkpt>
      <trkpt lat="49.23995" lon="1.66929">
        <ele>171</ele>
        <time>2014-09-28T07:00:01.000Z</time>
      </trkpt>
      <trkpt lat="49.23992" lon="1.66914">
        <ele>171</ele>
        <time>2014-09-28T07:00:02.000Z</time>
      </trkpt>
      <trkpt lat="49.23989" lon="1.66898">
        <ele>171</ele>
        <time>2014-09-28T07:00:07.000Z</time>
      </trkpt>
      <trkpt lat="49.23989" lon="1.66898">
        <ele>171</ele>
        <time>2014-09-28T07:00:08.000Z</time>
      </trkpt>
      <trkpt lat="49.23987" lon="1.66883">
        <ele>171</ele>
        <time>2014-09-28T07:00:11.000Z</time>
      </trkpt>
      <trkpt lat="49.23987" lon="1.66883">
        <ele>171</ele>
        <time>2014-09-28T07:00:13.000Z</time>
      </trkpt>
      <trkpt lat="49.23985" lon="1.66869">
        <ele>172</ele>
        <time>2014-09-28T07:00:15.000Z</time>
      </trkpt>
      <trkpt lat="49.23985" lon="1.66869">
        <ele>172</ele>
        <time>2014-09-28T07:00:16.000Z</time>
      </trkpt>
      <trkpt lat="49.2398" lon="1.66855">
        <ele>172</ele>
        <time>2014-09-28T07:00:19.000Z</time>
      </trkpt>
      <trkpt lat="49.2398" lon="1.66855">
        <ele>172</ele>
        <time>2014-09-28T07:00:21.000Z</time>
      </trkpt>
      <trkpt lat="49.23978" lon="1.66849">
        <ele>172</ele>
        <time>2014-09-28T07:00:23.000Z</time>
      </trkpt>
      <trkpt lat="49.23975" lon="1.66843">
        <ele>173</ele>
        <time>2014-09-28T07:00:25.000Z</time>
      </trkpt>
      <trkpt lat="49.23972" lon="1.66836">
        <ele>173</ele>
        <time>2014-09-28T07:00:27.000Z</time>
      </trkpt>
      <trkpt lat="49.23969" lon="1.66828">
        <ele>173</ele>
        <time>2014-09-28T07:00:29.000Z</time>
      </trkpt>
      <trkpt lat="49.23966" lon="1.6682">
        <ele>174</ele>
        <time>2014-09-28T07:00:31.000Z</time>
      </trkpt>
      <trkpt lat="49.23962" lon="1.66803">
        <ele>174</ele>
        <time>2014-09-28T07:00:32.000Z</time>
      </trkpt>
      <trkpt lat="49.23962" lon="1.66803">
        <ele>174</ele>
        <time>2014-09-28T07:00:34.000Z</time>
      </trkpt>
      <trkpt lat="49.23959" lon="1.66787">
        <ele>174</ele>
        <time>2014-09-28T07:00:37.000Z</time>
      </trkpt>
      <trkpt lat="49.23959" lon="1.66787">
        <ele>174</ele>
        <time>2014-09-28T07:00:39.000Z</time>
      </trkpt>
      <trkpt lat="49.23959" lon="1.66769">
        <ele>174</ele>
        <time>2014-09-28T07:00:40.000Z</time>
      </trkpt>
      <trkpt lat="49.2396" lon="1.6676">
        <ele>174</ele>
        <time>2014-09-28T07:00:43.000Z</time>
      </trkpt>
      <trkpt lat="49.23959" lon="1.66743">
        <ele>175</ele>
        <time>2014-09-28T07:00:46.000Z</time>
      </trkpt>
      <trkpt lat="49.23959" lon="1.66743">
        <ele>175</ele>
        <time>2014-09-28T07:00:48.000Z</time>
      </trkpt>
      <trkpt lat="49.2396" lon="1.66731">
        <ele>176</ele>
        <time>2014-09-28T07:00:51.000Z</time>
      </trkpt>
      <trkpt lat="49.2396" lon="1.66731">
        <ele>176</ele>
        <time>2014-09-28T07:00:52.000Z</time>
      </trkpt>
      <trkpt lat="49.23958" lon="1.6672">
        <ele>176</ele>
        <time>2014-09-28T07:00:55.000Z</time>
      </trkpt>
      <trkpt lat="49.23958" lon="1.6672">
        <ele>176</ele>
        <time>2014-09-28T07:00:57.000Z</time>
      </trkpt>
      <trkpt lat="49.23954" lon="1.6671">
        <ele>177</ele>
        <time>2014-09-28T07:00:59.000Z</time>
      </trkpt>
      <trkpt lat="49.23954" lon="1.6671">
        <ele>177</ele>
        <time>2014-09-28T07:01:01.000Z</time>
      </trkpt>
      <trkpt lat="49.2395" lon="1.66699">
        <ele>177</ele>
        <time>2014-09-28T07:01:03.000Z</time>
      </trkpt>
      <trkpt lat="49.23947" lon="1.66686">
        <ele>178</ele>
        <time>2014-09-28T07:01:07.000Z</time>
      </trkpt>
      <trkpt lat="49.23944" lon="1.66678">
        <ele>178</ele>
        <time>2014-09-28T07:01:09.000Z</time>
      </trkpt>
      <trkpt lat="49.23942" lon="1.66669">
        <ele>179</ele>
        <time>2014-09-28T07:01:11.000Z</time>
      </trkpt>
      <trkpt lat="49.23939" lon="1.66656">
        <ele>178</ele>
        <time>2014-09-28T07:01:13.000Z</time>
      </trkpt>
      <trkpt lat="49.23938" lon="1.66643">
        <ele>178</ele>
        <time>2014-09-28T07:01:15.000Z</time>
      </trkpt>
      <trkpt lat="49.23936" lon="1.66634">
        <ele>178</ele>
        <time>2014-09-28T07:01:16.000Z</time>
      </trkpt>
      <trkpt lat="49.23935" lon="1.66624">
        <ele>178</ele>
        <time>2014-09-28T07:01:19.000Z</time>
      </trkpt>
      <trkpt lat="49.23934" lon="1.66615">
        <ele>178</ele>
        <time>2014-09-28T07:01:20.000Z</time>
      </trkpt>
      <trkpt lat="49.23932" lon="1.66607">
        <ele>179</ele>
        <time>2014-09-28T07:01:22.000Z</time>
      </trkpt>
      <trkpt lat="49.23932" lon="1.66607">
        <ele>179</ele>
        <time>2014-09-28T07:01:25.000Z</time>
      </trkpt>
      <trkpt lat="49.23929" lon="1.66591">
        <ele>179</ele>
        <time>2014-09-28T07:01:26.000Z</time>
      </trkpt>
      <trkpt lat="49.23927" lon="1.66583">
        <ele>180</ele>
        <time>2014-09-28T07:01:29.000Z</time>
      </trkpt>
      <trkpt lat="49.23927" lon="1.66583">
        <ele>180</ele>
        <time>2014-09-28T07:01:31.000Z</time>
      </trkpt>
      <trkpt lat="49.23921" lon="1.66566">
        <ele>181</ele>
        <time>2014-09-28T07:01:32.000Z</time>
      </trkpt>
      <trkpt lat="49.23919" lon="1.66558">
        <ele>181</ele>
        <time>2014-09-28T07:01:34.000Z</time>
      </trkpt>
      <trkpt lat="49.23919" lon="1.66558">
        <ele>181</ele>
        <time>2014-09-28T07:01:36.000Z</time>
      </trkpt>
      <trkpt lat="49.23918" lon="1.66542">
        <ele>181</ele>
        <time>2014-09-28T07:01:38.000Z</time>
      </trkpt>
      <trkpt lat="49.23918" lon="1.66542">
        <ele>181</ele>
        <time>2014-09-28T07:01:41.000Z</time>
      </trkpt>
      <trkpt lat="49.23915" lon="1.6653">
        <ele>181</ele>
        <time>2014-09-28T07:01:43.000Z</time>
      </trkpt>
      <trkpt lat="49.23912" lon="1.66521">
        <ele>182</ele>
        <time>2014-09-28T07:01:45.000Z</time>
      </trkpt>
      <trkpt lat="49.23909" lon="1.66511">
        <ele>181</ele>
        <time>2014-09-28T07:01:47.000Z</time>
      </trkpt>
      <trkpt lat="49.23907" lon="1.66501">
        <ele>181</ele>
        <time>2014-09-28T07:01:49.000Z</time>
      </trkpt>
      <trkpt lat="49.23903" lon="1.66487">
        <ele>182</ele>
        <time>2014-09-28T07:01:52.000Z</time>
      </trkpt>
      <trkpt lat="49.23903" lon="1.66487">
        <ele>182</ele>
        <time>2014-09-28T07:01:55.000Z</time>
      </trkpt>
      <trkpt lat="49.23901" lon="1.66471">
        <ele>182</ele>
        <time>2014-09-28T07:01:57.000Z</time>
      </trkpt>
      <trkpt lat="49.23897" lon="1.66464">
        <ele>183</ele>
        <time>2014-09-28T07:01:59.000Z</time>
      </trkpt>
      <trkpt lat="49.23895" lon="1.66455">
        <ele>184</ele>
        <time>2014-09-28T07:02:01.000Z</time>
      </trkpt>
      <trkpt lat="49.23894" lon="1.66445">
        <ele>185</ele>
        <time>2014-09-28T07:02:03.000Z</time>
      </trkpt>
      <trkpt lat="49.23894" lon="1.6643">
        <ele>183</ele>
        <time>2014-09-28T07:02:04.000Z</time>
      </trkpt>
      <trkpt lat="49.23893" lon="1.66415">
        <ele>182</ele>
        <time>2014-09-28T07:02:07.000Z</time>
      </trkpt>
      <trkpt lat="49.23894" lon="1.66402">
        <ele>181</ele>
        <time>2014-09-28T07:02:09.000Z</time>
      </trkpt>
      <trkpt lat="49.23895" lon="1.66391">
        <ele>181</ele>
        <time>2014-09-28T07:02:10.000Z</time>
      </trkpt>
      <trkpt lat="49.23896" lon="1.66379">
        <ele>182</ele>
        <time>2014-09-28T07:02:13.000Z</time>
      </trkpt>
      <trkpt lat="49.23897" lon="1.66366">
        <ele>182</ele>
        <time>2014-09-28T07:02:15.000Z</time>
      </trkpt>
      <trkpt lat="49.23897" lon="1.66355">
        <ele>182</ele>
        <time>2014-09-28T07:02:16.000Z</time>
      </trkpt>
      <trkpt lat="49.23897" lon="1.66345">
        <ele>183</ele>
        <time>2014-09-28T07:02:19.000Z</time>
      </trkpt>
      <trkpt lat="49.23897" lon="1.66345">
        <ele>183</ele>
        <time>2014-09-28T07:02:21.000Z</time>
      </trkpt>
      <trkpt lat="49.23895" lon="1.6633">
        <ele>183</ele>
        <time>2014-09-28T07:02:22.000Z</time>
      </trkpt>
      <trkpt lat="49.23895" lon="1.6633">
        <ele>183</ele>
        <time>2014-09-28T07:02:25.000Z</time>
      </trkpt>
      <trkpt lat="49.23895" lon="1.6633">
        <ele>183</ele>
        <time>2014-09-28T07:02:27.000Z</time>
      </trkpt>
      <trkpt lat="49.23895" lon="1.6633">
        <ele>183</ele>
        <time>2014-09-28T07:04:10.000Z</time>
      </trkpt>
      <trkpt lat="49.23895" lon="1.6633">
        <ele>183</ele>
        <time>2014-09-28T07:04:12.000Z</time>
      </trkpt>
      <trkpt lat="49.23895" lon="1.6633">
        <ele>183</ele>
        <time>2014-09-28T07:04:15.000Z</time>
      </trkpt>
      <trkpt lat="49.23892" lon="1.66321">
        <ele>186</ele>
        <time>2014-09-28T07:04:55.000Z</time>
      </trkpt>
      <trkpt lat="49.23891" lon="1.66313">
        <ele>186</ele>
        <time>2014-09-28T07:04:56.000Z</time>
      </trkpt>
      <trkpt lat="49.2389" lon="1.66306">
        <ele>186</ele>
        <time>2014-09-28T07:04:58.000Z</time>
      </trkpt>
      <trkpt lat="49.23887" lon="1.66299">
        <ele>187</ele>
        <time>2014-09-28T07:05:01.000Z</time>
      </trkpt>
      <trkpt lat="49.23883" lon="1.66293">
        <ele>187</ele>
        <time>2014-09-28T07:05:02.000Z</time>
      </trkpt>
      <trkpt lat="49.23874" lon="1.66281">
        <ele>188</ele>
        <time>2014-09-28T07:05:05.000Z</time>
      </trkpt>
      <trkpt lat="49.23869" lon="1.66276">
        <ele>188</ele>
        <time>2014-09-28T07:05:07.000Z</time>
      </trkpt>
      <trkpt lat="49.23863" lon="1.66269">
        <ele>187</ele>
        <time>2014-09-28T07:05:09.000Z</time>
      </trkpt>
      <trkpt lat="49.23859" lon="1.66261">
        <ele>186</ele>
        <time>2014-09-28T07:05:11.000Z</time>
      </trkpt>
      <trkpt lat="49.23859" lon="1.66261">
        <ele>186</ele>
        <time>2014-09-28T07:05:13.000Z</time>
      </trkpt>
      <trkpt lat="49.23854" lon="1.66247">
        <ele>187</ele>
        <time>2014-09-28T07:05:14.000Z</time>
      </trkpt>
      <trkpt lat="49.23854" lon="1.66247">
        <ele>187</ele>
        <time>2014-09-28T07:05:17.000Z</time>
      </trkpt>
      <trkpt lat="49.23846" lon="1.66233">
        <ele>186</ele>
        <time>2014-09-28T07:05:19.000Z</time>
      </trkpt>
      <trkpt lat="49.23841" lon="1.66219">
        <ele>184</ele>
        <time>2014-09-28T07:05:20.000Z</time>
      </trkpt>
      <trkpt lat="49.2384" lon="1.6621">
        <ele>184</ele>
        <time>2014-09-28T07:05:23.000Z</time>
      </trkpt>
      <trkpt lat="49.2384" lon="1.6621">
        <ele>184</ele>
        <time>2014-09-28T07:05:25.000Z</time>
      </trkpt>
      <trkpt lat="49.23835" lon="1.66192">
        <ele>184</ele>
        <time>2014-09-28T07:05:26.000Z</time>
      </trkpt>
      <trkpt lat="49.23832" lon="1.66184">
        <ele>185</ele>
        <time>2014-09-28T07:05:28.000Z</time>
      </trkpt>
      <trkpt lat="49.23832" lon="1.66184">
        <ele>185</ele>
        <time>2014-09-28T07:05:31.000Z</time>
      </trkpt>
      <trkpt lat="49.23827" lon="1.6617">
        <ele>185</ele>
        <time>2014-09-28T07:05:33.000Z</time>
      </trkpt>
      <trkpt lat="49.23824" lon="1.66162">
        <ele>185</ele>
        <time>2014-09-28T07:05:34.000Z</time>
      </trkpt>
      <trkpt lat="49.23813" lon="1.66144">
        <ele>182</ele>
        <time>2014-09-28T07:05:38.000Z</time>
      </trkpt>
      <trkpt lat="49.2381" lon="1.66135">
        <ele>182</ele>
        <time>2014-09-28T07:05:39.000Z</time>
      </trkpt>
      <trkpt lat="49.23806" lon="1.66128">
        <ele>182</ele>
        <time>2014-09-28T07:05:41.000Z</time>
      </trkpt>
      <trkpt lat="49.23801" lon="1.66119">
        <ele>182</ele>
        <time>2014-09-28T07:05:44.000Z</time>
      </trkpt>
      <trkpt lat="49.23796" lon="1.66112">
        <ele>182</ele>
        <time>2014-09-28T07:05:46.000Z</time>
      </trkpt>
      <trkpt lat="49.23789" lon="1.66103">
        <ele>181</ele>
        <time>2014-09-28T07:05:47.000Z</time>
      </trkpt>
      <trkpt lat="49.23783" lon="1.66094">
        <ele>180</ele>
        <time>2014-09-28T07:05:49.000Z</time>
      </trkpt>
      <trkpt lat="49.23779" lon="1.66087">
        <ele>180</ele>
        <time>2014-09-28T07:05:51.000Z</time>
      </trkpt>
      <trkpt lat="49.23774" lon="1.6608">
        <ele>181</ele>
        <time>2014-09-28T07:05:54.000Z</time>
      </trkpt>
      <trkpt lat="49.2377" lon="1.66072">
        <ele>181</ele>
        <time>2014-09-28T07:05:56.000Z</time>
      </trkpt>
      <trkpt lat="49.23766" lon="1.66062">
        <ele>181</ele>
        <time>2014-09-28T07:05:58.000Z</time>
      </trkpt>
      <trkpt lat="49.23761" lon="1.66054">
        <ele>181</ele>
        <time>2014-09-28T07:05:59.000Z</time>
      </trkpt>
      <trkpt lat="49.23758" lon="1.66045">
        <ele>181</ele>
        <time>2014-09-28T07:06:02.000Z</time>
      </trkpt>
      <trkpt lat="49.23753" lon="1.66036">
        <ele>181</ele>
        <time>2014-09-28T07:06:04.000Z</time>
      </trkpt>
      <trkpt lat="49.23749" lon="1.66028">
        <ele>182</ele>
        <time>2014-09-28T07:06:05.000Z</time>
      </trkpt>
      <trkpt lat="49.23745" lon="1.66019">
        <ele>182</ele>
        <time>2014-09-28T07:06:08.000Z</time>
      </trkpt>
      <trkpt lat="49.23742" lon="1.66011">
        <ele>182</ele>
        <time>2014-09-28T07:06:10.000Z</time>
      </trkpt>
      <trkpt lat="49.23739" lon="1.66002">
        <ele>182</ele>
        <time>2014-09-28T07:06:11.000Z</time>
      </trkpt>
      <trkpt lat="49.23739" lon="1.66002">
        <ele>182</ele>
        <time>2014-09-28T07:06:14.000Z</time>
      </trkpt>
      <trkpt lat="49.23734" lon="1.65986">
        <ele>183</ele>
        <time>2014-09-28T07:06:16.000Z</time>
      </trkpt>
      <trkpt lat="49.2373" lon="1.65978">
        <ele>183</ele>
        <time>2014-09-28T07:06:17.000Z</time>
      </trkpt>
      <trkpt lat="49.23726" lon="1.6597">
        <ele>182</ele>
        <time>2014-09-28T07:06:19.000Z</time>
      </trkpt>
      <trkpt lat="49.23722" lon="1.65962">
        <ele>182</ele>
        <time>2014-09-28T07:06:21.000Z</time>
      </trkpt>
      <trkpt lat="49.23722" lon="1.65962">
        <ele>182</ele>
        <time>2014-09-28T07:06:24.000Z</time>
      </trkpt>
      <trkpt lat="49.23717" lon="1.65948">
        <ele>181</ele>
        <time>2014-09-28T07:06:26.000Z</time>
      </trkpt>
      <trkpt lat="49.23714" lon="1.65939">
        <ele>180</ele>
        <time>2014-09-28T07:06:27.000Z</time>
      </trkpt>
      <trkpt lat="49.23714" lon="1.65939">
        <ele>180</ele>
        <time>2014-09-28T07:06:30.000Z</time>
      </trkpt>
      <trkpt lat="49.23715" lon="1.65925">
        <ele>178</ele>
        <time>2014-09-28T07:06:32.000Z</time>
      </trkpt>
      <trkpt lat="49.23715" lon="1.65925">
        <ele>178</ele>
        <time>2014-09-28T07:06:33.000Z</time>
      </trkpt>
      <trkpt lat="49.23724" lon="1.65914">
        <ele>178</ele>
        <time>2014-09-28T07:06:36.000Z</time>
      </trkpt>
      <trkpt lat="49.23733" lon="1.65911">
        <ele>178</ele>
        <time>2014-09-28T07:06:39.000Z</time>
      </trkpt>
      <trkpt lat="49.23739" lon="1.65908">
        <ele>178</ele>
        <time>2014-09-28T07:06:41.000Z</time>
      </trkpt>
      <trkpt lat="49.23745" lon="1.65905">
        <ele>177</ele>
        <time>2014-09-28T07:06:44.000Z</time>
      </trkpt>
      <trkpt lat="49.23752" lon="1.65903">
        <ele>177</ele>
        <time>2014-09-28T07:06:45.000Z</time>
      </trkpt>
      <trkpt lat="49.23761" lon="1.65901">
        <ele>176</ele>
        <time>2014-09-28T07:06:47.000Z</time>
      </trkpt>
      <trkpt lat="49.2377" lon="1.65898">
        <ele>176</ele>
        <time>2014-09-28T07:06:50.000Z</time>
      </trkpt>
      <trkpt lat="49.23779" lon="1.65892">
        <ele>175</ele>
        <time>2014-09-28T07:06:51.000Z</time>
      </trkpt>
      <trkpt lat="49.23787" lon="1.65883">
        <ele>175</ele>
        <time>2014-09-28T07:06:54.000Z</time>
      </trkpt>
      <trkpt lat="49.23796" lon="1.65873">
        <ele>174</ele>
        <time>2014-09-28T07:06:56.000Z</time>
      </trkpt>
      <trkpt lat="49.23804" lon="1.65862">
        <ele>173</ele>
        <time>2014-09-28T07:06:57.000Z</time>
      </trkpt>
      <trkpt lat="49.23811" lon="1.65851">
        <ele>173</ele>
        <time>2014-09-28T07:07:00.000Z</time>
      </trkpt>
      <trkpt lat="49.23819" lon="1.6584">
        <ele>172</ele>
        <time>2014-09-28T07:07:02.000Z</time>
      </trkpt>
      <trkpt lat="49.23825" lon="1.6583">
        <ele>172</ele>
        <time>2014-09-28T07:07:03.000Z</time>
      </trkpt>
      <trkpt lat="49.23831" lon="1.65821">
        <ele>171</ele>
        <time>2014-09-28T07:07:05.000Z</time>
      </trkpt>
      <trkpt lat="49.23835" lon="1.65814">
        <ele>171</ele>
        <time>2014-09-28T07:07:08.000Z</time>
      </trkpt>
      <trkpt lat="49.2384" lon="1.6581">
        <ele>170</ele>
        <time>2014-09-28T07:07:09.000Z</time>
      </trkpt>
      <trkpt lat="49.2384" lon="1.6581">
        <ele>170</ele>
        <time>2014-09-28T07:07:11.000Z</time>
      </trkpt>
      <trkpt lat="49.23849" lon="1.65815">
        <ele>169</ele>
        <time>2014-09-28T07:07:14.000Z</time>
      </trkpt>
      <trkpt lat="49.23854" lon="1.65821">
        <ele>169</ele>
        <time>2014-09-28T07:07:16.000Z</time>
      </trkpt>
      <trkpt lat="49.23859" lon="1.65828">
        <ele>169</ele>
        <time>2014-09-28T07:07:17.000Z</time>
      </trkpt>
      <trkpt lat="49.23863" lon="1.65835">
        <ele>169</ele>
        <time>2014-09-28T07:07:19.000Z</time>
      </trkpt>
      <trkpt lat="49.23867" lon="1.65842">
        <ele>169</ele>
        <time>2014-09-28T07:07:22.000Z</time>
      </trkpt>
      <trkpt lat="49.23867" lon="1.65842">
        <ele>169</ele>
        <time>2014-09-28T07:07:23.000Z</time>
      </trkpt>
      <trkpt lat="49.23874" lon="1.65855">
        <ele>169</ele>
        <time>2014-09-28T07:07:25.000Z</time>
      </trkpt>
      <trkpt lat="49.23878" lon="1.65861">
        <ele>169</ele>
        <time>2014-09-28T07:07:28.000Z</time>
      </trkpt>
      <trkpt lat="49.23883" lon="1.65869">
        <ele>169</ele>
        <time>2014-09-28T07:07:30.000Z</time>
      </trkpt>
      <trkpt lat="49.23887" lon="1.65877">
        <ele>168</ele>
        <time>2014-09-28T07:07:32.000Z</time>
      </trkpt>
      <trkpt lat="49.23892" lon="1.65886">
        <ele>168</ele>
        <time>2014-09-28T07:07:34.000Z</time>
      </trkpt>
      <trkpt lat="49.23896" lon="1.65895">
        <ele>167</ele>
        <time>2014-09-28T07:07:36.000Z</time>
      </trkpt>
      <trkpt lat="49.239" lon="1.65903">
        <ele>167</ele>
        <time>2014-09-28T07:07:37.000Z</time>
      </trkpt>
      <trkpt lat="49.23904" lon="1.6591">
        <ele>167</ele>
        <time>2014-09-28T07:07:40.000Z</time>
      </trkpt>
      <trkpt lat="49.23904" lon="1.6591">
        <ele>167</ele>
        <time>2014-09-28T07:07:42.000Z</time>
      </trkpt>
      <trkpt lat="49.23911" lon="1.65923">
        <ele>167</ele>
        <time>2014-09-28T07:07:43.000Z</time>
      </trkpt>
      <trkpt lat="49.23911" lon="1.65923">
        <ele>167</ele>
        <time>2014-09-28T07:07:45.000Z</time>
      </trkpt>
      <trkpt lat="49.23916" lon="1.65933">
        <ele>166</ele>
        <time>2014-09-28T07:07:47.000Z</time>
      </trkpt>
      <trkpt lat="49.23916" lon="1.65933">
        <ele>166</ele>
        <time>2014-09-28T07:07:50.000Z</time>
      </trkpt>
      <trkpt lat="49.23921" lon="1.65939">
        <ele>165</ele>
        <time>2014-09-28T07:07:52.000Z</time>
      </trkpt>
      <trkpt lat="49.23921" lon="1.65939">
        <ele>165</ele>
        <time>2014-09-28T07:07:53.000Z</time>
      </trkpt>
      <trkpt lat="49.23928" lon="1.65933">
        <ele>164</ele>
        <time>2014-09-28T07:07:56.000Z</time>
      </trkpt>
      <trkpt lat="49.23933" lon="1.65927">
        <ele>164</ele>
        <time>2014-09-28T07:07:57.000Z</time>
      </trkpt>
      <trkpt lat="49.23938" lon="1.65922">
        <ele>163</ele>
        <time>2014-09-28T07:07:59.000Z</time>
      </trkpt>
      <trkpt lat="49.23943" lon="1.65917">
        <ele>163</ele>
        <time>2014-09-28T07:08:01.000Z</time>
      </trkpt>
      <trkpt lat="49.23949" lon="1.65912">
        <ele>162</ele>
        <time>2014-09-28T07:08:03.000Z</time>
      </trkpt>
      <trkpt lat="49.23957" lon="1.65902">
        <ele>162</ele>
        <time>2014-09-28T07:08:07.000Z</time>
      </trkpt>
      <trkpt lat="49.23957" lon="1.65902">
        <ele>162</ele>
        <time>2014-09-28T07:08:09.000Z</time>
      </trkpt>
      <trkpt lat="49.23965" lon="1.65893">
        <ele>162</ele>
        <time>2014-09-28T07:08:12.000Z</time>
      </trkpt>
      <trkpt lat="49.23965" lon="1.65893">
        <ele>162</ele>
        <time>2014-09-28T07:08:13.000Z</time>
      </trkpt>
      <trkpt lat="49.23973" lon="1.65882">
        <ele>162</ele>
        <time>2014-09-28T07:08:16.000Z</time>
      </trkpt>
      <trkpt lat="49.23973" lon="1.65882">
        <ele>162</ele>
        <time>2014-09-28T07:08:18.000Z</time>
      </trkpt>
      <trkpt lat="49.23981" lon="1.65873">
        <ele>161</ele>
        <time>2014-09-28T07:08:20.000Z</time>
      </trkpt>
      <trkpt lat="49.23981" lon="1.65873">
        <ele>161</ele>
        <time>2014-09-28T07:08:22.000Z</time>
      </trkpt>
      <trkpt lat="49.23988" lon="1.65863">
        <ele>160</ele>
        <time>2014-09-28T07:08:23.000Z</time>
      </trkpt>
      <trkpt lat="49.23996" lon="1.65851">
        <ele>160</ele>
        <time>2014-09-28T07:08:27.000Z</time>
      </trkpt>
      <trkpt lat="49.24001" lon="1.65846">
        <ele>159</ele>
        <time>2014-09-28T07:08:30.000Z</time>
      </trkpt>
      <trkpt lat="49.24006" lon="1.6584">
        <ele>159</ele>
        <time>2014-09-28T07:08:31.000Z</time>
      </trkpt>
      <trkpt lat="49.2401" lon="1.65834">
        <ele>158</ele>
        <time>2014-09-28T07:08:34.000Z</time>
      </trkpt>
      <trkpt lat="49.24015" lon="1.65827">
        <ele>158</ele>
        <time>2014-09-28T07:08:36.000Z</time>
      </trkpt>
      <trkpt lat="49.2402" lon="1.65821">
        <ele>158</ele>
        <time>2014-09-28T07:08:37.000Z</time>
      </trkpt>
      <trkpt lat="49.2402" lon="1.65821">
        <ele>158</ele>
        <time>2014-09-28T07:08:39.000Z</time>
      </trkpt>
      <trkpt lat="49.24028" lon="1.65811">
        <ele>156</ele>
        <time>2014-09-28T07:08:42.000Z</time>
      </trkpt>
      <trkpt lat="49.24028" lon="1.65811">
        <ele>156</ele>
        <time>2014-09-28T07:08:43.000Z</time>
      </trkpt>
      <trkpt lat="49.24036" lon="1.65801">
        <ele>155</ele>
        <time>2014-09-28T07:08:45.000Z</time>
      </trkpt>
      <trkpt lat="49.24036" lon="1.65801">
        <ele>155</ele>
        <time>2014-09-28T07:08:48.000Z</time>
      </trkpt>
      <trkpt lat="49.24044" lon="1.65791">
        <ele>155</ele>
        <time>2014-09-28T07:08:50.000Z</time>
      </trkpt>
      <trkpt lat="49.24044" lon="1.65791">
        <ele>155</ele>
        <time>2014-09-28T07:08:51.000Z</time>
      </trkpt>
      <trkpt lat="49.24049" lon="1.65784">
        <ele>154</ele>
        <time>2014-09-28T07:08:54.000Z</time>
      </trkpt>
      <trkpt lat="49.24049" lon="1.65784">
        <ele>154</ele>
        <time>2014-09-28T07:08:55.000Z</time>
      </trkpt>
      <trkpt lat="49.24055" lon="1.65777">
        <ele>154</ele>
        <time>2014-09-28T07:08:58.000Z</time>
      </trkpt>
      <trkpt lat="49.24063" lon="1.65773">
        <ele>154</ele>
        <time>2014-09-28T07:09:01.000Z</time>
      </trkpt>
      <trkpt lat="49.24063" lon="1.65773">
        <ele>154</ele>
        <time>2014-09-28T07:09:03.000Z</time>
      </trkpt>
      <trkpt lat="49.24071" lon="1.65769">
        <ele>151</ele>
        <time>2014-09-28T07:09:06.000Z</time>
      </trkpt>
      <trkpt lat="49.24079" lon="1.65776">
        <ele>150</ele>
        <time>2014-09-28T07:09:09.000Z</time>
      </trkpt>
      <trkpt lat="49.24083" lon="1.65781">
        <ele>150</ele>
        <time>2014-09-28T07:09:14.000Z</time>
      </trkpt>
      <trkpt lat="49.24088" lon="1.65787">
        <ele>149</ele>
        <time>2014-09-28T07:09:16.000Z</time>
      </trkpt>
      <trkpt lat="49.24092" lon="1.65793">
        <ele>149</ele>
        <time>2014-09-28T07:09:17.000Z</time>
      </trkpt>
      <trkpt lat="49.24097" lon="1.65799">
        <ele>149</ele>
        <time>2014-09-28T07:09:20.000Z</time>
      </trkpt>
      <trkpt lat="49.24102" lon="1.65806">
        <ele>149</ele>
        <time>2014-09-28T07:09:21.000Z</time>
      </trkpt>
      <trkpt lat="49.2411" lon="1.65819">
        <ele>148</ele>
        <time>2014-09-28T07:09:23.000Z</time>
      </trkpt>
      <trkpt lat="49.2411" lon="1.65819">
        <ele>148</ele>
        <time>2014-09-28T07:09:26.000Z</time>
      </trkpt>
      <trkpt lat="49.24118" lon="1.65831">
        <ele>149</ele>
        <time>2014-09-28T07:09:27.000Z</time>
      </trkpt>
      <trkpt lat="49.24118" lon="1.65831">
        <ele>149</ele>
        <time>2014-09-28T07:09:29.000Z</time>
      </trkpt>
      <trkpt lat="49.24125" lon="1.65841">
        <ele>149</ele>
        <time>2014-09-28T07:09:32.000Z</time>
      </trkpt>
      <trkpt lat="49.24125" lon="1.65841">
        <ele>149</ele>
        <time>2014-09-28T07:09:34.000Z</time>
      </trkpt>
      <trkpt lat="49.24132" lon="1.65853">
        <ele>149</ele>
        <time>2014-09-28T07:09:35.000Z</time>
      </trkpt>
      <trkpt lat="49.24132" lon="1.65853">
        <ele>149</ele>
        <time>2014-09-28T07:09:38.000Z</time>
      </trkpt>
      <trkpt lat="49.24136" lon="1.65862">
        <ele>149</ele>
        <time>2014-09-28T07:09:39.000Z</time>
      </trkpt>
      <trkpt lat="49.24136" lon="1.65862">
        <ele>149</ele>
        <time>2014-09-28T07:09:41.000Z</time>
      </trkpt>
      <trkpt lat="49.2414" lon="1.65869">
        <ele>148</ele>
        <time>2014-09-28T07:09:44.000Z</time>
      </trkpt>
      <trkpt lat="49.2414" lon="1.65869">
        <ele>148</ele>
        <time>2014-09-28T07:09:45.000Z</time>
      </trkpt>
      <trkpt lat="49.24144" lon="1.65877">
        <ele>148</ele>
        <time>2014-09-28T07:09:47.000Z</time>
      </trkpt>
      <trkpt lat="49.2415" lon="1.65885">
        <ele>149</ele>
        <time>2014-09-28T07:09:52.000Z</time>
      </trkpt>
      <trkpt lat="49.24156" lon="1.65895">
        <ele>149</ele>
        <time>2014-09-28T07:09:56.000Z</time>
      </trkpt>
      <trkpt lat="49.24161" lon="1.65904">
        <ele>149</ele>
        <time>2014-09-28T07:09:59.000Z</time>
      </trkpt>
      <trkpt lat="49.24161" lon="1.65904">
        <ele>149</ele>
        <time>2014-09-28T07:10:02.000Z</time>
      </trkpt>
      <trkpt lat="49.24166" lon="1.65911">
        <ele>148</ele>
        <time>2014-09-28T07:10:03.000Z</time>
      </trkpt>
      <trkpt lat="49.24166" lon="1.65911">
        <ele>148</ele>
        <time>2014-09-28T07:10:06.000Z</time>
      </trkpt>
      <trkpt lat="49.24171" lon="1.65919">
        <ele>148</ele>
        <time>2014-09-28T07:10:08.000Z</time>
      </trkpt>
      <trkpt lat="49.24176" lon="1.65928">
        <ele>148</ele>
        <time>2014-09-28T07:10:11.000Z</time>
      </trkpt>
      <trkpt lat="49.24176" lon="1.65928">
        <ele>148</ele>
        <time>2014-09-28T07:10:14.000Z</time>
      </trkpt>
      <trkpt lat="49.2418" lon="1.65935">
        <ele>148</ele>
        <time>2014-09-28T07:10:15.000Z</time>
      </trkpt>
      <trkpt lat="49.24184" lon="1.65944">
        <ele>148</ele>
        <time>2014-09-28T07:10:19.000Z</time>
      </trkpt>
      <trkpt lat="49.24189" lon="1.65952">
        <ele>148</ele>
        <time>2014-09-28T07:10:24.000Z</time>
      </trkpt>
      <trkpt lat="49.24189" lon="1.65952">
        <ele>148</ele>
        <time>2014-09-28T07:10:25.000Z</time>
      </trkpt>
      <trkpt lat="49.24189" lon="1.65952">
        <ele>148</ele>
        <time>2014-09-28T07:10:27.000Z</time>
      </trkpt>
      <trkpt lat="49.24192" lon="1.6596">
        <ele>148</ele>
        <time>2014-09-28T07:10:30.000Z</time>
      </trkpt>
      <trkpt lat="49.24192" lon="1.6596">
        <ele>148</ele>
        <time>2014-09-28T07:10:31.000Z</time>
      </trkpt>
      <trkpt lat="49.24192" lon="1.6596">
        <ele>148</ele>
        <time>2014-09-28T07:10:33.000Z</time>
      </trkpt>
      <trkpt lat="49.24198" lon="1.6597">
        <ele>148</ele>
        <time>2014-09-28T07:10:38.000Z</time>
      </trkpt>
      <trkpt lat="49.24202" lon="1.65979">
        <ele>148</ele>
        <time>2014-09-28T07:10:41.000Z</time>
      </trkpt>
      <trkpt lat="49.24205" lon="1.6599">
        <ele>149</ele>
        <time>2014-09-28T07:10:46.000Z</time>
      </trkpt>
      <trkpt lat="49.24208" lon="1.66">
        <ele>149</ele>
        <time>2014-09-28T07:10:50.000Z</time>
      </trkpt>
      <trkpt lat="49.24208" lon="1.66">
        <ele>149</ele>
        <time>2014-09-28T07:10:51.000Z</time>
      </trkpt>
      <trkpt lat="49.24211" lon="1.6601">
        <ele>149</ele>
        <time>2014-09-28T07:10:53.000Z</time>
      </trkpt>
      <trkpt lat="49.24214" lon="1.6602">
        <ele>148</ele>
        <time>2014-09-28T07:10:57.000Z</time>
      </trkpt>
      <trkpt lat="49.24214" lon="1.6602">
        <ele>148</ele>
        <time>2014-09-28T07:10:59.000Z</time>
      </trkpt>
      <trkpt lat="49.24219" lon="1.66031">
        <ele>149</ele>
        <time>2014-09-28T07:11:02.000Z</time>
      </trkpt>
      <trkpt lat="49.24222" lon="1.66044">
        <ele>149</ele>
        <time>2014-09-28T07:11:05.000Z</time>
      </trkpt>
      <trkpt lat="49.24228" lon="1.66056">
        <ele>149</ele>
        <time>2014-09-28T07:11:09.000Z</time>
      </trkpt>
      <trkpt lat="49.24231" lon="1.66071">
        <ele>149</ele>
        <time>2014-09-28T07:11:14.000Z</time>
      </trkpt>
      <trkpt lat="49.24231" lon="1.66071">
        <ele>149</ele>
        <time>2014-09-28T07:11:15.000Z</time>
      </trkpt>
      <trkpt lat="49.24234" lon="1.66078">
        <ele>149</ele>
        <time>2014-09-28T07:11:17.000Z</time>
      </trkpt>
      <trkpt lat="49.24237" lon="1.66087">
        <ele>149</ele>
        <time>2014-09-28T07:11:20.000Z</time>
      </trkpt>
      <trkpt lat="49.2424" lon="1.66096">
        <ele>150</ele>
        <time>2014-09-28T07:11:22.000Z</time>
      </trkpt>
      <trkpt lat="49.24244" lon="1.66104">
        <ele>151</ele>
        <time>2014-09-28T07:11:23.000Z</time>
      </trkpt>
      <trkpt lat="49.24247" lon="1.66111">
        <ele>151</ele>
        <time>2014-09-28T07:11:25.000Z</time>
      </trkpt>
      <trkpt lat="49.24255" lon="1.66121">
        <ele>151</ele>
        <time>2014-09-28T07:11:27.000Z</time>
      </trkpt>
      <trkpt lat="49.24261" lon="1.66118">
        <ele>151</ele>
        <time>2014-09-28T07:11:29.000Z</time>
      </trkpt>
      <trkpt lat="49.2427" lon="1.66115">
        <ele>151</ele>
        <time>2014-09-28T07:11:32.000Z</time>
      </trkpt>
      <trkpt lat="49.24279" lon="1.6611">
        <ele>151</ele>
        <time>2014-09-28T07:11:33.000Z</time>
      </trkpt>
      <trkpt lat="49.2429" lon="1.66103">
        <ele>151</ele>
        <time>2014-09-28T07:11:35.000Z</time>
      </trkpt>
      <trkpt lat="49.24302" lon="1.66096">
        <ele>150</ele>
        <time>2014-09-28T07:11:38.000Z</time>
      </trkpt>
      <trkpt lat="49.24313" lon="1.66086">
        <ele>150</ele>
        <time>2014-09-28T07:11:39.000Z</time>
      </trkpt>
      <trkpt lat="49.24323" lon="1.66077">
        <ele>150</ele>
        <time>2014-09-28T07:11:41.000Z</time>
      </trkpt>
      <trkpt lat="49.24333" lon="1.66067">
        <ele>149</ele>
        <time>2014-09-28T07:11:44.000Z</time>
      </trkpt>
      <trkpt lat="49.24343" lon="1.66057">
        <ele>148</ele>
        <time>2014-09-28T07:11:45.000Z</time>
      </trkpt>
      <trkpt lat="49.24353" lon="1.66047">
        <ele>147</ele>
        <time>2014-09-28T07:11:48.000Z</time>
      </trkpt>
      <trkpt lat="49.24363" lon="1.66037">
        <ele>147</ele>
        <time>2014-09-28T07:11:49.000Z</time>
      </trkpt>
      <trkpt lat="49.24373" lon="1.66025">
        <ele>146</ele>
        <time>2014-09-28T07:11:51.000Z</time>
      </trkpt>
      <trkpt lat="49.24384" lon="1.66013">
        <ele>146</ele>
        <time>2014-09-28T07:11:54.000Z</time>
      </trkpt>
      <trkpt lat="49.24393" lon="1.65998">
        <ele>144</ele>
        <time>2014-09-28T07:11:56.000Z</time>
      </trkpt>
      <trkpt lat="49.24402" lon="1.65983">
        <ele>143</ele>
        <time>2014-09-28T07:11:57.000Z</time>
      </trkpt>
      <trkpt lat="49.24412" lon="1.65966">
        <ele>143</ele>
        <time>2014-09-28T07:11:59.000Z</time>
      </trkpt>
      <trkpt lat="49.24421" lon="1.6595">
        <ele>142</ele>
        <time>2014-09-28T07:12:02.000Z</time>
      </trkpt>
      <trkpt lat="49.24431" lon="1.65932">
        <ele>142</ele>
        <time>2014-09-28T07:12:03.000Z</time>
      </trkpt>
      <trkpt lat="49.24441" lon="1.65916">
        <ele>142</ele>
        <time>2014-09-28T07:12:05.000Z</time>
      </trkpt>
      <trkpt lat="49.24451" lon="1.659">
        <ele>141</ele>
        <time>2014-09-28T07:12:08.000Z</time>
      </trkpt>
      <trkpt lat="49.24463" lon="1.65886">
        <ele>140</ele>
        <time>2014-09-28T07:12:09.000Z</time>
      </trkpt>
      <trkpt lat="49.24474" lon="1.65872">
        <ele>139</ele>
        <time>2014-09-28T07:12:11.000Z</time>
      </trkpt>
      <trkpt lat="49.24485" lon="1.65857">
        <ele>140</ele>
        <time>2014-09-28T07:12:14.000Z</time>
      </trkpt>
      <trkpt lat="49.24495" lon="1.65842">
        <ele>139</ele>
        <time>2014-09-28T07:12:15.000Z</time>
      </trkpt>
      <trkpt lat="49.24504" lon="1.65828">
        <ele>138</ele>
        <time>2014-09-28T07:12:17.000Z</time>
      </trkpt>
      <trkpt lat="49.24514" lon="1.65814">
        <ele>138</ele>
        <time>2014-09-28T07:12:20.000Z</time>
      </trkpt>
      <trkpt lat="49.24523" lon="1.658">
        <ele>138</ele>
        <time>2014-09-28T07:12:21.000Z</time>
      </trkpt>
      <trkpt lat="49.24531" lon="1.65786">
        <ele>138</ele>
        <time>2014-09-28T07:12:23.000Z</time>
      </trkpt>
      <trkpt lat="49.2454" lon="1.65772">
        <ele>138</ele>
        <time>2014-09-28T07:12:25.000Z</time>
      </trkpt>
      <trkpt lat="49.24548" lon="1.65759">
        <ele>138</ele>
        <time>2014-09-28T07:12:27.000Z</time>
      </trkpt>
      <trkpt lat="49.24557" lon="1.65745">
        <ele>139</ele>
        <time>2014-09-28T07:12:29.000Z</time>
      </trkpt>
      <trkpt lat="49.24565" lon="1.65733">
        <ele>138</ele>
        <time>2014-09-28T07:12:32.000Z</time>
      </trkpt>
      <trkpt lat="49.24572" lon="1.65722">
        <ele>138</ele>
        <time>2014-09-28T07:12:34.000Z</time>
      </trkpt>
      <trkpt lat="49.24578" lon="1.6571">
        <ele>138</ele>
        <time>2014-09-28T07:12:36.000Z</time>
      </trkpt>
      <trkpt lat="49.24583" lon="1.657">
        <ele>138</ele>
        <time>2014-09-28T07:12:38.000Z</time>
      </trkpt>
      <trkpt lat="49.24588" lon="1.65694">
        <ele>138</ele>
        <time>2014-09-28T07:12:40.000Z</time>
      </trkpt>
      <trkpt lat="49.24588" lon="1.65694">
        <ele>138</ele>
        <time>2014-09-28T07:12:42.000Z</time>
      </trkpt>
      <trkpt lat="49.24593" lon="1.65688">
        <ele>139</ele>
        <time>2014-09-28T07:12:44.000Z</time>
      </trkpt>
      <trkpt lat="49.24593" lon="1.65688">
        <ele>139</ele>
        <time>2014-09-28T07:12:46.000Z</time>
      </trkpt>
      <trkpt lat="49.24593" lon="1.65688">
        <ele>139</ele>
        <time>2014-09-28T07:12:48.000Z</time>
      </trkpt>
      <trkpt lat="49.24589" lon="1.65678">
        <ele>139</ele>
        <time>2014-09-28T07:12:52.000Z</time>
      </trkpt>
      <trkpt lat="49.24581" lon="1.65665">
        <ele>138</ele>
        <time>2014-09-28T07:12:56.000Z</time>
      </trkpt>
      <trkpt lat="49.24577" lon="1.65657">
        <ele>138</ele>
        <time>2014-09-28T07:12:58.000Z</time>
      </trkpt>
      <trkpt lat="49.24574" lon="1.65649">
        <ele>138</ele>
        <time>2014-09-28T07:13:00.000Z</time>
      </trkpt>
      <trkpt lat="49.24571" lon="1.65641">
        <ele>137</ele>
        <time>2014-09-28T07:13:02.000Z</time>
      </trkpt>
      <trkpt lat="49.24571" lon="1.65641">
        <ele>137</ele>
        <time>2014-09-28T07:13:04.000Z</time>
      </trkpt>
      <trkpt lat="49.24573" lon="1.65625">
        <ele>137</ele>
        <time>2014-09-28T07:13:06.000Z</time>
      </trkpt>
      <trkpt lat="49.24578" lon="1.65617">
        <ele>137</ele>
        <time>2014-09-28T07:13:08.000Z</time>
      </trkpt>
      <trkpt lat="49.24585" lon="1.65608">
        <ele>137</ele>
        <time>2014-09-28T07:13:10.000Z</time>
      </trkpt>
      <trkpt lat="49.24591" lon="1.65598">
        <ele>137</ele>
        <time>2014-09-28T07:13:12.000Z</time>
      </trkpt>
      <trkpt lat="49.24598" lon="1.65588">
        <ele>137</ele>
        <time>2014-09-28T07:13:14.000Z</time>
      </trkpt>
      <trkpt lat="49.24604" lon="1.65578">
        <ele>137</ele>
        <time>2014-09-28T07:13:16.000Z</time>
      </trkpt>
      <trkpt lat="49.24612" lon="1.65567">
        <ele>137</ele>
        <time>2014-09-28T07:13:18.000Z</time>
      </trkpt>
      <trkpt lat="49.24619" lon="1.65556">
        <ele>137</ele>
        <time>2014-09-28T07:13:20.000Z</time>
      </trkpt>
      <trkpt lat="49.24627" lon="1.65543">
        <ele>134</ele>
        <time>2014-09-28T07:13:22.000Z</time>
      </trkpt>
      <trkpt lat="49.24633" lon="1.65533">
        <ele>133</ele>
        <time>2014-09-28T07:13:24.000Z</time>
      </trkpt>
      <trkpt lat="49.2464" lon="1.65522">
        <ele>132</ele>
        <time>2014-09-28T07:13:26.000Z</time>
      </trkpt>
      <trkpt lat="49.24645" lon="1.65512">
        <ele>132</ele>
        <time>2014-09-28T07:13:28.000Z</time>
      </trkpt>
      <trkpt lat="49.24651" lon="1.65502">
        <ele>131</ele>
        <time>2014-09-28T07:13:30.000Z</time>
      </trkpt>
      <trkpt lat="49.24657" lon="1.65492">
        <ele>131</ele>
        <time>2014-09-28T07:13:32.000Z</time>
      </trkpt>
      <trkpt lat="49.24663" lon="1.65483">
        <ele>130</ele>
        <time>2014-09-28T07:13:34.000Z</time>
      </trkpt>
      <trkpt lat="49.24669" lon="1.65474">
        <ele>130</ele>
        <time>2014-09-28T07:13:36.000Z</time>
      </trkpt>
      <trkpt lat="49.24682" lon="1.65453">
        <ele>130</ele>
        <time>2014-09-28T07:13:40.000Z</time>
      </trkpt>
      <trkpt lat="49.24689" lon="1.65442">
        <ele>130</ele>
        <time>2014-09-28T07:13:42.000Z</time>
      </trkpt>
      <trkpt lat="49.24696" lon="1.65432">
        <ele>130</ele>
        <time>2014-09-28T07:13:44.000Z</time>
      </trkpt>
      <trkpt lat="49.24702" lon="1.65422">
        <ele>130</ele>
        <time>2014-09-28T07:13:46.000Z</time>
      </trkpt>
      <trkpt lat="49.24708" lon="1.65414">
        <ele>130</ele>
        <time>2014-09-28T07:13:48.000Z</time>
      </trkpt>
      <trkpt lat="49.24713" lon="1.65407">
        <ele>130</ele>
        <time>2014-09-28T07:13:50.000Z</time>
      </trkpt>
      <trkpt lat="49.24713" lon="1.65407">
        <ele>130</ele>
        <time>2014-09-28T07:13:52.000Z</time>
      </trkpt>
      <trkpt lat="49.24717" lon="1.65396">
        <ele>129</ele>
        <time>2014-09-28T07:13:54.000Z</time>
      </trkpt>
      <trkpt lat="49.24717" lon="1.65396">
        <ele>129</ele>
        <time>2014-09-28T07:13:56.000Z</time>
      </trkpt>
      <trkpt lat="49.24717" lon="1.65396">
        <ele>129</ele>
        <time>2014-09-28T07:13:58.000Z</time>
      </trkpt>
      <trkpt lat="49.24717" lon="1.65396">
        <ele>129</ele>
        <time>2014-09-28T07:14:00.000Z</time>
      </trkpt>
      <trkpt lat="49.24717" lon="1.65396">
        <ele>129</ele>
        <time>2014-09-28T07:14:02.000Z</time>
      </trkpt>
      <trkpt lat="49.24717" lon="1.65396">
        <ele>129</ele>
        <time>2014-09-28T07:14:04.000Z</time>
      </trkpt>
      <trkpt lat="49.24717" lon="1.65396">
        <ele>129</ele>
        <time>2014-09-28T07:14:06.000Z</time>
      </trkpt>
      <trkpt lat="49.24717" lon="1.65396">
        <ele>129</ele>
        <time>2014-09-28T07:14:08.000Z</time>
      </trkpt>
      <trkpt lat="49.24717" lon="1.65396">
        <ele>129</ele>
        <time>2014-09-28T07:14:10.000Z</time>
      </trkpt>
      <trkpt lat="49.24717" lon="1.65396">
        <ele>129</ele>
        <time>2014-09-28T07:14:12.000Z</time>
      </trkpt>
      <trkpt lat="49.2471" lon="1.65383">
        <ele>130</ele>
        <time>2014-09-28T07:14:18.000Z</time>
      </trkpt>
      <trkpt lat="49.24708" lon="1.65373">
        <ele>130</ele>
        <time>2014-09-28T07:14:22.000Z</time>
      </trkpt>
      <trkpt lat="49.24705" lon="1.6536">
        <ele>130</ele>
        <time>2014-09-28T07:14:26.000Z</time>
      </trkpt>
      <trkpt lat="49.24701" lon="1.65345">
        <ele>130</ele>
        <time>2014-09-28T07:14:30.000Z</time>
      </trkpt>
      <trkpt lat="49.24697" lon="1.65334">
        <ele>129</ele>
        <time>2014-09-28T07:14:32.000Z</time>
      </trkpt>
      <trkpt lat="49.24694" lon="1.65323">
        <ele>129</ele>
        <time>2014-09-28T07:14:34.000Z</time>
      </trkpt>
      <trkpt lat="49.2469" lon="1.65313">
        <ele>130</ele>
        <time>2014-09-28T07:14:36.000Z</time>
      </trkpt>
      <trkpt lat="49.24687" lon="1.65304">
        <ele>130</ele>
        <time>2014-09-28T07:14:38.000Z</time>
      </trkpt>
      <trkpt lat="49.24685" lon="1.65294">
        <ele>130</ele>
        <time>2014-09-28T07:14:40.000Z</time>
      </trkpt>
      <trkpt lat="49.24683" lon="1.65285">
        <ele>130</ele>
        <time>2014-09-28T07:14:42.000Z</time>
      </trkpt>
      <trkpt lat="49.2468" lon="1.65276">
        <ele>130</ele>
        <time>2014-09-28T07:14:44.000Z</time>
      </trkpt>
      <trkpt lat="49.24679" lon="1.65266">
        <ele>130</ele>
        <time>2014-09-28T07:14:46.000Z</time>
      </trkpt>
      <trkpt lat="49.24679" lon="1.65266">
        <ele>130</ele>
        <time>2014-09-28T07:14:48.000Z</time>
      </trkpt>
      <trkpt lat="49.24677" lon="1.65249">
        <ele>130</ele>
        <time>2014-09-28T07:14:50.000Z</time>
      </trkpt>
      <trkpt lat="49.24677" lon="1.65249">
        <ele>130</ele>
        <time>2014-09-28T07:14:52.000Z</time>
      </trkpt>
      <trkpt lat="49.24675" lon="1.65236">
        <ele>130</ele>
        <time>2014-09-28T07:14:54.000Z</time>
      </trkpt>
      <trkpt lat="49.24675" lon="1.65236">
        <ele>130</ele>
        <time>2014-09-28T07:14:56.000Z</time>
      </trkpt>
      <trkpt lat="49.24672" lon="1.6522">
        <ele>130</ele>
        <time>2014-09-28T07:14:58.000Z</time>
      </trkpt>
      <trkpt lat="49.24669" lon="1.65211">
        <ele>130</ele>
        <time>2014-09-28T07:15:00.000Z</time>
      </trkpt>
      <trkpt lat="49.24664" lon="1.65204">
        <ele>131</ele>
        <time>2014-09-28T07:15:02.000Z</time>
      </trkpt>
      <trkpt lat="49.24659" lon="1.65196">
        <ele>131</ele>
        <time>2014-09-28T07:15:04.000Z</time>
      </trkpt>
      <trkpt lat="49.24652" lon="1.65188">
        <ele>131</ele>
        <time>2014-09-28T07:15:06.000Z</time>
      </trkpt>
      <trkpt lat="49.24647" lon="1.65179">
        <ele>132</ele>
        <time>2014-09-28T07:15:08.000Z</time>
      </trkpt>
      <trkpt lat="49.24644" lon="1.6517">
        <ele>132</ele>
        <time>2014-09-28T07:15:10.000Z</time>
      </trkpt>
      <trkpt lat="49.24641" lon="1.65161">
        <ele>132</ele>
        <time>2014-09-28T07:15:12.000Z</time>
      </trkpt>
      <trkpt lat="49.24639" lon="1.65151">
        <ele>133</ele>
        <time>2014-09-28T07:15:14.000Z</time>
      </trkpt>
      <trkpt lat="49.24638" lon="1.65142">
        <ele>133</ele>
        <time>2014-09-28T07:15:16.000Z</time>
      </trkpt>
      <trkpt lat="49.24636" lon="1.65133">
        <ele>133</ele>
        <time>2014-09-28T07:15:18.000Z</time>
      </trkpt>
      <trkpt lat="49.24636" lon="1.65133">
        <ele>133</ele>
        <time>2014-09-28T07:15:20.000Z</time>
      </trkpt>
      <trkpt lat="49.2463" lon="1.65117">
        <ele>134</ele>
        <time>2014-09-28T07:15:22.000Z</time>
      </trkpt>
      <trkpt lat="49.24627" lon="1.65101">
        <ele>134</ele>
        <time>2014-09-28T07:15:26.000Z</time>
      </trkpt>
      <trkpt lat="49.24625" lon="1.65092">
        <ele>134</ele>
        <time>2014-09-28T07:15:28.000Z</time>
      </trkpt>
      <trkpt lat="49.24625" lon="1.65092">
        <ele>134</ele>
        <time>2014-09-28T07:15:30.000Z</time>
      </trkpt>
      <trkpt lat="49.24622" lon="1.65078">
        <ele>134</ele>
        <time>2014-09-28T07:15:32.000Z</time>
      </trkpt>
      <trkpt lat="49.24622" lon="1.65078">
        <ele>134</ele>
        <time>2014-09-28T07:15:34.000Z</time>
      </trkpt>
      <trkpt lat="49.24612" lon="1.65065">
        <ele>133</ele>
        <time>2014-09-28T07:15:36.000Z</time>
      </trkpt>
      <trkpt lat="49.24607" lon="1.65058">
        <ele>131</ele>
        <time>2014-09-28T07:15:38.000Z</time>
      </trkpt>
      <trkpt lat="49.24607" lon="1.65058">
        <ele>131</ele>
        <time>2014-09-28T07:15:40.000Z</time>
      </trkpt>
      <trkpt lat="49.246" lon="1.65049">
        <ele>130</ele>
        <time>2014-09-28T07:15:42.000Z</time>
      </trkpt>
      <trkpt lat="49.246" lon="1.65049">
        <ele>130</ele>
        <time>2014-09-28T07:15:44.000Z</time>
      </trkpt>
      <trkpt lat="49.24598" lon="1.65043">
        <ele>129</ele>
        <time>2014-09-28T07:15:46.000Z</time>
      </trkpt>
      <trkpt lat="49.24595" lon="1.65038">
        <ele>129</ele>
        <time>2014-09-28T07:15:48.000Z</time>
      </trkpt>
      <trkpt lat="49.24592" lon="1.65032">
        <ele>130</ele>
        <time>2014-09-28T07:15:50.000Z</time>
      </trkpt>
      <trkpt lat="49.24588" lon="1.65025">
        <ele>130</ele>
        <time>2014-09-28T07:15:52.000Z</time>
      </trkpt>
      <trkpt lat="49.24584" lon="1.65017">
        <ele>131</ele>
        <time>2014-09-28T07:15:54.000Z</time>
      </trkpt>
      <trkpt lat="49.24574" lon="1.65002">
        <ele>132</ele>
        <time>2014-09-28T07:15:56.000Z</time>
      </trkpt>
      <trkpt lat="49.2457" lon="1.64994">
        <ele>132</ele>
        <time>2014-09-28T07:15:58.000Z</time>
      </trkpt>
      <trkpt lat="49.24566" lon="1.64985">
        <ele>132</ele>
        <time>2014-09-28T07:16:00.000Z</time>
      </trkpt>
      <trkpt lat="49.24561" lon="1.64977">
        <ele>132</ele>
        <time>2014-09-28T07:16:02.000Z</time>
      </trkpt>
      <trkpt lat="49.24556" lon="1.64969">
        <ele>132</ele>
        <time>2014-09-28T07:16:04.000Z</time>
      </trkpt>
      <trkpt lat="49.24552" lon="1.6496">
        <ele>132</ele>
        <time>2014-09-28T07:16:06.000Z</time>
      </trkpt>
      <trkpt lat="49.24547" lon="1.64953">
        <ele>132</ele>
        <time>2014-09-28T07:16:08.000Z</time>
      </trkpt>
      <trkpt lat="49.24541" lon="1.64945">
        <ele>132</ele>
        <time>2014-09-28T07:16:10.000Z</time>
      </trkpt>
      <trkpt lat="49.24537" lon="1.64936">
        <ele>133</ele>
        <time>2014-09-28T07:16:12.000Z</time>
      </trkpt>
      <trkpt lat="49.24532" lon="1.64927">
        <ele>133</ele>
        <time>2014-09-28T07:16:14.000Z</time>
      </trkpt>
      <trkpt lat="49.24527" lon="1.64918">
        <ele>133</ele>
        <time>2014-09-28T07:16:16.000Z</time>
      </trkpt>
      <trkpt lat="49.24522" lon="1.6491">
        <ele>133</ele>
        <time>2014-09-28T07:16:18.000Z</time>
      </trkpt>
      <trkpt lat="49.24517" lon="1.64901">
        <ele>133</ele>
        <time>2014-09-28T07:16:20.000Z</time>
      </trkpt>
      <trkpt lat="49.24511" lon="1.64891">
        <ele>133</ele>
        <time>2014-09-28T07:16:22.000Z</time>
      </trkpt>
      <trkpt lat="49.24506" lon="1.64882">
        <ele>133</ele>
        <time>2014-09-28T07:16:24.000Z</time>
      </trkpt>
      <trkpt lat="49.24501" lon="1.64873">
        <ele>133</ele>
        <time>2014-09-28T07:16:26.000Z</time>
      </trkpt>
      <trkpt lat="49.24496" lon="1.64864">
        <ele>133</ele>
        <time>2014-09-28T07:16:28.000Z</time>
      </trkpt>
      <trkpt lat="49.24491" lon="1.64854">
        <ele>133</ele>
        <time>2014-09-28T07:16:30.000Z</time>
      </trkpt>
      <trkpt lat="49.24486" lon="1.64846">
        <ele>133</ele>
        <time>2014-09-28T07:16:32.000Z</time>
      </trkpt>
      <trkpt lat="49.2448" lon="1.64837">
        <ele>133</ele>
        <time>2014-09-28T07:16:34.000Z</time>
      </trkpt>
      <trkpt lat="49.24475" lon="1.64829">
        <ele>133</ele>
        <time>2014-09-28T07:16:36.000Z</time>
      </trkpt>
      <trkpt lat="49.2447" lon="1.6482">
        <ele>133</ele>
        <time>2014-09-28T07:16:38.000Z</time>
      </trkpt>
      <trkpt lat="49.24465" lon="1.64812">
        <ele>133</ele>
        <time>2014-09-28T07:16:40.000Z</time>
      </trkpt>
      <trkpt lat="49.24461" lon="1.64804">
        <ele>133</ele>
        <time>2014-09-28T07:16:42.000Z</time>
      </trkpt>
      <trkpt lat="49.24455" lon="1.64795">
        <ele>134</ele>
        <time>2014-09-28T07:16:44.000Z</time>
      </trkpt>
      <trkpt lat="49.24451" lon="1.64786">
        <ele>134</ele>
        <time>2014-09-28T07:16:46.000Z</time>
      </trkpt>
      <trkpt lat="49.24446" lon="1.64777">
        <ele>134</ele>
        <time>2014-09-28T07:16:48.000Z</time>
      </trkpt>
      <trkpt lat="49.24441" lon="1.64769">
        <ele>134</ele>
        <time>2014-09-28T07:16:50.000Z</time>
      </trkpt>
      <trkpt lat="49.24436" lon="1.6476">
        <ele>134</ele>
        <time>2014-09-28T07:16:52.000Z</time>
      </trkpt>
      <trkpt lat="49.2443" lon="1.64752">
        <ele>134</ele>
        <time>2014-09-28T07:16:54.000Z</time>
      </trkpt>
      <trkpt lat="49.24425" lon="1.64743">
        <ele>134</ele>
        <time>2014-09-28T07:16:56.000Z</time>
      </trkpt>
      <trkpt lat="49.2442" lon="1.64733">
        <ele>134</ele>
        <time>2014-09-28T07:16:58.000Z</time>
      </trkpt>
      <trkpt lat="49.24416" lon="1.64725">
        <ele>134</ele>
        <time>2014-09-28T07:17:00.000Z</time>
      </trkpt>
      <trkpt lat="49.24411" lon="1.64715">
        <ele>134</ele>
        <time>2014-09-28T07:17:02.000Z</time>
      </trkpt>
      <trkpt lat="49.24406" lon="1.64705">
        <ele>134</ele>
        <time>2014-09-28T07:17:04.000Z</time>
      </trkpt>
      <trkpt lat="49.24401" lon="1.64695">
        <ele>134</ele>
        <time>2014-09-28T07:17:06.000Z</time>
      </trkpt>
      <trkpt lat="49.24397" lon="1.64686">
        <ele>134</ele>
        <time>2014-09-28T07:17:08.000Z</time>
      </trkpt>
      <trkpt lat="49.24393" lon="1.64678">
        <ele>134</ele>
        <time>2014-09-28T07:17:10.000Z</time>
      </trkpt>
      <trkpt lat="49.24393" lon="1.64678">
        <ele>134</ele>
        <time>2014-09-28T07:17:12.000Z</time>
      </trkpt>
      <trkpt lat="49.24387" lon="1.64667">
        <ele>134</ele>
        <time>2014-09-28T07:17:14.000Z</time>
      </trkpt>
      <trkpt lat="49.24387" lon="1.64667">
        <ele>134</ele>
        <time>2014-09-28T07:17:16.000Z</time>
      </trkpt>
      <trkpt lat="49.24382" lon="1.64661">
        <ele>134</ele>
        <time>2014-09-28T07:17:18.000Z</time>
      </trkpt>
      <trkpt lat="49.24382" lon="1.64661">
        <ele>134</ele>
        <time>2014-09-28T07:17:20.000Z</time>
      </trkpt>
      <trkpt lat="49.24382" lon="1.64661">
        <ele>134</ele>
        <time>2014-09-28T07:17:22.000Z</time>
      </trkpt>
      <trkpt lat="49.24384" lon="1.64649">
        <ele>135</ele>
        <time>2014-09-28T07:17:40.000Z</time>
      </trkpt>
      <trkpt lat="49.24388" lon="1.64643">
        <ele>135</ele>
        <time>2014-09-28T07:17:42.000Z</time>
      </trkpt>
      <trkpt lat="49.24393" lon="1.64637">
        <ele>135</ele>
        <time>2014-09-28T07:17:44.000Z</time>
      </trkpt>
      <trkpt lat="49.24398" lon="1.6463">
        <ele>135</ele>
        <time>2014-09-28T07:17:46.000Z</time>
      </trkpt>
      <trkpt lat="49.24403" lon="1.64621">
        <ele>136</ele>
        <time>2014-09-28T07:17:48.000Z</time>
      </trkpt>
      <trkpt lat="49.24408" lon="1.64613">
        <ele>136</ele>
        <time>2014-09-28T07:17:50.000Z</time>
      </trkpt>
      <trkpt lat="49.24414" lon="1.64604">
        <ele>136</ele>
        <time>2014-09-28T07:17:52.000Z</time>
      </trkpt>
      <trkpt lat="49.24419" lon="1.64596">
        <ele>136</ele>
        <time>2014-09-28T07:17:54.000Z</time>
      </trkpt>
      <trkpt lat="49.24425" lon="1.64588">
        <ele>136</ele>
        <time>2014-09-28T07:17:56.000Z</time>
      </trkpt>
      <trkpt lat="49.2443" lon="1.64579">
        <ele>136</ele>
        <time>2014-09-28T07:17:58.000Z</time>
      </trkpt>
      <trkpt lat="49.24435" lon="1.64571">
        <ele>136</ele>
        <time>2014-09-28T07:18:00.000Z</time>
      </trkpt>
      <trkpt lat="49.24441" lon="1.64561">
        <ele>136</ele>
        <time>2014-09-28T07:18:02.000Z</time>
      </trkpt>
      <trkpt lat="49.24447" lon="1.64551">
        <ele>136</ele>
        <time>2014-09-28T07:18:04.000Z</time>
      </trkpt>
      <trkpt lat="49.24452" lon="1.64542">
        <ele>136</ele>
        <time>2014-09-28T07:18:06.000Z</time>
      </trkpt>
      <trkpt lat="49.24458" lon="1.64532">
        <ele>136</ele>
        <time>2014-09-28T07:18:08.000Z</time>
      </trkpt>
      <trkpt lat="49.24463" lon="1.64521">
        <ele>136</ele>
        <time>2014-09-28T07:18:10.000Z</time>
      </trkpt>
      <trkpt lat="49.24469" lon="1.64511">
        <ele>136</ele>
        <time>2014-09-28T07:18:12.000Z</time>
      </trkpt>
      <trkpt lat="49.24473" lon="1.64501">
        <ele>136</ele>
        <time>2014-09-28T07:18:14.000Z</time>
      </trkpt>
      <trkpt lat="49.24478" lon="1.64491">
        <ele>135</ele>
        <time>2014-09-28T07:18:16.000Z</time>
      </trkpt>
      <trkpt lat="49.24483" lon="1.64479">
        <ele>135</ele>
        <time>2014-09-28T07:18:18.000Z</time>
      </trkpt>
      <trkpt lat="49.24488" lon="1.64469">
        <ele>135</ele>
        <time>2014-09-28T07:18:20.000Z</time>
      </trkpt>
      <trkpt lat="49.24492" lon="1.64457">
        <ele>135</ele>
        <time>2014-09-28T07:18:22.000Z</time>
      </trkpt>
      <trkpt lat="49.24497" lon="1.64446">
        <ele>135</ele>
        <time>2014-09-28T07:18:24.000Z</time>
      </trkpt>
      <trkpt lat="49.24502" lon="1.64435">
        <ele>135</ele>
        <time>2014-09-28T07:18:26.000Z</time>
      </trkpt>
      <trkpt lat="49.24507" lon="1.64423">
        <ele>135</ele>
        <time>2014-09-28T07:18:28.000Z</time>
      </trkpt>
      <trkpt lat="49.24511" lon="1.64412">
        <ele>135</ele>
        <time>2014-09-28T07:18:30.000Z</time>
      </trkpt>
      <trkpt lat="49.24516" lon="1.64401">
        <ele>135</ele>
        <time>2014-09-28T07:18:32.000Z</time>
      </trkpt>
      <trkpt lat="49.24521" lon="1.64389">
        <ele>136</ele>
        <time>2014-09-28T07:18:34.000Z</time>
      </trkpt>
      <trkpt lat="49.24526" lon="1.64379">
        <ele>136</ele>
        <time>2014-09-28T07:18:36.000Z</time>
      </trkpt>
      <trkpt lat="49.2453" lon="1.64368">
        <ele>136</ele>
        <time>2014-09-28T07:18:38.000Z</time>
      </trkpt>
      <trkpt lat="49.24535" lon="1.64358">
        <ele>136</ele>
        <time>2014-09-28T07:18:40.000Z</time>
      </trkpt>
      <trkpt lat="49.2454" lon="1.64347">
        <ele>136</ele>
        <time>2014-09-28T07:18:42.000Z</time>
      </trkpt>
      <trkpt lat="49.24545" lon="1.64337">
        <ele>137</ele>
        <time>2014-09-28T07:18:44.000Z</time>
      </trkpt>
      <trkpt lat="49.24551" lon="1.64328">
        <ele>137</ele>
        <time>2014-09-28T07:18:46.000Z</time>
      </trkpt>
      <trkpt lat="49.24556" lon="1.64319">
        <ele>137</ele>
        <time>2014-09-28T07:18:48.000Z</time>
      </trkpt>
      <trkpt lat="49.24562" lon="1.6431">
        <ele>137</ele>
        <time>2014-09-28T07:18:50.000Z</time>
      </trkpt>
      <trkpt lat="49.24567" lon="1.64302">
        <ele>137</ele>
        <time>2014-09-28T07:18:52.000Z</time>
      </trkpt>
      <trkpt lat="49.24574" lon="1.64293">
        <ele>137</ele>
        <time>2014-09-28T07:18:54.000Z</time>
      </trkpt>
      <trkpt lat="49.24579" lon="1.64285">
        <ele>137</ele>
        <time>2014-09-28T07:18:56.000Z</time>
      </trkpt>
      <trkpt lat="49.24585" lon="1.64277">
        <ele>137</ele>
        <time>2014-09-28T07:18:58.000Z</time>
      </trkpt>
      <trkpt lat="49.2459" lon="1.64267">
        <ele>138</ele>
        <time>2014-09-28T07:19:00.000Z</time>
      </trkpt>
      <trkpt lat="49.24596" lon="1.64256">
        <ele>138</ele>
        <time>2014-09-28T07:19:02.000Z</time>
      </trkpt>
      <trkpt lat="49.24603" lon="1.64246">
        <ele>138</ele>
        <time>2014-09-28T07:19:04.000Z</time>
      </trkpt>
      <trkpt lat="49.24609" lon="1.64237">
        <ele>138</ele>
        <time>2014-09-28T07:19:06.000Z</time>
      </trkpt>
      <trkpt lat="49.24616" lon="1.64228">
        <ele>138</ele>
        <time>2014-09-28T07:19:08.000Z</time>
      </trkpt>
      <trkpt lat="49.24622" lon="1.64218">
        <ele>138</ele>
        <time>2014-09-28T07:19:10.000Z</time>
      </trkpt>
      <trkpt lat="49.24629" lon="1.64209">
        <ele>138</ele>
        <time>2014-09-28T07:19:12.000Z</time>
      </trkpt>
      <trkpt lat="49.24635" lon="1.642">
        <ele>138</ele>
        <time>2014-09-28T07:19:14.000Z</time>
      </trkpt>
      <trkpt lat="49.24642" lon="1.64191">
        <ele>138</ele>
        <time>2014-09-28T07:19:16.000Z</time>
      </trkpt>
      <trkpt lat="49.24648" lon="1.64183">
        <ele>138</ele>
        <time>2014-09-28T07:19:18.000Z</time>
      </trkpt>
      <trkpt lat="49.24654" lon="1.64174">
        <ele>138</ele>
        <time>2014-09-28T07:19:20.000Z</time>
      </trkpt>
      <trkpt lat="49.24661" lon="1.64165">
        <ele>138</ele>
        <time>2014-09-28T07:19:22.000Z</time>
      </trkpt>
      <trkpt lat="49.24667" lon="1.64157">
        <ele>138</ele>
        <time>2014-09-28T07:19:24.000Z</time>
      </trkpt>
      <trkpt lat="49.24673" lon="1.64147">
        <ele>138</ele>
        <time>2014-09-28T07:19:26.000Z</time>
      </trkpt>
      <trkpt lat="49.24677" lon="1.64136">
        <ele>138</ele>
        <time>2014-09-28T07:19:28.000Z</time>
      </trkpt>
      <trkpt lat="49.24679" lon="1.64123">
        <ele>138</ele>
        <time>2014-09-28T07:19:30.000Z</time>
      </trkpt>
      <trkpt lat="49.2468" lon="1.64111">
        <ele>138</ele>
        <time>2014-09-28T07:19:32.000Z</time>
      </trkpt>
      <trkpt lat="49.24681" lon="1.64097">
        <ele>138</ele>
        <time>2014-09-28T07:19:34.000Z</time>
      </trkpt>
      <trkpt lat="49.24683" lon="1.64084">
        <ele>138</ele>
        <time>2014-09-28T07:19:36.000Z</time>
      </trkpt>
      <trkpt lat="49.24685" lon="1.64071">
        <ele>138</ele>
        <time>2014-09-28T07:19:38.000Z</time>
      </trkpt>
      <trkpt lat="49.24686" lon="1.64057">
        <ele>138</ele>
        <time>2014-09-28T07:19:40.000Z</time>
      </trkpt>
      <trkpt lat="49.24688" lon="1.64044">
        <ele>138</ele>
        <time>2014-09-28T07:19:42.000Z</time>
      </trkpt>
      <trkpt lat="49.24689" lon="1.64032">
        <ele>138</ele>
        <time>2014-09-28T07:19:44.000Z</time>
      </trkpt>
      <trkpt lat="49.24691" lon="1.64019">
        <ele>138</ele>
        <time>2014-09-28T07:19:46.000Z</time>
      </trkpt>
      <trkpt lat="49.24692" lon="1.64007">
        <ele>138</ele>
        <time>2014-09-28T07:19:48.000Z</time>
      </trkpt>
      <trkpt lat="49.24693" lon="1.63994">
        <ele>138</ele>
        <time>2014-09-28T07:19:50.000Z</time>
      </trkpt>
      <trkpt lat="49.24694" lon="1.63982">
        <ele>138</ele>
        <time>2014-09-28T07:19:52.000Z</time>
      </trkpt>
      <trkpt lat="49.24696" lon="1.63969">
        <ele>138</ele>
        <time>2014-09-28T07:19:54.000Z</time>
      </trkpt>
      <trkpt lat="49.24697" lon="1.63956">
        <ele>138</ele>
        <time>2014-09-28T07:19:56.000Z</time>
      </trkpt>
      <trkpt lat="49.24698" lon="1.63944">
        <ele>138</ele>
        <time>2014-09-28T07:19:58.000Z</time>
      </trkpt>
      <trkpt lat="49.24699" lon="1.63931">
        <ele>139</ele>
        <time>2014-09-28T07:20:00.000Z</time>
      </trkpt>
      <trkpt lat="49.24701" lon="1.63918">
        <ele>139</ele>
        <time>2014-09-28T07:20:02.000Z</time>
      </trkpt>
      <trkpt lat="49.24703" lon="1.63904">
        <ele>139</ele>
        <time>2014-09-28T07:20:04.000Z</time>
      </trkpt>
      <trkpt lat="49.24705" lon="1.63891">
        <ele>139</ele>
        <time>2014-09-28T07:20:06.000Z</time>
      </trkpt>
      <trkpt lat="49.24706" lon="1.63879">
        <ele>139</ele>
        <time>2014-09-28T07:20:08.000Z</time>
      </trkpt>
      <trkpt lat="49.24708" lon="1.63866">
        <ele>139</ele>
        <time>2014-09-28T07:20:10.000Z</time>
      </trkpt>
      <trkpt lat="49.2471" lon="1.63854">
        <ele>139</ele>
        <time>2014-09-28T07:20:12.000Z</time>
      </trkpt>
      <trkpt lat="49.24712" lon="1.63841">
        <ele>139</ele>
        <time>2014-09-28T07:20:14.000Z</time>
      </trkpt>
      <trkpt lat="49.24714" lon="1.63828">
        <ele>138</ele>
        <time>2014-09-28T07:20:16.000Z</time>
      </trkpt>
      <trkpt lat="49.24715" lon="1.63816">
        <ele>139</ele>
        <time>2014-09-28T07:20:18.000Z</time>
      </trkpt>
      <trkpt lat="49.24718" lon="1.63804">
        <ele>139</ele>
        <time>2014-09-28T07:20:20.000Z</time>
      </trkpt>
      <trkpt lat="49.2472" lon="1.63791">
        <ele>139</ele>
        <time>2014-09-28T07:20:22.000Z</time>
      </trkpt>
      <trkpt lat="49.24724" lon="1.63778">
        <ele>139</ele>
        <time>2014-09-28T07:20:24.000Z</time>
      </trkpt>
      <trkpt lat="49.24727" lon="1.63766">
        <ele>139</ele>
        <time>2014-09-28T07:20:26.000Z</time>
      </trkpt>
      <trkpt lat="49.2473" lon="1.63753">
        <ele>140</ele>
        <time>2014-09-28T07:20:28.000Z</time>
      </trkpt>
      <trkpt lat="49.24733" lon="1.63741">
        <ele>140</ele>
        <time>2014-09-28T07:20:30.000Z</time>
      </trkpt>
      <trkpt lat="49.24736" lon="1.63728">
        <ele>140</ele>
        <time>2014-09-28T07:20:32.000Z</time>
      </trkpt>
      <trkpt lat="49.24739" lon="1.63716">
        <ele>140</ele>
        <time>2014-09-28T07:20:34.000Z</time>
      </trkpt>
      <trkpt lat="49.24741" lon="1.63704">
        <ele>140</ele>
        <time>2014-09-28T07:20:36.000Z</time>
      </trkpt>
      <trkpt lat="49.24743" lon="1.63694">
        <ele>140</ele>
        <time>2014-09-28T07:20:38.000Z</time>
      </trkpt>
      <trkpt lat="49.24746" lon="1.63682">
        <ele>140</ele>
        <time>2014-09-28T07:20:40.000Z</time>
      </trkpt>
      <trkpt lat="49.2475" lon="1.63671">
        <ele>140</ele>
        <time>2014-09-28T07:20:42.000Z</time>
      </trkpt>
      <trkpt lat="49.24752" lon="1.63659">
        <ele>140</ele>
        <time>2014-09-28T07:20:44.000Z</time>
      </trkpt>
      <trkpt lat="49.24754" lon="1.63648">
        <ele>140</ele>
        <time>2014-09-28T07:20:46.000Z</time>
      </trkpt>
      <trkpt lat="49.24757" lon="1.63637">
        <ele>141</ele>
        <time>2014-09-28T07:20:48.000Z</time>
      </trkpt>
      <trkpt lat="49.24759" lon="1.63626">
        <ele>141</ele>
        <time>2014-09-28T07:20:50.000Z</time>
      </trkpt>
      <trkpt lat="49.24762" lon="1.63615">
        <ele>141</ele>
        <time>2014-09-28T07:20:52.000Z</time>
      </trkpt>
      <trkpt lat="49.24765" lon="1.63605">
        <ele>141</ele>
        <time>2014-09-28T07:20:54.000Z</time>
      </trkpt>
      <trkpt lat="49.24768" lon="1.63595">
        <ele>141</ele>
        <time>2014-09-28T07:20:56.000Z</time>
      </trkpt>
      <trkpt lat="49.24771" lon="1.63586">
        <ele>141</ele>
        <time>2014-09-28T07:20:58.000Z</time>
      </trkpt>
      <trkpt lat="49.24773" lon="1.63577">
        <ele>141</ele>
        <time>2014-09-28T07:21:00.000Z</time>
      </trkpt>
      <trkpt lat="49.24776" lon="1.63568">
        <ele>141</ele>
        <time>2014-09-28T07:21:02.000Z</time>
      </trkpt>
      <trkpt lat="49.24778" lon="1.6356">
        <ele>141</ele>
        <time>2014-09-28T07:21:04.000Z</time>
      </trkpt>
      <trkpt lat="49.24778" lon="1.6356">
        <ele>141</ele>
        <time>2014-09-28T07:21:06.000Z</time>
      </trkpt>
      <trkpt lat="49.24783" lon="1.63544">
        <ele>141</ele>
        <time>2014-09-28T07:21:08.000Z</time>
      </trkpt>
      <trkpt lat="49.24786" lon="1.63535">
        <ele>141</ele>
        <time>2014-09-28T07:21:10.000Z</time>
      </trkpt>
      <trkpt lat="49.24789" lon="1.63526">
        <ele>141</ele>
        <time>2014-09-28T07:21:12.000Z</time>
      </trkpt>
      <trkpt lat="49.24792" lon="1.63516">
        <ele>141</ele>
        <time>2014-09-28T07:21:14.000Z</time>
      </trkpt>
      <trkpt lat="49.24795" lon="1.63507">
        <ele>141</ele>
        <time>2014-09-28T07:21:16.000Z</time>
      </trkpt>
      <trkpt lat="49.24797" lon="1.63498">
        <ele>141</ele>
        <time>2014-09-28T07:21:18.000Z</time>
      </trkpt>
      <trkpt lat="49.24801" lon="1.63488">
        <ele>141</ele>
        <time>2014-09-28T07:21:20.000Z</time>
      </trkpt>
      <trkpt lat="49.24804" lon="1.63478">
        <ele>142</ele>
        <time>2014-09-28T07:21:22.000Z</time>
      </trkpt>
      <trkpt lat="49.24807" lon="1.63468">
        <ele>142</ele>
        <time>2014-09-28T07:21:24.000Z</time>
      </trkpt>
      <trkpt lat="49.2481" lon="1.63459">
        <ele>142</ele>
        <time>2014-09-28T07:21:26.000Z</time>
      </trkpt>
      <trkpt lat="49.24813" lon="1.63449">
        <ele>142</ele>
        <time>2014-09-28T07:21:28.000Z</time>
      </trkpt>
      <trkpt lat="49.24817" lon="1.63439">
        <ele>142</ele>
        <time>2014-09-28T07:21:30.000Z</time>
      </trkpt>
      <trkpt lat="49.2482" lon="1.6343">
        <ele>141</ele>
        <time>2014-09-28T07:21:32.000Z</time>
      </trkpt>
      <trkpt lat="49.24823" lon="1.63421">
        <ele>141</ele>
        <time>2014-09-28T07:21:34.000Z</time>
      </trkpt>
      <trkpt lat="49.24826" lon="1.63414">
        <ele>141</ele>
        <time>2014-09-28T07:21:36.000Z</time>
      </trkpt>
      <trkpt lat="49.24826" lon="1.63414">
        <ele>141</ele>
        <time>2014-09-28T07:21:38.000Z</time>
      </trkpt>
      <trkpt lat="49.24831" lon="1.63399">
        <ele>141</ele>
        <time>2014-09-28T07:21:40.000Z</time>
      </trkpt>
      <trkpt lat="49.24834" lon="1.63391">
        <ele>141</ele>
        <time>2014-09-28T07:21:42.000Z</time>
      </trkpt>
      <trkpt lat="49.24834" lon="1.63391">
        <ele>141</ele>
        <time>2014-09-28T07:21:44.000Z</time>
      </trkpt>
      <trkpt lat="49.24839" lon="1.63378">
        <ele>141</ele>
        <time>2014-09-28T07:21:46.000Z</time>
      </trkpt>
      <trkpt lat="49.24839" lon="1.63378">
        <ele>141</ele>
        <time>2014-09-28T07:21:48.000Z</time>
      </trkpt>
      <trkpt lat="49.24844" lon="1.63365">
        <ele>140</ele>
        <time>2014-09-28T07:21:50.000Z</time>
      </trkpt>
      <trkpt lat="49.24844" lon="1.63365">
        <ele>140</ele>
        <time>2014-09-28T07:21:52.000Z</time>
      </trkpt>
      <trkpt lat="49.24849" lon="1.63352">
        <ele>140</ele>
        <time>2014-09-28T07:21:54.000Z</time>
      </trkpt>
      <trkpt lat="49.24852" lon="1.63343">
        <ele>140</ele>
        <time>2014-09-28T07:21:56.000Z</time>
      </trkpt>
      <trkpt lat="49.24855" lon="1.63334">
        <ele>140</ele>
        <time>2014-09-28T07:21:58.000Z</time>
      </trkpt>
      <trkpt lat="49.24859" lon="1.63324">
        <ele>140</ele>
        <time>2014-09-28T07:22:00.000Z</time>
      </trkpt>
      <trkpt lat="49.24862" lon="1.63315">
        <ele>141</ele>
        <time>2014-09-28T07:22:02.000Z</time>
      </trkpt>
      <trkpt lat="49.24864" lon="1.63306">
        <ele>141</ele>
        <time>2014-09-28T07:22:04.000Z</time>
      </trkpt>
      <trkpt lat="49.24864" lon="1.63306">
        <ele>141</ele>
        <time>2014-09-28T07:22:06.000Z</time>
      </trkpt>
      <trkpt lat="49.2487" lon="1.6329">
        <ele>141</ele>
        <time>2014-09-28T07:22:08.000Z</time>
      </trkpt>
      <trkpt lat="49.24873" lon="1.63282">
        <ele>140</ele>
        <time>2014-09-28T07:22:10.000Z</time>
      </trkpt>
      <trkpt lat="49.24877" lon="1.63272">
        <ele>140</ele>
        <time>2014-09-28T07:22:12.000Z</time>
      </trkpt>
      <trkpt lat="49.24881" lon="1.63261">
        <ele>140</ele>
        <time>2014-09-28T07:22:14.000Z</time>
      </trkpt>
      <trkpt lat="49.24884" lon="1.63251">
        <ele>140</ele>
        <time>2014-09-28T07:22:16.000Z</time>
      </trkpt>
      <trkpt lat="49.24888" lon="1.63241">
        <ele>140</ele>
        <time>2014-09-28T07:22:18.000Z</time>
      </trkpt>
      <trkpt lat="49.24891" lon="1.63231">
        <ele>140</ele>
        <time>2014-09-28T07:22:20.000Z</time>
      </trkpt>
      <trkpt lat="49.24895" lon="1.63221">
        <ele>139</ele>
        <time>2014-09-28T07:22:22.000Z</time>
      </trkpt>
      <trkpt lat="49.24899" lon="1.6321">
        <ele>139</ele>
        <time>2014-09-28T07:22:24.000Z</time>
      </trkpt>
      <trkpt lat="49.24901" lon="1.632">
        <ele>139</ele>
        <time>2014-09-28T07:22:26.000Z</time>
      </trkpt>
      <trkpt lat="49.24904" lon="1.6319">
        <ele>139</ele>
        <time>2014-09-28T07:22:28.000Z</time>
      </trkpt>
      <trkpt lat="49.24906" lon="1.63181">
        <ele>139</ele>
        <time>2014-09-28T07:22:30.000Z</time>
      </trkpt>
      <trkpt lat="49.24909" lon="1.6317">
        <ele>139</ele>
        <time>2014-09-28T07:22:32.000Z</time>
      </trkpt>
      <trkpt lat="49.24912" lon="1.63159">
        <ele>139</ele>
        <time>2014-09-28T07:22:34.000Z</time>
      </trkpt>
      <trkpt lat="49.24915" lon="1.63149">
        <ele>139</ele>
        <time>2014-09-28T07:22:36.000Z</time>
      </trkpt>
      <trkpt lat="49.24917" lon="1.63138">
        <ele>139</ele>
        <time>2014-09-28T07:22:38.000Z</time>
      </trkpt>
      <trkpt lat="49.24919" lon="1.63128">
        <ele>139</ele>
        <time>2014-09-28T07:22:40.000Z</time>
      </trkpt>
      <trkpt lat="49.24921" lon="1.63117">
        <ele>140</ele>
        <time>2014-09-28T07:22:42.000Z</time>
      </trkpt>
      <trkpt lat="49.24922" lon="1.63107">
        <ele>139</ele>
        <time>2014-09-28T07:22:44.000Z</time>
      </trkpt>
      <trkpt lat="49.24924" lon="1.63096">
        <ele>140</ele>
        <time>2014-09-28T07:22:46.000Z</time>
      </trkpt>
      <trkpt lat="49.24926" lon="1.63085">
        <ele>140</ele>
        <time>2014-09-28T07:22:48.000Z</time>
      </trkpt>
      <trkpt lat="49.24927" lon="1.63075">
        <ele>140</ele>
        <time>2014-09-28T07:22:50.000Z</time>
      </trkpt>
      <trkpt lat="49.24929" lon="1.63065">
        <ele>140</ele>
        <time>2014-09-28T07:22:52.000Z</time>
      </trkpt>
      <trkpt lat="49.2493" lon="1.63055">
        <ele>140</ele>
        <time>2014-09-28T07:22:54.000Z</time>
      </trkpt>
      <trkpt lat="49.24932" lon="1.63045">
        <ele>140</ele>
        <time>2014-09-28T07:22:56.000Z</time>
      </trkpt>
      <trkpt lat="49.24933" lon="1.63035">
        <ele>140</ele>
        <time>2014-09-28T07:22:58.000Z</time>
      </trkpt>
      <trkpt lat="49.24935" lon="1.63026">
        <ele>140</ele>
        <time>2014-09-28T07:23:00.000Z</time>
      </trkpt>
      <trkpt lat="49.24935" lon="1.63026">
        <ele>140</ele>
        <time>2014-09-28T07:23:02.000Z</time>
      </trkpt>
      <trkpt lat="49.24937" lon="1.63009">
        <ele>140</ele>
        <time>2014-09-28T07:23:04.000Z</time>
      </trkpt>
      <trkpt lat="49.24939" lon="1.63">
        <ele>140</ele>
        <time>2014-09-28T07:23:06.000Z</time>
      </trkpt>
      <trkpt lat="49.2494" lon="1.6299">
        <ele>141</ele>
        <time>2014-09-28T07:23:08.000Z</time>
      </trkpt>
      <trkpt lat="49.24942" lon="1.6298">
        <ele>141</ele>
        <time>2014-09-28T07:23:10.000Z</time>
      </trkpt>
      <trkpt lat="49.24944" lon="1.6297">
        <ele>140</ele>
        <time>2014-09-28T07:23:12.000Z</time>
      </trkpt>
      <trkpt lat="49.24945" lon="1.6296">
        <ele>140</ele>
        <time>2014-09-28T07:23:14.000Z</time>
      </trkpt>
      <trkpt lat="49.24947" lon="1.62949">
        <ele>140</ele>
        <time>2014-09-28T07:23:16.000Z</time>
      </trkpt>
      <trkpt lat="49.24949" lon="1.62938">
        <ele>141</ele>
        <time>2014-09-28T07:23:18.000Z</time>
      </trkpt>
      <trkpt lat="49.2495" lon="1.62928">
        <ele>140</ele>
        <time>2014-09-28T07:23:20.000Z</time>
      </trkpt>
      <trkpt lat="49.24951" lon="1.62918">
        <ele>140</ele>
        <time>2014-09-28T07:23:22.000Z</time>
      </trkpt>
      <trkpt lat="49.24953" lon="1.62907">
        <ele>140</ele>
        <time>2014-09-28T07:23:24.000Z</time>
      </trkpt>
      <trkpt lat="49.24955" lon="1.62896">
        <ele>140</ele>
        <time>2014-09-28T07:23:26.000Z</time>
      </trkpt>
      <trkpt lat="49.24957" lon="1.62885">
        <ele>140</ele>
        <time>2014-09-28T07:23:28.000Z</time>
      </trkpt>
      <trkpt lat="49.24958" lon="1.62873">
        <ele>140</ele>
        <time>2014-09-28T07:23:30.000Z</time>
      </trkpt>
      <trkpt lat="49.2496" lon="1.62861">
        <ele>140</ele>
        <time>2014-09-28T07:23:32.000Z</time>
      </trkpt>
      <trkpt lat="49.24962" lon="1.62849">
        <ele>140</ele>
        <time>2014-09-28T07:23:34.000Z</time>
      </trkpt>
      <trkpt lat="49.24964" lon="1.62838">
        <ele>140</ele>
        <time>2014-09-28T07:23:36.000Z</time>
      </trkpt>
      <trkpt lat="49.24966" lon="1.62828">
        <ele>140</ele>
        <time>2014-09-28T07:23:38.000Z</time>
      </trkpt>
      <trkpt lat="49.24967" lon="1.62817">
        <ele>140</ele>
        <time>2014-09-28T07:23:40.000Z</time>
      </trkpt>
      <trkpt lat="49.24969" lon="1.62807">
        <ele>140</ele>
        <time>2014-09-28T07:23:42.000Z</time>
      </trkpt>
      <trkpt lat="49.2497" lon="1.62797">
        <ele>140</ele>
        <time>2014-09-28T07:23:44.000Z</time>
      </trkpt>
      <trkpt lat="49.24971" lon="1.62786">
        <ele>140</ele>
        <time>2014-09-28T07:23:46.000Z</time>
      </trkpt>
      <trkpt lat="49.24973" lon="1.62777">
        <ele>140</ele>
        <time>2014-09-28T07:23:48.000Z</time>
      </trkpt>
      <trkpt lat="49.24974" lon="1.62768">
        <ele>140</ele>
        <time>2014-09-28T07:23:50.000Z</time>
      </trkpt>
      <trkpt lat="49.24976" lon="1.62758">
        <ele>140</ele>
        <time>2014-09-28T07:23:52.000Z</time>
      </trkpt>
      <trkpt lat="49.24977" lon="1.62747">
        <ele>140</ele>
        <time>2014-09-28T07:23:54.000Z</time>
      </trkpt>
      <trkpt lat="49.24979" lon="1.62736">
        <ele>140</ele>
        <time>2014-09-28T07:23:56.000Z</time>
      </trkpt>
      <trkpt lat="49.2498" lon="1.62725">
        <ele>140</ele>
        <time>2014-09-28T07:23:58.000Z</time>
      </trkpt>
      <trkpt lat="49.24981" lon="1.62715">
        <ele>141</ele>
        <time>2014-09-28T07:24:00.000Z</time>
      </trkpt>
      <trkpt lat="49.24983" lon="1.62704">
        <ele>141</ele>
        <time>2014-09-28T07:24:02.000Z</time>
      </trkpt>
      <trkpt lat="49.24984" lon="1.62694">
        <ele>141</ele>
        <time>2014-09-28T07:24:04.000Z</time>
      </trkpt>
      <trkpt lat="49.24986" lon="1.62685">
        <ele>141</ele>
        <time>2014-09-28T07:24:06.000Z</time>
      </trkpt>
      <trkpt lat="49.24987" lon="1.62674">
        <ele>141</ele>
        <time>2014-09-28T07:24:08.000Z</time>
      </trkpt>
      <trkpt lat="49.2499" lon="1.62664">
        <ele>141</ele>
        <time>2014-09-28T07:24:10.000Z</time>
      </trkpt>
      <trkpt lat="49.24992" lon="1.62654">
        <ele>141</ele>
        <time>2014-09-28T07:24:12.000Z</time>
      </trkpt>
      <trkpt lat="49.24994" lon="1.62644">
        <ele>141</ele>
        <time>2014-09-28T07:24:14.000Z</time>
      </trkpt>
      <trkpt lat="49.24998" lon="1.62634">
        <ele>141</ele>
        <time>2014-09-28T07:24:16.000Z</time>
      </trkpt>
      <trkpt lat="49.25002" lon="1.62624">
        <ele>141</ele>
        <time>2014-09-28T07:24:18.000Z</time>
      </trkpt>
      <trkpt lat="49.25004" lon="1.62613">
        <ele>142</ele>
        <time>2014-09-28T07:24:20.000Z</time>
      </trkpt>
      <trkpt lat="49.25006" lon="1.62603">
        <ele>142</ele>
        <time>2014-09-28T07:24:22.000Z</time>
      </trkpt>
      <trkpt lat="49.2501" lon="1.62594">
        <ele>142</ele>
        <time>2014-09-28T07:24:24.000Z</time>
      </trkpt>
      <trkpt lat="49.25013" lon="1.62586">
        <ele>142</ele>
        <time>2014-09-28T07:24:26.000Z</time>
      </trkpt>
      <trkpt lat="49.25016" lon="1.62577">
        <ele>142</ele>
        <time>2014-09-28T07:24:28.000Z</time>
      </trkpt>
      <trkpt lat="49.25019" lon="1.62568">
        <ele>143</ele>
        <time>2014-09-28T07:24:30.000Z</time>
      </trkpt>
      <trkpt lat="49.25022" lon="1.62558">
        <ele>143</ele>
        <time>2014-09-28T07:24:32.000Z</time>
      </trkpt>
      <trkpt lat="49.25025" lon="1.62548">
        <ele>143</ele>
        <time>2014-09-28T07:24:34.000Z</time>
      </trkpt>
      <trkpt lat="49.25027" lon="1.62538">
        <ele>143</ele>
        <time>2014-09-28T07:24:36.000Z</time>
      </trkpt>
      <trkpt lat="49.2503" lon="1.62528">
        <ele>143</ele>
        <time>2014-09-28T07:24:38.000Z</time>
      </trkpt>
      <trkpt lat="49.25032" lon="1.62518">
        <ele>143</ele>
        <time>2014-09-28T07:24:40.000Z</time>
      </trkpt>
      <trkpt lat="49.25034" lon="1.62509">
        <ele>143</ele>
        <time>2014-09-28T07:24:42.000Z</time>
      </trkpt>
      <trkpt lat="49.25034" lon="1.62509">
        <ele>143</ele>
        <time>2014-09-28T07:24:44.000Z</time>
      </trkpt>
      <trkpt lat="49.25037" lon="1.62493">
        <ele>144</ele>
        <time>2014-09-28T07:24:46.000Z</time>
      </trkpt>
      <trkpt lat="49.25037" lon="1.62493">
        <ele>144</ele>
        <time>2014-09-28T07:24:48.000Z</time>
      </trkpt>
      <trkpt lat="49.25039" lon="1.62478">
        <ele>144</ele>
        <time>2014-09-28T07:24:50.000Z</time>
      </trkpt>
      <trkpt lat="49.25039" lon="1.62478">
        <ele>144</ele>
        <time>2014-09-28T07:24:52.000Z</time>
      </trkpt>
      <trkpt lat="49.2504" lon="1.62465">
        <ele>145</ele>
        <time>2014-09-28T07:24:54.000Z</time>
      </trkpt>
      <trkpt lat="49.2504" lon="1.62465">
        <ele>145</ele>
        <time>2014-09-28T07:24:56.000Z</time>
      </trkpt>
      <trkpt lat="49.25043" lon="1.62454">
        <ele>145</ele>
        <time>2014-09-28T07:24:58.000Z</time>
      </trkpt>
      <trkpt lat="49.25043" lon="1.62454">
        <ele>145</ele>
        <time>2014-09-28T07:25:00.000Z</time>
      </trkpt>
      <trkpt lat="49.25043" lon="1.62445">
        <ele>145</ele>
        <time>2014-09-28T07:25:02.000Z</time>
      </trkpt>
      <trkpt lat="49.25043" lon="1.62445">
        <ele>145</ele>
        <time>2014-09-28T07:25:04.000Z</time>
      </trkpt>
      <trkpt lat="49.25039" lon="1.62437">
        <ele>145</ele>
        <time>2014-09-28T07:25:06.000Z</time>
      </trkpt>
      <trkpt lat="49.25034" lon="1.62427">
        <ele>146</ele>
        <time>2014-09-28T07:25:10.000Z</time>
      </trkpt>
      <trkpt lat="49.25029" lon="1.62414">
        <ele>146</ele>
        <time>2014-09-28T07:25:14.000Z</time>
      </trkpt>
      <trkpt lat="49.25024" lon="1.624">
        <ele>146</ele>
        <time>2014-09-28T07:25:18.000Z</time>
      </trkpt>
      <trkpt lat="49.25019" lon="1.62384">
        <ele>146</ele>
        <time>2014-09-28T07:25:22.000Z</time>
      </trkpt>
      <trkpt lat="49.25013" lon="1.62369">
        <ele>146</ele>
        <time>2014-09-28T07:25:26.000Z</time>
      </trkpt>
      <trkpt lat="49.2501" lon="1.62361">
        <ele>146</ele>
        <time>2014-09-28T07:25:28.000Z</time>
      </trkpt>
      <trkpt lat="49.25006" lon="1.62353">
        <ele>147</ele>
        <time>2014-09-28T07:25:30.000Z</time>
      </trkpt>
      <trkpt lat="49.25003" lon="1.62344">
        <ele>147</ele>
        <time>2014-09-28T07:25:32.000Z</time>
      </trkpt>
      <trkpt lat="49.24999" lon="1.62335">
        <ele>147</ele>
        <time>2014-09-28T07:25:34.000Z</time>
      </trkpt>
      <trkpt lat="49.24996" lon="1.62326">
        <ele>147</ele>
        <time>2014-09-28T07:25:36.000Z</time>
      </trkpt>
      <trkpt lat="49.24992" lon="1.62316">
        <ele>147</ele>
        <time>2014-09-28T07:25:38.000Z</time>
      </trkpt>
      <trkpt lat="49.24989" lon="1.62307">
        <ele>147</ele>
        <time>2014-09-28T07:25:40.000Z</time>
      </trkpt>
      <trkpt lat="49.24985" lon="1.62296">
        <ele>147</ele>
        <time>2014-09-28T07:25:42.000Z</time>
      </trkpt>
      <trkpt lat="49.24981" lon="1.62286">
        <ele>147</ele>
        <time>2014-09-28T07:25:44.000Z</time>
      </trkpt>
      <trkpt lat="49.24977" lon="1.62276">
        <ele>147</ele>
        <time>2014-09-28T07:25:46.000Z</time>
      </trkpt>
      <trkpt lat="49.24973" lon="1.62265">
        <ele>147</ele>
        <time>2014-09-28T07:25:48.000Z</time>
      </trkpt>
      <trkpt lat="49.24969" lon="1.62255">
        <ele>147</ele>
        <time>2014-09-28T07:25:50.000Z</time>
      </trkpt>
      <trkpt lat="49.24966" lon="1.62244">
        <ele>147</ele>
        <time>2014-09-28T07:25:52.000Z</time>
      </trkpt>
      <trkpt lat="49.24962" lon="1.62233">
        <ele>148</ele>
        <time>2014-09-28T07:25:54.000Z</time>
      </trkpt>
      <trkpt lat="49.24958" lon="1.62223">
        <ele>147</ele>
        <time>2014-09-28T07:25:56.000Z</time>
      </trkpt>
      <trkpt lat="49.24955" lon="1.62212">
        <ele>148</ele>
        <time>2014-09-28T07:25:58.000Z</time>
      </trkpt>
      <trkpt lat="49.24952" lon="1.622">
        <ele>148</ele>
        <time>2014-09-28T07:26:00.000Z</time>
      </trkpt>
      <trkpt lat="49.24948" lon="1.62189">
        <ele>147</ele>
        <time>2014-09-28T07:26:02.000Z</time>
      </trkpt>
      <trkpt lat="49.24944" lon="1.62178">
        <ele>148</ele>
        <time>2014-09-28T07:26:04.000Z</time>
      </trkpt>
      <trkpt lat="49.24939" lon="1.62167">
        <ele>148</ele>
        <time>2014-09-28T07:26:06.000Z</time>
      </trkpt>
      <trkpt lat="49.24936" lon="1.62155">
        <ele>148</ele>
        <time>2014-09-28T07:26:08.000Z</time>
      </trkpt>
      <trkpt lat="49.24932" lon="1.62144">
        <ele>148</ele>
        <time>2014-09-28T07:26:10.000Z</time>
      </trkpt>
      <trkpt lat="49.24928" lon="1.62133">
        <ele>148</ele>
        <time>2014-09-28T07:26:12.000Z</time>
      </trkpt>
      <trkpt lat="49.24925" lon="1.62121">
        <ele>148</ele>
        <time>2014-09-28T07:26:14.000Z</time>
      </trkpt>
      <trkpt lat="49.24921" lon="1.6211">
        <ele>148</ele>
        <time>2014-09-28T07:26:16.000Z</time>
      </trkpt>
      <trkpt lat="49.24916" lon="1.62098">
        <ele>148</ele>
        <time>2014-09-28T07:26:18.000Z</time>
      </trkpt>
      <trkpt lat="49.24911" lon="1.62086">
        <ele>148</ele>
        <time>2014-09-28T07:26:20.000Z</time>
      </trkpt>
      <trkpt lat="49.24907" lon="1.62074">
        <ele>148</ele>
        <time>2014-09-28T07:26:22.000Z</time>
      </trkpt>
      <trkpt lat="49.24902" lon="1.62061">
        <ele>148</ele>
        <time>2014-09-28T07:26:24.000Z</time>
      </trkpt>
      <trkpt lat="49.24898" lon="1.62047">
        <ele>148</ele>
        <time>2014-09-28T07:26:26.000Z</time>
      </trkpt>
      <trkpt lat="49.24893" lon="1.62034">
        <ele>148</ele>
        <time>2014-09-28T07:26:28.000Z</time>
      </trkpt>
      <trkpt lat="49.24889" lon="1.62022">
        <ele>148</ele>
        <time>2014-09-28T07:26:30.000Z</time>
      </trkpt>
      <trkpt lat="49.24884" lon="1.62008">
        <ele>149</ele>
        <time>2014-09-28T07:26:32.000Z</time>
      </trkpt>
      <trkpt lat="49.24879" lon="1.61994">
        <ele>149</ele>
        <time>2014-09-28T07:26:34.000Z</time>
      </trkpt>
      <trkpt lat="49.24874" lon="1.61981">
        <ele>149</ele>
        <time>2014-09-28T07:26:36.000Z</time>
      </trkpt>
      <trkpt lat="49.2487" lon="1.61967">
        <ele>149</ele>
        <time>2014-09-28T07:26:38.000Z</time>
      </trkpt>
      <trkpt lat="49.24865" lon="1.61955">
        <ele>150</ele>
        <time>2014-09-28T07:26:40.000Z</time>
      </trkpt>
      <trkpt lat="49.24861" lon="1.61941">
        <ele>150</ele>
        <time>2014-09-28T07:26:42.000Z</time>
      </trkpt>
      <trkpt lat="49.24857" lon="1.61928">
        <ele>150</ele>
        <time>2014-09-28T07:26:44.000Z</time>
      </trkpt>
      <trkpt lat="49.24852" lon="1.61914">
        <ele>150</ele>
        <time>2014-09-28T07:26:46.000Z</time>
      </trkpt>
      <trkpt lat="49.24845" lon="1.61903">
        <ele>150</ele>
        <time>2014-09-28T07:26:48.000Z</time>
      </trkpt>
      <trkpt lat="49.24837" lon="1.61896">
        <ele>150</ele>
        <time>2014-09-28T07:26:50.000Z</time>
      </trkpt>
      <trkpt lat="49.24829" lon="1.6189">
        <ele>150</ele>
        <time>2014-09-28T07:26:52.000Z</time>
      </trkpt>
      <trkpt lat="49.2482" lon="1.61885">
        <ele>150</ele>
        <time>2014-09-28T07:26:54.000Z</time>
      </trkpt>
      <trkpt lat="49.24812" lon="1.6188">
        <ele>150</ele>
        <time>2014-09-28T07:26:56.000Z</time>
      </trkpt>
      <trkpt lat="49.24804" lon="1.61875">
        <ele>150</ele>
        <time>2014-09-28T07:26:58.000Z</time>
      </trkpt>
      <trkpt lat="49.24795" lon="1.61872">
        <ele>150</ele>
        <time>2014-09-28T07:27:00.000Z</time>
      </trkpt>
      <trkpt lat="49.24786" lon="1.61867">
        <ele>151</ele>
        <time>2014-09-28T07:27:02.000Z</time>
      </trkpt>
      <trkpt lat="49.24777" lon="1.61863">
        <ele>151</ele>
        <time>2014-09-28T07:27:04.000Z</time>
      </trkpt>
      <trkpt lat="49.24768" lon="1.61858">
        <ele>151</ele>
        <time>2014-09-28T07:27:06.000Z</time>
      </trkpt>
      <trkpt lat="49.24759" lon="1.61854">
        <ele>151</ele>
        <time>2014-09-28T07:27:08.000Z</time>
      </trkpt>
      <trkpt lat="49.2475" lon="1.61849">
        <ele>151</ele>
        <time>2014-09-28T07:27:10.000Z</time>
      </trkpt>
      <trkpt lat="49.24741" lon="1.61845">
        <ele>151</ele>
        <time>2014-09-28T07:27:12.000Z</time>
      </trkpt>
      <trkpt lat="49.24732" lon="1.61841">
        <ele>151</ele>
        <time>2014-09-28T07:27:14.000Z</time>
      </trkpt>
      <trkpt lat="49.24724" lon="1.61836">
        <ele>151</ele>
        <time>2014-09-28T07:27:16.000Z</time>
      </trkpt>
      <trkpt lat="49.24715" lon="1.61831">
        <ele>151</ele>
        <time>2014-09-28T07:27:18.000Z</time>
      </trkpt>
      <trkpt lat="49.24708" lon="1.61827">
        <ele>151</ele>
        <time>2014-09-28T07:27:20.000Z</time>
      </trkpt>
      <trkpt lat="49.24702" lon="1.61822">
        <ele>151</ele>
        <time>2014-09-28T07:27:22.000Z</time>
      </trkpt>
      <trkpt lat="49.24695" lon="1.61818">
        <ele>151</ele>
        <time>2014-09-28T07:27:24.000Z</time>
      </trkpt>
      <trkpt lat="49.24688" lon="1.61814">
        <ele>152</ele>
        <time>2014-09-28T07:27:26.000Z</time>
      </trkpt>
      <trkpt lat="49.24681" lon="1.61811">
        <ele>151</ele>
        <time>2014-09-28T07:27:28.000Z</time>
      </trkpt>
      <trkpt lat="49.24674" lon="1.61808">
        <ele>151</ele>
        <time>2014-09-28T07:27:30.000Z</time>
      </trkpt>
      <trkpt lat="49.24669" lon="1.61804">
        <ele>151</ele>
        <time>2014-09-28T07:27:32.000Z</time>
      </trkpt>
      <trkpt lat="49.24669" lon="1.61804">
        <ele>151</ele>
        <time>2014-09-28T07:27:34.000Z</time>
      </trkpt>
      <trkpt lat="49.24664" lon="1.61791">
        <ele>151</ele>
        <time>2014-09-28T07:27:36.000Z</time>
      </trkpt>
      <trkpt lat="49.24664" lon="1.61791">
        <ele>151</ele>
        <time>2014-09-28T07:27:38.000Z</time>
      </trkpt>
      <trkpt lat="49.24667" lon="1.61774">
        <ele>151</ele>
        <time>2014-09-28T07:27:40.000Z</time>
      </trkpt>
      <trkpt lat="49.2467" lon="1.61765">
        <ele>152</ele>
        <time>2014-09-28T07:27:42.000Z</time>
      </trkpt>
      <trkpt lat="49.24673" lon="1.61755">
        <ele>152</ele>
        <time>2014-09-28T07:27:44.000Z</time>
      </trkpt>
      <trkpt lat="49.24676" lon="1.61745">
        <ele>152</ele>
        <time>2014-09-28T07:27:46.000Z</time>
      </trkpt>
      <trkpt lat="49.24679" lon="1.61736">
        <ele>152</ele>
        <time>2014-09-28T07:27:48.000Z</time>
      </trkpt>
      <trkpt lat="49.24681" lon="1.61727">
        <ele>152</ele>
        <time>2014-09-28T07:27:50.000Z</time>
      </trkpt>
      <trkpt lat="49.24684" lon="1.61718">
        <ele>152</ele>
        <time>2014-09-28T07:27:52.000Z</time>
      </trkpt>
      <trkpt lat="49.24688" lon="1.61708">
        <ele>152</ele>
        <time>2014-09-28T07:27:54.000Z</time>
      </trkpt>
      <trkpt lat="49.24691" lon="1.61696">
        <ele>152</ele>
        <time>2014-09-28T07:27:56.000Z</time>
      </trkpt>
      <trkpt lat="49.24695" lon="1.61685">
        <ele>152</ele>
        <time>2014-09-28T07:27:58.000Z</time>
      </trkpt>
      <trkpt lat="49.24699" lon="1.61675">
        <ele>152</ele>
        <time>2014-09-28T07:28:00.000Z</time>
      </trkpt>
      <trkpt lat="49.24702" lon="1.61664">
        <ele>152</ele>
        <time>2014-09-28T07:28:02.000Z</time>
      </trkpt>
      <trkpt lat="49.24705" lon="1.61653">
        <ele>152</ele>
        <time>2014-09-28T07:28:04.000Z</time>
      </trkpt>
      <trkpt lat="49.24708" lon="1.61643">
        <ele>152</ele>
        <time>2014-09-28T07:28:06.000Z</time>
      </trkpt>
      <trkpt lat="49.24711" lon="1.61632">
        <ele>153</ele>
        <time>2014-09-28T07:28:08.000Z</time>
      </trkpt>
      <trkpt lat="49.24714" lon="1.61621">
        <ele>153</ele>
        <time>2014-09-28T07:28:10.000Z</time>
      </trkpt>
      <trkpt lat="49.24717" lon="1.61609">
        <ele>153</ele>
        <time>2014-09-28T07:28:12.000Z</time>
      </trkpt>
      <trkpt lat="49.2472" lon="1.61597">
        <ele>153</ele>
        <time>2014-09-28T07:28:14.000Z</time>
      </trkpt>
      <trkpt lat="49.24723" lon="1.61585">
        <ele>153</ele>
        <time>2014-09-28T07:28:16.000Z</time>
      </trkpt>
      <trkpt lat="49.24725" lon="1.61572">
        <ele>153</ele>
        <time>2014-09-28T07:28:18.000Z</time>
      </trkpt>
      <trkpt lat="49.24728" lon="1.61558">
        <ele>153</ele>
        <time>2014-09-28T07:28:20.000Z</time>
      </trkpt>
      <trkpt lat="49.24731" lon="1.61544">
        <ele>153</ele>
        <time>2014-09-28T07:28:22.000Z</time>
      </trkpt>
      <trkpt lat="49.24734" lon="1.61529">
        <ele>153</ele>
        <time>2014-09-28T07:28:24.000Z</time>
      </trkpt>
      <trkpt lat="49.24737" lon="1.61513">
        <ele>153</ele>
        <time>2014-09-28T07:28:26.000Z</time>
      </trkpt>
      <trkpt lat="49.24739" lon="1.61498">
        <ele>153</ele>
        <time>2014-09-28T07:28:28.000Z</time>
      </trkpt>
      <trkpt lat="49.24741" lon="1.61483">
        <ele>153</ele>
        <time>2014-09-28T07:28:30.000Z</time>
      </trkpt>
      <trkpt lat="49.24743" lon="1.61469">
        <ele>154</ele>
        <time>2014-09-28T07:28:32.000Z</time>
      </trkpt>
      <trkpt lat="49.24745" lon="1.61455">
        <ele>153</ele>
        <time>2014-09-28T07:28:34.000Z</time>
      </trkpt>
      <trkpt lat="49.24747" lon="1.61441">
        <ele>153</ele>
        <time>2014-09-28T07:28:36.000Z</time>
      </trkpt>
      <trkpt lat="49.2475" lon="1.61427">
        <ele>153</ele>
        <time>2014-09-28T07:28:38.000Z</time>
      </trkpt>
      <trkpt lat="49.24752" lon="1.61414">
        <ele>153</ele>
        <time>2014-09-28T07:28:40.000Z</time>
      </trkpt>
      <trkpt lat="49.24754" lon="1.614">
        <ele>153</ele>
        <time>2014-09-28T07:28:42.000Z</time>
      </trkpt>
      <trkpt lat="49.24755" lon="1.61386">
        <ele>154</ele>
        <time>2014-09-28T07:28:44.000Z</time>
      </trkpt>
      <trkpt lat="49.24757" lon="1.61372">
        <ele>154</ele>
        <time>2014-09-28T07:28:46.000Z</time>
      </trkpt>
      <trkpt lat="49.24759" lon="1.61358">
        <ele>154</ele>
        <time>2014-09-28T07:28:48.000Z</time>
      </trkpt>
      <trkpt lat="49.24761" lon="1.61345">
        <ele>154</ele>
        <time>2014-09-28T07:28:50.000Z</time>
      </trkpt>
      <trkpt lat="49.24763" lon="1.61333">
        <ele>155</ele>
        <time>2014-09-28T07:28:52.000Z</time>
      </trkpt>
      <trkpt lat="49.24765" lon="1.6132">
        <ele>155</ele>
        <time>2014-09-28T07:28:54.000Z</time>
      </trkpt>
      <trkpt lat="49.24767" lon="1.61308">
        <ele>155</ele>
        <time>2014-09-28T07:28:56.000Z</time>
      </trkpt>
      <trkpt lat="49.24769" lon="1.61296">
        <ele>155</ele>
        <time>2014-09-28T07:28:58.000Z</time>
      </trkpt>
      <trkpt lat="49.24771" lon="1.61283">
        <ele>156</ele>
        <time>2014-09-28T07:29:00.000Z</time>
      </trkpt>
      <trkpt lat="49.24773" lon="1.6127">
        <ele>156</ele>
        <time>2014-09-28T07:29:02.000Z</time>
      </trkpt>
      <trkpt lat="49.24775" lon="1.61259">
        <ele>156</ele>
        <time>2014-09-28T07:29:04.000Z</time>
      </trkpt>
      <trkpt lat="49.24777" lon="1.61247">
        <ele>157</ele>
        <time>2014-09-28T07:29:06.000Z</time>
      </trkpt>
      <trkpt lat="49.24779" lon="1.61234">
        <ele>157</ele>
        <time>2014-09-28T07:29:08.000Z</time>
      </trkpt>
      <trkpt lat="49.2478" lon="1.61223">
        <ele>157</ele>
        <time>2014-09-28T07:29:10.000Z</time>
      </trkpt>
      <trkpt lat="49.24782" lon="1.61211">
        <ele>157</ele>
        <time>2014-09-28T07:29:12.000Z</time>
      </trkpt>
      <trkpt lat="49.24783" lon="1.61199">
        <ele>157</ele>
        <time>2014-09-28T07:29:14.000Z</time>
      </trkpt>
      <trkpt lat="49.24785" lon="1.61187">
        <ele>158</ele>
        <time>2014-09-28T07:29:16.000Z</time>
      </trkpt>
      <trkpt lat="49.24787" lon="1.61175">
        <ele>158</ele>
        <time>2014-09-28T07:29:18.000Z</time>
      </trkpt>
      <trkpt lat="49.24789" lon="1.61164">
        <ele>159</ele>
        <time>2014-09-28T07:29:20.000Z</time>
      </trkpt>
      <trkpt lat="49.2479" lon="1.61152">
        <ele>159</ele>
        <time>2014-09-28T07:29:22.000Z</time>
      </trkpt>
      <trkpt lat="49.24792" lon="1.61141">
        <ele>159</ele>
        <time>2014-09-28T07:29:24.000Z</time>
      </trkpt>
      <trkpt lat="49.24795" lon="1.61129">
        <ele>159</ele>
        <time>2014-09-28T07:29:26.000Z</time>
      </trkpt>
      <trkpt lat="49.24797" lon="1.61118">
        <ele>159</ele>
        <time>2014-09-28T07:29:28.000Z</time>
      </trkpt>
      <trkpt lat="49.248" lon="1.61107">
        <ele>159</ele>
        <time>2014-09-28T07:29:30.000Z</time>
      </trkpt>
      <trkpt lat="49.24802" lon="1.61095">
        <ele>160</ele>
        <time>2014-09-28T07:29:32.000Z</time>
      </trkpt>
      <trkpt lat="49.24804" lon="1.61084">
        <ele>160</ele>
        <time>2014-09-28T07:29:34.000Z</time>
      </trkpt>
      <trkpt lat="49.24807" lon="1.61072">
        <ele>160</ele>
        <time>2014-09-28T07:29:36.000Z</time>
      </trkpt>
      <trkpt lat="49.24809" lon="1.61061">
        <ele>160</ele>
        <time>2014-09-28T07:29:38.000Z</time>
      </trkpt>
      <trkpt lat="49.24812" lon="1.61049">
        <ele>161</ele>
        <time>2014-09-28T07:29:40.000Z</time>
      </trkpt>
      <trkpt lat="49.24814" lon="1.61038">
        <ele>161</ele>
        <time>2014-09-28T07:29:42.000Z</time>
      </trkpt>
      <trkpt lat="49.24817" lon="1.61026">
        <ele>161</ele>
        <time>2014-09-28T07:29:44.000Z</time>
      </trkpt>
      <trkpt lat="49.24819" lon="1.61015">
        <ele>161</ele>
        <time>2014-09-28T07:29:46.000Z</time>
      </trkpt>
      <trkpt lat="49.24821" lon="1.61004">
        <ele>160</ele>
        <time>2014-09-28T07:29:48.000Z</time>
      </trkpt>
      <trkpt lat="49.24823" lon="1.60993">
        <ele>160</ele>
        <time>2014-09-28T07:29:50.000Z</time>
      </trkpt>
      <trkpt lat="49.24826" lon="1.60981">
        <ele>160</ele>
        <time>2014-09-28T07:29:52.000Z</time>
      </trkpt>
      <trkpt lat="49.24828" lon="1.6097">
        <ele>161</ele>
        <time>2014-09-28T07:29:54.000Z</time>
      </trkpt>
      <trkpt lat="49.24831" lon="1.60958">
        <ele>161</ele>
        <time>2014-09-28T07:29:56.000Z</time>
      </trkpt>
      <trkpt lat="49.24834" lon="1.60946">
        <ele>161</ele>
        <time>2014-09-28T07:29:58.000Z</time>
      </trkpt>
      <trkpt lat="49.24836" lon="1.60935">
        <ele>161</ele>
        <time>2014-09-28T07:30:00.000Z</time>
      </trkpt>
      <trkpt lat="49.24839" lon="1.60923">
        <ele>161</ele>
        <time>2014-09-28T07:30:02.000Z</time>
      </trkpt>
      <trkpt lat="49.24841" lon="1.60911">
        <ele>161</ele>
        <time>2014-09-28T07:30:04.000Z</time>
      </trkpt>
      <trkpt lat="49.24844" lon="1.60899">
        <ele>161</ele>
        <time>2014-09-28T07:30:06.000Z</time>
      </trkpt>
      <trkpt lat="49.24846" lon="1.60887">
        <ele>162</ele>
        <time>2014-09-28T07:30:08.000Z</time>
      </trkpt>
      <trkpt lat="49.24849" lon="1.60876">
        <ele>162</ele>
        <time>2014-09-28T07:30:10.000Z</time>
      </trkpt>
      <trkpt lat="49.24851" lon="1.60864">
        <ele>162</ele>
        <time>2014-09-28T07:30:12.000Z</time>
      </trkpt>
      <trkpt lat="49.24854" lon="1.60852">
        <ele>161</ele>
        <time>2014-09-28T07:30:14.000Z</time>
      </trkpt>
      <trkpt lat="49.24856" lon="1.60841">
        <ele>161</ele>
        <time>2014-09-28T07:30:16.000Z</time>
      </trkpt>
      <trkpt lat="49.24859" lon="1.60829">
        <ele>161</ele>
        <time>2014-09-28T07:30:18.000Z</time>
      </trkpt>
      <trkpt lat="49.24862" lon="1.60817">
        <ele>162</ele>
        <time>2014-09-28T07:30:20.000Z</time>
      </trkpt>
      <trkpt lat="49.24864" lon="1.60805">
        <ele>162</ele>
        <time>2014-09-28T07:30:22.000Z</time>
      </trkpt>
      <trkpt lat="49.24866" lon="1.60794">
        <ele>162</ele>
        <time>2014-09-28T07:30:24.000Z</time>
      </trkpt>
      <trkpt lat="49.2487" lon="1.60782">
        <ele>162</ele>
        <time>2014-09-28T07:30:26.000Z</time>
      </trkpt>
      <trkpt lat="49.24872" lon="1.60769">
        <ele>162</ele>
        <time>2014-09-28T07:30:28.000Z</time>
      </trkpt>
      <trkpt lat="49.24875" lon="1.60757">
        <ele>162</ele>
        <time>2014-09-28T07:30:30.000Z</time>
      </trkpt>
      <trkpt lat="49.24878" lon="1.60744">
        <ele>162</ele>
        <time>2014-09-28T07:30:32.000Z</time>
      </trkpt>
      <trkpt lat="49.2488" lon="1.60731">
        <ele>162</ele>
        <time>2014-09-28T07:30:34.000Z</time>
      </trkpt>
      <trkpt lat="49.24883" lon="1.60718">
        <ele>162</ele>
        <time>2014-09-28T07:30:36.000Z</time>
      </trkpt>
      <trkpt lat="49.24885" lon="1.60705">
        <ele>162</ele>
        <time>2014-09-28T07:30:38.000Z</time>
      </trkpt>
      <trkpt lat="49.24888" lon="1.60693">
        <ele>162</ele>
        <time>2014-09-28T07:30:40.000Z</time>
      </trkpt>
      <trkpt lat="49.2489" lon="1.6068">
        <ele>163</ele>
        <time>2014-09-28T07:30:42.000Z</time>
      </trkpt>
      <trkpt lat="49.24892" lon="1.60667">
        <ele>163</ele>
        <time>2014-09-28T07:30:44.000Z</time>
      </trkpt>
      <trkpt lat="49.24894" lon="1.60653">
        <ele>163</ele>
        <time>2014-09-28T07:30:46.000Z</time>
      </trkpt>
      <trkpt lat="49.24895" lon="1.60639">
        <ele>163</ele>
        <time>2014-09-28T07:30:48.000Z</time>
      </trkpt>
      <trkpt lat="49.24897" lon="1.60624">
        <ele>163</ele>
        <time>2014-09-28T07:30:50.000Z</time>
      </trkpt>
      <trkpt lat="49.24898" lon="1.60609">
        <ele>163</ele>
        <time>2014-09-28T07:30:52.000Z</time>
      </trkpt>
      <trkpt lat="49.24899" lon="1.60594">
        <ele>163</ele>
        <time>2014-09-28T07:30:54.000Z</time>
      </trkpt>
      <trkpt lat="49.24901" lon="1.60577">
        <ele>163</ele>
        <time>2014-09-28T07:30:56.000Z</time>
      </trkpt>
      <trkpt lat="49.24903" lon="1.6056">
        <ele>163</ele>
        <time>2014-09-28T07:30:58.000Z</time>
      </trkpt>
      <trkpt lat="49.24904" lon="1.60543">
        <ele>163</ele>
        <time>2014-09-28T07:31:00.000Z</time>
      </trkpt>
      <trkpt lat="49.24905" lon="1.60527">
        <ele>163</ele>
        <time>2014-09-28T07:31:02.000Z</time>
      </trkpt>
      <trkpt lat="49.24906" lon="1.60511">
        <ele>163</ele>
        <time>2014-09-28T07:31:04.000Z</time>
      </trkpt>
      <trkpt lat="49.24908" lon="1.60494">
        <ele>163</ele>
        <time>2014-09-28T07:31:06.000Z</time>
      </trkpt>
      <trkpt lat="49.24909" lon="1.60476">
        <ele>162</ele>
        <time>2014-09-28T07:31:08.000Z</time>
      </trkpt>
      <trkpt lat="49.24911" lon="1.60458">
        <ele>162</ele>
        <time>2014-09-28T07:31:10.000Z</time>
      </trkpt>
      <trkpt lat="49.24912" lon="1.60441">
        <ele>163</ele>
        <time>2014-09-28T07:31:12.000Z</time>
      </trkpt>
      <trkpt lat="49.24913" lon="1.60424">
        <ele>163</ele>
        <time>2014-09-28T07:31:14.000Z</time>
      </trkpt>
      <trkpt lat="49.24915" lon="1.60407">
        <ele>163</ele>
        <time>2014-09-28T07:31:16.000Z</time>
      </trkpt>
      <trkpt lat="49.24916" lon="1.6039">
        <ele>163</ele>
        <time>2014-09-28T07:31:18.000Z</time>
      </trkpt>
      <trkpt lat="49.24918" lon="1.60372">
        <ele>163</ele>
        <time>2014-09-28T07:31:20.000Z</time>
      </trkpt>
      <trkpt lat="49.2492" lon="1.60356">
        <ele>163</ele>
        <time>2014-09-28T07:31:22.000Z</time>
      </trkpt>
      <trkpt lat="49.24921" lon="1.60339">
        <ele>162</ele>
        <time>2014-09-28T07:31:24.000Z</time>
      </trkpt>
      <trkpt lat="49.24922" lon="1.60323">
        <ele>163</ele>
        <time>2014-09-28T07:31:26.000Z</time>
      </trkpt>
      <trkpt lat="49.24924" lon="1.60307">
        <ele>163</ele>
        <time>2014-09-28T07:31:28.000Z</time>
      </trkpt>
      <trkpt lat="49.24925" lon="1.60291">
        <ele>162</ele>
        <time>2014-09-28T07:31:30.000Z</time>
      </trkpt>
      <trkpt lat="49.24927" lon="1.60275">
        <ele>162</ele>
        <time>2014-09-28T07:31:32.000Z</time>
      </trkpt>
      <trkpt lat="49.24928" lon="1.60259">
        <ele>163</ele>
        <time>2014-09-28T07:31:34.000Z</time>
      </trkpt>
      <trkpt lat="49.2493" lon="1.60243">
        <ele>163</ele>
        <time>2014-09-28T07:31:36.000Z</time>
      </trkpt>
      <trkpt lat="49.24931" lon="1.60227">
        <ele>163</ele>
        <time>2014-09-28T07:31:38.000Z</time>
      </trkpt>
      <trkpt lat="49.24933" lon="1.60211">
        <ele>163</ele>
        <time>2014-09-28T07:31:40.000Z</time>
      </trkpt>
      <trkpt lat="49.24934" lon="1.60195">
        <ele>163</ele>
        <time>2014-09-28T07:31:42.000Z</time>
      </trkpt>
      <trkpt lat="49.24936" lon="1.60178">
        <ele>163</ele>
        <time>2014-09-28T07:31:44.000Z</time>
      </trkpt>
      <trkpt lat="49.24938" lon="1.60162">
        <ele>162</ele>
        <time>2014-09-28T07:31:46.000Z</time>
      </trkpt>
      <trkpt lat="49.24939" lon="1.60145">
        <ele>163</ele>
        <time>2014-09-28T07:31:48.000Z</time>
      </trkpt>
      <trkpt lat="49.2494" lon="1.60129">
        <ele>163</ele>
        <time>2014-09-28T07:31:50.000Z</time>
      </trkpt>
      <trkpt lat="49.24942" lon="1.60113">
        <ele>163</ele>
        <time>2014-09-28T07:31:52.000Z</time>
      </trkpt>
      <trkpt lat="49.24944" lon="1.60097">
        <ele>163</ele>
        <time>2014-09-28T07:31:54.000Z</time>
      </trkpt>
      <trkpt lat="49.24946" lon="1.60082">
        <ele>164</ele>
        <time>2014-09-28T07:31:56.000Z</time>
      </trkpt>
      <trkpt lat="49.24947" lon="1.60066">
        <ele>164</ele>
        <time>2014-09-28T07:31:58.000Z</time>
      </trkpt>
      <trkpt lat="49.24949" lon="1.6005">
        <ele>165</ele>
        <time>2014-09-28T07:32:00.000Z</time>
      </trkpt>
      <trkpt lat="49.2495" lon="1.60035">
        <ele>165</ele>
        <time>2014-09-28T07:32:02.000Z</time>
      </trkpt>
      <trkpt lat="49.24952" lon="1.6002">
        <ele>165</ele>
        <time>2014-09-28T07:32:04.000Z</time>
      </trkpt>
      <trkpt lat="49.24953" lon="1.60004">
        <ele>165</ele>
        <time>2014-09-28T07:32:06.000Z</time>
      </trkpt>
      <trkpt lat="49.24954" lon="1.59989">
        <ele>166</ele>
        <time>2014-09-28T07:32:08.000Z</time>
      </trkpt>
      <trkpt lat="49.24955" lon="1.59974">
        <ele>166</ele>
        <time>2014-09-28T07:32:10.000Z</time>
      </trkpt>
      <trkpt lat="49.24957" lon="1.59959">
        <ele>166</ele>
        <time>2014-09-28T07:32:12.000Z</time>
      </trkpt>
      <trkpt lat="49.24958" lon="1.59944">
        <ele>166</ele>
        <time>2014-09-28T07:32:14.000Z</time>
      </trkpt>
      <trkpt lat="49.2496" lon="1.5993">
        <ele>166</ele>
        <time>2014-09-28T07:32:16.000Z</time>
      </trkpt>
      <trkpt lat="49.24961" lon="1.59915">
        <ele>166</ele>
        <time>2014-09-28T07:32:18.000Z</time>
      </trkpt>
      <trkpt lat="49.24962" lon="1.599">
        <ele>166</ele>
        <time>2014-09-28T07:32:20.000Z</time>
      </trkpt>
      <trkpt lat="49.24963" lon="1.59885">
        <ele>167</ele>
        <time>2014-09-28T07:32:22.000Z</time>
      </trkpt>
      <trkpt lat="49.24965" lon="1.5987">
        <ele>167</ele>
        <time>2014-09-28T07:32:24.000Z</time>
      </trkpt>
      <trkpt lat="49.24966" lon="1.59855">
        <ele>167</ele>
        <time>2014-09-28T07:32:26.000Z</time>
      </trkpt>
      <trkpt lat="49.24968" lon="1.59841">
        <ele>168</ele>
        <time>2014-09-28T07:32:28.000Z</time>
      </trkpt>
      <trkpt lat="49.24969" lon="1.59826">
        <ele>168</ele>
        <time>2014-09-28T07:32:30.000Z</time>
      </trkpt>
      <trkpt lat="49.2497" lon="1.59812">
        <ele>168</ele>
        <time>2014-09-28T07:32:32.000Z</time>
      </trkpt>
      <trkpt lat="49.24971" lon="1.59797">
        <ele>168</ele>
        <time>2014-09-28T07:32:34.000Z</time>
      </trkpt>
      <trkpt lat="49.24973" lon="1.59783">
        <ele>168</ele>
        <time>2014-09-28T07:32:36.000Z</time>
      </trkpt>
      <trkpt lat="49.24974" lon="1.59768">
        <ele>168</ele>
        <time>2014-09-28T07:32:38.000Z</time>
      </trkpt>
      <trkpt lat="49.24976" lon="1.59753">
        <ele>168</ele>
        <time>2014-09-28T07:32:40.000Z</time>
      </trkpt>
      <trkpt lat="49.24977" lon="1.59737">
        <ele>168</ele>
        <time>2014-09-28T07:32:42.000Z</time>
      </trkpt>
      <trkpt lat="49.24979" lon="1.59722">
        <ele>168</ele>
        <time>2014-09-28T07:32:44.000Z</time>
      </trkpt>
      <trkpt lat="49.2498" lon="1.59706">
        <ele>168</ele>
        <time>2014-09-28T07:32:46.000Z</time>
      </trkpt>
      <trkpt lat="49.24981" lon="1.5969">
        <ele>168</ele>
        <time>2014-09-28T07:32:48.000Z</time>
      </trkpt>
      <trkpt lat="49.24983" lon="1.59674">
        <ele>168</ele>
        <time>2014-09-28T07:32:50.000Z</time>
      </trkpt>
      <trkpt lat="49.24984" lon="1.59659">
        <ele>168</ele>
        <time>2014-09-28T07:32:52.000Z</time>
      </trkpt>
      <trkpt lat="49.24986" lon="1.59644">
        <ele>168</ele>
        <time>2014-09-28T07:32:54.000Z</time>
      </trkpt>
      <trkpt lat="49.24987" lon="1.59629">
        <ele>168</ele>
        <time>2014-09-28T07:32:56.000Z</time>
      </trkpt>
      <trkpt lat="49.24988" lon="1.59614">
        <ele>168</ele>
        <time>2014-09-28T07:32:58.000Z</time>
      </trkpt>
      <trkpt lat="49.24989" lon="1.59599">
        <ele>169</ele>
        <time>2014-09-28T07:33:00.000Z</time>
      </trkpt>
      <trkpt lat="49.2499" lon="1.59585">
        <ele>169</ele>
        <time>2014-09-28T07:33:02.000Z</time>
      </trkpt>
      <trkpt lat="49.24991" lon="1.5957">
        <ele>169</ele>
        <time>2014-09-28T07:33:04.000Z</time>
      </trkpt>
      <trkpt lat="49.24992" lon="1.59555">
        <ele>169</ele>
        <time>2014-09-28T07:33:06.000Z</time>
      </trkpt>
      <trkpt lat="49.24992" lon="1.5954">
        <ele>170</ele>
        <time>2014-09-28T07:33:08.000Z</time>
      </trkpt>
      <trkpt lat="49.24992" lon="1.59525">
        <ele>170</ele>
        <time>2014-09-28T07:33:10.000Z</time>
      </trkpt>
      <trkpt lat="49.24993" lon="1.59511">
        <ele>170</ele>
        <time>2014-09-28T07:33:12.000Z</time>
      </trkpt>
      <trkpt lat="49.24994" lon="1.59495">
        <ele>171</ele>
        <time>2014-09-28T07:33:14.000Z</time>
      </trkpt>
      <trkpt lat="49.24995" lon="1.59481">
        <ele>171</ele>
        <time>2014-09-28T07:33:16.000Z</time>
      </trkpt>
      <trkpt lat="49.24995" lon="1.59468">
        <ele>171</ele>
        <time>2014-09-28T07:33:18.000Z</time>
      </trkpt>
      <trkpt lat="49.24996" lon="1.59456">
        <ele>172</ele>
        <time>2014-09-28T07:33:20.000Z</time>
      </trkpt>
      <trkpt lat="49.24997" lon="1.59443">
        <ele>172</ele>
        <time>2014-09-28T07:33:22.000Z</time>
      </trkpt>
      <trkpt lat="49.24997" lon="1.59431">
        <ele>172</ele>
        <time>2014-09-28T07:33:24.000Z</time>
      </trkpt>
      <trkpt lat="49.24997" lon="1.59419">
        <ele>172</ele>
        <time>2014-09-28T07:33:26.000Z</time>
      </trkpt>
      <trkpt lat="49.24998" lon="1.59406">
        <ele>171</ele>
        <time>2014-09-28T07:33:28.000Z</time>
      </trkpt>
      <trkpt lat="49.24998" lon="1.59395">
        <ele>171</ele>
        <time>2014-09-28T07:33:30.000Z</time>
      </trkpt>
      <trkpt lat="49.24999" lon="1.59384">
        <ele>171</ele>
        <time>2014-09-28T07:33:32.000Z</time>
      </trkpt>
      <trkpt lat="49.24999" lon="1.59374">
        <ele>170</ele>
        <time>2014-09-28T07:33:34.000Z</time>
      </trkpt>
      <trkpt lat="49.24999" lon="1.59374">
        <ele>170</ele>
        <time>2014-09-28T07:33:36.000Z</time>
      </trkpt>
      <trkpt lat="49.24995" lon="1.5936">
        <ele>170</ele>
        <time>2014-09-28T07:33:38.000Z</time>
      </trkpt>
      <trkpt lat="49.2499" lon="1.59353">
        <ele>170</ele>
        <time>2014-09-28T07:33:40.000Z</time>
      </trkpt>
      <trkpt lat="49.24986" lon="1.59345">
        <ele>171</ele>
        <time>2014-09-28T07:33:42.000Z</time>
      </trkpt>
      <trkpt lat="49.24982" lon="1.59336">
        <ele>171</ele>
        <time>2014-09-28T07:33:44.000Z</time>
      </trkpt>
      <trkpt lat="49.24978" lon="1.59327">
        <ele>172</ele>
        <time>2014-09-28T07:33:46.000Z</time>
      </trkpt>
      <trkpt lat="49.24974" lon="1.59317">
        <ele>172</ele>
        <time>2014-09-28T07:33:48.000Z</time>
      </trkpt>
      <trkpt lat="49.24971" lon="1.59307">
        <ele>173</ele>
        <time>2014-09-28T07:33:50.000Z</time>
      </trkpt>
      <trkpt lat="49.24967" lon="1.59297">
        <ele>173</ele>
        <time>2014-09-28T07:33:52.000Z</time>
      </trkpt>
      <trkpt lat="49.24962" lon="1.59287">
        <ele>173</ele>
        <time>2014-09-28T07:33:54.000Z</time>
      </trkpt>
      <trkpt lat="49.24958" lon="1.59278">
        <ele>173</ele>
        <time>2014-09-28T07:33:56.000Z</time>
      </trkpt>
      <trkpt lat="49.24954" lon="1.59267">
        <ele>174</ele>
        <time>2014-09-28T07:33:58.000Z</time>
      </trkpt>
      <trkpt lat="49.24951" lon="1.59258">
        <ele>173</ele>
        <time>2014-09-28T07:34:00.000Z</time>
      </trkpt>
      <trkpt lat="49.2495" lon="1.59247">
        <ele>173</ele>
        <time>2014-09-28T07:34:02.000Z</time>
      </trkpt>
      <trkpt lat="49.24946" lon="1.59236">
        <ele>174</ele>
        <time>2014-09-28T07:34:04.000Z</time>
      </trkpt>
      <trkpt lat="49.24944" lon="1.59225">
        <ele>174</ele>
        <time>2014-09-28T07:34:06.000Z</time>
      </trkpt>
      <trkpt lat="49.24941" lon="1.59214">
        <ele>174</ele>
        <time>2014-09-28T07:34:08.000Z</time>
      </trkpt>
      <trkpt lat="49.24939" lon="1.59205">
        <ele>174</ele>
        <time>2014-09-28T07:34:10.000Z</time>
      </trkpt>
      <trkpt lat="49.24936" lon="1.59194">
        <ele>174</ele>
        <time>2014-09-28T07:34:12.000Z</time>
      </trkpt>
      <trkpt lat="49.24933" lon="1.59184">
        <ele>174</ele>
        <time>2014-09-28T07:34:14.000Z</time>
      </trkpt>
      <trkpt lat="49.24932" lon="1.59172">
        <ele>174</ele>
        <time>2014-09-28T07:34:16.000Z</time>
      </trkpt>
      <trkpt lat="49.24929" lon="1.5916">
        <ele>174</ele>
        <time>2014-09-28T07:34:18.000Z</time>
      </trkpt>
      <trkpt lat="49.24927" lon="1.59148">
        <ele>175</ele>
        <time>2014-09-28T07:34:20.000Z</time>
      </trkpt>
      <trkpt lat="49.24926" lon="1.59136">
        <ele>175</ele>
        <time>2014-09-28T07:34:22.000Z</time>
      </trkpt>
      <trkpt lat="49.24924" lon="1.59124">
        <ele>175</ele>
        <time>2014-09-28T07:34:24.000Z</time>
      </trkpt>
      <trkpt lat="49.24921" lon="1.5911">
        <ele>175</ele>
        <time>2014-09-28T07:34:26.000Z</time>
      </trkpt>
      <trkpt lat="49.2492" lon="1.59096">
        <ele>175</ele>
        <time>2014-09-28T07:34:28.000Z</time>
      </trkpt>
      <trkpt lat="49.24918" lon="1.59086">
        <ele>174</ele>
        <time>2014-09-28T07:34:30.000Z</time>
      </trkpt>
      <trkpt lat="49.24915" lon="1.59077">
        <ele>174</ele>
        <time>2014-09-28T07:34:32.000Z</time>
      </trkpt>
      <trkpt lat="49.24911" lon="1.59067">
        <ele>174</ele>
        <time>2014-09-28T07:34:34.000Z</time>
      </trkpt>
      <trkpt lat="49.24907" lon="1.59058">
        <ele>173</ele>
        <time>2014-09-28T07:34:36.000Z</time>
      </trkpt>
      <trkpt lat="49.24902" lon="1.59049">
        <ele>173</ele>
        <time>2014-09-28T07:34:38.000Z</time>
      </trkpt>
      <trkpt lat="49.24898" lon="1.59038">
        <ele>172</ele>
        <time>2014-09-28T07:34:40.000Z</time>
      </trkpt>
      <trkpt lat="49.24894" lon="1.59026">
        <ele>172</ele>
        <time>2014-09-28T07:34:42.000Z</time>
      </trkpt>
      <trkpt lat="49.2489" lon="1.59014">
        <ele>171</ele>
        <time>2014-09-28T07:34:44.000Z</time>
      </trkpt>
      <trkpt lat="49.24886" lon="1.59002">
        <ele>171</ele>
        <time>2014-09-28T07:34:46.000Z</time>
      </trkpt>
      <trkpt lat="49.24883" lon="1.5899">
        <ele>172</ele>
        <time>2014-09-28T07:34:48.000Z</time>
      </trkpt>
      <trkpt lat="49.2488" lon="1.58979">
        <ele>172</ele>
        <time>2014-09-28T07:34:50.000Z</time>
      </trkpt>
      <trkpt lat="49.24878" lon="1.58968">
        <ele>172</ele>
        <time>2014-09-28T07:34:52.000Z</time>
      </trkpt>
      <trkpt lat="49.24876" lon="1.58956">
        <ele>172</ele>
        <time>2014-09-28T07:34:54.000Z</time>
      </trkpt>
      <trkpt lat="49.24874" lon="1.58944">
        <ele>173</ele>
        <time>2014-09-28T07:34:56.000Z</time>
      </trkpt>
      <trkpt lat="49.24873" lon="1.58931">
        <ele>172</ele>
        <time>2014-09-28T07:34:58.000Z</time>
      </trkpt>
      <trkpt lat="49.24871" lon="1.58919">
        <ele>172</ele>
        <time>2014-09-28T07:35:00.000Z</time>
      </trkpt>
      <trkpt lat="49.2487" lon="1.58907">
        <ele>173</ele>
        <time>2014-09-28T07:35:02.000Z</time>
      </trkpt>
      <trkpt lat="49.2487" lon="1.58895">
        <ele>172</ele>
        <time>2014-09-28T07:35:04.000Z</time>
      </trkpt>
      <trkpt lat="49.24868" lon="1.58882">
        <ele>172</ele>
        <time>2014-09-28T07:35:06.000Z</time>
      </trkpt>
      <trkpt lat="49.24867" lon="1.58869">
        <ele>172</ele>
        <time>2014-09-28T07:35:08.000Z</time>
      </trkpt>
      <trkpt lat="49.24866" lon="1.58855">
        <ele>172</ele>
        <time>2014-09-28T07:35:10.000Z</time>
      </trkpt>
      <trkpt lat="49.24865" lon="1.58842">
        <ele>172</ele>
        <time>2014-09-28T07:35:12.000Z</time>
      </trkpt>
      <trkpt lat="49.24864" lon="1.58828">
        <ele>172</ele>
        <time>2014-09-28T07:35:14.000Z</time>
      </trkpt>
      <trkpt lat="49.24863" lon="1.58814">
        <ele>172</ele>
        <time>2014-09-28T07:35:16.000Z</time>
      </trkpt>
      <trkpt lat="49.24863" lon="1.588">
        <ele>172</ele>
        <time>2014-09-28T07:35:18.000Z</time>
      </trkpt>
      <trkpt lat="49.24862" lon="1.58788">
        <ele>172</ele>
        <time>2014-09-28T07:35:20.000Z</time>
      </trkpt>
      <trkpt lat="49.2486" lon="1.58775">
        <ele>172</ele>
        <time>2014-09-28T07:35:22.000Z</time>
      </trkpt>
      <trkpt lat="49.24859" lon="1.58763">
        <ele>172</ele>
        <time>2014-09-28T07:35:24.000Z</time>
      </trkpt>
      <trkpt lat="49.24859" lon="1.58749">
        <ele>172</ele>
        <time>2014-09-28T07:35:26.000Z</time>
      </trkpt>
      <trkpt lat="49.24859" lon="1.58737">
        <ele>172</ele>
        <time>2014-09-28T07:35:28.000Z</time>
      </trkpt>
      <trkpt lat="49.2486" lon="1.58728">
        <ele>171</ele>
        <time>2014-09-28T07:35:30.000Z</time>
      </trkpt>
      <trkpt lat="49.24862" lon="1.58718">
        <ele>171</ele>
        <time>2014-09-28T07:35:32.000Z</time>
      </trkpt>
      <trkpt lat="49.24863" lon="1.58705">
        <ele>172</ele>
        <time>2014-09-28T07:35:34.000Z</time>
      </trkpt>
      <trkpt lat="49.24863" lon="1.5869">
        <ele>172</ele>
        <time>2014-09-28T07:35:36.000Z</time>
      </trkpt>
      <trkpt lat="49.24864" lon="1.58677">
        <ele>173</ele>
        <time>2014-09-28T07:35:38.000Z</time>
      </trkpt>
      <trkpt lat="49.24866" lon="1.58664">
        <ele>174</ele>
        <time>2014-09-28T07:35:40.000Z</time>
      </trkpt>
      <trkpt lat="49.24867" lon="1.5865">
        <ele>175</ele>
        <time>2014-09-28T07:35:42.000Z</time>
      </trkpt>
      <trkpt lat="49.2487" lon="1.58637">
        <ele>175</ele>
        <time>2014-09-28T07:35:44.000Z</time>
      </trkpt>
      <trkpt lat="49.24872" lon="1.58624">
        <ele>175</ele>
        <time>2014-09-28T07:35:46.000Z</time>
      </trkpt>
      <trkpt lat="49.24872" lon="1.58613">
        <ele>177</ele>
        <time>2014-09-28T07:35:48.000Z</time>
      </trkpt>
      <trkpt lat="49.24873" lon="1.58604">
        <ele>177</ele>
        <time>2014-09-28T07:35:50.000Z</time>
      </trkpt>
      <trkpt lat="49.24873" lon="1.58604">
        <ele>177</ele>
        <time>2014-09-28T07:35:52.000Z</time>
      </trkpt>
      <trkpt lat="49.24873" lon="1.5859">
        <ele>178</ele>
        <time>2014-09-28T07:35:54.000Z</time>
      </trkpt>
      <trkpt lat="49.24873" lon="1.5859">
        <ele>178</ele>
        <time>2014-09-28T07:35:56.000Z</time>
      </trkpt>
      <trkpt lat="49.24873" lon="1.58583">
        <ele>177</ele>
        <time>2014-09-28T07:35:58.000Z</time>
      </trkpt>
      <trkpt lat="49.24873" lon="1.58575">
        <ele>177</ele>
        <time>2014-09-28T07:36:00.000Z</time>
      </trkpt>
      <trkpt lat="49.24873" lon="1.58565">
        <ele>177</ele>
        <time>2014-09-28T07:36:02.000Z</time>
      </trkpt>
      <trkpt lat="49.24873" lon="1.58555">
        <ele>177</ele>
        <time>2014-09-28T07:36:04.000Z</time>
      </trkpt>
      <trkpt lat="49.24873" lon="1.58545">
        <ele>177</ele>
        <time>2014-09-28T07:36:06.000Z</time>
      </trkpt>
      <trkpt lat="49.24872" lon="1.58524">
        <ele>177</ele>
        <time>2014-09-28T07:36:08.000Z</time>
      </trkpt>
      <trkpt lat="49.24872" lon="1.58516">
        <ele>177</ele>
        <time>2014-09-28T07:36:10.000Z</time>
      </trkpt>
      <trkpt lat="49.24872" lon="1.58507">
        <ele>177</ele>
        <time>2014-09-28T07:36:12.000Z</time>
      </trkpt>
      <trkpt lat="49.24871" lon="1.58497">
        <ele>177</ele>
        <time>2014-09-28T07:36:14.000Z</time>
      </trkpt>
      <trkpt lat="49.2487" lon="1.58485">
        <ele>177</ele>
        <time>2014-09-28T07:36:16.000Z</time>
      </trkpt>
      <trkpt lat="49.24869" lon="1.58472">
        <ele>177</ele>
        <time>2014-09-28T07:36:18.000Z</time>
      </trkpt>
      <trkpt lat="49.24868" lon="1.58459">
        <ele>176</ele>
        <time>2014-09-28T07:36:20.000Z</time>
      </trkpt>
      <trkpt lat="49.24868" lon="1.58446">
        <ele>176</ele>
        <time>2014-09-28T07:36:22.000Z</time>
      </trkpt>
      <trkpt lat="49.24867" lon="1.58434">
        <ele>176</ele>
        <time>2014-09-28T07:36:24.000Z</time>
      </trkpt>
      <trkpt lat="49.24867" lon="1.58423">
        <ele>175</ele>
        <time>2014-09-28T07:36:26.000Z</time>
      </trkpt>
      <trkpt lat="49.24867" lon="1.58412">
        <ele>175</ele>
        <time>2014-09-28T07:36:28.000Z</time>
      </trkpt>
      <trkpt lat="49.24866" lon="1.58401">
        <ele>176</ele>
        <time>2014-09-28T07:36:30.000Z</time>
      </trkpt>
      <trkpt lat="49.24866" lon="1.5839">
        <ele>176</ele>
        <time>2014-09-28T07:36:32.000Z</time>
      </trkpt>
      <trkpt lat="49.24866" lon="1.58379">
        <ele>176</ele>
        <time>2014-09-28T07:36:34.000Z</time>
      </trkpt>
      <trkpt lat="49.24867" lon="1.58368">
        <ele>176</ele>
        <time>2014-09-28T07:36:36.000Z</time>
      </trkpt>
      <trkpt lat="49.24868" lon="1.58357">
        <ele>176</ele>
        <time>2014-09-28T07:36:38.000Z</time>
      </trkpt>
      <trkpt lat="49.24869" lon="1.58347">
        <ele>176</ele>
        <time>2014-09-28T07:36:40.000Z</time>
      </trkpt>
      <trkpt lat="49.2487" lon="1.58337">
        <ele>176</ele>
        <time>2014-09-28T07:36:42.000Z</time>
      </trkpt>
      <trkpt lat="49.2487" lon="1.58337">
        <ele>176</ele>
        <time>2014-09-28T07:36:44.000Z</time>
      </trkpt>
      <trkpt lat="49.24871" lon="1.58326">
        <ele>176</ele>
        <time>2014-09-28T07:36:46.000Z</time>
      </trkpt>
      <trkpt lat="49.24871" lon="1.58326">
        <ele>176</ele>
        <time>2014-09-28T07:36:48.000Z</time>
      </trkpt>
      <trkpt lat="49.24865" lon="1.58323">
        <ele>177</ele>
        <time>2014-09-28T07:36:50.000Z</time>
      </trkpt>
      <trkpt lat="49.24856" lon="1.58322">
        <ele>177</ele>
        <time>2014-09-28T07:36:54.000Z</time>
      </trkpt>
      <trkpt lat="49.24845" lon="1.58319">
        <ele>177</ele>
        <time>2014-09-28T07:36:58.000Z</time>
      </trkpt>
      <trkpt lat="49.24832" lon="1.58317">
        <ele>177</ele>
        <time>2014-09-28T07:37:02.000Z</time>
      </trkpt>
      <trkpt lat="49.24825" lon="1.58315">
        <ele>176</ele>
        <time>2014-09-28T07:37:04.000Z</time>
      </trkpt>
      <trkpt lat="49.24818" lon="1.58314">
        <ele>176</ele>
        <time>2014-09-28T07:37:06.000Z</time>
      </trkpt>
      <trkpt lat="49.2481" lon="1.58314">
        <ele>176</ele>
        <time>2014-09-28T07:37:08.000Z</time>
      </trkpt>
      <trkpt lat="49.24802" lon="1.58314">
        <ele>176</ele>
        <time>2014-09-28T07:37:10.000Z</time>
      </trkpt>
      <trkpt lat="49.24794" lon="1.58313">
        <ele>176</ele>
        <time>2014-09-28T07:37:12.000Z</time>
      </trkpt>
      <trkpt lat="49.24787" lon="1.58312">
        <ele>176</ele>
        <time>2014-09-28T07:37:14.000Z</time>
      </trkpt>
      <trkpt lat="49.24777" lon="1.58311">
        <ele>176</ele>
        <time>2014-09-28T07:37:16.000Z</time>
      </trkpt>
      <trkpt lat="49.24767" lon="1.5831">
        <ele>175</ele>
        <time>2014-09-28T07:37:18.000Z</time>
      </trkpt>
      <trkpt lat="49.24758" lon="1.5831">
        <ele>175</ele>
        <time>2014-09-28T07:37:20.000Z</time>
      </trkpt>
      <trkpt lat="49.24752" lon="1.58309">
        <ele>175</ele>
        <time>2014-09-28T07:37:22.000Z</time>
      </trkpt>
      <trkpt lat="49.24752" lon="1.58309">
        <ele>175</ele>
        <time>2014-09-28T07:37:24.000Z</time>
      </trkpt>
      <trkpt lat="49.24743" lon="1.58308">
        <ele>175</ele>
        <time>2014-09-28T07:37:26.000Z</time>
      </trkpt>
      <trkpt lat="49.24737" lon="1.58307">
        <ele>175</ele>
        <time>2014-09-28T07:37:28.000Z</time>
      </trkpt>
      <trkpt lat="49.2473" lon="1.58306">
        <ele>175</ele>
        <time>2014-09-28T07:37:30.000Z</time>
      </trkpt>
      <trkpt lat="49.24722" lon="1.58306">
        <ele>175</ele>
        <time>2014-09-28T07:37:32.000Z</time>
      </trkpt>
      <trkpt lat="49.24714" lon="1.58306">
        <ele>175</ele>
        <time>2014-09-28T07:37:34.000Z</time>
      </trkpt>
      <trkpt lat="49.24707" lon="1.58306">
        <ele>175</ele>
        <time>2014-09-28T07:37:36.000Z</time>
      </trkpt>
      <trkpt lat="49.24707" lon="1.58306">
        <ele>175</ele>
        <time>2014-09-28T07:37:38.000Z</time>
      </trkpt>
      <trkpt lat="49.24707" lon="1.58306">
        <ele>175</ele>
        <time>2014-09-28T07:37:40.000Z</time>
      </trkpt>
      <trkpt lat="49.247" lon="1.58306">
        <ele>176</ele>
        <time>2014-09-28T07:37:42.000Z</time>
      </trkpt>
      <trkpt lat="49.247" lon="1.58306">
        <ele>176</ele>
        <time>2014-09-28T07:37:44.000Z</time>
      </trkpt>
      <trkpt lat="49.247" lon="1.58306">
        <ele>176</ele>
        <time>2014-09-28T07:37:46.000Z</time>
      </trkpt>
      <trkpt lat="49.24691" lon="1.58297">
        <ele>176</ele>
        <time>2014-09-28T07:38:37.000Z</time>
      </trkpt>
      <trkpt lat="49.24683" lon="1.58292">
        <ele>176</ele>
        <time>2014-09-28T07:38:39.000Z</time>
      </trkpt>
      <trkpt lat="49.24677" lon="1.58284">
        <ele>176</ele>
        <time>2014-09-28T07:38:41.000Z</time>
      </trkpt>
      <trkpt lat="49.2467" lon="1.58275">
        <ele>176</ele>
        <time>2014-09-28T07:38:43.000Z</time>
      </trkpt>
      <trkpt lat="49.24662" lon="1.58266">
        <ele>176</ele>
        <time>2014-09-28T07:38:45.000Z</time>
      </trkpt>
      <trkpt lat="49.24655" lon="1.58257">
        <ele>176</ele>
        <time>2014-09-28T07:38:47.000Z</time>
      </trkpt>
      <trkpt lat="49.24648" lon="1.58248">
        <ele>176</ele>
        <time>2014-09-28T07:38:49.000Z</time>
      </trkpt>
      <trkpt lat="49.2464" lon="1.58239">
        <ele>176</ele>
        <time>2014-09-28T07:38:51.000Z</time>
      </trkpt>
      <trkpt lat="49.24633" lon="1.5823">
        <ele>176</ele>
        <time>2014-09-28T07:38:53.000Z</time>
      </trkpt>
      <trkpt lat="49.24625" lon="1.5822">
        <ele>176</ele>
        <time>2014-09-28T07:38:55.000Z</time>
      </trkpt>
      <trkpt lat="49.24616" lon="1.5821">
        <ele>175</ele>
        <time>2014-09-28T07:38:57.000Z</time>
      </trkpt>
      <trkpt lat="49.24607" lon="1.582">
        <ele>176</ele>
        <time>2014-09-28T07:38:59.000Z</time>
      </trkpt>
      <trkpt lat="49.24599" lon="1.58189">
        <ele>175</ele>
        <time>2014-09-28T07:39:01.000Z</time>
      </trkpt>
      <trkpt lat="49.2459" lon="1.58179">
        <ele>175</ele>
        <time>2014-09-28T07:39:03.000Z</time>
      </trkpt>
      <trkpt lat="49.24581" lon="1.5817">
        <ele>175</ele>
        <time>2014-09-28T07:39:05.000Z</time>
      </trkpt>
      <trkpt lat="49.24573" lon="1.58161">
        <ele>175</ele>
        <time>2014-09-28T07:39:07.000Z</time>
      </trkpt>
      <trkpt lat="49.24565" lon="1.58152">
        <ele>174</ele>
        <time>2014-09-28T07:39:09.000Z</time>
      </trkpt>
      <trkpt lat="49.24557" lon="1.58143">
        <ele>174</ele>
        <time>2014-09-28T07:39:11.000Z</time>
      </trkpt>
      <trkpt lat="49.2455" lon="1.58134">
        <ele>174</ele>
        <time>2014-09-28T07:39:13.000Z</time>
      </trkpt>
      <trkpt lat="49.24543" lon="1.58126">
        <ele>174</ele>
        <time>2014-09-28T07:39:15.000Z</time>
      </trkpt>
      <trkpt lat="49.24537" lon="1.58118">
        <ele>174</ele>
        <time>2014-09-28T07:39:17.000Z</time>
      </trkpt>
      <trkpt lat="49.2453" lon="1.58109">
        <ele>174</ele>
        <time>2014-09-28T07:39:19.000Z</time>
      </trkpt>
      <trkpt lat="49.24524" lon="1.58102">
        <ele>174</ele>
        <time>2014-09-28T07:39:21.000Z</time>
      </trkpt>
      <trkpt lat="49.24519" lon="1.58095">
        <ele>174</ele>
        <time>2014-09-28T07:39:23.000Z</time>
      </trkpt>
      <trkpt lat="49.24513" lon="1.58088">
        <ele>174</ele>
        <time>2014-09-28T07:39:25.000Z</time>
      </trkpt>
      <trkpt lat="49.24507" lon="1.58081">
        <ele>174</ele>
        <time>2014-09-28T07:39:27.000Z</time>
      </trkpt>
      <trkpt lat="49.24501" lon="1.58073">
        <ele>174</ele>
        <time>2014-09-28T07:39:29.000Z</time>
      </trkpt>
      <trkpt lat="49.24494" lon="1.58065">
        <ele>174</ele>
        <time>2014-09-28T07:39:31.000Z</time>
      </trkpt>
      <trkpt lat="49.24487" lon="1.58056">
        <ele>174</ele>
        <time>2014-09-28T07:39:33.000Z</time>
      </trkpt>
      <trkpt lat="49.24481" lon="1.58048">
        <ele>174</ele>
        <time>2014-09-28T07:39:35.000Z</time>
      </trkpt>
      <trkpt lat="49.24474" lon="1.58038">
        <ele>175</ele>
        <time>2014-09-28T07:39:37.000Z</time>
      </trkpt>
      <trkpt lat="49.24467" lon="1.58029">
        <ele>175</ele>
        <time>2014-09-28T07:39:39.000Z</time>
      </trkpt>
      <trkpt lat="49.24459" lon="1.58019">
        <ele>175</ele>
        <time>2014-09-28T07:39:41.000Z</time>
      </trkpt>
      <trkpt lat="49.24452" lon="1.58009">
        <ele>175</ele>
        <time>2014-09-28T07:39:43.000Z</time>
      </trkpt>
      <trkpt lat="49.24444" lon="1.57999">
        <ele>174</ele>
        <time>2014-09-28T07:39:45.000Z</time>
      </trkpt>
      <trkpt lat="49.24436" lon="1.57989">
        <ele>174</ele>
        <time>2014-09-28T07:39:47.000Z</time>
      </trkpt>
      <trkpt lat="49.24429" lon="1.5798">
        <ele>174</ele>
        <time>2014-09-28T07:39:49.000Z</time>
      </trkpt>
      <trkpt lat="49.24421" lon="1.5797">
        <ele>174</ele>
        <time>2014-09-28T07:39:51.000Z</time>
      </trkpt>
      <trkpt lat="49.24414" lon="1.5796">
        <ele>174</ele>
        <time>2014-09-28T07:39:53.000Z</time>
      </trkpt>
      <trkpt lat="49.24406" lon="1.5795">
        <ele>174</ele>
        <time>2014-09-28T07:39:55.000Z</time>
      </trkpt>
      <trkpt lat="49.24398" lon="1.5794">
        <ele>173</ele>
        <time>2014-09-28T07:39:57.000Z</time>
      </trkpt>
      <trkpt lat="49.2439" lon="1.57931">
        <ele>173</ele>
        <time>2014-09-28T07:39:59.000Z</time>
      </trkpt>
      <trkpt lat="49.24383" lon="1.57922">
        <ele>173</ele>
        <time>2014-09-28T07:40:01.000Z</time>
      </trkpt>
      <trkpt lat="49.24376" lon="1.57912">
        <ele>173</ele>
        <time>2014-09-28T07:40:03.000Z</time>
      </trkpt>
      <trkpt lat="49.24368" lon="1.57903">
        <ele>173</ele>
        <time>2014-09-28T07:40:05.000Z</time>
      </trkpt>
      <trkpt lat="49.2436" lon="1.57894">
        <ele>173</ele>
        <time>2014-09-28T07:40:07.000Z</time>
      </trkpt>
      <trkpt lat="49.24353" lon="1.57885">
        <ele>173</ele>
        <time>2014-09-28T07:40:09.000Z</time>
      </trkpt>
      <trkpt lat="49.24347" lon="1.57878">
        <ele>173</ele>
        <time>2014-09-28T07:40:11.000Z</time>
      </trkpt>
      <trkpt lat="49.2434" lon="1.57871">
        <ele>173</ele>
        <time>2014-09-28T07:40:13.000Z</time>
      </trkpt>
      <trkpt lat="49.24332" lon="1.57864">
        <ele>173</ele>
        <time>2014-09-28T07:40:15.000Z</time>
      </trkpt>
      <trkpt lat="49.24326" lon="1.57856">
        <ele>173</ele>
        <time>2014-09-28T07:40:17.000Z</time>
      </trkpt>
      <trkpt lat="49.24318" lon="1.57847">
        <ele>173</ele>
        <time>2014-09-28T07:40:19.000Z</time>
      </trkpt>
      <trkpt lat="49.24311" lon="1.57838">
        <ele>173</ele>
        <time>2014-09-28T07:40:21.000Z</time>
      </trkpt>
      <trkpt lat="49.24304" lon="1.57829">
        <ele>173</ele>
        <time>2014-09-28T07:40:23.000Z</time>
      </trkpt>
      <trkpt lat="49.24297" lon="1.57821">
        <ele>173</ele>
        <time>2014-09-28T07:40:25.000Z</time>
      </trkpt>
      <trkpt lat="49.2429" lon="1.57812">
        <ele>173</ele>
        <time>2014-09-28T07:40:27.000Z</time>
      </trkpt>
      <trkpt lat="49.24284" lon="1.57804">
        <ele>173</ele>
        <time>2014-09-28T07:40:29.000Z</time>
      </trkpt>
      <trkpt lat="49.24277" lon="1.57796">
        <ele>173</ele>
        <time>2014-09-28T07:40:31.000Z</time>
      </trkpt>
      <trkpt lat="49.2427" lon="1.57787">
        <ele>173</ele>
        <time>2014-09-28T07:40:33.000Z</time>
      </trkpt>
      <trkpt lat="49.24263" lon="1.57778">
        <ele>172</ele>
        <time>2014-09-28T07:40:35.000Z</time>
      </trkpt>
      <trkpt lat="49.24257" lon="1.57769">
        <ele>172</ele>
        <time>2014-09-28T07:40:37.000Z</time>
      </trkpt>
      <trkpt lat="49.24249" lon="1.5776">
        <ele>173</ele>
        <time>2014-09-28T07:40:39.000Z</time>
      </trkpt>
      <trkpt lat="49.24242" lon="1.57752">
        <ele>173</ele>
        <time>2014-09-28T07:40:41.000Z</time>
      </trkpt>
      <trkpt lat="49.24236" lon="1.57744">
        <ele>174</ele>
        <time>2014-09-28T07:40:43.000Z</time>
      </trkpt>
      <trkpt lat="49.2423" lon="1.57737">
        <ele>173</ele>
        <time>2014-09-28T07:40:45.000Z</time>
      </trkpt>
      <trkpt lat="49.24223" lon="1.57729">
        <ele>173</ele>
        <time>2014-09-28T07:40:47.000Z</time>
      </trkpt>
      <trkpt lat="49.24216" lon="1.57721">
        <ele>173</ele>
        <time>2014-09-28T07:40:49.000Z</time>
      </trkpt>
      <trkpt lat="49.2421" lon="1.57713">
        <ele>173</ele>
        <time>2014-09-28T07:40:51.000Z</time>
      </trkpt>
      <trkpt lat="49.24203" lon="1.57706">
        <ele>173</ele>
        <time>2014-09-28T07:40:53.000Z</time>
      </trkpt>
      <trkpt lat="49.24197" lon="1.57698">
        <ele>173</ele>
        <time>2014-09-28T07:40:55.000Z</time>
      </trkpt>
      <trkpt lat="49.24192" lon="1.5769">
        <ele>172</ele>
        <time>2014-09-28T07:40:57.000Z</time>
      </trkpt>
      <trkpt lat="49.24186" lon="1.57682">
        <ele>172</ele>
        <time>2014-09-28T07:40:59.000Z</time>
      </trkpt>
      <trkpt lat="49.24179" lon="1.57674">
        <ele>172</ele>
        <time>2014-09-28T07:41:01.000Z</time>
      </trkpt>
      <trkpt lat="49.24174" lon="1.57668">
        <ele>172</ele>
        <time>2014-09-28T07:41:03.000Z</time>
      </trkpt>
      <trkpt lat="49.24169" lon="1.57662">
        <ele>172</ele>
        <time>2014-09-28T07:41:05.000Z</time>
      </trkpt>
      <trkpt lat="49.24169" lon="1.57662">
        <ele>172</ele>
        <time>2014-09-28T07:41:07.000Z</time>
      </trkpt>
      <trkpt lat="49.24161" lon="1.57651">
        <ele>171</ele>
        <time>2014-09-28T07:41:09.000Z</time>
      </trkpt>
      <trkpt lat="49.24161" lon="1.57651">
        <ele>171</ele>
        <time>2014-09-28T07:41:11.000Z</time>
      </trkpt>
      <trkpt lat="49.24156" lon="1.57639">
        <ele>171</ele>
        <time>2014-09-28T07:41:13.000Z</time>
      </trkpt>
      <trkpt lat="49.24156" lon="1.57639">
        <ele>171</ele>
        <time>2014-09-28T07:41:15.000Z</time>
      </trkpt>
      <trkpt lat="49.24162" lon="1.57626">
        <ele>171</ele>
        <time>2014-09-28T07:41:17.000Z</time>
      </trkpt>
      <trkpt lat="49.24166" lon="1.57619">
        <ele>171</ele>
        <time>2014-09-28T07:41:19.000Z</time>
      </trkpt>
      <trkpt lat="49.24169" lon="1.5761">
        <ele>171</ele>
        <time>2014-09-28T07:41:21.000Z</time>
      </trkpt>
      <trkpt lat="49.24172" lon="1.57601">
        <ele>170</ele>
        <time>2014-09-28T07:41:23.000Z</time>
      </trkpt>
      <trkpt lat="49.24176" lon="1.57591">
        <ele>170</ele>
        <time>2014-09-28T07:41:25.000Z</time>
      </trkpt>
      <trkpt lat="49.24179" lon="1.57581">
        <ele>169</ele>
        <time>2014-09-28T07:41:27.000Z</time>
      </trkpt>
      <trkpt lat="49.24183" lon="1.5757">
        <ele>169</ele>
        <time>2014-09-28T07:41:29.000Z</time>
      </trkpt>
      <trkpt lat="49.24188" lon="1.57558">
        <ele>169</ele>
        <time>2014-09-28T07:41:31.000Z</time>
      </trkpt>
      <trkpt lat="49.24194" lon="1.57545">
        <ele>168</ele>
        <time>2014-09-28T07:41:33.000Z</time>
      </trkpt>
      <trkpt lat="49.24199" lon="1.57533">
        <ele>168</ele>
        <time>2014-09-28T07:41:35.000Z</time>
      </trkpt>
      <trkpt lat="49.24204" lon="1.57521">
        <ele>168</ele>
        <time>2014-09-28T07:41:37.000Z</time>
      </trkpt>
      <trkpt lat="49.2421" lon="1.57507">
        <ele>168</ele>
        <time>2014-09-28T07:41:39.000Z</time>
      </trkpt>
      <trkpt lat="49.24216" lon="1.57493">
        <ele>168</ele>
        <time>2014-09-28T07:41:41.000Z</time>
      </trkpt>
      <trkpt lat="49.24223" lon="1.57477">
        <ele>167</ele>
        <time>2014-09-28T07:41:43.000Z</time>
      </trkpt>
      <trkpt lat="49.24229" lon="1.57461">
        <ele>167</ele>
        <time>2014-09-28T07:41:45.000Z</time>
      </trkpt>
      <trkpt lat="49.24233" lon="1.57444">
        <ele>167</ele>
        <time>2014-09-28T07:41:47.000Z</time>
      </trkpt>
      <trkpt lat="49.24238" lon="1.57427">
        <ele>167</ele>
        <time>2014-09-28T07:41:49.000Z</time>
      </trkpt>
      <trkpt lat="49.24242" lon="1.57411">
        <ele>167</ele>
        <time>2014-09-28T07:41:51.000Z</time>
      </trkpt>
      <trkpt lat="49.24245" lon="1.57397">
        <ele>167</ele>
        <time>2014-09-28T07:41:53.000Z</time>
      </trkpt>
      <trkpt lat="49.24247" lon="1.57382">
        <ele>167</ele>
        <time>2014-09-28T07:41:55.000Z</time>
      </trkpt>
      <trkpt lat="49.2425" lon="1.57366">
        <ele>167</ele>
        <time>2014-09-28T07:41:57.000Z</time>
      </trkpt>
      <trkpt lat="49.24253" lon="1.57348">
        <ele>168</ele>
        <time>2014-09-28T07:41:59.000Z</time>
      </trkpt>
      <trkpt lat="49.24255" lon="1.5733">
        <ele>168</ele>
        <time>2014-09-28T07:42:01.000Z</time>
      </trkpt>
      <trkpt lat="49.24258" lon="1.57313">
        <ele>168</ele>
        <time>2014-09-28T07:42:03.000Z</time>
      </trkpt>
      <trkpt lat="49.2426" lon="1.57296">
        <ele>169</ele>
        <time>2014-09-28T07:42:05.000Z</time>
      </trkpt>
      <trkpt lat="49.24262" lon="1.57278">
        <ele>169</ele>
        <time>2014-09-28T07:42:07.000Z</time>
      </trkpt>
      <trkpt lat="49.24265" lon="1.57261">
        <ele>169</ele>
        <time>2014-09-28T07:42:09.000Z</time>
      </trkpt>
      <trkpt lat="49.24267" lon="1.57244">
        <ele>169</ele>
        <time>2014-09-28T07:42:11.000Z</time>
      </trkpt>
      <trkpt lat="49.2427" lon="1.57227">
        <ele>170</ele>
        <time>2014-09-28T07:42:13.000Z</time>
      </trkpt>
      <trkpt lat="49.24273" lon="1.57211">
        <ele>170</ele>
        <time>2014-09-28T07:42:15.000Z</time>
      </trkpt>
      <trkpt lat="49.24275" lon="1.57194">
        <ele>170</ele>
        <time>2014-09-28T07:42:17.000Z</time>
      </trkpt>
      <trkpt lat="49.24277" lon="1.57178">
        <ele>170</ele>
        <time>2014-09-28T07:42:19.000Z</time>
      </trkpt>
      <trkpt lat="49.2428" lon="1.57161">
        <ele>170</ele>
        <time>2014-09-28T07:42:21.000Z</time>
      </trkpt>
      <trkpt lat="49.24282" lon="1.57145">
        <ele>170</ele>
        <time>2014-09-28T07:42:23.000Z</time>
      </trkpt>
      <trkpt lat="49.24284" lon="1.57128">
        <ele>170</ele>
        <time>2014-09-28T07:42:25.000Z</time>
      </trkpt>
      <trkpt lat="49.24287" lon="1.57112">
        <ele>170</ele>
        <time>2014-09-28T07:42:27.000Z</time>
      </trkpt>
      <trkpt lat="49.24289" lon="1.57095">
        <ele>170</ele>
        <time>2014-09-28T07:42:29.000Z</time>
      </trkpt>
      <trkpt lat="49.24291" lon="1.57079">
        <ele>171</ele>
        <time>2014-09-28T07:42:31.000Z</time>
      </trkpt>
      <trkpt lat="49.24294" lon="1.57062">
        <ele>171</ele>
        <time>2014-09-28T07:42:33.000Z</time>
      </trkpt>
      <trkpt lat="49.24296" lon="1.57046">
        <ele>172</ele>
        <time>2014-09-28T07:42:35.000Z</time>
      </trkpt>
      <trkpt lat="49.24298" lon="1.57029">
        <ele>172</ele>
        <time>2014-09-28T07:42:37.000Z</time>
      </trkpt>
      <trkpt lat="49.24301" lon="1.57012">
        <ele>172</ele>
        <time>2014-09-28T07:42:39.000Z</time>
      </trkpt>
      <trkpt lat="49.24303" lon="1.56995">
        <ele>172</ele>
        <time>2014-09-28T07:42:41.000Z</time>
      </trkpt>
      <trkpt lat="49.24305" lon="1.56979">
        <ele>173</ele>
        <time>2014-09-28T07:42:43.000Z</time>
      </trkpt>
      <trkpt lat="49.24307" lon="1.56962">
        <ele>173</ele>
        <time>2014-09-28T07:42:45.000Z</time>
      </trkpt>
      <trkpt lat="49.2431" lon="1.56946">
        <ele>173</ele>
        <time>2014-09-28T07:42:47.000Z</time>
      </trkpt>
      <trkpt lat="49.24312" lon="1.56929">
        <ele>173</ele>
        <time>2014-09-28T07:42:49.000Z</time>
      </trkpt>
      <trkpt lat="49.24314" lon="1.56912">
        <ele>173</ele>
        <time>2014-09-28T07:42:51.000Z</time>
      </trkpt>
      <trkpt lat="49.24316" lon="1.56896">
        <ele>173</ele>
        <time>2014-09-28T07:42:53.000Z</time>
      </trkpt>
      <trkpt lat="49.24319" lon="1.56879">
        <ele>173</ele>
        <time>2014-09-28T07:42:55.000Z</time>
      </trkpt>
      <trkpt lat="49.24321" lon="1.56861">
        <ele>173</ele>
        <time>2014-09-28T07:42:57.000Z</time>
      </trkpt>
      <trkpt lat="49.24324" lon="1.56844">
        <ele>173</ele>
        <time>2014-09-28T07:42:59.000Z</time>
      </trkpt>
      <trkpt lat="49.24327" lon="1.56827">
        <ele>173</ele>
        <time>2014-09-28T07:43:01.000Z</time>
      </trkpt>
      <trkpt lat="49.24329" lon="1.5681">
        <ele>172</ele>
        <time>2014-09-28T07:43:03.000Z</time>
      </trkpt>
      <trkpt lat="49.24331" lon="1.56792">
        <ele>172</ele>
        <time>2014-09-28T07:43:05.000Z</time>
      </trkpt>
      <trkpt lat="49.24334" lon="1.56774">
        <ele>172</ele>
        <time>2014-09-28T07:43:07.000Z</time>
      </trkpt>
      <trkpt lat="49.24336" lon="1.56755">
        <ele>172</ele>
        <time>2014-09-28T07:43:09.000Z</time>
      </trkpt>
      <trkpt lat="49.24339" lon="1.56736">
        <ele>172</ele>
        <time>2014-09-28T07:43:11.000Z</time>
      </trkpt>
      <trkpt lat="49.24342" lon="1.56717">
        <ele>172</ele>
        <time>2014-09-28T07:43:13.000Z</time>
      </trkpt>
      <trkpt lat="49.24345" lon="1.56698">
        <ele>172</ele>
        <time>2014-09-28T07:43:15.000Z</time>
      </trkpt>
      <trkpt lat="49.24348" lon="1.5668">
        <ele>172</ele>
        <time>2014-09-28T07:43:17.000Z</time>
      </trkpt>
      <trkpt lat="49.24351" lon="1.56661">
        <ele>172</ele>
        <time>2014-09-28T07:43:19.000Z</time>
      </trkpt>
      <trkpt lat="49.24353" lon="1.56642">
        <ele>171</ele>
        <time>2014-09-28T07:43:21.000Z</time>
      </trkpt>
      <trkpt lat="49.24356" lon="1.56622">
        <ele>172</ele>
        <time>2014-09-28T07:43:23.000Z</time>
      </trkpt>
      <trkpt lat="49.2436" lon="1.56602">
        <ele>172</ele>
        <time>2014-09-28T07:43:25.000Z</time>
      </trkpt>
      <trkpt lat="49.24363" lon="1.56581">
        <ele>172</ele>
        <time>2014-09-28T07:43:27.000Z</time>
      </trkpt>
      <trkpt lat="49.24366" lon="1.5656">
        <ele>171</ele>
        <time>2014-09-28T07:43:29.000Z</time>
      </trkpt>
      <trkpt lat="49.24369" lon="1.56538">
        <ele>171</ele>
        <time>2014-09-28T07:43:31.000Z</time>
      </trkpt>
      <trkpt lat="49.24372" lon="1.56516">
        <ele>171</ele>
        <time>2014-09-28T07:43:33.000Z</time>
      </trkpt>
      <trkpt lat="49.24375" lon="1.56495">
        <ele>171</ele>
        <time>2014-09-28T07:43:35.000Z</time>
      </trkpt>
      <trkpt lat="49.24378" lon="1.56474">
        <ele>171</ele>
        <time>2014-09-28T07:43:37.000Z</time>
      </trkpt>
      <trkpt lat="49.24382" lon="1.56453">
        <ele>171</ele>
        <time>2014-09-28T07:43:39.000Z</time>
      </trkpt>
      <trkpt lat="49.24384" lon="1.56432">
        <ele>171</ele>
        <time>2014-09-28T07:43:41.000Z</time>
      </trkpt>
      <trkpt lat="49.24387" lon="1.56412">
        <ele>171</ele>
        <time>2014-09-28T07:43:43.000Z</time>
      </trkpt>
      <trkpt lat="49.24391" lon="1.56391">
        <ele>171</ele>
        <time>2014-09-28T07:43:45.000Z</time>
      </trkpt>
      <trkpt lat="49.24395" lon="1.5637">
        <ele>171</ele>
        <time>2014-09-28T07:43:47.000Z</time>
      </trkpt>
      <trkpt lat="49.24398" lon="1.56349">
        <ele>171</ele>
        <time>2014-09-28T07:43:49.000Z</time>
      </trkpt>
      <trkpt lat="49.24401" lon="1.56329">
        <ele>171</ele>
        <time>2014-09-28T07:43:51.000Z</time>
      </trkpt>
      <trkpt lat="49.24406" lon="1.56309">
        <ele>171</ele>
        <time>2014-09-28T07:43:53.000Z</time>
      </trkpt>
      <trkpt lat="49.2441" lon="1.56289">
        <ele>171</ele>
        <time>2014-09-28T07:43:55.000Z</time>
      </trkpt>
      <trkpt lat="49.24415" lon="1.56269">
        <ele>171</ele>
        <time>2014-09-28T07:43:57.000Z</time>
      </trkpt>
      <trkpt lat="49.2442" lon="1.5625">
        <ele>171</ele>
        <time>2014-09-28T07:43:59.000Z</time>
      </trkpt>
      <trkpt lat="49.24425" lon="1.56231">
        <ele>171</ele>
        <time>2014-09-28T07:44:01.000Z</time>
      </trkpt>
      <trkpt lat="49.2443" lon="1.56214">
        <ele>170</ele>
        <time>2014-09-28T07:44:03.000Z</time>
      </trkpt>
      <trkpt lat="49.24436" lon="1.56196">
        <ele>170</ele>
        <time>2014-09-28T07:44:05.000Z</time>
      </trkpt>
      <trkpt lat="49.24442" lon="1.56178">
        <ele>170</ele>
        <time>2014-09-28T07:44:07.000Z</time>
      </trkpt>
      <trkpt lat="49.24449" lon="1.5616">
        <ele>170</ele>
        <time>2014-09-28T07:44:09.000Z</time>
      </trkpt>
      <trkpt lat="49.24455" lon="1.56142">
        <ele>170</ele>
        <time>2014-09-28T07:44:11.000Z</time>
      </trkpt>
      <trkpt lat="49.24461" lon="1.56125">
        <ele>169</ele>
        <time>2014-09-28T07:44:13.000Z</time>
      </trkpt>
      <trkpt lat="49.24466" lon="1.56108">
        <ele>169</ele>
        <time>2014-09-28T07:44:15.000Z</time>
      </trkpt>
      <trkpt lat="49.24472" lon="1.56092">
        <ele>169</ele>
        <time>2014-09-28T07:44:17.000Z</time>
      </trkpt>
      <trkpt lat="49.24477" lon="1.56079">
        <ele>168</ele>
        <time>2014-09-28T07:44:19.000Z</time>
      </trkpt>
      <trkpt lat="49.24484" lon="1.56062">
        <ele>168</ele>
        <time>2014-09-28T07:44:21.000Z</time>
      </trkpt>
      <trkpt lat="49.2449" lon="1.56045">
        <ele>168</ele>
        <time>2014-09-28T07:44:23.000Z</time>
      </trkpt>
      <trkpt lat="49.24496" lon="1.56028">
        <ele>168</ele>
        <time>2014-09-28T07:44:25.000Z</time>
      </trkpt>
      <trkpt lat="49.24502" lon="1.56012">
        <ele>168</ele>
        <time>2014-09-28T07:44:27.000Z</time>
      </trkpt>
      <trkpt lat="49.24507" lon="1.55995">
        <ele>168</ele>
        <time>2014-09-28T07:44:29.000Z</time>
      </trkpt>
      <trkpt lat="49.24513" lon="1.55977">
        <ele>168</ele>
        <time>2014-09-28T07:44:31.000Z</time>
      </trkpt>
      <trkpt lat="49.2452" lon="1.55958">
        <ele>168</ele>
        <time>2014-09-28T07:44:33.000Z</time>
      </trkpt>
      <trkpt lat="49.24526" lon="1.55939">
        <ele>167</ele>
        <time>2014-09-28T07:44:35.000Z</time>
      </trkpt>
      <trkpt lat="49.24532" lon="1.55923">
        <ele>168</ele>
        <time>2014-09-28T07:44:37.000Z</time>
      </trkpt>
      <trkpt lat="49.2454" lon="1.55907">
        <ele>167</ele>
        <time>2014-09-28T07:44:39.000Z</time>
      </trkpt>
      <trkpt lat="49.24546" lon="1.55893">
        <ele>168</ele>
        <time>2014-09-28T07:44:41.000Z</time>
      </trkpt>
      <trkpt lat="49.24552" lon="1.55879">
        <ele>167</ele>
        <time>2014-09-28T07:44:43.000Z</time>
      </trkpt>
      <trkpt lat="49.24557" lon="1.55864">
        <ele>167</ele>
        <time>2014-09-28T07:44:45.000Z</time>
      </trkpt>
      <trkpt lat="49.24562" lon="1.55849">
        <ele>168</ele>
        <time>2014-09-28T07:44:47.000Z</time>
      </trkpt>
      <trkpt lat="49.24567" lon="1.55835">
        <ele>168</ele>
        <time>2014-09-28T07:44:49.000Z</time>
      </trkpt>
      <trkpt lat="49.24572" lon="1.55821">
        <ele>168</ele>
        <time>2014-09-28T07:44:51.000Z</time>
      </trkpt>
      <trkpt lat="49.24579" lon="1.55809">
        <ele>168</ele>
        <time>2014-09-28T07:44:53.000Z</time>
      </trkpt>
      <trkpt lat="49.24585" lon="1.55796">
        <ele>168</ele>
        <time>2014-09-28T07:44:55.000Z</time>
      </trkpt>
      <trkpt lat="49.24591" lon="1.55783">
        <ele>168</ele>
        <time>2014-09-28T07:44:57.000Z</time>
      </trkpt>
      <trkpt lat="49.24596" lon="1.55769">
        <ele>169</ele>
        <time>2014-09-28T07:44:59.000Z</time>
      </trkpt>
      <trkpt lat="49.24602" lon="1.55756">
        <ele>168</ele>
        <time>2014-09-28T07:45:01.000Z</time>
      </trkpt>
      <trkpt lat="49.24607" lon="1.55744">
        <ele>169</ele>
        <time>2014-09-28T07:45:03.000Z</time>
      </trkpt>
      <trkpt lat="49.24611" lon="1.55732">
        <ele>169</ele>
        <time>2014-09-28T07:45:05.000Z</time>
      </trkpt>
      <trkpt lat="49.24615" lon="1.55721">
        <ele>169</ele>
        <time>2014-09-28T07:45:07.000Z</time>
      </trkpt>
      <trkpt lat="49.2462" lon="1.5571">
        <ele>169</ele>
        <time>2014-09-28T07:45:09.000Z</time>
      </trkpt>
      <trkpt lat="49.24625" lon="1.55699">
        <ele>170</ele>
        <time>2014-09-28T07:45:11.000Z</time>
      </trkpt>
      <trkpt lat="49.24633" lon="1.55691">
        <ele>173</ele>
        <time>2014-09-28T07:45:13.000Z</time>
      </trkpt>
      <trkpt lat="49.24636" lon="1.55683">
        <ele>175</ele>
        <time>2014-09-28T07:45:15.000Z</time>
      </trkpt>
      <trkpt lat="49.24636" lon="1.55683">
        <ele>175</ele>
        <time>2014-09-28T07:45:17.000Z</time>
      </trkpt>
      <trkpt lat="49.24643" lon="1.55673">
        <ele>180</ele>
        <time>2014-09-28T07:45:19.000Z</time>
      </trkpt>
      <trkpt lat="49.2465" lon="1.55667">
        <ele>182</ele>
        <time>2014-09-28T07:45:21.000Z</time>
      </trkpt>
      <trkpt lat="49.24654" lon="1.5566">
        <ele>181</ele>
        <time>2014-09-28T07:45:23.000Z</time>
      </trkpt>
      <trkpt lat="49.24653" lon="1.55649">
        <ele>178</ele>
        <time>2014-09-28T07:45:25.000Z</time>
      </trkpt>
      <trkpt lat="49.24651" lon="1.5564">
        <ele>175</ele>
        <time>2014-09-28T07:45:27.000Z</time>
      </trkpt>
      <trkpt lat="49.2465" lon="1.5563">
        <ele>174</ele>
        <time>2014-09-28T07:45:29.000Z</time>
      </trkpt>
      <trkpt lat="49.24644" lon="1.55624">
        <ele>173</ele>
        <time>2014-09-28T07:45:31.000Z</time>
      </trkpt>
      <trkpt lat="49.2464" lon="1.55617">
        <ele>173</ele>
        <time>2014-09-28T07:45:33.000Z</time>
      </trkpt>
      <trkpt lat="49.24635" lon="1.55608">
        <ele>172</ele>
        <time>2014-09-28T07:45:35.000Z</time>
      </trkpt>
      <trkpt lat="49.24629" lon="1.55602">
        <ele>172</ele>
        <time>2014-09-28T07:45:37.000Z</time>
      </trkpt>
      <trkpt lat="49.24624" lon="1.55596">
        <ele>172</ele>
        <time>2014-09-28T07:45:39.000Z</time>
      </trkpt>
      <trkpt lat="49.24617" lon="1.5559">
        <ele>171</ele>
        <time>2014-09-28T07:45:41.000Z</time>
      </trkpt>
      <trkpt lat="49.24611" lon="1.55583">
        <ele>171</ele>
        <time>2014-09-28T07:45:43.000Z</time>
      </trkpt>
      <trkpt lat="49.24602" lon="1.55575">
        <ele>171</ele>
        <time>2014-09-28T07:45:45.000Z</time>
      </trkpt>
      <trkpt lat="49.24593" lon="1.55568">
        <ele>170</ele>
        <time>2014-09-28T07:45:47.000Z</time>
      </trkpt>
      <trkpt lat="49.24587" lon="1.55559">
        <ele>170</ele>
        <time>2014-09-28T07:45:49.000Z</time>
      </trkpt>
      <trkpt lat="49.24587" lon="1.55559">
        <ele>170</ele>
        <time>2014-09-28T07:45:51.000Z</time>
      </trkpt>
      <trkpt lat="49.24574" lon="1.55533">
        <ele>170</ele>
        <time>2014-09-28T07:45:54.000Z</time>
      </trkpt>
      <trkpt lat="49.24567" lon="1.55524">
        <ele>170</ele>
        <time>2014-09-28T07:45:56.000Z</time>
      </trkpt>
      <trkpt lat="49.24561" lon="1.55516">
        <ele>170</ele>
        <time>2014-09-28T07:45:58.000Z</time>
      </trkpt>
      <trkpt lat="49.24554" lon="1.55508">
        <ele>170</ele>
        <time>2014-09-28T07:46:00.000Z</time>
      </trkpt>
      <trkpt lat="49.24546" lon="1.555">
        <ele>170</ele>
        <time>2014-09-28T07:46:02.000Z</time>
      </trkpt>
      <trkpt lat="49.2454" lon="1.55493">
        <ele>170</ele>
        <time>2014-09-28T07:46:04.000Z</time>
      </trkpt>
      <trkpt lat="49.24534" lon="1.55487">
        <ele>170</ele>
        <time>2014-09-28T07:46:06.000Z</time>
      </trkpt>
      <trkpt lat="49.24529" lon="1.55483">
        <ele>170</ele>
        <time>2014-09-28T07:46:08.000Z</time>
      </trkpt>
      <trkpt lat="49.24522" lon="1.55485">
        <ele>170</ele>
        <time>2014-09-28T07:46:10.000Z</time>
      </trkpt>
      <trkpt lat="49.24515" lon="1.55492">
        <ele>169</ele>
        <time>2014-09-28T07:46:12.000Z</time>
      </trkpt>
      <trkpt lat="49.24508" lon="1.55497">
        <ele>169</ele>
        <time>2014-09-28T07:46:14.000Z</time>
      </trkpt>
      <trkpt lat="49.245" lon="1.55498">
        <ele>169</ele>
        <time>2014-09-28T07:46:16.000Z</time>
      </trkpt>
      <trkpt lat="49.2449" lon="1.55494">
        <ele>169</ele>
        <time>2014-09-28T07:46:18.000Z</time>
      </trkpt>
      <trkpt lat="49.24484" lon="1.55487">
        <ele>168</ele>
        <time>2014-09-28T07:46:20.000Z</time>
      </trkpt>
      <trkpt lat="49.24479" lon="1.55476">
        <ele>168</ele>
        <time>2014-09-28T07:46:22.000Z</time>
      </trkpt>
      <trkpt lat="49.24473" lon="1.55465">
        <ele>167</ele>
        <time>2014-09-28T07:46:24.000Z</time>
      </trkpt>
      <trkpt lat="49.24467" lon="1.55454">
        <ele>167</ele>
        <time>2014-09-28T07:46:26.000Z</time>
      </trkpt>
      <trkpt lat="49.24461" lon="1.55441">
        <ele>167</ele>
        <time>2014-09-28T07:46:28.000Z</time>
      </trkpt>
      <trkpt lat="49.24456" lon="1.55429">
        <ele>167</ele>
        <time>2014-09-28T07:46:30.000Z</time>
      </trkpt>
      <trkpt lat="49.2445" lon="1.55417">
        <ele>167</ele>
        <time>2014-09-28T07:46:32.000Z</time>
      </trkpt>
      <trkpt lat="49.24444" lon="1.55404">
        <ele>167</ele>
        <time>2014-09-28T07:46:34.000Z</time>
      </trkpt>
      <trkpt lat="49.24439" lon="1.55392">
        <ele>167</ele>
        <time>2014-09-28T07:46:36.000Z</time>
      </trkpt>
      <trkpt lat="49.24435" lon="1.55381">
        <ele>167</ele>
        <time>2014-09-28T07:46:38.000Z</time>
      </trkpt>
      <trkpt lat="49.24429" lon="1.55371">
        <ele>166</ele>
        <time>2014-09-28T07:46:40.000Z</time>
      </trkpt>
      <trkpt lat="49.24425" lon="1.5536">
        <ele>166</ele>
        <time>2014-09-28T07:46:42.000Z</time>
      </trkpt>
      <trkpt lat="49.24421" lon="1.5535">
        <ele>166</ele>
        <time>2014-09-28T07:46:44.000Z</time>
      </trkpt>
      <trkpt lat="49.24416" lon="1.55339">
        <ele>166</ele>
        <time>2014-09-28T07:46:46.000Z</time>
      </trkpt>
      <trkpt lat="49.24413" lon="1.55328">
        <ele>166</ele>
        <time>2014-09-28T07:46:48.000Z</time>
      </trkpt>
      <trkpt lat="49.24409" lon="1.55318">
        <ele>166</ele>
        <time>2014-09-28T07:46:50.000Z</time>
      </trkpt>
      <trkpt lat="49.24406" lon="1.55308">
        <ele>166</ele>
        <time>2014-09-28T07:46:52.000Z</time>
      </trkpt>
      <trkpt lat="49.24402" lon="1.553">
        <ele>166</ele>
        <time>2014-09-28T07:46:54.000Z</time>
      </trkpt>
      <trkpt lat="49.24399" lon="1.55292">
        <ele>166</ele>
        <time>2014-09-28T07:46:56.000Z</time>
      </trkpt>
      <trkpt lat="49.24395" lon="1.55284">
        <ele>166</ele>
        <time>2014-09-28T07:46:58.000Z</time>
      </trkpt>
      <trkpt lat="49.24392" lon="1.55275">
        <ele>165</ele>
        <time>2014-09-28T07:47:00.000Z</time>
      </trkpt>
      <trkpt lat="49.24395" lon="1.55266">
        <ele>164</ele>
        <time>2014-09-28T07:47:02.000Z</time>
      </trkpt>
      <trkpt lat="49.24401" lon="1.5526">
        <ele>164</ele>
        <time>2014-09-28T07:47:04.000Z</time>
      </trkpt>
      <trkpt lat="49.24407" lon="1.55256">
        <ele>164</ele>
        <time>2014-09-28T07:47:06.000Z</time>
      </trkpt>
      <trkpt lat="49.24413" lon="1.55252">
        <ele>164</ele>
        <time>2014-09-28T07:47:08.000Z</time>
      </trkpt>
      <trkpt lat="49.24413" lon="1.55252">
        <ele>164</ele>
        <time>2014-09-28T07:47:10.000Z</time>
      </trkpt>
      <trkpt lat="49.2442" lon="1.55246">
        <ele>165</ele>
        <time>2014-09-28T07:47:12.000Z</time>
      </trkpt>
      <trkpt lat="49.2442" lon="1.55246">
        <ele>165</ele>
        <time>2014-09-28T07:47:14.000Z</time>
      </trkpt>
      <trkpt lat="49.24425" lon="1.55241">
        <ele>165</ele>
        <time>2014-09-28T07:47:16.000Z</time>
      </trkpt>
      <trkpt lat="49.24425" lon="1.55241">
        <ele>165</ele>
        <time>2014-09-28T07:47:18.000Z</time>
      </trkpt>
      <trkpt lat="49.24431" lon="1.55236">
        <ele>165</ele>
        <time>2014-09-28T07:47:20.000Z</time>
      </trkpt>
      <trkpt lat="49.24437" lon="1.55227">
        <ele>165</ele>
        <time>2014-09-28T07:47:24.000Z</time>
      </trkpt>
      <trkpt lat="49.24446" lon="1.55217">
        <ele>165</ele>
        <time>2014-09-28T07:47:28.000Z</time>
      </trkpt>
      <trkpt lat="49.24454" lon="1.55208">
        <ele>165</ele>
        <time>2014-09-28T07:47:32.000Z</time>
      </trkpt>
      <trkpt lat="49.24454" lon="1.55208">
        <ele>165</ele>
        <time>2014-09-28T07:47:34.000Z</time>
      </trkpt>
      <trkpt lat="49.24461" lon="1.55202">
        <ele>164</ele>
        <time>2014-09-28T07:47:36.000Z</time>
      </trkpt>
      <trkpt lat="49.24461" lon="1.55202">
        <ele>164</ele>
        <time>2014-09-28T07:47:38.000Z</time>
      </trkpt>
      <trkpt lat="49.24458" lon="1.55188">
        <ele>165</ele>
        <time>2014-09-28T07:47:40.000Z</time>
      </trkpt>
      <trkpt lat="49.24454" lon="1.55177">
        <ele>164</ele>
        <time>2014-09-28T07:47:42.000Z</time>
      </trkpt>
      <trkpt lat="49.24451" lon="1.55166">
        <ele>164</ele>
        <time>2014-09-28T07:47:44.000Z</time>
      </trkpt>
      <trkpt lat="49.24448" lon="1.55155">
        <ele>163</ele>
        <time>2014-09-28T07:47:46.000Z</time>
      </trkpt>
      <trkpt lat="49.24446" lon="1.55145">
        <ele>163</ele>
        <time>2014-09-28T07:47:48.000Z</time>
      </trkpt>
      <trkpt lat="49.24443" lon="1.55132">
        <ele>163</ele>
        <time>2014-09-28T07:47:50.000Z</time>
      </trkpt>
      <trkpt lat="49.24442" lon="1.55119">
        <ele>163</ele>
        <time>2014-09-28T07:47:52.000Z</time>
      </trkpt>
      <trkpt lat="49.24442" lon="1.55108">
        <ele>163</ele>
        <time>2014-09-28T07:47:54.000Z</time>
      </trkpt>
      <trkpt lat="49.24435" lon="1.55099">
        <ele>163</ele>
        <time>2014-09-28T07:47:56.000Z</time>
      </trkpt>
      <trkpt lat="49.2443" lon="1.55091">
        <ele>164</ele>
        <time>2014-09-28T07:47:58.000Z</time>
      </trkpt>
      <trkpt lat="49.24427" lon="1.55082">
        <ele>164</ele>
        <time>2014-09-28T07:48:00.000Z</time>
      </trkpt>
      <trkpt lat="49.24422" lon="1.55071">
        <ele>164</ele>
        <time>2014-09-28T07:48:02.000Z</time>
      </trkpt>
      <trkpt lat="49.24418" lon="1.5506">
        <ele>164</ele>
        <time>2014-09-28T07:48:04.000Z</time>
      </trkpt>
      <trkpt lat="49.24413" lon="1.55047">
        <ele>164</ele>
        <time>2014-09-28T07:48:06.000Z</time>
      </trkpt>
      <trkpt lat="49.24409" lon="1.55036">
        <ele>164</ele>
        <time>2014-09-28T07:48:08.000Z</time>
      </trkpt>
      <trkpt lat="49.24405" lon="1.55024">
        <ele>164</ele>
        <time>2014-09-28T07:48:10.000Z</time>
      </trkpt>
      <trkpt lat="49.24399" lon="1.55011">
        <ele>162</ele>
        <time>2014-09-28T07:48:12.000Z</time>
      </trkpt>
      <trkpt lat="49.24388" lon="1.54998">
        <ele>161</ele>
        <time>2014-09-28T07:48:14.000Z</time>
      </trkpt>
      <trkpt lat="49.24381" lon="1.54985">
        <ele>161</ele>
        <time>2014-09-28T07:48:16.000Z</time>
      </trkpt>
      <trkpt lat="49.24376" lon="1.54972">
        <ele>161</ele>
        <time>2014-09-28T07:48:18.000Z</time>
      </trkpt>
      <trkpt lat="49.24371" lon="1.5496">
        <ele>160</ele>
        <time>2014-09-28T07:48:20.000Z</time>
      </trkpt>
      <trkpt lat="49.24365" lon="1.54948">
        <ele>160</ele>
        <time>2014-09-28T07:48:22.000Z</time>
      </trkpt>
      <trkpt lat="49.24359" lon="1.54937">
        <ele>160</ele>
        <time>2014-09-28T07:48:24.000Z</time>
      </trkpt>
      <trkpt lat="49.24354" lon="1.54926">
        <ele>159</ele>
        <time>2014-09-28T07:48:26.000Z</time>
      </trkpt>
      <trkpt lat="49.24349" lon="1.54913">
        <ele>160</ele>
        <time>2014-09-28T07:48:28.000Z</time>
      </trkpt>
      <trkpt lat="49.24344" lon="1.54902">
        <ele>160</ele>
        <time>2014-09-28T07:48:30.000Z</time>
      </trkpt>
      <trkpt lat="49.24339" lon="1.54891">
        <ele>160</ele>
        <time>2014-09-28T07:48:32.000Z</time>
      </trkpt>
      <trkpt lat="49.24332" lon="1.54879">
        <ele>159</ele>
        <time>2014-09-28T07:48:34.000Z</time>
      </trkpt>
      <trkpt lat="49.24327" lon="1.54867">
        <ele>159</ele>
        <time>2014-09-28T07:48:36.000Z</time>
      </trkpt>
      <trkpt lat="49.24321" lon="1.54854">
        <ele>159</ele>
        <time>2014-09-28T07:48:38.000Z</time>
      </trkpt>
      <trkpt lat="49.24314" lon="1.54841">
        <ele>159</ele>
        <time>2014-09-28T07:48:40.000Z</time>
      </trkpt>
      <trkpt lat="49.24308" lon="1.54828">
        <ele>159</ele>
        <time>2014-09-28T07:48:42.000Z</time>
      </trkpt>
      <trkpt lat="49.243" lon="1.54815">
        <ele>159</ele>
        <time>2014-09-28T07:48:44.000Z</time>
      </trkpt>
      <trkpt lat="49.24293" lon="1.54803">
        <ele>159</ele>
        <time>2014-09-28T07:48:46.000Z</time>
      </trkpt>
      <trkpt lat="49.24286" lon="1.54791">
        <ele>159</ele>
        <time>2014-09-28T07:48:48.000Z</time>
      </trkpt>
      <trkpt lat="49.24278" lon="1.54779">
        <ele>159</ele>
        <time>2014-09-28T07:48:50.000Z</time>
      </trkpt>
      <trkpt lat="49.2427" lon="1.54767">
        <ele>159</ele>
        <time>2014-09-28T07:48:52.000Z</time>
      </trkpt>
      <trkpt lat="49.24262" lon="1.54754">
        <ele>159</ele>
        <time>2014-09-28T07:48:54.000Z</time>
      </trkpt>
      <trkpt lat="49.24254" lon="1.54742">
        <ele>160</ele>
        <time>2014-09-28T07:48:56.000Z</time>
      </trkpt>
      <trkpt lat="49.24246" lon="1.54731">
        <ele>159</ele>
        <time>2014-09-28T07:48:58.000Z</time>
      </trkpt>
      <trkpt lat="49.24237" lon="1.54719">
        <ele>159</ele>
        <time>2014-09-28T07:49:00.000Z</time>
      </trkpt>
      <trkpt lat="49.24228" lon="1.54707">
        <ele>159</ele>
        <time>2014-09-28T07:49:02.000Z</time>
      </trkpt>
      <trkpt lat="49.24218" lon="1.54694">
        <ele>159</ele>
        <time>2014-09-28T07:49:04.000Z</time>
      </trkpt>
      <trkpt lat="49.24209" lon="1.54682">
        <ele>159</ele>
        <time>2014-09-28T07:49:06.000Z</time>
      </trkpt>
      <trkpt lat="49.24201" lon="1.54668">
        <ele>159</ele>
        <time>2014-09-28T07:49:08.000Z</time>
      </trkpt>
      <trkpt lat="49.24192" lon="1.54655">
        <ele>159</ele>
        <time>2014-09-28T07:49:10.000Z</time>
      </trkpt>
      <trkpt lat="49.24184" lon="1.54642">
        <ele>159</ele>
        <time>2014-09-28T07:49:12.000Z</time>
      </trkpt>
      <trkpt lat="49.24176" lon="1.5463">
        <ele>158</ele>
        <time>2014-09-28T07:49:14.000Z</time>
      </trkpt>
      <trkpt lat="49.24167" lon="1.54617">
        <ele>158</ele>
        <time>2014-09-28T07:49:16.000Z</time>
      </trkpt>
      <trkpt lat="49.24158" lon="1.54605">
        <ele>158</ele>
        <time>2014-09-28T07:49:18.000Z</time>
      </trkpt>
      <trkpt lat="49.2415" lon="1.54593">
        <ele>157</ele>
        <time>2014-09-28T07:49:20.000Z</time>
      </trkpt>
      <trkpt lat="49.24141" lon="1.5458">
        <ele>157</ele>
        <time>2014-09-28T07:49:22.000Z</time>
      </trkpt>
      <trkpt lat="49.24131" lon="1.54568">
        <ele>157</ele>
        <time>2014-09-28T07:49:24.000Z</time>
      </trkpt>
      <trkpt lat="49.24122" lon="1.54556">
        <ele>157</ele>
        <time>2014-09-28T07:49:26.000Z</time>
      </trkpt>
      <trkpt lat="49.24113" lon="1.54543">
        <ele>157</ele>
        <time>2014-09-28T07:49:28.000Z</time>
      </trkpt>
      <trkpt lat="49.24103" lon="1.5453">
        <ele>157</ele>
        <time>2014-09-28T07:49:30.000Z</time>
      </trkpt>
      <trkpt lat="49.24093" lon="1.54518">
        <ele>158</ele>
        <time>2014-09-28T07:49:32.000Z</time>
      </trkpt>
      <trkpt lat="49.24083" lon="1.54506">
        <ele>158</ele>
        <time>2014-09-28T07:49:34.000Z</time>
      </trkpt>
      <trkpt lat="49.24073" lon="1.54495">
        <ele>158</ele>
        <time>2014-09-28T07:49:36.000Z</time>
      </trkpt>
      <trkpt lat="49.24062" lon="1.54485">
        <ele>157</ele>
        <time>2014-09-28T07:49:38.000Z</time>
      </trkpt>
      <trkpt lat="49.24052" lon="1.54477">
        <ele>157</ele>
        <time>2014-09-28T07:49:40.000Z</time>
      </trkpt>
      <trkpt lat="49.24044" lon="1.54472">
        <ele>156</ele>
        <time>2014-09-28T07:49:42.000Z</time>
      </trkpt>
      <trkpt lat="49.24038" lon="1.54468">
        <ele>156</ele>
        <time>2014-09-28T07:49:44.000Z</time>
      </trkpt>
      <trkpt lat="49.24033" lon="1.54462">
        <ele>155</ele>
        <time>2014-09-28T07:49:46.000Z</time>
      </trkpt>
      <trkpt lat="49.24026" lon="1.54457">
        <ele>155</ele>
        <time>2014-09-28T07:49:48.000Z</time>
      </trkpt>
      <trkpt lat="49.24021" lon="1.54452">
        <ele>155</ele>
        <time>2014-09-28T07:49:50.000Z</time>
      </trkpt>
      <trkpt lat="49.24014" lon="1.54449">
        <ele>155</ele>
        <time>2014-09-28T07:49:52.000Z</time>
      </trkpt>
      <trkpt lat="49.23998" lon="1.5444">
        <ele>154</ele>
        <time>2014-09-28T07:49:55.000Z</time>
      </trkpt>
      <trkpt lat="49.23991" lon="1.54437">
        <ele>154</ele>
        <time>2014-09-28T07:49:57.000Z</time>
      </trkpt>
      <trkpt lat="49.23983" lon="1.54432">
        <ele>154</ele>
        <time>2014-09-28T07:49:59.000Z</time>
      </trkpt>
      <trkpt lat="49.23978" lon="1.54427">
        <ele>154</ele>
        <time>2014-09-28T07:50:01.000Z</time>
      </trkpt>
      <trkpt lat="49.23978" lon="1.54427">
        <ele>154</ele>
        <time>2014-09-28T07:50:03.000Z</time>
      </trkpt>
      <trkpt lat="49.23968" lon="1.54421">
        <ele>153</ele>
        <time>2014-09-28T07:50:05.000Z</time>
      </trkpt>
      <trkpt lat="49.23962" lon="1.5442">
        <ele>153</ele>
        <time>2014-09-28T07:50:07.000Z</time>
      </trkpt>
      <trkpt lat="49.23962" lon="1.5442">
        <ele>153</ele>
        <time>2014-09-28T07:50:09.000Z</time>
      </trkpt>
      <trkpt lat="49.23953" lon="1.54414">
        <ele>152</ele>
        <time>2014-09-28T07:50:11.000Z</time>
      </trkpt>
      <trkpt lat="49.23947" lon="1.54411">
        <ele>152</ele>
        <time>2014-09-28T07:50:13.000Z</time>
      </trkpt>
      <trkpt lat="49.23941" lon="1.54407">
        <ele>151</ele>
        <time>2014-09-28T07:50:15.000Z</time>
      </trkpt>
      <trkpt lat="49.23935" lon="1.54404">
        <ele>151</ele>
        <time>2014-09-28T07:50:17.000Z</time>
      </trkpt>
      <trkpt lat="49.23928" lon="1.54402">
        <ele>151</ele>
        <time>2014-09-28T07:50:19.000Z</time>
      </trkpt>
      <trkpt lat="49.23922" lon="1.54398">
        <ele>151</ele>
        <time>2014-09-28T07:50:21.000Z</time>
      </trkpt>
      <trkpt lat="49.23922" lon="1.54398">
        <ele>151</ele>
        <time>2014-09-28T07:50:23.000Z</time>
      </trkpt>
      <trkpt lat="49.23917" lon="1.54397">
        <ele>150</ele>
        <time>2014-09-28T07:50:25.000Z</time>
      </trkpt>
      <trkpt lat="49.23912" lon="1.54396">
        <ele>150</ele>
        <time>2014-09-28T07:50:27.000Z</time>
      </trkpt>
      <trkpt lat="49.23906" lon="1.54394">
        <ele>149</ele>
        <time>2014-09-28T07:50:29.000Z</time>
      </trkpt>
      <trkpt lat="49.23901" lon="1.54393">
        <ele>149</ele>
        <time>2014-09-28T07:50:31.000Z</time>
      </trkpt>
      <trkpt lat="49.23901" lon="1.54393">
        <ele>149</ele>
        <time>2014-09-28T07:50:33.000Z</time>
      </trkpt>
      <trkpt lat="49.23901" lon="1.54393">
        <ele>149</ele>
        <time>2014-09-28T07:50:35.000Z</time>
      </trkpt>
      <trkpt lat="49.23901" lon="1.54393">
        <ele>149</ele>
        <time>2014-09-28T07:50:37.000Z</time>
      </trkpt>
      <trkpt lat="49.23901" lon="1.54393">
        <ele>149</ele>
        <time>2014-09-28T07:50:39.000Z</time>
      </trkpt>
      <trkpt lat="49.23878" lon="1.54383">
        <ele>146</ele>
        <time>2014-09-28T07:50:46.000Z</time>
      </trkpt>
      <trkpt lat="49.23862" lon="1.54373">
        <ele>147</ele>
        <time>2014-09-28T07:50:48.000Z</time>
      </trkpt>
      <trkpt lat="49.23848" lon="1.54364">
        <ele>146</ele>
        <time>2014-09-28T07:50:50.000Z</time>
      </trkpt>
      <trkpt lat="49.23835" lon="1.54359">
        <ele>146</ele>
        <time>2014-09-28T07:50:52.000Z</time>
      </trkpt>
      <trkpt lat="49.23822" lon="1.54351">
        <ele>147</ele>
        <time>2014-09-28T07:50:54.000Z</time>
      </trkpt>
      <trkpt lat="49.23778" lon="1.54335">
        <ele>146</ele>
        <time>2014-09-28T07:50:57.000Z</time>
      </trkpt>
      <trkpt lat="49.23758" lon="1.54328">
        <ele>145</ele>
        <time>2014-09-28T07:50:59.000Z</time>
      </trkpt>
      <trkpt lat="49.23738" lon="1.54322">
        <ele>142</ele>
        <time>2014-09-28T07:51:01.000Z</time>
      </trkpt>
      <trkpt lat="49.2362" lon="1.54289">
        <ele>124</ele>
        <time>2014-09-28T07:51:08.000Z</time>
      </trkpt>
      <trkpt lat="49.23587" lon="1.54279">
        <ele>121</ele>
        <time>2014-09-28T07:51:10.000Z</time>
      </trkpt>
      <trkpt lat="49.23533" lon="1.54266">
        <ele>122</ele>
        <time>2014-09-28T07:51:13.000Z</time>
      </trkpt>
      <trkpt lat="49.23475" lon="1.54277">
        <ele>120</ele>
        <time>2014-09-28T07:51:24.000Z</time>
      </trkpt>
      <trkpt lat="49.23473" lon="1.54289">
        <ele>119</ele>
        <time>2014-09-28T07:51:27.000Z</time>
      </trkpt>
      <trkpt lat="49.23473" lon="1.54289">
        <ele>119</ele>
        <time>2014-09-28T07:51:29.000Z</time>
      </trkpt>
      <trkpt lat="49.2347" lon="1.54305">
        <ele>118</ele>
        <time>2014-09-28T07:51:31.000Z</time>
      </trkpt>
      <trkpt lat="49.2347" lon="1.54305">
        <ele>118</ele>
        <time>2014-09-28T07:51:33.000Z</time>
      </trkpt>
      <trkpt lat="49.23468" lon="1.54318">
        <ele>118</ele>
        <time>2014-09-28T07:51:35.000Z</time>
      </trkpt>
      <trkpt lat="49.23468" lon="1.54318">
        <ele>118</ele>
        <time>2014-09-28T07:51:37.000Z</time>
      </trkpt>
      <trkpt lat="49.23466" lon="1.54329">
        <ele>118</ele>
        <time>2014-09-28T07:51:39.000Z</time>
      </trkpt>
      <trkpt lat="49.23466" lon="1.54329">
        <ele>118</ele>
        <time>2014-09-28T07:51:41.000Z</time>
      </trkpt>
      <trkpt lat="49.23466" lon="1.54338">
        <ele>117</ele>
        <time>2014-09-28T07:51:43.000Z</time>
      </trkpt>
      <trkpt lat="49.23466" lon="1.54338">
        <ele>117</ele>
        <time>2014-09-28T07:51:45.000Z</time>
      </trkpt>
      <trkpt lat="49.23465" lon="1.54352">
        <ele>118</ele>
        <time>2014-09-28T07:51:49.000Z</time>
      </trkpt>
      <trkpt lat="49.23465" lon="1.54363">
        <ele>117</ele>
        <time>2014-09-28T07:51:53.000Z</time>
      </trkpt>
      <trkpt lat="49.23463" lon="1.54377">
        <ele>116</ele>
        <time>2014-09-28T07:51:57.000Z</time>
      </trkpt>
      <trkpt lat="49.23465" lon="1.5439">
        <ele>116</ele>
        <time>2014-09-28T07:52:01.000Z</time>
      </trkpt>
      <trkpt lat="49.23465" lon="1.54408">
        <ele>116</ele>
        <time>2014-09-28T07:52:05.000Z</time>
      </trkpt>
      <trkpt lat="49.23464" lon="1.54421">
        <ele>116</ele>
        <time>2014-09-28T07:52:09.000Z</time>
      </trkpt>
      <trkpt lat="49.23464" lon="1.54421">
        <ele>116</ele>
        <time>2014-09-28T07:52:11.000Z</time>
      </trkpt>
      <trkpt lat="49.23462" lon="1.54437">
        <ele>116</ele>
        <time>2014-09-28T07:52:13.000Z</time>
      </trkpt>
      <trkpt lat="49.23462" lon="1.54437">
        <ele>116</ele>
        <time>2014-09-28T07:52:15.000Z</time>
      </trkpt>
      <trkpt lat="49.23462" lon="1.54437">
        <ele>116</ele>
        <time>2014-09-28T07:52:17.000Z</time>
      </trkpt>
      <trkpt lat="49.23462" lon="1.54449">
        <ele>115</ele>
        <time>2014-09-28T07:52:19.000Z</time>
      </trkpt>
      <trkpt lat="49.23462" lon="1.54449">
        <ele>115</ele>
        <time>2014-09-28T07:52:21.000Z</time>
      </trkpt>
      <trkpt lat="49.23463" lon="1.54458">
        <ele>115</ele>
        <time>2014-09-28T07:52:23.000Z</time>
      </trkpt>
      <trkpt lat="49.23463" lon="1.54458">
        <ele>115</ele>
        <time>2014-09-28T07:52:25.000Z</time>
      </trkpt>
      <trkpt lat="49.23458" lon="1.5452">
        <ele>119</ele>
        <time>2014-09-28T07:52:54.000Z</time>
      </trkpt>
      <trkpt lat="49.23458" lon="1.5452">
        <ele>119</ele>
        <time>2014-09-28T07:52:56.000Z</time>
      </trkpt>
      <trkpt lat="49.23458" lon="1.5452">
        <ele>119</ele>
        <time>2014-09-28T07:52:58.000Z</time>
      </trkpt>
      <trkpt lat="49.23449" lon="1.54578">
        <ele>125</ele>
        <time>2014-09-28T07:53:24.000Z</time>
      </trkpt>
      <trkpt lat="49.23449" lon="1.54578">
        <ele>125</ele>
        <time>2014-09-28T07:53:26.000Z</time>
      </trkpt>
      <trkpt lat="49.23447" lon="1.54591">
        <ele>127</ele>
        <time>2014-09-28T07:53:28.000Z</time>
      </trkpt>
      <trkpt lat="49.23447" lon="1.54591">
        <ele>127</ele>
        <time>2014-09-28T07:53:30.000Z</time>
      </trkpt>
      <trkpt lat="49.23447" lon="1.54591">
        <ele>127</ele>
        <time>2014-09-28T07:53:32.000Z</time>
      </trkpt>
      <trkpt lat="49.23444" lon="1.54605">
        <ele>128</ele>
        <time>2014-09-28T07:53:35.000Z</time>
      </trkpt>
      <trkpt lat="49.23444" lon="1.54605">
        <ele>128</ele>
        <time>2014-09-28T07:53:37.000Z</time>
      </trkpt>
      <trkpt lat="49.23441" lon="1.5462">
        <ele>128</ele>
        <time>2014-09-28T07:53:39.000Z</time>
      </trkpt>
      <trkpt lat="49.23441" lon="1.5462">
        <ele>128</ele>
        <time>2014-09-28T07:53:41.000Z</time>
      </trkpt>
      <trkpt lat="49.23439" lon="1.5464">
        <ele>128</ele>
        <time>2014-09-28T07:53:47.000Z</time>
      </trkpt>
      <trkpt lat="49.23439" lon="1.5464">
        <ele>128</ele>
        <time>2014-09-28T07:53:49.000Z</time>
      </trkpt>
      <trkpt lat="49.23438" lon="1.54653">
        <ele>129</ele>
        <time>2014-09-28T07:53:51.000Z</time>
      </trkpt>
      <trkpt lat="49.23437" lon="1.54666">
        <ele>131</ele>
        <time>2014-09-28T07:53:55.000Z</time>
      </trkpt>
      <trkpt lat="49.23434" lon="1.5468">
        <ele>133</ele>
        <time>2014-09-28T07:53:59.000Z</time>
      </trkpt>
      <trkpt lat="49.23436" lon="1.54692">
        <ele>135</ele>
        <time>2014-09-28T07:54:03.000Z</time>
      </trkpt>
      <trkpt lat="49.23436" lon="1.54692">
        <ele>135</ele>
        <time>2014-09-28T07:54:05.000Z</time>
      </trkpt>
      <trkpt lat="49.23446" lon="1.54702">
        <ele>136</ele>
        <time>2014-09-28T07:54:07.000Z</time>
      </trkpt>
      <trkpt lat="49.23446" lon="1.54702">
        <ele>136</ele>
        <time>2014-09-28T07:54:09.000Z</time>
      </trkpt>
      <trkpt lat="49.23446" lon="1.54702">
        <ele>136</ele>
        <time>2014-09-28T07:54:11.000Z</time>
      </trkpt>
      <trkpt lat="49.23448" lon="1.54717">
        <ele>138</ele>
        <time>2014-09-28T07:54:14.000Z</time>
      </trkpt>
      <trkpt lat="49.23449" lon="1.54727">
        <ele>139</ele>
        <time>2014-09-28T07:54:16.000Z</time>
      </trkpt>
      <trkpt lat="49.2345" lon="1.54736">
        <ele>139</ele>
        <time>2014-09-28T07:54:18.000Z</time>
      </trkpt>
      <trkpt lat="49.23449" lon="1.54744">
        <ele>139</ele>
        <time>2014-09-28T07:54:20.000Z</time>
      </trkpt>
      <trkpt lat="49.23448" lon="1.54752">
        <ele>139</ele>
        <time>2014-09-28T07:54:22.000Z</time>
      </trkpt>
      <trkpt lat="49.23449" lon="1.54764">
        <ele>139</ele>
        <time>2014-09-28T07:54:24.000Z</time>
      </trkpt>
      <trkpt lat="49.23445" lon="1.54798">
        <ele>142</ele>
        <time>2014-09-28T07:54:36.000Z</time>
      </trkpt>
      <trkpt lat="49.23442" lon="1.54806">
        <ele>141</ele>
        <time>2014-09-28T07:54:38.000Z</time>
      </trkpt>
      <trkpt lat="49.23437" lon="1.54816">
        <ele>141</ele>
        <time>2014-09-28T07:54:40.000Z</time>
      </trkpt>
      <trkpt lat="49.23437" lon="1.54816">
        <ele>141</ele>
        <time>2014-09-28T07:54:42.000Z</time>
      </trkpt>
      <trkpt lat="49.23428" lon="1.54821">
        <ele>140</ele>
        <time>2014-09-28T07:54:44.000Z</time>
      </trkpt>
      <trkpt lat="49.23428" lon="1.54821">
        <ele>140</ele>
        <time>2014-09-28T07:54:46.000Z</time>
      </trkpt>
      <trkpt lat="49.23426" lon="1.54832">
        <ele>141</ele>
        <time>2014-09-28T07:54:48.000Z</time>
      </trkpt>
      <trkpt lat="49.23426" lon="1.54832">
        <ele>141</ele>
        <time>2014-09-28T07:54:50.000Z</time>
      </trkpt>
      <trkpt lat="49.23424" lon="1.54842">
        <ele>141</ele>
        <time>2014-09-28T07:54:52.000Z</time>
      </trkpt>
      <trkpt lat="49.23424" lon="1.54842">
        <ele>141</ele>
        <time>2014-09-28T07:54:54.000Z</time>
      </trkpt>
      <trkpt lat="49.23422" lon="1.54853">
        <ele>141</ele>
        <time>2014-09-28T07:54:56.000Z</time>
      </trkpt>
      <trkpt lat="49.2342" lon="1.54866">
        <ele>142</ele>
        <time>2014-09-28T07:55:00.000Z</time>
      </trkpt>
      <trkpt lat="49.2342" lon="1.54866">
        <ele>142</ele>
        <time>2014-09-28T07:55:02.000Z</time>
      </trkpt>
      <trkpt lat="49.23417" lon="1.54877">
        <ele>142</ele>
        <time>2014-09-28T07:55:04.000Z</time>
      </trkpt>
      <trkpt lat="49.23413" lon="1.5489">
        <ele>142</ele>
        <time>2014-09-28T07:55:08.000Z</time>
      </trkpt>
      <trkpt lat="49.23413" lon="1.5489">
        <ele>142</ele>
        <time>2014-09-28T07:55:10.000Z</time>
      </trkpt>
      <trkpt lat="49.23413" lon="1.5489">
        <ele>142</ele>
        <time>2014-09-28T07:55:12.000Z</time>
      </trkpt>
      <trkpt lat="49.23409" lon="1.54907">
        <ele>144</ele>
        <time>2014-09-28T07:55:14.000Z</time>
      </trkpt>
      <trkpt lat="49.23407" lon="1.54916">
        <ele>144</ele>
        <time>2014-09-28T07:55:16.000Z</time>
      </trkpt>
      <trkpt lat="49.23406" lon="1.54926">
        <ele>145</ele>
        <time>2014-09-28T07:55:18.000Z</time>
      </trkpt>
      <trkpt lat="49.23403" lon="1.54937">
        <ele>147</ele>
        <time>2014-09-28T07:55:20.000Z</time>
      </trkpt>
      <trkpt lat="49.234" lon="1.54944">
        <ele>147</ele>
        <time>2014-09-28T07:55:22.000Z</time>
      </trkpt>
      <trkpt lat="49.23396" lon="1.54951">
        <ele>148</ele>
        <time>2014-09-28T07:55:24.000Z</time>
      </trkpt>
      <trkpt lat="49.23391" lon="1.54957">
        <ele>148</ele>
        <time>2014-09-28T07:55:26.000Z</time>
      </trkpt>
      <trkpt lat="49.23386" lon="1.54966">
        <ele>149</ele>
        <time>2014-09-28T07:55:28.000Z</time>
      </trkpt>
      <trkpt lat="49.23383" lon="1.54975">
        <ele>149</ele>
        <time>2014-09-28T07:55:30.000Z</time>
      </trkpt>
      <trkpt lat="49.2338" lon="1.54985">
        <ele>149</ele>
        <time>2014-09-28T07:55:32.000Z</time>
      </trkpt>
      <trkpt lat="49.2338" lon="1.54995">
        <ele>150</ele>
        <time>2014-09-28T07:55:34.000Z</time>
      </trkpt>
      <trkpt lat="49.23377" lon="1.55005">
        <ele>151</ele>
        <time>2014-09-28T07:55:36.000Z</time>
      </trkpt>
      <trkpt lat="49.23373" lon="1.55015">
        <ele>151</ele>
        <time>2014-09-28T07:55:38.000Z</time>
      </trkpt>
      <trkpt lat="49.23369" lon="1.55027">
        <ele>153</ele>
        <time>2014-09-28T07:55:40.000Z</time>
      </trkpt>
      <trkpt lat="49.23365" lon="1.55034">
        <ele>153</ele>
        <time>2014-09-28T07:55:42.000Z</time>
      </trkpt>
      <trkpt lat="49.23359" lon="1.55045">
        <ele>154</ele>
        <time>2014-09-28T07:55:44.000Z</time>
      </trkpt>
      <trkpt lat="49.23354" lon="1.55057">
        <ele>154</ele>
        <time>2014-09-28T07:55:46.000Z</time>
      </trkpt>
      <trkpt lat="49.23351" lon="1.55068">
        <ele>154</ele>
        <time>2014-09-28T07:55:48.000Z</time>
      </trkpt>
      <trkpt lat="49.2335" lon="1.55078">
        <ele>154</ele>
        <time>2014-09-28T07:55:50.000Z</time>
      </trkpt>
      <trkpt lat="49.23347" lon="1.55086">
        <ele>154</ele>
        <time>2014-09-28T07:55:52.000Z</time>
      </trkpt>
      <trkpt lat="49.23347" lon="1.55086">
        <ele>154</ele>
        <time>2014-09-28T07:55:54.000Z</time>
      </trkpt>
      <trkpt lat="49.23346" lon="1.55101">
        <ele>154</ele>
        <time>2014-09-28T07:55:56.000Z</time>
      </trkpt>
      <trkpt lat="49.23343" lon="1.55112">
        <ele>154</ele>
        <time>2014-09-28T07:55:58.000Z</time>
      </trkpt>
      <trkpt lat="49.2334" lon="1.55123">
        <ele>153</ele>
        <time>2014-09-28T07:56:00.000Z</time>
      </trkpt>
      <trkpt lat="49.2334" lon="1.55134">
        <ele>152</ele>
        <time>2014-09-28T07:56:02.000Z</time>
      </trkpt>
      <trkpt lat="49.23337" lon="1.55147">
        <ele>150</ele>
        <time>2014-09-28T07:56:04.000Z</time>
      </trkpt>
      <trkpt lat="49.23333" lon="1.55158">
        <ele>149</ele>
        <time>2014-09-28T07:56:06.000Z</time>
      </trkpt>
      <trkpt lat="49.2333" lon="1.55169">
        <ele>149</ele>
        <time>2014-09-28T07:56:08.000Z</time>
      </trkpt>
      <trkpt lat="49.23326" lon="1.55178">
        <ele>149</ele>
        <time>2014-09-28T07:56:11.000Z</time>
      </trkpt>
      <trkpt lat="49.23322" lon="1.55189">
        <ele>149</ele>
        <time>2014-09-28T07:56:12.000Z</time>
      </trkpt>
      <trkpt lat="49.23318" lon="1.55199">
        <ele>148</ele>
        <time>2014-09-28T07:56:15.000Z</time>
      </trkpt>
      <trkpt lat="49.23317" lon="1.55211">
        <ele>148</ele>
        <time>2014-09-28T07:56:17.000Z</time>
      </trkpt>
      <trkpt lat="49.23313" lon="1.55222">
        <ele>149</ele>
        <time>2014-09-28T07:56:18.000Z</time>
      </trkpt>
      <trkpt lat="49.2331" lon="1.55232">
        <ele>148</ele>
        <time>2014-09-28T07:56:20.000Z</time>
      </trkpt>
      <trkpt lat="49.23308" lon="1.55242">
        <ele>148</ele>
        <time>2014-09-28T07:56:22.000Z</time>
      </trkpt>
      <trkpt lat="49.23304" lon="1.55251">
        <ele>147</ele>
        <time>2014-09-28T07:56:24.000Z</time>
      </trkpt>
      <trkpt lat="49.233" lon="1.55261">
        <ele>147</ele>
        <time>2014-09-28T07:56:26.000Z</time>
      </trkpt>
      <trkpt lat="49.23298" lon="1.55269">
        <ele>147</ele>
        <time>2014-09-28T07:56:28.000Z</time>
      </trkpt>
      <trkpt lat="49.23298" lon="1.55269">
        <ele>147</ele>
        <time>2014-09-28T07:56:30.000Z</time>
      </trkpt>
      <trkpt lat="49.23291" lon="1.55289">
        <ele>149</ele>
        <time>2014-09-28T07:56:32.000Z</time>
      </trkpt>
      <trkpt lat="49.23289" lon="1.55298">
        <ele>149</ele>
        <time>2014-09-28T07:56:34.000Z</time>
      </trkpt>
      <trkpt lat="49.23285" lon="1.55308">
        <ele>150</ele>
        <time>2014-09-28T07:56:36.000Z</time>
      </trkpt>
      <trkpt lat="49.23281" lon="1.55318">
        <ele>150</ele>
        <time>2014-09-28T07:56:38.000Z</time>
      </trkpt>
      <trkpt lat="49.2328" lon="1.55328">
        <ele>150</ele>
        <time>2014-09-28T07:56:40.000Z</time>
      </trkpt>
      <trkpt lat="49.23277" lon="1.55338">
        <ele>150</ele>
        <time>2014-09-28T07:56:42.000Z</time>
      </trkpt>
      <trkpt lat="49.23274" lon="1.55348">
        <ele>150</ele>
        <time>2014-09-28T07:56:44.000Z</time>
      </trkpt>
      <trkpt lat="49.23271" lon="1.55358">
        <ele>150</ele>
        <time>2014-09-28T07:56:46.000Z</time>
      </trkpt>
      <trkpt lat="49.23268" lon="1.55368">
        <ele>150</ele>
        <time>2014-09-28T07:56:48.000Z</time>
      </trkpt>
      <trkpt lat="49.23265" lon="1.55378">
        <ele>150</ele>
        <time>2014-09-28T07:56:50.000Z</time>
      </trkpt>
      <trkpt lat="49.23265" lon="1.55378">
        <ele>150</ele>
        <time>2014-09-28T07:56:52.000Z</time>
      </trkpt>
      <trkpt lat="49.23262" lon="1.5539">
        <ele>150</ele>
        <time>2014-09-28T07:56:54.000Z</time>
      </trkpt>
      <trkpt lat="49.23262" lon="1.5539">
        <ele>150</ele>
        <time>2014-09-28T07:56:56.000Z</time>
      </trkpt>
      <trkpt lat="49.23257" lon="1.55399">
        <ele>150</ele>
        <time>2014-09-28T07:56:58.000Z</time>
      </trkpt>
      <trkpt lat="49.23257" lon="1.55399">
        <ele>150</ele>
        <time>2014-09-28T07:57:00.000Z</time>
      </trkpt>
      <trkpt lat="49.23246" lon="1.554">
        <ele>152</ele>
        <time>2014-09-28T07:59:33.000Z</time>
      </trkpt>
      <trkpt lat="49.23239" lon="1.55398">
        <ele>151</ele>
        <time>2014-09-28T07:59:37.000Z</time>
      </trkpt>
      <trkpt lat="49.23229" lon="1.5539">
        <ele>151</ele>
        <time>2014-09-28T07:59:41.000Z</time>
      </trkpt>
      <trkpt lat="49.23229" lon="1.5539">
        <ele>151</ele>
        <time>2014-09-28T07:59:43.000Z</time>
      </trkpt>
      <trkpt lat="49.23221" lon="1.55384">
        <ele>150</ele>
        <time>2014-09-28T07:59:45.000Z</time>
      </trkpt>
      <trkpt lat="49.23221" lon="1.55384">
        <ele>150</ele>
        <time>2014-09-28T07:59:47.000Z</time>
      </trkpt>
      <trkpt lat="49.23212" lon="1.55379">
        <ele>150</ele>
        <time>2014-09-28T07:59:49.000Z</time>
      </trkpt>
      <trkpt lat="49.23212" lon="1.55379">
        <ele>150</ele>
        <time>2014-09-28T07:59:51.000Z</time>
      </trkpt>
      <trkpt lat="49.23201" lon="1.55376">
        <ele>149</ele>
        <time>2014-09-28T07:59:53.000Z</time>
      </trkpt>
      <trkpt lat="49.23193" lon="1.55374">
        <ele>149</ele>
        <time>2014-09-28T07:59:55.000Z</time>
      </trkpt>
      <trkpt lat="49.23182" lon="1.55371">
        <ele>148</ele>
        <time>2014-09-28T07:59:57.000Z</time>
      </trkpt>
      <trkpt lat="49.23169" lon="1.55367">
        <ele>147</ele>
        <time>2014-09-28T07:59:59.000Z</time>
      </trkpt>
      <trkpt lat="49.2316" lon="1.55366">
        <ele>148</ele>
        <time>2014-09-28T08:00:01.000Z</time>
      </trkpt>
      <trkpt lat="49.23152" lon="1.55364">
        <ele>148</ele>
        <time>2014-09-28T08:00:03.000Z</time>
      </trkpt>
      <trkpt lat="49.23144" lon="1.55362">
        <ele>148</ele>
        <time>2014-09-28T08:00:05.000Z</time>
      </trkpt>
      <trkpt lat="49.23136" lon="1.55362">
        <ele>148</ele>
        <time>2014-09-28T08:00:07.000Z</time>
      </trkpt>
      <trkpt lat="49.23128" lon="1.55359">
        <ele>149</ele>
        <time>2014-09-28T08:00:09.000Z</time>
      </trkpt>
      <trkpt lat="49.23121" lon="1.55357">
        <ele>149</ele>
        <time>2014-09-28T08:00:11.000Z</time>
      </trkpt>
      <trkpt lat="49.23121" lon="1.55357">
        <ele>149</ele>
        <time>2014-09-28T08:00:13.000Z</time>
      </trkpt>
      <trkpt lat="49.23121" lon="1.55357">
        <ele>149</ele>
        <time>2014-09-28T08:00:15.000Z</time>
      </trkpt>
      <trkpt lat="49.23109" lon="1.55339">
        <ele>149</ele>
        <time>2014-09-28T08:00:19.000Z</time>
      </trkpt>
      <trkpt lat="49.23106" lon="1.5533">
        <ele>150</ele>
        <time>2014-09-28T08:00:21.000Z</time>
      </trkpt>
      <trkpt lat="49.23106" lon="1.55322">
        <ele>150</ele>
        <time>2014-09-28T08:00:23.000Z</time>
      </trkpt>
      <trkpt lat="49.23107" lon="1.55312">
        <ele>150</ele>
        <time>2014-09-28T08:00:25.000Z</time>
      </trkpt>
      <trkpt lat="49.23108" lon="1.55303">
        <ele>150</ele>
        <time>2014-09-28T08:00:27.000Z</time>
      </trkpt>
      <trkpt lat="49.2311" lon="1.55287">
        <ele>151</ele>
        <time>2014-09-28T08:00:31.000Z</time>
      </trkpt>
      <trkpt lat="49.2311" lon="1.55287">
        <ele>151</ele>
        <time>2014-09-28T08:00:33.000Z</time>
      </trkpt>
      <trkpt lat="49.23112" lon="1.55271">
        <ele>152</ele>
        <time>2014-09-28T08:00:35.000Z</time>
      </trkpt>
      <trkpt lat="49.23114" lon="1.55262">
        <ele>152</ele>
        <time>2014-09-28T08:00:37.000Z</time>
      </trkpt>
      <trkpt lat="49.23114" lon="1.55251">
        <ele>152</ele>
        <time>2014-09-28T08:00:39.000Z</time>
      </trkpt>
      <trkpt lat="49.23114" lon="1.55241">
        <ele>152</ele>
        <time>2014-09-28T08:00:41.000Z</time>
      </trkpt>
      <trkpt lat="49.23116" lon="1.55221">
        <ele>152</ele>
        <time>2014-09-28T08:00:45.000Z</time>
      </trkpt>
      <trkpt lat="49.23117" lon="1.55209">
        <ele>152</ele>
        <time>2014-09-28T08:00:47.000Z</time>
      </trkpt>
      <trkpt lat="49.23119" lon="1.55198">
        <ele>152</ele>
        <time>2014-09-28T08:00:49.000Z</time>
      </trkpt>
      <trkpt lat="49.2312" lon="1.55187">
        <ele>151</ele>
        <time>2014-09-28T08:00:51.000Z</time>
      </trkpt>
      <trkpt lat="49.23122" lon="1.55176">
        <ele>151</ele>
        <time>2014-09-28T08:00:53.000Z</time>
      </trkpt>
      <trkpt lat="49.23123" lon="1.55163">
        <ele>151</ele>
        <time>2014-09-28T08:00:55.000Z</time>
      </trkpt>
      <trkpt lat="49.23125" lon="1.55154">
        <ele>151</ele>
        <time>2014-09-28T08:00:57.000Z</time>
      </trkpt>
      <trkpt lat="49.23126" lon="1.55145">
        <ele>151</ele>
        <time>2014-09-28T08:00:59.000Z</time>
      </trkpt>
      <trkpt lat="49.23127" lon="1.55135">
        <ele>151</ele>
        <time>2014-09-28T08:01:01.000Z</time>
      </trkpt>
      <trkpt lat="49.23127" lon="1.55135">
        <ele>151</ele>
        <time>2014-09-28T08:01:03.000Z</time>
      </trkpt>
      <trkpt lat="49.23128" lon="1.55116">
        <ele>150</ele>
        <time>2014-09-28T08:01:05.000Z</time>
      </trkpt>
      <trkpt lat="49.23128" lon="1.55116">
        <ele>150</ele>
        <time>2014-09-28T08:01:07.000Z</time>
      </trkpt>
      <trkpt lat="49.23131" lon="1.55102">
        <ele>150</ele>
        <time>2014-09-28T08:01:09.000Z</time>
      </trkpt>
      <trkpt lat="49.23134" lon="1.55088">
        <ele>149</ele>
        <time>2014-09-28T08:01:13.000Z</time>
      </trkpt>
      <trkpt lat="49.23134" lon="1.55088">
        <ele>149</ele>
        <time>2014-09-28T08:01:15.000Z</time>
      </trkpt>
      <trkpt lat="49.2313" lon="1.55104">
        <ele>139</ele>
        <time>2014-09-28T08:01:59.000Z</time>
      </trkpt>
      <trkpt lat="49.23128" lon="1.55113">
        <ele>140</ele>
        <time>2014-09-28T08:02:01.000Z</time>
      </trkpt>
      <trkpt lat="49.23125" lon="1.55123">
        <ele>141</ele>
        <time>2014-09-28T08:02:03.000Z</time>
      </trkpt>
      <trkpt lat="49.23124" lon="1.55136">
        <ele>142</ele>
        <time>2014-09-28T08:02:05.000Z</time>
      </trkpt>
      <trkpt lat="49.23122" lon="1.55146">
        <ele>142</ele>
        <time>2014-09-28T08:02:07.000Z</time>
      </trkpt>
      <trkpt lat="49.2312" lon="1.55159">
        <ele>142</ele>
        <time>2014-09-28T08:02:09.000Z</time>
      </trkpt>
      <trkpt lat="49.23117" lon="1.5517">
        <ele>143</ele>
        <time>2014-09-28T08:02:11.000Z</time>
      </trkpt>
      <trkpt lat="49.23115" lon="1.5518">
        <ele>143</ele>
        <time>2014-09-28T08:02:13.000Z</time>
      </trkpt>
      <trkpt lat="49.23114" lon="1.5519">
        <ele>144</ele>
        <time>2014-09-28T08:02:15.000Z</time>
      </trkpt>
      <trkpt lat="49.23113" lon="1.552">
        <ele>144</ele>
        <time>2014-09-28T08:02:17.000Z</time>
      </trkpt>
      <trkpt lat="49.23113" lon="1.55212">
        <ele>144</ele>
        <time>2014-09-28T08:02:19.000Z</time>
      </trkpt>
      <trkpt lat="49.23112" lon="1.55224">
        <ele>144</ele>
        <time>2014-09-28T08:02:21.000Z</time>
      </trkpt>
      <trkpt lat="49.23112" lon="1.55234">
        <ele>143</ele>
        <time>2014-09-28T08:02:23.000Z</time>
      </trkpt>
      <trkpt lat="49.2311" lon="1.55243">
        <ele>143</ele>
        <time>2014-09-28T08:02:25.000Z</time>
      </trkpt>
      <trkpt lat="49.23108" lon="1.55253">
        <ele>143</ele>
        <time>2014-09-28T08:02:27.000Z</time>
      </trkpt>
      <trkpt lat="49.23106" lon="1.55263">
        <ele>142</ele>
        <time>2014-09-28T08:02:29.000Z</time>
      </trkpt>
      <trkpt lat="49.23104" lon="1.55274">
        <ele>141</ele>
        <time>2014-09-28T08:02:31.000Z</time>
      </trkpt>
      <trkpt lat="49.23104" lon="1.55284">
        <ele>142</ele>
        <time>2014-09-28T08:02:33.000Z</time>
      </trkpt>
      <trkpt lat="49.23101" lon="1.55295">
        <ele>142</ele>
        <time>2014-09-28T08:02:35.000Z</time>
      </trkpt>
      <trkpt lat="49.23098" lon="1.55305">
        <ele>142</ele>
        <time>2014-09-28T08:02:37.000Z</time>
      </trkpt>
      <trkpt lat="49.23098" lon="1.55305">
        <ele>142</ele>
        <time>2014-09-28T08:02:39.000Z</time>
      </trkpt>
      <trkpt lat="49.23097" lon="1.55314">
        <ele>144</ele>
        <time>2014-09-28T08:02:41.000Z</time>
      </trkpt>
      <trkpt lat="49.23095" lon="1.5532">
        <ele>144</ele>
        <time>2014-09-28T08:02:43.000Z</time>
      </trkpt>
      <trkpt lat="49.23092" lon="1.55324">
        <ele>145</ele>
        <time>2014-09-28T08:02:45.000Z</time>
      </trkpt>
      <trkpt lat="49.2309" lon="1.55326">
        <ele>146</ele>
        <time>2014-09-28T08:02:47.000Z</time>
      </trkpt>
      <trkpt lat="49.23086" lon="1.55326">
        <ele>146</ele>
        <time>2014-09-28T08:02:49.000Z</time>
      </trkpt>
      <trkpt lat="49.23076" lon="1.55326">
        <ele>146</ele>
        <time>2014-09-28T08:02:51.000Z</time>
      </trkpt>
      <trkpt lat="49.23069" lon="1.55325">
        <ele>147</ele>
        <time>2014-09-28T08:02:53.000Z</time>
      </trkpt>
      <trkpt lat="49.2306" lon="1.55323">
        <ele>147</ele>
        <time>2014-09-28T08:02:55.000Z</time>
      </trkpt>
      <trkpt lat="49.23052" lon="1.55319">
        <ele>147</ele>
        <time>2014-09-28T08:02:57.000Z</time>
      </trkpt>
      <trkpt lat="49.23044" lon="1.5532">
        <ele>146</ele>
        <time>2014-09-28T08:02:59.000Z</time>
      </trkpt>
      <trkpt lat="49.23035" lon="1.55319">
        <ele>146</ele>
        <time>2014-09-28T08:03:01.000Z</time>
      </trkpt>
      <trkpt lat="49.22992" lon="1.5531">
        <ele>142</ele>
        <time>2014-09-28T08:03:06.000Z</time>
      </trkpt>
      <trkpt lat="49.22976" lon="1.55305">
        <ele>142</ele>
        <time>2014-09-28T08:03:08.000Z</time>
      </trkpt>
      <trkpt lat="49.22962" lon="1.55301">
        <ele>142</ele>
        <time>2014-09-28T08:03:10.000Z</time>
      </trkpt>
      <trkpt lat="49.22948" lon="1.55297">
        <ele>143</ele>
        <time>2014-09-28T08:03:12.000Z</time>
      </trkpt>
      <trkpt lat="49.22936" lon="1.55292">
        <ele>142</ele>
        <time>2014-09-28T08:03:14.000Z</time>
      </trkpt>
      <trkpt lat="49.22924" lon="1.55287">
        <ele>142</ele>
        <time>2014-09-28T08:03:16.000Z</time>
      </trkpt>
      <trkpt lat="49.22913" lon="1.55282">
        <ele>142</ele>
        <time>2014-09-28T08:03:18.000Z</time>
      </trkpt>
      <trkpt lat="49.22901" lon="1.55277">
        <ele>142</ele>
        <time>2014-09-28T08:03:20.000Z</time>
      </trkpt>
      <trkpt lat="49.22891" lon="1.5527">
        <ele>141</ele>
        <time>2014-09-28T08:03:22.000Z</time>
      </trkpt>
      <trkpt lat="49.2288" lon="1.55263">
        <ele>141</ele>
        <time>2014-09-28T08:03:24.000Z</time>
      </trkpt>
      <trkpt lat="49.22869" lon="1.55256">
        <ele>141</ele>
        <time>2014-09-28T08:03:26.000Z</time>
      </trkpt>
      <trkpt lat="49.22858" lon="1.55249">
        <ele>141</ele>
        <time>2014-09-28T08:03:28.000Z</time>
      </trkpt>
      <trkpt lat="49.22847" lon="1.5524">
        <ele>141</ele>
        <time>2014-09-28T08:03:30.000Z</time>
      </trkpt>
      <trkpt lat="49.22834" lon="1.55232">
        <ele>141</ele>
        <time>2014-09-28T08:03:32.000Z</time>
      </trkpt>
      <trkpt lat="49.22822" lon="1.55223">
        <ele>140</ele>
        <time>2014-09-28T08:03:34.000Z</time>
      </trkpt>
      <trkpt lat="49.2281" lon="1.55215">
        <ele>140</ele>
        <time>2014-09-28T08:03:36.000Z</time>
      </trkpt>
      <trkpt lat="49.22797" lon="1.55206">
        <ele>140</ele>
        <time>2014-09-28T08:03:38.000Z</time>
      </trkpt>
      <trkpt lat="49.22785" lon="1.55197">
        <ele>139</ele>
        <time>2014-09-28T08:03:40.000Z</time>
      </trkpt>
      <trkpt lat="49.22773" lon="1.55189">
        <ele>139</ele>
        <time>2014-09-28T08:03:42.000Z</time>
      </trkpt>
      <trkpt lat="49.2276" lon="1.55181">
        <ele>139</ele>
        <time>2014-09-28T08:03:44.000Z</time>
      </trkpt>
      <trkpt lat="49.22748" lon="1.55172">
        <ele>139</ele>
        <time>2014-09-28T08:03:46.000Z</time>
      </trkpt>
      <trkpt lat="49.22735" lon="1.55164">
        <ele>139</ele>
        <time>2014-09-28T08:03:48.000Z</time>
      </trkpt>
      <trkpt lat="49.22723" lon="1.55154">
        <ele>140</ele>
        <time>2014-09-28T08:03:50.000Z</time>
      </trkpt>
      <trkpt lat="49.22711" lon="1.55146">
        <ele>140</ele>
        <time>2014-09-28T08:03:52.000Z</time>
      </trkpt>
      <trkpt lat="49.22699" lon="1.55138">
        <ele>140</ele>
        <time>2014-09-28T08:03:54.000Z</time>
      </trkpt>
      <trkpt lat="49.22686" lon="1.5513">
        <ele>140</ele>
        <time>2014-09-28T08:03:56.000Z</time>
      </trkpt>
      <trkpt lat="49.22674" lon="1.55122">
        <ele>140</ele>
        <time>2014-09-28T08:03:58.000Z</time>
      </trkpt>
      <trkpt lat="49.22662" lon="1.55114">
        <ele>140</ele>
        <time>2014-09-28T08:04:00.000Z</time>
      </trkpt>
      <trkpt lat="49.22649" lon="1.55106">
        <ele>140</ele>
        <time>2014-09-28T08:04:02.000Z</time>
      </trkpt>
      <trkpt lat="49.22637" lon="1.55098">
        <ele>140</ele>
        <time>2014-09-28T08:04:04.000Z</time>
      </trkpt>
      <trkpt lat="49.22625" lon="1.5509">
        <ele>140</ele>
        <time>2014-09-28T08:04:06.000Z</time>
      </trkpt>
      <trkpt lat="49.22613" lon="1.55081">
        <ele>140</ele>
        <time>2014-09-28T08:04:08.000Z</time>
      </trkpt>
      <trkpt lat="49.22601" lon="1.55073">
        <ele>140</ele>
        <time>2014-09-28T08:04:10.000Z</time>
      </trkpt>
      <trkpt lat="49.22589" lon="1.55065">
        <ele>140</ele>
        <time>2014-09-28T08:04:12.000Z</time>
      </trkpt>
      <trkpt lat="49.22577" lon="1.55057">
        <ele>139</ele>
        <time>2014-09-28T08:04:14.000Z</time>
      </trkpt>
      <trkpt lat="49.22565" lon="1.55049">
        <ele>139</ele>
        <time>2014-09-28T08:04:16.000Z</time>
      </trkpt>
      <trkpt lat="49.22553" lon="1.55041">
        <ele>139</ele>
        <time>2014-09-28T08:04:18.000Z</time>
      </trkpt>
      <trkpt lat="49.22541" lon="1.55034">
        <ele>139</ele>
        <time>2014-09-28T08:04:20.000Z</time>
      </trkpt>
      <trkpt lat="49.22529" lon="1.55025">
        <ele>139</ele>
        <time>2014-09-28T08:04:22.000Z</time>
      </trkpt>
      <trkpt lat="49.22517" lon="1.55017">
        <ele>139</ele>
        <time>2014-09-28T08:04:24.000Z</time>
      </trkpt>
      <trkpt lat="49.22506" lon="1.5501">
        <ele>139</ele>
        <time>2014-09-28T08:04:26.000Z</time>
      </trkpt>
      <trkpt lat="49.22495" lon="1.55003">
        <ele>140</ele>
        <time>2014-09-28T08:04:28.000Z</time>
      </trkpt>
      <trkpt lat="49.22484" lon="1.54995">
        <ele>140</ele>
        <time>2014-09-28T08:04:30.000Z</time>
      </trkpt>
      <trkpt lat="49.22473" lon="1.54987">
        <ele>139</ele>
        <time>2014-09-28T08:04:32.000Z</time>
      </trkpt>
      <trkpt lat="49.22462" lon="1.5498">
        <ele>140</ele>
        <time>2014-09-28T08:04:34.000Z</time>
      </trkpt>
      <trkpt lat="49.22451" lon="1.54972">
        <ele>140</ele>
        <time>2014-09-28T08:04:36.000Z</time>
      </trkpt>
      <trkpt lat="49.22441" lon="1.54965">
        <ele>140</ele>
        <time>2014-09-28T08:04:38.000Z</time>
      </trkpt>
      <trkpt lat="49.22432" lon="1.54959">
        <ele>140</ele>
        <time>2014-09-28T08:04:40.000Z</time>
      </trkpt>
      <trkpt lat="49.22423" lon="1.54954">
        <ele>140</ele>
        <time>2014-09-28T08:04:42.000Z</time>
      </trkpt>
      <trkpt lat="49.22416" lon="1.5495">
        <ele>140</ele>
        <time>2014-09-28T08:04:44.000Z</time>
      </trkpt>
      <trkpt lat="49.22409" lon="1.54946">
        <ele>140</ele>
        <time>2014-09-28T08:04:46.000Z</time>
      </trkpt>
      <trkpt lat="49.22404" lon="1.54941">
        <ele>140</ele>
        <time>2014-09-28T08:04:48.000Z</time>
      </trkpt>
      <trkpt lat="49.22404" lon="1.54941">
        <ele>140</ele>
        <time>2014-09-28T08:04:50.000Z</time>
      </trkpt>
      <trkpt lat="49.22405" lon="1.54925">
        <ele>140</ele>
        <time>2014-09-28T08:04:52.000Z</time>
      </trkpt>
      <trkpt lat="49.22409" lon="1.54917">
        <ele>139</ele>
        <time>2014-09-28T08:04:54.000Z</time>
      </trkpt>
      <trkpt lat="49.22413" lon="1.54909">
        <ele>139</ele>
        <time>2014-09-28T08:04:56.000Z</time>
      </trkpt>
      <trkpt lat="49.22417" lon="1.54901">
        <ele>139</ele>
        <time>2014-09-28T08:04:58.000Z</time>
      </trkpt>
      <trkpt lat="49.22422" lon="1.54892">
        <ele>139</ele>
        <time>2014-09-28T08:05:00.000Z</time>
      </trkpt>
      <trkpt lat="49.22427" lon="1.54882">
        <ele>139</ele>
        <time>2014-09-28T08:05:02.000Z</time>
      </trkpt>
      <trkpt lat="49.22432" lon="1.54873">
        <ele>139</ele>
        <time>2014-09-28T08:05:04.000Z</time>
      </trkpt>
      <trkpt lat="49.22437" lon="1.54863">
        <ele>138</ele>
        <time>2014-09-28T08:05:06.000Z</time>
      </trkpt>
      <trkpt lat="49.22442" lon="1.54854">
        <ele>138</ele>
        <time>2014-09-28T08:05:08.000Z</time>
      </trkpt>
      <trkpt lat="49.22447" lon="1.54844">
        <ele>138</ele>
        <time>2014-09-28T08:05:10.000Z</time>
      </trkpt>
      <trkpt lat="49.22453" lon="1.54834">
        <ele>138</ele>
        <time>2014-09-28T08:05:12.000Z</time>
      </trkpt>
      <trkpt lat="49.22458" lon="1.54824">
        <ele>138</ele>
        <time>2014-09-28T08:05:14.000Z</time>
      </trkpt>
      <trkpt lat="49.22464" lon="1.54813">
        <ele>138</ele>
        <time>2014-09-28T08:05:16.000Z</time>
      </trkpt>
      <trkpt lat="49.22469" lon="1.54803">
        <ele>138</ele>
        <time>2014-09-28T08:05:18.000Z</time>
      </trkpt>
      <trkpt lat="49.22475" lon="1.54793">
        <ele>137</ele>
        <time>2014-09-28T08:05:20.000Z</time>
      </trkpt>
      <trkpt lat="49.2248" lon="1.54783">
        <ele>137</ele>
        <time>2014-09-28T08:05:22.000Z</time>
      </trkpt>
      <trkpt lat="49.22484" lon="1.54774">
        <ele>137</ele>
        <time>2014-09-28T08:05:24.000Z</time>
      </trkpt>
      <trkpt lat="49.2249" lon="1.54765">
        <ele>137</ele>
        <time>2014-09-28T08:05:26.000Z</time>
      </trkpt>
      <trkpt lat="49.22496" lon="1.54757">
        <ele>137</ele>
        <time>2014-09-28T08:05:28.000Z</time>
      </trkpt>
      <trkpt lat="49.22502" lon="1.54748">
        <ele>137</ele>
        <time>2014-09-28T08:05:30.000Z</time>
      </trkpt>
      <trkpt lat="49.22508" lon="1.54741">
        <ele>137</ele>
        <time>2014-09-28T08:05:32.000Z</time>
      </trkpt>
      <trkpt lat="49.22513" lon="1.54732">
        <ele>137</ele>
        <time>2014-09-28T08:05:34.000Z</time>
      </trkpt>
      <trkpt lat="49.22518" lon="1.54723">
        <ele>137</ele>
        <time>2014-09-28T08:05:36.000Z</time>
      </trkpt>
      <trkpt lat="49.22524" lon="1.54714">
        <ele>136</ele>
        <time>2014-09-28T08:05:38.000Z</time>
      </trkpt>
      <trkpt lat="49.2253" lon="1.54704">
        <ele>136</ele>
        <time>2014-09-28T08:05:40.000Z</time>
      </trkpt>
      <trkpt lat="49.22536" lon="1.54696">
        <ele>136</ele>
        <time>2014-09-28T08:05:42.000Z</time>
      </trkpt>
      <trkpt lat="49.22541" lon="1.54689">
        <ele>136</ele>
        <time>2014-09-28T08:05:44.000Z</time>
      </trkpt>
      <trkpt lat="49.22545" lon="1.5468">
        <ele>135</ele>
        <time>2014-09-28T08:05:46.000Z</time>
      </trkpt>
      <trkpt lat="49.22549" lon="1.54668">
        <ele>134</ele>
        <time>2014-09-28T08:05:48.000Z</time>
      </trkpt>
      <trkpt lat="49.22552" lon="1.5466">
        <ele>134</ele>
        <time>2014-09-28T08:05:50.000Z</time>
      </trkpt>
      <trkpt lat="49.22557" lon="1.54652">
        <ele>133</ele>
        <time>2014-09-28T08:05:52.000Z</time>
      </trkpt>
      <trkpt lat="49.22561" lon="1.54643">
        <ele>133</ele>
        <time>2014-09-28T08:05:54.000Z</time>
      </trkpt>
      <trkpt lat="49.22564" lon="1.54635">
        <ele>133</ele>
        <time>2014-09-28T08:05:56.000Z</time>
      </trkpt>
      <trkpt lat="49.22564" lon="1.54635">
        <ele>133</ele>
        <time>2014-09-28T08:05:58.000Z</time>
      </trkpt>
      <trkpt lat="49.2257" lon="1.54625">
        <ele>133</ele>
        <time>2014-09-28T08:06:00.000Z</time>
      </trkpt>
      <trkpt lat="49.2257" lon="1.54625">
        <ele>133</ele>
        <time>2014-09-28T08:06:02.000Z</time>
      </trkpt>
      <trkpt lat="49.22576" lon="1.54615">
        <ele>132</ele>
        <time>2014-09-28T08:06:04.000Z</time>
      </trkpt>
      <trkpt lat="49.22576" lon="1.54615">
        <ele>132</ele>
        <time>2014-09-28T08:06:06.000Z</time>
      </trkpt>
      <trkpt lat="49.22576" lon="1.54615">
        <ele>132</ele>
        <time>2014-09-28T08:06:08.000Z</time>
      </trkpt>
      <trkpt lat="49.22581" lon="1.54609">
        <ele>132</ele>
        <time>2014-09-28T08:06:26.000Z</time>
      </trkpt>
      <trkpt lat="49.22592" lon="1.54605">
        <ele>132</ele>
        <time>2014-09-28T08:06:30.000Z</time>
      </trkpt>
      <trkpt lat="49.22599" lon="1.54602">
        <ele>132</ele>
        <time>2014-09-28T08:06:32.000Z</time>
      </trkpt>
      <trkpt lat="49.22605" lon="1.54596">
        <ele>132</ele>
        <time>2014-09-28T08:06:34.000Z</time>
      </trkpt>
      <trkpt lat="49.2261" lon="1.54591">
        <ele>132</ele>
        <time>2014-09-28T08:06:36.000Z</time>
      </trkpt>
      <trkpt lat="49.22614" lon="1.54585">
        <ele>132</ele>
        <time>2014-09-28T08:06:38.000Z</time>
      </trkpt>
      <trkpt lat="49.22614" lon="1.54585">
        <ele>132</ele>
        <time>2014-09-28T08:06:40.000Z</time>
      </trkpt>
      <trkpt lat="49.2262" lon="1.54571">
        <ele>132</ele>
        <time>2014-09-28T08:06:42.000Z</time>
      </trkpt>
      <trkpt lat="49.22625" lon="1.54567">
        <ele>131</ele>
        <time>2014-09-28T08:06:44.000Z</time>
      </trkpt>
      <trkpt lat="49.22636" lon="1.54556">
        <ele>131</ele>
        <time>2014-09-28T08:06:48.000Z</time>
      </trkpt>
      <trkpt lat="49.22642" lon="1.54552">
        <ele>132</ele>
        <time>2014-09-28T08:06:50.000Z</time>
      </trkpt>
      <trkpt lat="49.22649" lon="1.54548">
        <ele>132</ele>
        <time>2014-09-28T08:06:52.000Z</time>
      </trkpt>
      <trkpt lat="49.22655" lon="1.54542">
        <ele>132</ele>
        <time>2014-09-28T08:06:54.000Z</time>
      </trkpt>
      <trkpt lat="49.22655" lon="1.54542">
        <ele>132</ele>
        <time>2014-09-28T08:06:56.000Z</time>
      </trkpt>
      <trkpt lat="49.22667" lon="1.54538">
        <ele>133</ele>
        <time>2014-09-28T08:06:58.000Z</time>
      </trkpt>
      <trkpt lat="49.22673" lon="1.54536">
        <ele>133</ele>
        <time>2014-09-28T08:07:00.000Z</time>
      </trkpt>
      <trkpt lat="49.2268" lon="1.54532">
        <ele>132</ele>
        <time>2014-09-28T08:07:02.000Z</time>
      </trkpt>
      <trkpt lat="49.22687" lon="1.54527">
        <ele>132</ele>
        <time>2014-09-28T08:07:04.000Z</time>
      </trkpt>
      <trkpt lat="49.22696" lon="1.54528">
        <ele>133</ele>
        <time>2014-09-28T08:07:06.000Z</time>
      </trkpt>
      <trkpt lat="49.22707" lon="1.54531">
        <ele>133</ele>
        <time>2014-09-28T08:07:08.000Z</time>
      </trkpt>
      <trkpt lat="49.22716" lon="1.54529">
        <ele>133</ele>
        <time>2014-09-28T08:07:10.000Z</time>
      </trkpt>
      <trkpt lat="49.22724" lon="1.54528">
        <ele>133</ele>
        <time>2014-09-28T08:07:12.000Z</time>
      </trkpt>
      <trkpt lat="49.22732" lon="1.54527">
        <ele>133</ele>
        <time>2014-09-28T08:07:14.000Z</time>
      </trkpt>
      <trkpt lat="49.22739" lon="1.54525">
        <ele>133</ele>
        <time>2014-09-28T08:07:16.000Z</time>
      </trkpt>
      <trkpt lat="49.22747" lon="1.54524">
        <ele>133</ele>
        <time>2014-09-28T08:07:18.000Z</time>
      </trkpt>
      <trkpt lat="49.22757" lon="1.54521">
        <ele>134</ele>
        <time>2014-09-28T08:07:20.000Z</time>
      </trkpt>
      <trkpt lat="49.22765" lon="1.5452">
        <ele>135</ele>
        <time>2014-09-28T08:07:22.000Z</time>
      </trkpt>
      <trkpt lat="49.22771" lon="1.54517">
        <ele>136</ele>
        <time>2014-09-28T08:07:24.000Z</time>
      </trkpt>
      <trkpt lat="49.22771" lon="1.54517">
        <ele>136</ele>
        <time>2014-09-28T08:07:26.000Z</time>
      </trkpt>
      <trkpt lat="49.22781" lon="1.54522">
        <ele>138</ele>
        <time>2014-09-28T08:07:28.000Z</time>
      </trkpt>
      <trkpt lat="49.22793" lon="1.54529">
        <ele>139</ele>
        <time>2014-09-28T08:07:32.000Z</time>
      </trkpt>
      <trkpt lat="49.22793" lon="1.54529">
        <ele>139</ele>
        <time>2014-09-28T08:07:34.000Z</time>
      </trkpt>
      <trkpt lat="49.22805" lon="1.54533">
        <ele>139</ele>
        <time>2014-09-28T08:07:36.000Z</time>
      </trkpt>
      <trkpt lat="49.22817" lon="1.54539">
        <ele>140</ele>
        <time>2014-09-28T08:07:38.000Z</time>
      </trkpt>
      <trkpt lat="49.22825" lon="1.54543">
        <ele>140</ele>
        <time>2014-09-28T08:07:40.000Z</time>
      </trkpt>
      <trkpt lat="49.22825" lon="1.54543">
        <ele>140</ele>
        <time>2014-09-28T08:07:42.000Z</time>
      </trkpt>
      <trkpt lat="49.22825" lon="1.54543">
        <ele>140</ele>
        <time>2014-09-28T08:07:44.000Z</time>
      </trkpt>
      <trkpt lat="49.22837" lon="1.54558">
        <ele>141</ele>
        <time>2014-09-28T08:08:00.000Z</time>
      </trkpt>
      <trkpt lat="49.22843" lon="1.5456">
        <ele>141</ele>
        <time>2014-09-28T08:08:02.000Z</time>
      </trkpt>
      <trkpt lat="49.22849" lon="1.5456">
        <ele>142</ele>
        <time>2014-09-28T08:08:04.000Z</time>
      </trkpt>
      <trkpt lat="49.22855" lon="1.54561">
        <ele>143</ele>
        <time>2014-09-28T08:08:06.000Z</time>
      </trkpt>
      <trkpt lat="49.22866" lon="1.54565">
        <ele>145</ele>
        <time>2014-09-28T08:08:10.000Z</time>
      </trkpt>
      <trkpt lat="49.22873" lon="1.54569">
        <ele>146</ele>
        <time>2014-09-28T08:08:12.000Z</time>
      </trkpt>
      <trkpt lat="49.22878" lon="1.54571">
        <ele>146</ele>
        <time>2014-09-28T08:08:14.000Z</time>
      </trkpt>
      <trkpt lat="49.22878" lon="1.54571">
        <ele>146</ele>
        <time>2014-09-28T08:08:17.000Z</time>
      </trkpt>
      <trkpt lat="49.22891" lon="1.54574">
        <ele>145</ele>
        <time>2014-09-28T08:08:19.000Z</time>
      </trkpt>
      <trkpt lat="49.22903" lon="1.54579">
        <ele>143</ele>
        <time>2014-09-28T08:08:21.000Z</time>
      </trkpt>
      <trkpt lat="49.22913" lon="1.54582">
        <ele>142</ele>
        <time>2014-09-28T08:08:23.000Z</time>
      </trkpt>
      <trkpt lat="49.22919" lon="1.54586">
        <ele>142</ele>
        <time>2014-09-28T08:08:26.000Z</time>
      </trkpt>
      <trkpt lat="49.22919" lon="1.54586">
        <ele>142</ele>
        <time>2014-09-28T08:08:28.000Z</time>
      </trkpt>
      <trkpt lat="49.22929" lon="1.54586">
        <ele>142</ele>
        <time>2014-09-28T08:08:33.000Z</time>
      </trkpt>
      <trkpt lat="49.22929" lon="1.54586">
        <ele>142</ele>
        <time>2014-09-28T08:08:35.000Z</time>
      </trkpt>
      <trkpt lat="49.22935" lon="1.5458">
        <ele>141</ele>
        <time>2014-09-28T08:08:37.000Z</time>
      </trkpt>
      <trkpt lat="49.22935" lon="1.5458">
        <ele>141</ele>
        <time>2014-09-28T08:08:39.000Z</time>
      </trkpt>
      <trkpt lat="49.22941" lon="1.54575">
        <ele>143</ele>
        <time>2014-09-28T08:08:41.000Z</time>
      </trkpt>
      <trkpt lat="49.22945" lon="1.54562">
        <ele>143</ele>
        <time>2014-09-28T08:08:45.000Z</time>
      </trkpt>
      <trkpt lat="49.22945" lon="1.54562">
        <ele>143</ele>
        <time>2014-09-28T08:08:47.000Z</time>
      </trkpt>
      <trkpt lat="49.22947" lon="1.54549">
        <ele>143</ele>
        <time>2014-09-28T08:08:49.000Z</time>
      </trkpt>
      <trkpt lat="49.22949" lon="1.54537">
        <ele>143</ele>
        <time>2014-09-28T08:08:53.000Z</time>
      </trkpt>
      <trkpt lat="49.22953" lon="1.54518">
        <ele>142</ele>
        <time>2014-09-28T08:08:59.000Z</time>
      </trkpt>
      <trkpt lat="49.22954" lon="1.54508">
        <ele>143</ele>
        <time>2014-09-28T08:09:01.000Z</time>
      </trkpt>
      <trkpt lat="49.22954" lon="1.54508">
        <ele>143</ele>
        <time>2014-09-28T08:09:02.000Z</time>
      </trkpt>
      <trkpt lat="49.22954" lon="1.54508">
        <ele>143</ele>
        <time>2014-09-28T08:09:04.000Z</time>
      </trkpt>
      <trkpt lat="49.22954" lon="1.54508">
        <ele>143</ele>
        <time>2014-09-28T08:09:21.000Z</time>
      </trkpt>
      <trkpt lat="49.22954" lon="1.54508">
        <ele>143</ele>
        <time>2014-09-28T08:09:25.000Z</time>
      </trkpt>
      <trkpt lat="49.22971" lon="1.54429">
        <ele>148</ele>
        <time>2014-09-28T08:09:37.000Z</time>
      </trkpt>
      <trkpt lat="49.22971" lon="1.54429">
        <ele>148</ele>
        <time>2014-09-28T08:09:39.000Z</time>
      </trkpt>
      <trkpt lat="49.22971" lon="1.54429">
        <ele>148</ele>
        <time>2014-09-28T08:09:41.000Z</time>
      </trkpt>
      <trkpt lat="49.22962" lon="1.54373">
        <ele>150</ele>
        <time>2014-09-28T08:10:05.000Z</time>
      </trkpt>
      <trkpt lat="49.22961" lon="1.54369">
        <ele>150</ele>
        <time>2014-09-28T08:10:10.000Z</time>
      </trkpt>
      <trkpt lat="49.2296" lon="1.54364">
        <ele>150</ele>
        <time>2014-09-28T08:10:11.000Z</time>
      </trkpt>
      <trkpt lat="49.22957" lon="1.54357">
        <ele>150</ele>
        <time>2014-09-28T08:10:14.000Z</time>
      </trkpt>
      <trkpt lat="49.22955" lon="1.54349">
        <ele>150</ele>
        <time>2014-09-28T08:10:15.000Z</time>
      </trkpt>
      <trkpt lat="49.22953" lon="1.54341">
        <ele>150</ele>
        <time>2014-09-28T08:10:17.000Z</time>
      </trkpt>
      <trkpt lat="49.22953" lon="1.54341">
        <ele>150</ele>
        <time>2014-09-28T08:10:20.000Z</time>
      </trkpt>
      <trkpt lat="49.22952" lon="1.54301">
        <ele>150</ele>
        <time>2014-09-28T08:10:28.000Z</time>
      </trkpt>
      <trkpt lat="49.22953" lon="1.54292">
        <ele>150</ele>
        <time>2014-09-28T08:10:30.000Z</time>
      </trkpt>
      <trkpt lat="49.22954" lon="1.54282">
        <ele>149</ele>
        <time>2014-09-28T08:10:33.000Z</time>
      </trkpt>
      <trkpt lat="49.22954" lon="1.54282">
        <ele>149</ele>
        <time>2014-09-28T08:10:34.000Z</time>
      </trkpt>
      <trkpt lat="49.22955" lon="1.54269">
        <ele>148</ele>
        <time>2014-09-28T08:10:37.000Z</time>
      </trkpt>
      <trkpt lat="49.22955" lon="1.54269">
        <ele>148</ele>
        <time>2014-09-28T08:10:39.000Z</time>
      </trkpt>
      <trkpt lat="49.22956" lon="1.54257">
        <ele>148</ele>
        <time>2014-09-28T08:10:41.000Z</time>
      </trkpt>
      <trkpt lat="49.22956" lon="1.54257">
        <ele>148</ele>
        <time>2014-09-28T08:10:42.000Z</time>
      </trkpt>
      <trkpt lat="49.22956" lon="1.54257">
        <ele>148</ele>
        <time>2014-09-28T08:10:45.000Z</time>
      </trkpt>
      <trkpt lat="49.22958" lon="1.54233">
        <ele>147</ele>
        <time>2014-09-28T08:10:47.000Z</time>
      </trkpt>
      <trkpt lat="49.22958" lon="1.54219">
        <ele>146</ele>
        <time>2014-09-28T08:10:52.000Z</time>
      </trkpt>
      <trkpt lat="49.22958" lon="1.54206">
        <ele>145</ele>
        <time>2014-09-28T08:10:55.000Z</time>
      </trkpt>
      <trkpt lat="49.22957" lon="1.5419">
        <ele>144</ele>
        <time>2014-09-28T08:10:59.000Z</time>
      </trkpt>
      <trkpt lat="49.22957" lon="1.5419">
        <ele>144</ele>
        <time>2014-09-28T08:11:01.000Z</time>
      </trkpt>
      <trkpt lat="49.22955" lon="1.54177">
        <ele>143</ele>
        <time>2014-09-28T08:11:04.000Z</time>
      </trkpt>
      <trkpt lat="49.22955" lon="1.54177">
        <ele>143</ele>
        <time>2014-09-28T08:11:05.000Z</time>
      </trkpt>
      <trkpt lat="49.22955" lon="1.54164">
        <ele>142</ele>
        <time>2014-09-28T08:11:07.000Z</time>
      </trkpt>
      <trkpt lat="49.22955" lon="1.54164">
        <ele>142</ele>
        <time>2014-09-28T08:11:10.000Z</time>
      </trkpt>
      <trkpt lat="49.22953" lon="1.5415">
        <ele>143</ele>
        <time>2014-09-28T08:11:11.000Z</time>
      </trkpt>
      <trkpt lat="49.22953" lon="1.5415">
        <ele>143</ele>
        <time>2014-09-28T08:11:13.000Z</time>
      </trkpt>
      <trkpt lat="49.22953" lon="1.54136">
        <ele>142</ele>
        <time>2014-09-28T08:11:16.000Z</time>
      </trkpt>
      <trkpt lat="49.22953" lon="1.54125">
        <ele>142</ele>
        <time>2014-09-28T08:11:17.000Z</time>
      </trkpt>
      <trkpt lat="49.22953" lon="1.54125">
        <ele>142</ele>
        <time>2014-09-28T08:11:20.000Z</time>
      </trkpt>
      <trkpt lat="49.22953" lon="1.54125">
        <ele>142</ele>
        <time>2014-09-28T08:11:21.000Z</time>
      </trkpt>
      <trkpt lat="49.22965" lon="1.5408">
        <ele>144</ele>
        <time>2014-09-28T08:11:33.000Z</time>
      </trkpt>
      <trkpt lat="49.22965" lon="1.5408">
        <ele>144</ele>
        <time>2014-09-28T08:11:36.000Z</time>
      </trkpt>
      <trkpt lat="49.22972" lon="1.5407">
        <ele>144</ele>
        <time>2014-09-28T08:11:37.000Z</time>
      </trkpt>
      <trkpt lat="49.22972" lon="1.5407">
        <ele>144</ele>
        <time>2014-09-28T08:11:39.000Z</time>
      </trkpt>
      <trkpt lat="49.22976" lon="1.54056">
        <ele>143</ele>
        <time>2014-09-28T08:11:41.000Z</time>
      </trkpt>
      <trkpt lat="49.22985" lon="1.5403">
        <ele>143</ele>
        <time>2014-09-28T08:12:07.000Z</time>
      </trkpt>
      <trkpt lat="49.22985" lon="1.5403">
        <ele>143</ele>
        <time>2014-09-28T08:12:10.000Z</time>
      </trkpt>
      <trkpt lat="49.2299" lon="1.54017">
        <ele>142</ele>
        <time>2014-09-28T08:12:11.000Z</time>
      </trkpt>
      <trkpt lat="49.2299" lon="1.54017">
        <ele>142</ele>
        <time>2014-09-28T08:12:13.000Z</time>
      </trkpt>
      <trkpt lat="49.2299" lon="1.54017">
        <ele>142</ele>
        <time>2014-09-28T08:12:16.000Z</time>
      </trkpt>
      <trkpt lat="49.2299" lon="1.54017">
        <ele>142</ele>
        <time>2014-09-28T08:13:29.000Z</time>
      </trkpt>
      <trkpt lat="49.2299" lon="1.54017">
        <ele>142</ele>
        <time>2014-09-28T08:13:33.000Z</time>
      </trkpt>
      <trkpt lat="49.23033" lon="1.53872">
        <ele>123</ele>
        <time>2014-09-28T08:16:42.000Z</time>
      </trkpt>
      <trkpt lat="49.23033" lon="1.53872">
        <ele>123</ele>
        <time>2014-09-28T08:16:43.000Z</time>
      </trkpt>
      <trkpt lat="49.23033" lon="1.53872">
        <ele>123</ele>
        <time>2014-09-28T08:16:46.000Z</time>
      </trkpt>
      <trkpt lat="49.2303" lon="1.53867">
        <ele>122</ele>
        <time>2014-09-28T08:18:31.000Z</time>
      </trkpt>
      <trkpt lat="49.23027" lon="1.53863">
        <ele>122</ele>
        <time>2014-09-28T08:18:33.000Z</time>
      </trkpt>
      <trkpt lat="49.23022" lon="1.5386">
        <ele>121</ele>
        <time>2014-09-28T08:18:35.000Z</time>
      </trkpt>
      <trkpt lat="49.23018" lon="1.53857">
        <ele>122</ele>
        <time>2014-09-28T08:18:37.000Z</time>
      </trkpt>
      <trkpt lat="49.23013" lon="1.53853">
        <ele>122</ele>
        <time>2014-09-28T08:18:39.000Z</time>
      </trkpt>
      <trkpt lat="49.23001" lon="1.53846">
        <ele>121</ele>
        <time>2014-09-28T08:18:41.000Z</time>
      </trkpt>
      <trkpt lat="49.22995" lon="1.53843">
        <ele>121</ele>
        <time>2014-09-28T08:18:43.000Z</time>
      </trkpt>
      <trkpt lat="49.22989" lon="1.5384">
        <ele>122</ele>
        <time>2014-09-28T08:18:45.000Z</time>
      </trkpt>
      <trkpt lat="49.22982" lon="1.53837">
        <ele>122</ele>
        <time>2014-09-28T08:18:47.000Z</time>
      </trkpt>
      <trkpt lat="49.22975" lon="1.53832">
        <ele>122</ele>
        <time>2014-09-28T08:18:49.000Z</time>
      </trkpt>
      <trkpt lat="49.22968" lon="1.53829">
        <ele>122</ele>
        <time>2014-09-28T08:18:51.000Z</time>
      </trkpt>
      <trkpt lat="49.22961" lon="1.53825">
        <ele>122</ele>
        <time>2014-09-28T08:18:53.000Z</time>
      </trkpt>
      <trkpt lat="49.22954" lon="1.5382">
        <ele>122</ele>
        <time>2014-09-28T08:18:55.000Z</time>
      </trkpt>
      <trkpt lat="49.22946" lon="1.53816">
        <ele>122</ele>
        <time>2014-09-28T08:18:57.000Z</time>
      </trkpt>
      <trkpt lat="49.22939" lon="1.53812">
        <ele>122</ele>
        <time>2014-09-28T08:18:59.000Z</time>
      </trkpt>
      <trkpt lat="49.22932" lon="1.53809">
        <ele>122</ele>
        <time>2014-09-28T08:19:00.000Z</time>
      </trkpt>
      <trkpt lat="49.22925" lon="1.53805">
        <ele>123</ele>
        <time>2014-09-28T08:19:03.000Z</time>
      </trkpt>
      <trkpt lat="49.22918" lon="1.53801">
        <ele>123</ele>
        <time>2014-09-28T08:19:05.000Z</time>
      </trkpt>
      <trkpt lat="49.22911" lon="1.53796">
        <ele>123</ele>
        <time>2014-09-28T08:19:07.000Z</time>
      </trkpt>
      <trkpt lat="49.22904" lon="1.53792">
        <ele>123</ele>
        <time>2014-09-28T08:19:09.000Z</time>
      </trkpt>
      <trkpt lat="49.22898" lon="1.53789">
        <ele>124</ele>
        <time>2014-09-28T08:19:11.000Z</time>
      </trkpt>
      <trkpt lat="49.22891" lon="1.53785">
        <ele>124</ele>
        <time>2014-09-28T08:19:13.000Z</time>
      </trkpt>
      <trkpt lat="49.22884" lon="1.53781">
        <ele>124</ele>
        <time>2014-09-28T08:19:15.000Z</time>
      </trkpt>
      <trkpt lat="49.22878" lon="1.53777">
        <ele>125</ele>
        <time>2014-09-28T08:19:17.000Z</time>
      </trkpt>
      <trkpt lat="49.22871" lon="1.53773">
        <ele>125</ele>
        <time>2014-09-28T08:19:19.000Z</time>
      </trkpt>
      <trkpt lat="49.22865" lon="1.5377">
        <ele>125</ele>
        <time>2014-09-28T08:19:21.000Z</time>
      </trkpt>
      <trkpt lat="49.22858" lon="1.53766">
        <ele>125</ele>
        <time>2014-09-28T08:19:23.000Z</time>
      </trkpt>
      <trkpt lat="49.22852" lon="1.53762">
        <ele>125</ele>
        <time>2014-09-28T08:19:25.000Z</time>
      </trkpt>
      <trkpt lat="49.22845" lon="1.53758">
        <ele>126</ele>
        <time>2014-09-28T08:19:27.000Z</time>
      </trkpt>
      <trkpt lat="49.22839" lon="1.53755">
        <ele>126</ele>
        <time>2014-09-28T08:19:29.000Z</time>
      </trkpt>
      <trkpt lat="49.22832" lon="1.53751">
        <ele>126</ele>
        <time>2014-09-28T08:19:31.000Z</time>
      </trkpt>
      <trkpt lat="49.22826" lon="1.53747">
        <ele>126</ele>
        <time>2014-09-28T08:19:33.000Z</time>
      </trkpt>
      <trkpt lat="49.22819" lon="1.53743">
        <ele>127</ele>
        <time>2014-09-28T08:19:35.000Z</time>
      </trkpt>
      <trkpt lat="49.22812" lon="1.53739">
        <ele>127</ele>
        <time>2014-09-28T08:19:37.000Z</time>
      </trkpt>
      <trkpt lat="49.22805" lon="1.53735">
        <ele>127</ele>
        <time>2014-09-28T08:19:39.000Z</time>
      </trkpt>
      <trkpt lat="49.22798" lon="1.53732">
        <ele>128</ele>
        <time>2014-09-28T08:19:41.000Z</time>
      </trkpt>
      <trkpt lat="49.22791" lon="1.53728">
        <ele>128</ele>
        <time>2014-09-28T08:19:42.000Z</time>
      </trkpt>
      <trkpt lat="49.22784" lon="1.53725">
        <ele>129</ele>
        <time>2014-09-28T08:19:45.000Z</time>
      </trkpt>
      <trkpt lat="49.22777" lon="1.5372">
        <ele>129</ele>
        <time>2014-09-28T08:19:47.000Z</time>
      </trkpt>
      <trkpt lat="49.2277" lon="1.53717">
        <ele>129</ele>
        <time>2014-09-28T08:19:49.000Z</time>
      </trkpt>
      <trkpt lat="49.22763" lon="1.53713">
        <ele>129</ele>
        <time>2014-09-28T08:19:50.000Z</time>
      </trkpt>
      <trkpt lat="49.22756" lon="1.5371">
        <ele>130</ele>
        <time>2014-09-28T08:19:52.000Z</time>
      </trkpt>
      <trkpt lat="49.22749" lon="1.53706">
        <ele>130</ele>
        <time>2014-09-28T08:19:53.000Z</time>
      </trkpt>
      <trkpt lat="49.22741" lon="1.53702">
        <ele>130</ele>
        <time>2014-09-28T08:19:56.000Z</time>
      </trkpt>
      <trkpt lat="49.22734" lon="1.53697">
        <ele>130</ele>
        <time>2014-09-28T08:19:57.000Z</time>
      </trkpt>
      <trkpt lat="49.22728" lon="1.53692">
        <ele>131</ele>
        <time>2014-09-28T08:19:59.000Z</time>
      </trkpt>
      <trkpt lat="49.22722" lon="1.53685">
        <ele>131</ele>
        <time>2014-09-28T08:20:02.000Z</time>
      </trkpt>
      <trkpt lat="49.22717" lon="1.53676">
        <ele>132</ele>
        <time>2014-09-28T08:20:03.000Z</time>
      </trkpt>
      <trkpt lat="49.22712" lon="1.53668">
        <ele>132</ele>
        <time>2014-09-28T08:20:05.000Z</time>
      </trkpt>
      <trkpt lat="49.22708" lon="1.53659">
        <ele>133</ele>
        <time>2014-09-28T08:20:08.000Z</time>
      </trkpt>
      <trkpt lat="49.22704" lon="1.53649">
        <ele>133</ele>
        <time>2014-09-28T08:20:09.000Z</time>
      </trkpt>
      <trkpt lat="49.227" lon="1.5364">
        <ele>133</ele>
        <time>2014-09-28T08:20:11.000Z</time>
      </trkpt>
      <trkpt lat="49.22696" lon="1.5363">
        <ele>134</ele>
        <time>2014-09-28T08:20:15.000Z</time>
      </trkpt>
      <trkpt lat="49.22692" lon="1.53621">
        <ele>134</ele>
        <time>2014-09-28T08:20:16.000Z</time>
      </trkpt>
      <trkpt lat="49.22688" lon="1.53612">
        <ele>135</ele>
        <time>2014-09-28T08:20:18.000Z</time>
      </trkpt>
      <trkpt lat="49.22684" lon="1.53602">
        <ele>135</ele>
        <time>2014-09-28T08:20:21.000Z</time>
      </trkpt>
      <trkpt lat="49.22681" lon="1.53591">
        <ele>136</ele>
        <time>2014-09-28T08:20:22.000Z</time>
      </trkpt>
      <trkpt lat="49.22676" lon="1.53581">
        <ele>136</ele>
        <time>2014-09-28T08:20:25.000Z</time>
      </trkpt>
      <trkpt lat="49.22672" lon="1.53571">
        <ele>136</ele>
        <time>2014-09-28T08:20:27.000Z</time>
      </trkpt>
      <trkpt lat="49.22668" lon="1.53561">
        <ele>137</ele>
        <time>2014-09-28T08:20:28.000Z</time>
      </trkpt>
      <trkpt lat="49.22664" lon="1.53551">
        <ele>137</ele>
        <time>2014-09-28T08:20:31.000Z</time>
      </trkpt>
      <trkpt lat="49.2266" lon="1.53542">
        <ele>137</ele>
        <time>2014-09-28T08:20:33.000Z</time>
      </trkpt>
      <trkpt lat="49.22656" lon="1.53532">
        <ele>137</ele>
        <time>2014-09-28T08:20:35.000Z</time>
      </trkpt>
      <trkpt lat="49.22652" lon="1.53522">
        <ele>138</ele>
        <time>2014-09-28T08:20:37.000Z</time>
      </trkpt>
      <trkpt lat="49.22648" lon="1.53512">
        <ele>138</ele>
        <time>2014-09-28T08:20:39.000Z</time>
      </trkpt>
      <trkpt lat="49.22644" lon="1.53501">
        <ele>139</ele>
        <time>2014-09-28T08:20:40.000Z</time>
      </trkpt>
      <trkpt lat="49.22639" lon="1.53492">
        <ele>139</ele>
        <time>2014-09-28T08:20:43.000Z</time>
      </trkpt>
      <trkpt lat="49.22635" lon="1.53482">
        <ele>138</ele>
        <time>2014-09-28T08:20:45.000Z</time>
      </trkpt>
      <trkpt lat="49.2263" lon="1.53471">
        <ele>139</ele>
        <time>2014-09-28T08:20:47.000Z</time>
      </trkpt>
      <trkpt lat="49.22625" lon="1.53461">
        <ele>139</ele>
        <time>2014-09-28T08:20:48.000Z</time>
      </trkpt>
      <trkpt lat="49.2262" lon="1.53452">
        <ele>139</ele>
        <time>2014-09-28T08:20:51.000Z</time>
      </trkpt>
      <trkpt lat="49.22617" lon="1.53441">
        <ele>139</ele>
        <time>2014-09-28T08:20:53.000Z</time>
      </trkpt>
      <trkpt lat="49.22612" lon="1.5343">
        <ele>139</ele>
        <time>2014-09-28T08:20:54.000Z</time>
      </trkpt>
      <trkpt lat="49.22608" lon="1.53419">
        <ele>139</ele>
        <time>2014-09-28T08:20:57.000Z</time>
      </trkpt>
      <trkpt lat="49.22604" lon="1.53407">
        <ele>140</ele>
        <time>2014-09-28T08:20:58.000Z</time>
      </trkpt>
      <trkpt lat="49.22599" lon="1.53396">
        <ele>140</ele>
        <time>2014-09-28T08:21:01.000Z</time>
      </trkpt>
      <trkpt lat="49.22596" lon="1.53385">
        <ele>141</ele>
        <time>2014-09-28T08:21:03.000Z</time>
      </trkpt>
      <trkpt lat="49.22596" lon="1.53385">
        <ele>141</ele>
        <time>2014-09-28T08:21:04.000Z</time>
      </trkpt>
      <trkpt lat="49.22591" lon="1.53373">
        <ele>142</ele>
        <time>2014-09-28T08:21:07.000Z</time>
      </trkpt>
      <trkpt lat="49.22591" lon="1.53373">
        <ele>142</ele>
        <time>2014-09-28T08:21:09.000Z</time>
      </trkpt>
      <trkpt lat="49.22587" lon="1.53363">
        <ele>143</ele>
        <time>2014-09-28T08:21:11.000Z</time>
      </trkpt>
      <trkpt lat="49.22587" lon="1.53363">
        <ele>143</ele>
        <time>2014-09-28T08:21:13.000Z</time>
      </trkpt>
      <trkpt lat="49.22587" lon="1.53363">
        <ele>143</ele>
        <time>2014-09-28T08:21:15.000Z</time>
      </trkpt>
      <trkpt lat="49.22574" lon="1.53337">
        <ele>146</ele>
        <time>2014-09-28T08:22:10.000Z</time>
      </trkpt>
      <trkpt lat="49.22574" lon="1.53337">
        <ele>146</ele>
        <time>2014-09-28T08:22:11.000Z</time>
      </trkpt>
      <trkpt lat="49.22571" lon="1.53326">
        <ele>146</ele>
        <time>2014-09-28T08:22:13.000Z</time>
      </trkpt>
      <trkpt lat="49.22565" lon="1.53312">
        <ele>146</ele>
        <time>2014-09-28T08:22:18.000Z</time>
      </trkpt>
      <trkpt lat="49.22559" lon="1.533">
        <ele>145</ele>
        <time>2014-09-28T08:22:21.000Z</time>
      </trkpt>
      <trkpt lat="49.22549" lon="1.53298">
        <ele>145</ele>
        <time>2014-09-28T08:22:26.000Z</time>
      </trkpt>
      <trkpt lat="49.22549" lon="1.53298">
        <ele>145</ele>
        <time>2014-09-28T08:22:27.000Z</time>
      </trkpt>
      <trkpt lat="49.22543" lon="1.53297">
        <ele>144</ele>
        <time>2014-09-28T08:22:29.000Z</time>
      </trkpt>
      <trkpt lat="49.22543" lon="1.53297">
        <ele>144</ele>
        <time>2014-09-28T08:22:32.000Z</time>
      </trkpt>
      <trkpt lat="49.22536" lon="1.53294">
        <ele>144</ele>
        <time>2014-09-28T08:22:33.000Z</time>
      </trkpt>
      <trkpt lat="49.22536" lon="1.53294">
        <ele>144</ele>
        <time>2014-09-28T08:22:35.000Z</time>
      </trkpt>
      <trkpt lat="49.22529" lon="1.53296">
        <ele>144</ele>
        <time>2014-09-28T08:22:38.000Z</time>
      </trkpt>
      <trkpt lat="49.22525" lon="1.53302">
        <ele>143</ele>
        <time>2014-09-28T08:22:39.000Z</time>
      </trkpt>
      <trkpt lat="49.22519" lon="1.5331">
        <ele>143</ele>
        <time>2014-09-28T08:22:41.000Z</time>
      </trkpt>
      <trkpt lat="49.22514" lon="1.53317">
        <ele>144</ele>
        <time>2014-09-28T08:22:44.000Z</time>
      </trkpt>
      <trkpt lat="49.22507" lon="1.53325">
        <ele>144</ele>
        <time>2014-09-28T08:22:46.000Z</time>
      </trkpt>
      <trkpt lat="49.22501" lon="1.53334">
        <ele>144</ele>
        <time>2014-09-28T08:22:47.000Z</time>
      </trkpt>
      <trkpt lat="49.22495" lon="1.53344">
        <ele>144</ele>
        <time>2014-09-28T08:22:49.000Z</time>
      </trkpt>
      <trkpt lat="49.22488" lon="1.53353">
        <ele>144</ele>
        <time>2014-09-28T08:22:52.000Z</time>
      </trkpt>
      <trkpt lat="49.22482" lon="1.53361">
        <ele>143</ele>
        <time>2014-09-28T08:22:54.000Z</time>
      </trkpt>
      <trkpt lat="49.22475" lon="1.53369">
        <ele>143</ele>
        <time>2014-09-28T08:22:55.000Z</time>
      </trkpt>
      <trkpt lat="49.2247" lon="1.53377">
        <ele>143</ele>
        <time>2014-09-28T08:22:58.000Z</time>
      </trkpt>
      <trkpt lat="49.22465" lon="1.53384">
        <ele>143</ele>
        <time>2014-09-28T08:22:59.000Z</time>
      </trkpt>
      <trkpt lat="49.2246" lon="1.53392">
        <ele>143</ele>
        <time>2014-09-28T08:23:02.000Z</time>
      </trkpt>
      <trkpt lat="49.22455" lon="1.53398">
        <ele>143</ele>
        <time>2014-09-28T08:23:03.000Z</time>
      </trkpt>
      <trkpt lat="49.22455" lon="1.53398">
        <ele>143</ele>
        <time>2014-09-28T08:23:06.000Z</time>
      </trkpt>
      <trkpt lat="49.22446" lon="1.53408">
        <ele>143</ele>
        <time>2014-09-28T08:23:07.000Z</time>
      </trkpt>
      <trkpt lat="49.22446" lon="1.53408">
        <ele>143</ele>
        <time>2014-09-28T08:23:10.000Z</time>
      </trkpt>
      <trkpt lat="49.22438" lon="1.53417">
        <ele>143</ele>
        <time>2014-09-28T08:23:11.000Z</time>
      </trkpt>
      <trkpt lat="49.22433" lon="1.53423">
        <ele>143</ele>
        <time>2014-09-28T08:23:14.000Z</time>
      </trkpt>
      <trkpt lat="49.22427" lon="1.53428">
        <ele>142</ele>
        <time>2014-09-28T08:23:15.000Z</time>
      </trkpt>
      <trkpt lat="49.22421" lon="1.53434">
        <ele>142</ele>
        <time>2014-09-28T08:23:18.000Z</time>
      </trkpt>
      <trkpt lat="49.22415" lon="1.5344">
        <ele>142</ele>
        <time>2014-09-28T08:23:20.000Z</time>
      </trkpt>
      <trkpt lat="49.22409" lon="1.53446">
        <ele>141</ele>
        <time>2014-09-28T08:23:21.000Z</time>
      </trkpt>
      <trkpt lat="49.22409" lon="1.53446">
        <ele>141</ele>
        <time>2014-09-28T08:23:24.000Z</time>
      </trkpt>
      <trkpt lat="49.22401" lon="1.53454">
        <ele>142</ele>
        <time>2014-09-28T08:23:26.000Z</time>
      </trkpt>
      <trkpt lat="49.22401" lon="1.53454">
        <ele>142</ele>
        <time>2014-09-28T08:23:28.000Z</time>
      </trkpt>
      <trkpt lat="49.22401" lon="1.53454">
        <ele>142</ele>
        <time>2014-09-28T08:23:29.000Z</time>
      </trkpt>
      <trkpt lat="49.22394" lon="1.53461">
        <ele>143</ele>
        <time>2014-09-28T08:24:03.000Z</time>
      </trkpt>
      <trkpt lat="49.22388" lon="1.53467">
        <ele>143</ele>
        <time>2014-09-28T08:24:06.000Z</time>
      </trkpt>
      <trkpt lat="49.22383" lon="1.53473">
        <ele>143</ele>
        <time>2014-09-28T08:24:09.000Z</time>
      </trkpt>
      <trkpt lat="49.22378" lon="1.53478">
        <ele>143</ele>
        <time>2014-09-28T08:24:11.000Z</time>
      </trkpt>
      <trkpt lat="49.22373" lon="1.53484">
        <ele>143</ele>
        <time>2014-09-28T08:24:12.000Z</time>
      </trkpt>
      <trkpt lat="49.22368" lon="1.53489">
        <ele>142</ele>
        <time>2014-09-28T08:24:15.000Z</time>
      </trkpt>
      <trkpt lat="49.22363" lon="1.53494">
        <ele>142</ele>
        <time>2014-09-28T08:24:16.000Z</time>
      </trkpt>
      <trkpt lat="49.22363" lon="1.53494">
        <ele>142</ele>
        <time>2014-09-28T08:24:18.000Z</time>
      </trkpt>
      <trkpt lat="49.22354" lon="1.53504">
        <ele>142</ele>
        <time>2014-09-28T08:24:21.000Z</time>
      </trkpt>
      <trkpt lat="49.22354" lon="1.53504">
        <ele>142</ele>
        <time>2014-09-28T08:24:23.000Z</time>
      </trkpt>
      <trkpt lat="49.22345" lon="1.53513">
        <ele>142</ele>
        <time>2014-09-28T08:24:24.000Z</time>
      </trkpt>
      <trkpt lat="49.22345" lon="1.53513">
        <ele>142</ele>
        <time>2014-09-28T08:24:27.000Z</time>
      </trkpt>
      <trkpt lat="49.22337" lon="1.53513">
        <ele>141</ele>
        <time>2014-09-28T08:24:28.000Z</time>
      </trkpt>
      <trkpt lat="49.22337" lon="1.53513">
        <ele>141</ele>
        <time>2014-09-28T08:24:31.000Z</time>
      </trkpt>
      <trkpt lat="49.22332" lon="1.53498">
        <ele>141</ele>
        <time>2014-09-28T08:24:33.000Z</time>
      </trkpt>
      <trkpt lat="49.22329" lon="1.53489">
        <ele>141</ele>
        <time>2014-09-28T08:24:35.000Z</time>
      </trkpt>
      <trkpt lat="49.22326" lon="1.53481">
        <ele>142</ele>
        <time>2014-09-28T08:24:37.000Z</time>
      </trkpt>
      <trkpt lat="49.22321" lon="1.53464">
        <ele>142</ele>
        <time>2014-09-28T08:24:40.000Z</time>
      </trkpt>
      <trkpt lat="49.22318" lon="1.53455">
        <ele>142</ele>
        <time>2014-09-28T08:24:43.000Z</time>
      </trkpt>
      <trkpt lat="49.22316" lon="1.53447">
        <ele>142</ele>
        <time>2014-09-28T08:24:45.000Z</time>
      </trkpt>
      <trkpt lat="49.22316" lon="1.53447">
        <ele>142</ele>
        <time>2014-09-28T08:24:47.000Z</time>
      </trkpt>
      <trkpt lat="49.22312" lon="1.53432">
        <ele>142</ele>
        <time>2014-09-28T08:24:49.000Z</time>
      </trkpt>
      <trkpt lat="49.22312" lon="1.53432">
        <ele>142</ele>
        <time>2014-09-28T08:24:51.000Z</time>
      </trkpt>
      <trkpt lat="49.22309" lon="1.53417">
        <ele>142</ele>
        <time>2014-09-28T08:24:52.000Z</time>
      </trkpt>
      <trkpt lat="49.22306" lon="1.53402">
        <ele>143</ele>
        <time>2014-09-28T08:24:57.000Z</time>
      </trkpt>
      <trkpt lat="49.22306" lon="1.53402">
        <ele>143</ele>
        <time>2014-09-28T08:24:58.000Z</time>
      </trkpt>
      <trkpt lat="49.22305" lon="1.53388">
        <ele>143</ele>
        <time>2014-09-28T08:25:01.000Z</time>
      </trkpt>
      <trkpt lat="49.22304" lon="1.53372">
        <ele>144</ele>
        <time>2014-09-28T08:25:04.000Z</time>
      </trkpt>
      <trkpt lat="49.22304" lon="1.53372">
        <ele>144</ele>
        <time>2014-09-28T08:25:06.000Z</time>
      </trkpt>
      <trkpt lat="49.22304" lon="1.53357">
        <ele>143</ele>
        <time>2014-09-28T08:25:09.000Z</time>
      </trkpt>
      <trkpt lat="49.22304" lon="1.53341">
        <ele>143</ele>
        <time>2014-09-28T08:25:13.000Z</time>
      </trkpt>
      <trkpt lat="49.22304" lon="1.53341">
        <ele>143</ele>
        <time>2014-09-28T08:25:15.000Z</time>
      </trkpt>
      <trkpt lat="49.22303" lon="1.53333">
        <ele>143</ele>
        <time>2014-09-28T08:25:16.000Z</time>
      </trkpt>
      <trkpt lat="49.22302" lon="1.53324">
        <ele>144</ele>
        <time>2014-09-28T08:25:19.000Z</time>
      </trkpt>
      <trkpt lat="49.22301" lon="1.53316">
        <ele>144</ele>
        <time>2014-09-28T08:25:21.000Z</time>
      </trkpt>
      <trkpt lat="49.223" lon="1.53309">
        <ele>144</ele>
        <time>2014-09-28T08:25:23.000Z</time>
      </trkpt>
      <trkpt lat="49.223" lon="1.53301">
        <ele>144</ele>
        <time>2014-09-28T08:25:25.000Z</time>
      </trkpt>
      <trkpt lat="49.223" lon="1.53287">
        <ele>143</ele>
        <time>2014-09-28T08:25:27.000Z</time>
      </trkpt>
      <trkpt lat="49.223" lon="1.53287">
        <ele>143</ele>
        <time>2014-09-28T08:25:28.000Z</time>
      </trkpt>
      <trkpt lat="49.22298" lon="1.53275">
        <ele>143</ele>
        <time>2014-09-28T08:25:30.000Z</time>
      </trkpt>
      <trkpt lat="49.22298" lon="1.53275">
        <ele>143</ele>
        <time>2014-09-28T08:25:33.000Z</time>
      </trkpt>
      <trkpt lat="49.22295" lon="1.53261">
        <ele>143</ele>
        <time>2014-09-28T08:25:34.000Z</time>
      </trkpt>
      <trkpt lat="49.22293" lon="1.53247">
        <ele>142</ele>
        <time>2014-09-28T08:25:39.000Z</time>
      </trkpt>
      <trkpt lat="49.22292" lon="1.53232">
        <ele>143</ele>
        <time>2014-09-28T08:25:42.000Z</time>
      </trkpt>
      <trkpt lat="49.22292" lon="1.53232">
        <ele>143</ele>
        <time>2014-09-28T08:25:45.000Z</time>
      </trkpt>
      <trkpt lat="49.22292" lon="1.53232">
        <ele>143</ele>
        <time>2014-09-28T08:25:46.000Z</time>
      </trkpt>
      <trkpt lat="49.22282" lon="1.53223">
        <ele>144</ele>
        <time>2014-09-28T08:25:50.000Z</time>
      </trkpt>
      <trkpt lat="49.22276" lon="1.53226">
        <ele>144</ele>
        <time>2014-09-28T08:25:51.000Z</time>
      </trkpt>
      <trkpt lat="49.22271" lon="1.53231">
        <ele>145</ele>
        <time>2014-09-28T08:25:54.000Z</time>
      </trkpt>
      <trkpt lat="49.22266" lon="1.53235">
        <ele>145</ele>
        <time>2014-09-28T08:25:55.000Z</time>
      </trkpt>
      <trkpt lat="49.2226" lon="1.53239">
        <ele>146</ele>
        <time>2014-09-28T08:25:58.000Z</time>
      </trkpt>
      <trkpt lat="49.2226" lon="1.53239">
        <ele>146</ele>
        <time>2014-09-28T08:25:59.000Z</time>
      </trkpt>
      <trkpt lat="49.22252" lon="1.53248">
        <ele>146</ele>
        <time>2014-09-28T08:26:01.000Z</time>
      </trkpt>
      <trkpt lat="49.22252" lon="1.53248">
        <ele>146</ele>
        <time>2014-09-28T08:26:03.000Z</time>
      </trkpt>
      <trkpt lat="49.22252" lon="1.53248">
        <ele>146</ele>
        <time>2014-09-28T08:26:05.000Z</time>
      </trkpt>
      <trkpt lat="49.22243" lon="1.53254">
        <ele>147</ele>
        <time>2014-09-28T08:26:27.000Z</time>
      </trkpt>
      <trkpt lat="49.22236" lon="1.53263">
        <ele>147</ele>
        <time>2014-09-28T08:26:29.000Z</time>
      </trkpt>
      <trkpt lat="49.22229" lon="1.53269">
        <ele>147</ele>
        <time>2014-09-28T08:26:32.000Z</time>
      </trkpt>
      <trkpt lat="49.22222" lon="1.53274">
        <ele>147</ele>
        <time>2014-09-28T08:26:34.000Z</time>
      </trkpt>
      <trkpt lat="49.22215" lon="1.5328">
        <ele>147</ele>
        <time>2014-09-28T08:26:36.000Z</time>
      </trkpt>
      <trkpt lat="49.22208" lon="1.53287">
        <ele>148</ele>
        <time>2014-09-28T08:26:38.000Z</time>
      </trkpt>
      <trkpt lat="49.22202" lon="1.53293">
        <ele>148</ele>
        <time>2014-09-28T08:26:39.000Z</time>
      </trkpt>
      <trkpt lat="49.22195" lon="1.533">
        <ele>148</ele>
        <time>2014-09-28T08:26:42.000Z</time>
      </trkpt>
      <trkpt lat="49.22188" lon="1.53307">
        <ele>148</ele>
        <time>2014-09-28T08:26:43.000Z</time>
      </trkpt>
      <trkpt lat="49.2218" lon="1.53314">
        <ele>148</ele>
        <time>2014-09-28T08:26:45.000Z</time>
      </trkpt>
      <trkpt lat="49.22172" lon="1.53321">
        <ele>148</ele>
        <time>2014-09-28T08:26:47.000Z</time>
      </trkpt>
      <trkpt lat="49.22165" lon="1.53328">
        <ele>148</ele>
        <time>2014-09-28T08:26:50.000Z</time>
      </trkpt>
      <trkpt lat="49.22156" lon="1.53335">
        <ele>148</ele>
        <time>2014-09-28T08:26:52.000Z</time>
      </trkpt>
      <trkpt lat="49.22148" lon="1.53342">
        <ele>148</ele>
        <time>2014-09-28T08:26:53.000Z</time>
      </trkpt>
      <trkpt lat="49.22139" lon="1.5335">
        <ele>148</ele>
        <time>2014-09-28T08:26:55.000Z</time>
      </trkpt>
      <trkpt lat="49.2213" lon="1.53359">
        <ele>148</ele>
        <time>2014-09-28T08:26:57.000Z</time>
      </trkpt>
      <trkpt lat="49.22121" lon="1.53368">
        <ele>148</ele>
        <time>2014-09-28T08:26:59.000Z</time>
      </trkpt>
      <trkpt lat="49.22113" lon="1.53379">
        <ele>148</ele>
        <time>2014-09-28T08:27:02.000Z</time>
      </trkpt>
      <trkpt lat="49.22105" lon="1.53391">
        <ele>148</ele>
        <time>2014-09-28T08:27:04.000Z</time>
      </trkpt>
      <trkpt lat="49.22097" lon="1.53404">
        <ele>148</ele>
        <time>2014-09-28T08:27:05.000Z</time>
      </trkpt>
      <trkpt lat="49.2209" lon="1.53418">
        <ele>147</ele>
        <time>2014-09-28T08:27:08.000Z</time>
      </trkpt>
      <trkpt lat="49.22082" lon="1.53431">
        <ele>147</ele>
        <time>2014-09-28T08:27:09.000Z</time>
      </trkpt>
      <trkpt lat="49.22075" lon="1.53445">
        <ele>147</ele>
        <time>2014-09-28T08:27:12.000Z</time>
      </trkpt>
      <trkpt lat="49.22067" lon="1.53459">
        <ele>146</ele>
        <time>2014-09-28T08:27:14.000Z</time>
      </trkpt>
      <trkpt lat="49.22059" lon="1.53474">
        <ele>146</ele>
        <time>2014-09-28T08:27:15.000Z</time>
      </trkpt>
      <trkpt lat="49.2205" lon="1.53489">
        <ele>145</ele>
        <time>2014-09-28T08:27:18.000Z</time>
      </trkpt>
      <trkpt lat="49.22042" lon="1.53505">
        <ele>145</ele>
        <time>2014-09-28T08:27:19.000Z</time>
      </trkpt>
      <trkpt lat="49.22033" lon="1.53522">
        <ele>144</ele>
        <time>2014-09-28T08:27:22.000Z</time>
      </trkpt>
      <trkpt lat="49.22024" lon="1.53539">
        <ele>143</ele>
        <time>2014-09-28T08:27:24.000Z</time>
      </trkpt>
      <trkpt lat="49.22014" lon="1.53558">
        <ele>143</ele>
        <time>2014-09-28T08:27:26.000Z</time>
      </trkpt>
      <trkpt lat="49.22004" lon="1.53578">
        <ele>142</ele>
        <time>2014-09-28T08:27:27.000Z</time>
      </trkpt>
      <trkpt lat="49.21993" lon="1.53597">
        <ele>142</ele>
        <time>2014-09-28T08:27:30.000Z</time>
      </trkpt>
      <trkpt lat="49.21984" lon="1.53615">
        <ele>142</ele>
        <time>2014-09-28T08:27:31.000Z</time>
      </trkpt>
      <trkpt lat="49.21975" lon="1.53631">
        <ele>142</ele>
        <time>2014-09-28T08:27:34.000Z</time>
      </trkpt>
      <trkpt lat="49.21968" lon="1.53646">
        <ele>143</ele>
        <time>2014-09-28T08:27:36.000Z</time>
      </trkpt>
      <trkpt lat="49.21961" lon="1.5366">
        <ele>143</ele>
        <time>2014-09-28T08:27:37.000Z</time>
      </trkpt>
      <trkpt lat="49.21954" lon="1.53672">
        <ele>143</ele>
        <time>2014-09-28T08:27:40.000Z</time>
      </trkpt>
      <trkpt lat="49.21947" lon="1.53683">
        <ele>144</ele>
        <time>2014-09-28T08:27:42.000Z</time>
      </trkpt>
      <trkpt lat="49.21941" lon="1.53695">
        <ele>144</ele>
        <time>2014-09-28T08:27:43.000Z</time>
      </trkpt>
      <trkpt lat="49.21934" lon="1.53707">
        <ele>144</ele>
        <time>2014-09-28T08:27:45.000Z</time>
      </trkpt>
      <trkpt lat="49.21928" lon="1.53719">
        <ele>145</ele>
        <time>2014-09-28T08:27:48.000Z</time>
      </trkpt>
      <trkpt lat="49.21921" lon="1.53731">
        <ele>145</ele>
        <time>2014-09-28T08:27:49.000Z</time>
      </trkpt>
      <trkpt lat="49.21915" lon="1.53744">
        <ele>145</ele>
        <time>2014-09-28T08:27:52.000Z</time>
      </trkpt>
      <trkpt lat="49.21908" lon="1.53756">
        <ele>145</ele>
        <time>2014-09-28T08:27:53.000Z</time>
      </trkpt>
      <trkpt lat="49.21902" lon="1.53768">
        <ele>145</ele>
        <time>2014-09-28T08:27:55.000Z</time>
      </trkpt>
      <trkpt lat="49.21895" lon="1.53781">
        <ele>145</ele>
        <time>2014-09-28T08:27:58.000Z</time>
      </trkpt>
      <trkpt lat="49.21888" lon="1.53793">
        <ele>145</ele>
        <time>2014-09-28T08:27:59.000Z</time>
      </trkpt>
      <trkpt lat="49.21881" lon="1.53805">
        <ele>145</ele>
        <time>2014-09-28T08:28:01.000Z</time>
      </trkpt>
      <trkpt lat="49.21874" lon="1.53818">
        <ele>144</ele>
        <time>2014-09-28T08:28:04.000Z</time>
      </trkpt>
      <trkpt lat="49.21868" lon="1.5383">
        <ele>144</ele>
        <time>2014-09-28T08:28:05.000Z</time>
      </trkpt>
      <trkpt lat="49.21861" lon="1.53844">
        <ele>143</ele>
        <time>2014-09-28T08:28:08.000Z</time>
      </trkpt>
      <trkpt lat="49.21855" lon="1.53858">
        <ele>143</ele>
        <time>2014-09-28T08:28:10.000Z</time>
      </trkpt>
      <trkpt lat="49.21848" lon="1.53875">
        <ele>142</ele>
        <time>2014-09-28T08:28:12.000Z</time>
      </trkpt>
      <trkpt lat="49.21842" lon="1.53892">
        <ele>141</ele>
        <time>2014-09-28T08:28:13.000Z</time>
      </trkpt>
      <trkpt lat="49.21835" lon="1.5391">
        <ele>141</ele>
        <time>2014-09-28T08:28:16.000Z</time>
      </trkpt>
      <trkpt lat="49.21827" lon="1.53928">
        <ele>140</ele>
        <time>2014-09-28T08:28:18.000Z</time>
      </trkpt>
      <trkpt lat="49.2182" lon="1.53947">
        <ele>139</ele>
        <time>2014-09-28T08:28:19.000Z</time>
      </trkpt>
      <trkpt lat="49.21812" lon="1.53967">
        <ele>139</ele>
        <time>2014-09-28T08:28:22.000Z</time>
      </trkpt>
      <trkpt lat="49.21804" lon="1.53988">
        <ele>138</ele>
        <time>2014-09-28T08:28:23.000Z</time>
      </trkpt>
      <trkpt lat="49.21796" lon="1.54008">
        <ele>137</ele>
        <time>2014-09-28T08:28:26.000Z</time>
      </trkpt>
      <trkpt lat="49.21789" lon="1.54028">
        <ele>137</ele>
        <time>2014-09-28T08:28:27.000Z</time>
      </trkpt>
      <trkpt lat="49.21782" lon="1.54047">
        <ele>137</ele>
        <time>2014-09-28T08:28:30.000Z</time>
      </trkpt>
      <trkpt lat="49.21775" lon="1.54065">
        <ele>137</ele>
        <time>2014-09-28T08:28:31.000Z</time>
      </trkpt>
      <trkpt lat="49.21769" lon="1.54081">
        <ele>137</ele>
        <time>2014-09-28T08:28:33.000Z</time>
      </trkpt>
      <trkpt lat="49.21764" lon="1.54094">
        <ele>137</ele>
        <time>2014-09-28T08:28:36.000Z</time>
      </trkpt>
      <trkpt lat="49.21759" lon="1.54105">
        <ele>137</ele>
        <time>2014-09-28T08:28:38.000Z</time>
      </trkpt>
      <trkpt lat="49.21755" lon="1.54118">
        <ele>137</ele>
        <time>2014-09-28T08:28:39.000Z</time>
      </trkpt>
      <trkpt lat="49.2175" lon="1.54129">
        <ele>138</ele>
        <time>2014-09-28T08:28:42.000Z</time>
      </trkpt>
      <trkpt lat="49.21746" lon="1.54141">
        <ele>138</ele>
        <time>2014-09-28T08:28:44.000Z</time>
      </trkpt>
      <trkpt lat="49.21743" lon="1.54152">
        <ele>139</ele>
        <time>2014-09-28T08:28:45.000Z</time>
      </trkpt>
      <trkpt lat="49.2174" lon="1.54163">
        <ele>139</ele>
        <time>2014-09-28T08:28:48.000Z</time>
      </trkpt>
      <trkpt lat="49.21738" lon="1.54175">
        <ele>139</ele>
        <time>2014-09-28T08:28:50.000Z</time>
      </trkpt>
      <trkpt lat="49.21735" lon="1.54186">
        <ele>140</ele>
        <time>2014-09-28T08:28:52.000Z</time>
      </trkpt>
      <trkpt lat="49.21731" lon="1.54196">
        <ele>141</ele>
        <time>2014-09-28T08:28:53.000Z</time>
      </trkpt>
      <trkpt lat="49.21729" lon="1.54207">
        <ele>141</ele>
        <time>2014-09-28T08:28:56.000Z</time>
      </trkpt>
      <trkpt lat="49.21727" lon="1.54217">
        <ele>142</ele>
        <time>2014-09-28T08:28:57.000Z</time>
      </trkpt>
      <trkpt lat="49.21723" lon="1.54228">
        <ele>142</ele>
        <time>2014-09-28T08:29:00.000Z</time>
      </trkpt>
      <trkpt lat="49.21718" lon="1.5424">
        <ele>142</ele>
        <time>2014-09-28T08:29:01.000Z</time>
      </trkpt>
      <trkpt lat="49.21713" lon="1.54252">
        <ele>143</ele>
        <time>2014-09-28T08:29:04.000Z</time>
      </trkpt>
      <trkpt lat="49.2171" lon="1.54262">
        <ele>143</ele>
        <time>2014-09-28T08:29:05.000Z</time>
      </trkpt>
      <trkpt lat="49.21708" lon="1.54272">
        <ele>144</ele>
        <time>2014-09-28T08:29:07.000Z</time>
      </trkpt>
      <trkpt lat="49.21705" lon="1.54283">
        <ele>144</ele>
        <time>2014-09-28T08:29:09.000Z</time>
      </trkpt>
      <trkpt lat="49.21701" lon="1.54294">
        <ele>144</ele>
        <time>2014-09-28T08:29:11.000Z</time>
      </trkpt>
      <trkpt lat="49.21698" lon="1.54304">
        <ele>144</ele>
        <time>2014-09-28T08:29:13.000Z</time>
      </trkpt>
      <trkpt lat="49.21696" lon="1.54315">
        <ele>144</ele>
        <time>2014-09-28T08:29:15.000Z</time>
      </trkpt>
      <trkpt lat="49.21692" lon="1.54327">
        <ele>144</ele>
        <time>2014-09-28T08:29:17.000Z</time>
      </trkpt>
      <trkpt lat="49.21688" lon="1.54337">
        <ele>145</ele>
        <time>2014-09-28T08:29:19.000Z</time>
      </trkpt>
      <trkpt lat="49.21685" lon="1.54349">
        <ele>146</ele>
        <time>2014-09-28T08:29:21.000Z</time>
      </trkpt>
      <trkpt lat="49.21681" lon="1.5436">
        <ele>147</ele>
        <time>2014-09-28T08:29:23.000Z</time>
      </trkpt>
      <trkpt lat="49.21679" lon="1.5437">
        <ele>148</ele>
        <time>2014-09-28T08:29:25.000Z</time>
      </trkpt>
      <trkpt lat="49.21675" lon="1.5438">
        <ele>148</ele>
        <time>2014-09-28T08:29:27.000Z</time>
      </trkpt>
      <trkpt lat="49.21673" lon="1.5439">
        <ele>147</ele>
        <time>2014-09-28T08:29:29.000Z</time>
      </trkpt>
      <trkpt lat="49.2167" lon="1.54401">
        <ele>148</ele>
        <time>2014-09-28T08:29:31.000Z</time>
      </trkpt>
      <trkpt lat="49.21668" lon="1.54412">
        <ele>148</ele>
        <time>2014-09-28T08:29:33.000Z</time>
      </trkpt>
      <trkpt lat="49.21666" lon="1.54422">
        <ele>148</ele>
        <time>2014-09-28T08:29:35.000Z</time>
      </trkpt>
      <trkpt lat="49.21666" lon="1.54422">
        <ele>148</ele>
        <time>2014-09-28T08:29:37.000Z</time>
      </trkpt>
      <trkpt lat="49.21661" lon="1.54438">
        <ele>149</ele>
        <time>2014-09-28T08:29:39.000Z</time>
      </trkpt>
      <trkpt lat="49.21657" lon="1.54447">
        <ele>150</ele>
        <time>2014-09-28T08:29:41.000Z</time>
      </trkpt>
      <trkpt lat="49.21656" lon="1.54456">
        <ele>150</ele>
        <time>2014-09-28T08:29:43.000Z</time>
      </trkpt>
      <trkpt lat="49.21654" lon="1.54465">
        <ele>151</ele>
        <time>2014-09-28T08:29:45.000Z</time>
      </trkpt>
      <trkpt lat="49.21652" lon="1.54474">
        <ele>148</ele>
        <time>2014-09-28T08:29:47.000Z</time>
      </trkpt>
      <trkpt lat="49.21648" lon="1.54482">
        <ele>148</ele>
        <time>2014-09-28T08:29:49.000Z</time>
      </trkpt>
      <trkpt lat="49.21646" lon="1.54491">
        <ele>148</ele>
        <time>2014-09-28T08:29:51.000Z</time>
      </trkpt>
      <trkpt lat="49.21644" lon="1.54499">
        <ele>149</ele>
        <time>2014-09-28T08:29:53.000Z</time>
      </trkpt>
      <trkpt lat="49.21642" lon="1.54508">
        <ele>149</ele>
        <time>2014-09-28T08:29:55.000Z</time>
      </trkpt>
      <trkpt lat="49.21642" lon="1.54508">
        <ele>149</ele>
        <time>2014-09-28T08:29:57.000Z</time>
      </trkpt>
      <trkpt lat="49.21639" lon="1.54524">
        <ele>150</ele>
        <time>2014-09-28T08:29:59.000Z</time>
      </trkpt>
      <trkpt lat="49.21639" lon="1.54524">
        <ele>150</ele>
        <time>2014-09-28T08:30:01.000Z</time>
      </trkpt>
      <trkpt lat="49.21635" lon="1.54539">
        <ele>151</ele>
        <time>2014-09-28T08:30:03.000Z</time>
      </trkpt>
      <trkpt lat="49.21635" lon="1.54539">
        <ele>151</ele>
        <time>2014-09-28T08:30:05.000Z</time>
      </trkpt>
      <trkpt lat="49.2163" lon="1.54554">
        <ele>153</ele>
        <time>2014-09-28T08:30:07.000Z</time>
      </trkpt>
      <trkpt lat="49.2163" lon="1.54554">
        <ele>153</ele>
        <time>2014-09-28T08:30:09.000Z</time>
      </trkpt>
      <trkpt lat="49.21627" lon="1.54568">
        <ele>154</ele>
        <time>2014-09-28T08:30:11.000Z</time>
      </trkpt>
      <trkpt lat="49.21626" lon="1.54578">
        <ele>155</ele>
        <time>2014-09-28T08:30:13.000Z</time>
      </trkpt>
      <trkpt lat="49.21626" lon="1.54587">
        <ele>155</ele>
        <time>2014-09-28T08:30:15.000Z</time>
      </trkpt>
      <trkpt lat="49.21625" lon="1.54597">
        <ele>156</ele>
        <time>2014-09-28T08:30:17.000Z</time>
      </trkpt>
      <trkpt lat="49.21622" lon="1.54612">
        <ele>156</ele>
        <time>2014-09-28T08:30:21.000Z</time>
      </trkpt>
      <trkpt lat="49.21619" lon="1.54629">
        <ele>157</ele>
        <time>2014-09-28T08:30:25.000Z</time>
      </trkpt>
      <trkpt lat="49.21619" lon="1.54629">
        <ele>157</ele>
        <time>2014-09-28T08:30:27.000Z</time>
      </trkpt>
      <trkpt lat="49.21618" lon="1.54644">
        <ele>158</ele>
        <time>2014-09-28T08:30:29.000Z</time>
      </trkpt>
      <trkpt lat="49.21618" lon="1.54644">
        <ele>158</ele>
        <time>2014-09-28T08:30:31.000Z</time>
      </trkpt>
      <trkpt lat="49.21613" lon="1.54657">
        <ele>159</ele>
        <time>2014-09-28T08:30:33.000Z</time>
      </trkpt>
      <trkpt lat="49.21613" lon="1.54657">
        <ele>159</ele>
        <time>2014-09-28T08:30:35.000Z</time>
      </trkpt>
      <trkpt lat="49.21608" lon="1.54669">
        <ele>160</ele>
        <time>2014-09-28T08:30:37.000Z</time>
      </trkpt>
      <trkpt lat="49.21608" lon="1.54669">
        <ele>160</ele>
        <time>2014-09-28T08:30:39.000Z</time>
      </trkpt>
      <trkpt lat="49.21601" lon="1.54681">
        <ele>161</ele>
        <time>2014-09-28T08:30:41.000Z</time>
      </trkpt>
      <trkpt lat="49.21597" lon="1.54688">
        <ele>162</ele>
        <time>2014-09-28T08:30:43.000Z</time>
      </trkpt>
      <trkpt lat="49.21592" lon="1.54697">
        <ele>162</ele>
        <time>2014-09-28T08:30:45.000Z</time>
      </trkpt>
      <trkpt lat="49.21587" lon="1.54702">
        <ele>163</ele>
        <time>2014-09-28T08:30:47.000Z</time>
      </trkpt>
      <trkpt lat="49.21587" lon="1.54702">
        <ele>163</ele>
        <time>2014-09-28T08:30:49.000Z</time>
      </trkpt>
      <trkpt lat="49.21579" lon="1.54714">
        <ele>164</ele>
        <time>2014-09-28T08:30:51.000Z</time>
      </trkpt>
      <trkpt lat="49.21579" lon="1.54714">
        <ele>164</ele>
        <time>2014-09-28T08:30:53.000Z</time>
      </trkpt>
      <trkpt lat="49.21572" lon="1.54725">
        <ele>165</ele>
        <time>2014-09-28T08:30:55.000Z</time>
      </trkpt>
      <trkpt lat="49.21572" lon="1.54725">
        <ele>165</ele>
        <time>2014-09-28T08:30:57.000Z</time>
      </trkpt>
      <trkpt lat="49.21568" lon="1.54736">
        <ele>165</ele>
        <time>2014-09-28T08:30:59.000Z</time>
      </trkpt>
      <trkpt lat="49.21568" lon="1.54736">
        <ele>165</ele>
        <time>2014-09-28T08:31:01.000Z</time>
      </trkpt>
      <trkpt lat="49.21566" lon="1.5475">
        <ele>169</ele>
        <time>2014-09-28T08:31:31.000Z</time>
      </trkpt>
      <trkpt lat="49.21564" lon="1.54759">
        <ele>169</ele>
        <time>2014-09-28T08:31:33.000Z</time>
      </trkpt>
      <trkpt lat="49.21561" lon="1.5477">
        <ele>169</ele>
        <time>2014-09-28T08:31:35.000Z</time>
      </trkpt>
      <trkpt lat="49.2156" lon="1.54778">
        <ele>169</ele>
        <time>2014-09-28T08:31:37.000Z</time>
      </trkpt>
      <trkpt lat="49.21555" lon="1.54787">
        <ele>169</ele>
        <time>2014-09-28T08:31:39.000Z</time>
      </trkpt>
      <trkpt lat="49.21552" lon="1.54795">
        <ele>170</ele>
        <time>2014-09-28T08:31:41.000Z</time>
      </trkpt>
      <trkpt lat="49.2155" lon="1.54804">
        <ele>170</ele>
        <time>2014-09-28T08:31:43.000Z</time>
      </trkpt>
      <trkpt lat="49.21545" lon="1.54813">
        <ele>170</ele>
        <time>2014-09-28T08:31:45.000Z</time>
      </trkpt>
      <trkpt lat="49.21542" lon="1.54823">
        <ele>170</ele>
        <time>2014-09-28T08:31:47.000Z</time>
      </trkpt>
      <trkpt lat="49.21541" lon="1.54832">
        <ele>171</ele>
        <time>2014-09-28T08:31:49.000Z</time>
      </trkpt>
      <trkpt lat="49.21541" lon="1.54843">
        <ele>170</ele>
        <time>2014-09-28T08:31:51.000Z</time>
      </trkpt>
      <trkpt lat="49.21539" lon="1.54855">
        <ele>170</ele>
        <time>2014-09-28T08:31:53.000Z</time>
      </trkpt>
      <trkpt lat="49.21539" lon="1.54866">
        <ele>169</ele>
        <time>2014-09-28T08:31:55.000Z</time>
      </trkpt>
      <trkpt lat="49.21537" lon="1.54875">
        <ele>169</ele>
        <time>2014-09-28T08:31:57.000Z</time>
      </trkpt>
      <trkpt lat="49.21537" lon="1.54875">
        <ele>169</ele>
        <time>2014-09-28T08:31:59.000Z</time>
      </trkpt>
      <trkpt lat="49.21535" lon="1.5489">
        <ele>170</ele>
        <time>2014-09-28T08:32:01.000Z</time>
      </trkpt>
      <trkpt lat="49.21535" lon="1.5489">
        <ele>170</ele>
        <time>2014-09-28T08:32:03.000Z</time>
      </trkpt>
      <trkpt lat="49.21534" lon="1.54904">
        <ele>170</ele>
        <time>2014-09-28T08:32:05.000Z</time>
      </trkpt>
      <trkpt lat="49.21533" lon="1.54918">
        <ele>171</ele>
        <time>2014-09-28T08:32:09.000Z</time>
      </trkpt>
      <trkpt lat="49.21533" lon="1.54918">
        <ele>171</ele>
        <time>2014-09-28T08:32:11.000Z</time>
      </trkpt>
      <trkpt lat="49.21532" lon="1.5493">
        <ele>172</ele>
        <time>2014-09-28T08:32:13.000Z</time>
      </trkpt>
      <trkpt lat="49.21532" lon="1.5493">
        <ele>172</ele>
        <time>2014-09-28T08:32:15.000Z</time>
      </trkpt>
      <trkpt lat="49.21531" lon="1.54936">
        <ele>172</ele>
        <time>2014-09-28T08:32:17.000Z</time>
      </trkpt>
      <trkpt lat="49.2153" lon="1.54943">
        <ele>173</ele>
        <time>2014-09-28T08:32:19.000Z</time>
      </trkpt>
      <trkpt lat="49.21529" lon="1.54949">
        <ele>173</ele>
        <time>2014-09-28T08:32:21.000Z</time>
      </trkpt>
      <trkpt lat="49.21529" lon="1.54955">
        <ele>173</ele>
        <time>2014-09-28T08:32:23.000Z</time>
      </trkpt>
      <trkpt lat="49.21531" lon="1.54959">
        <ele>172</ele>
        <time>2014-09-28T08:32:25.000Z</time>
      </trkpt>
      <trkpt lat="49.21535" lon="1.54964">
        <ele>172</ele>
        <time>2014-09-28T08:32:27.000Z</time>
      </trkpt>
      <trkpt lat="49.21544" lon="1.54969">
        <ele>171</ele>
        <time>2014-09-28T08:32:31.000Z</time>
      </trkpt>
      <trkpt lat="49.21551" lon="1.54971">
        <ele>171</ele>
        <time>2014-09-28T08:32:33.000Z</time>
      </trkpt>
      <trkpt lat="49.21556" lon="1.54974">
        <ele>170</ele>
        <time>2014-09-28T08:32:35.000Z</time>
      </trkpt>
      <trkpt lat="49.21564" lon="1.54978">
        <ele>169</ele>
        <time>2014-09-28T08:32:37.000Z</time>
      </trkpt>
      <trkpt lat="49.21572" lon="1.54984">
        <ele>168</ele>
        <time>2014-09-28T08:32:39.000Z</time>
      </trkpt>
      <trkpt lat="49.2158" lon="1.54988">
        <ele>167</ele>
        <time>2014-09-28T08:32:41.000Z</time>
      </trkpt>
      <trkpt lat="49.21588" lon="1.54993">
        <ele>167</ele>
        <time>2014-09-28T08:32:43.000Z</time>
      </trkpt>
      <trkpt lat="49.21595" lon="1.55003">
        <ele>168</ele>
        <time>2014-09-28T08:32:45.000Z</time>
      </trkpt>
      <trkpt lat="49.21602" lon="1.55013">
        <ele>169</ele>
        <time>2014-09-28T08:32:47.000Z</time>
      </trkpt>
      <trkpt lat="49.21609" lon="1.55021">
        <ele>169</ele>
        <time>2014-09-28T08:32:49.000Z</time>
      </trkpt>
      <trkpt lat="49.21617" lon="1.5503">
        <ele>169</ele>
        <time>2014-09-28T08:32:51.000Z</time>
      </trkpt>
      <trkpt lat="49.21626" lon="1.5504">
        <ele>169</ele>
        <time>2014-09-28T08:32:53.000Z</time>
      </trkpt>
      <trkpt lat="49.21634" lon="1.55048">
        <ele>168</ele>
        <time>2014-09-28T08:32:55.000Z</time>
      </trkpt>
      <trkpt lat="49.21642" lon="1.55056">
        <ele>168</ele>
        <time>2014-09-28T08:32:57.000Z</time>
      </trkpt>
      <trkpt lat="49.2165" lon="1.55062">
        <ele>167</ele>
        <time>2014-09-28T08:32:59.000Z</time>
      </trkpt>
      <trkpt lat="49.21662" lon="1.55069">
        <ele>165</ele>
        <time>2014-09-28T08:33:01.000Z</time>
      </trkpt>
      <trkpt lat="49.21675" lon="1.55077">
        <ele>164</ele>
        <time>2014-09-28T08:33:03.000Z</time>
      </trkpt>
      <trkpt lat="49.21691" lon="1.55087">
        <ele>162</ele>
        <time>2014-09-28T08:33:05.000Z</time>
      </trkpt>
      <trkpt lat="49.21708" lon="1.55096">
        <ele>160</ele>
        <time>2014-09-28T08:33:07.000Z</time>
      </trkpt>
      <trkpt lat="49.21725" lon="1.55106">
        <ele>158</ele>
        <time>2014-09-28T08:33:09.000Z</time>
      </trkpt>
      <trkpt lat="49.2174" lon="1.55116">
        <ele>156</ele>
        <time>2014-09-28T08:33:11.000Z</time>
      </trkpt>
      <trkpt lat="49.21754" lon="1.55125">
        <ele>155</ele>
        <time>2014-09-28T08:33:13.000Z</time>
      </trkpt>
      <trkpt lat="49.21766" lon="1.55135">
        <ele>154</ele>
        <time>2014-09-28T08:33:15.000Z</time>
      </trkpt>
      <trkpt lat="49.21777" lon="1.55145">
        <ele>153</ele>
        <time>2014-09-28T08:33:17.000Z</time>
      </trkpt>
      <trkpt lat="49.21787" lon="1.55155">
        <ele>152</ele>
        <time>2014-09-28T08:33:19.000Z</time>
      </trkpt>
      <trkpt lat="49.21796" lon="1.55163">
        <ele>151</ele>
        <time>2014-09-28T08:33:21.000Z</time>
      </trkpt>
      <trkpt lat="49.21802" lon="1.5517">
        <ele>151</ele>
        <time>2014-09-28T08:33:23.000Z</time>
      </trkpt>
      <trkpt lat="49.21802" lon="1.5517">
        <ele>151</ele>
        <time>2014-09-28T08:33:25.000Z</time>
      </trkpt>
      <trkpt lat="49.21809" lon="1.55178">
        <ele>150</ele>
        <time>2014-09-28T08:33:27.000Z</time>
      </trkpt>
      <trkpt lat="49.21809" lon="1.55178">
        <ele>150</ele>
        <time>2014-09-28T08:33:29.000Z</time>
      </trkpt>
      <trkpt lat="49.21809" lon="1.55189">
        <ele>149</ele>
        <time>2014-09-28T08:34:12.000Z</time>
      </trkpt>
      <trkpt lat="49.21804" lon="1.55206">
        <ele>147</ele>
        <time>2014-09-28T08:34:16.000Z</time>
      </trkpt>
      <trkpt lat="49.218" lon="1.55216">
        <ele>147</ele>
        <time>2014-09-28T08:34:18.000Z</time>
      </trkpt>
      <trkpt lat="49.21797" lon="1.55226">
        <ele>147</ele>
        <time>2014-09-28T08:34:20.000Z</time>
      </trkpt>
      <trkpt lat="49.21793" lon="1.55236">
        <ele>147</ele>
        <time>2014-09-28T08:34:22.000Z</time>
      </trkpt>
      <trkpt lat="49.2179" lon="1.55247">
        <ele>147</ele>
        <time>2014-09-28T08:34:24.000Z</time>
      </trkpt>
      <trkpt lat="49.21787" lon="1.55258">
        <ele>147</ele>
        <time>2014-09-28T08:34:26.000Z</time>
      </trkpt>
      <trkpt lat="49.21783" lon="1.55268">
        <ele>147</ele>
        <time>2014-09-28T08:34:28.000Z</time>
      </trkpt>
      <trkpt lat="49.2178" lon="1.55279">
        <ele>147</ele>
        <time>2014-09-28T08:34:30.000Z</time>
      </trkpt>
      <trkpt lat="49.21777" lon="1.5529">
        <ele>147</ele>
        <time>2014-09-28T08:34:32.000Z</time>
      </trkpt>
      <trkpt lat="49.21774" lon="1.553">
        <ele>147</ele>
        <time>2014-09-28T08:34:34.000Z</time>
      </trkpt>
      <trkpt lat="49.2177" lon="1.55311">
        <ele>147</ele>
        <time>2014-09-28T08:34:36.000Z</time>
      </trkpt>
      <trkpt lat="49.21767" lon="1.55321">
        <ele>147</ele>
        <time>2014-09-28T08:34:38.000Z</time>
      </trkpt>
      <trkpt lat="49.21764" lon="1.55332">
        <ele>147</ele>
        <time>2014-09-28T08:34:40.000Z</time>
      </trkpt>
      <trkpt lat="49.2176" lon="1.55343">
        <ele>146</ele>
        <time>2014-09-28T08:34:42.000Z</time>
      </trkpt>
      <trkpt lat="49.21757" lon="1.55353">
        <ele>146</ele>
        <time>2014-09-28T08:34:44.000Z</time>
      </trkpt>
      <trkpt lat="49.21753" lon="1.55365">
        <ele>146</ele>
        <time>2014-09-28T08:34:46.000Z</time>
      </trkpt>
      <trkpt lat="49.21749" lon="1.55375">
        <ele>147</ele>
        <time>2014-09-28T08:34:48.000Z</time>
      </trkpt>
      <trkpt lat="49.21746" lon="1.55386">
        <ele>147</ele>
        <time>2014-09-28T08:34:50.000Z</time>
      </trkpt>
      <trkpt lat="49.21744" lon="1.55396">
        <ele>147</ele>
        <time>2014-09-28T08:34:52.000Z</time>
      </trkpt>
      <trkpt lat="49.21741" lon="1.55406">
        <ele>147</ele>
        <time>2014-09-28T08:34:54.000Z</time>
      </trkpt>
      <trkpt lat="49.21739" lon="1.55416">
        <ele>147</ele>
        <time>2014-09-28T08:34:56.000Z</time>
      </trkpt>
      <trkpt lat="49.21737" lon="1.55427">
        <ele>147</ele>
        <time>2014-09-28T08:34:58.000Z</time>
      </trkpt>
      <trkpt lat="49.21737" lon="1.55438">
        <ele>148</ele>
        <time>2014-09-28T08:35:00.000Z</time>
      </trkpt>
      <trkpt lat="49.21736" lon="1.55448">
        <ele>148</ele>
        <time>2014-09-28T08:35:02.000Z</time>
      </trkpt>
      <trkpt lat="49.21737" lon="1.55458">
        <ele>148</ele>
        <time>2014-09-28T08:35:04.000Z</time>
      </trkpt>
      <trkpt lat="49.21738" lon="1.55472">
        <ele>148</ele>
        <time>2014-09-28T08:35:06.000Z</time>
      </trkpt>
      <trkpt lat="49.2174" lon="1.55485">
        <ele>147</ele>
        <time>2014-09-28T08:35:08.000Z</time>
      </trkpt>
      <trkpt lat="49.21742" lon="1.55495">
        <ele>148</ele>
        <time>2014-09-28T08:35:10.000Z</time>
      </trkpt>
      <trkpt lat="49.21744" lon="1.55505">
        <ele>148</ele>
        <time>2014-09-28T08:35:12.000Z</time>
      </trkpt>
      <trkpt lat="49.21745" lon="1.55516">
        <ele>148</ele>
        <time>2014-09-28T08:35:14.000Z</time>
      </trkpt>
      <trkpt lat="49.21745" lon="1.55529">
        <ele>148</ele>
        <time>2014-09-28T08:35:16.000Z</time>
      </trkpt>
      <trkpt lat="49.21745" lon="1.55541">
        <ele>148</ele>
        <time>2014-09-28T08:35:18.000Z</time>
      </trkpt>
      <trkpt lat="49.21746" lon="1.55552">
        <ele>147</ele>
        <time>2014-09-28T08:35:20.000Z</time>
      </trkpt>
      <trkpt lat="49.21746" lon="1.55565">
        <ele>148</ele>
        <time>2014-09-28T08:35:22.000Z</time>
      </trkpt>
      <trkpt lat="49.21746" lon="1.55577">
        <ele>147</ele>
        <time>2014-09-28T08:35:24.000Z</time>
      </trkpt>
      <trkpt lat="49.21747" lon="1.55591">
        <ele>147</ele>
        <time>2014-09-28T08:35:26.000Z</time>
      </trkpt>
      <trkpt lat="49.21746" lon="1.55604">
        <ele>147</ele>
        <time>2014-09-28T08:35:28.000Z</time>
      </trkpt>
      <trkpt lat="49.21745" lon="1.55617">
        <ele>147</ele>
        <time>2014-09-28T08:35:30.000Z</time>
      </trkpt>
      <trkpt lat="49.21743" lon="1.5563">
        <ele>147</ele>
        <time>2014-09-28T08:35:32.000Z</time>
      </trkpt>
      <trkpt lat="49.2174" lon="1.55644">
        <ele>148</ele>
        <time>2014-09-28T08:35:34.000Z</time>
      </trkpt>
      <trkpt lat="49.21738" lon="1.55657">
        <ele>148</ele>
        <time>2014-09-28T08:35:36.000Z</time>
      </trkpt>
      <trkpt lat="49.21736" lon="1.55669">
        <ele>148</ele>
        <time>2014-09-28T08:35:38.000Z</time>
      </trkpt>
      <trkpt lat="49.21734" lon="1.55682">
        <ele>148</ele>
        <time>2014-09-28T08:35:40.000Z</time>
      </trkpt>
      <trkpt lat="49.21732" lon="1.55695">
        <ele>148</ele>
        <time>2014-09-28T08:35:42.000Z</time>
      </trkpt>
      <trkpt lat="49.2173" lon="1.55708">
        <ele>148</ele>
        <time>2014-09-28T08:35:44.000Z</time>
      </trkpt>
      <trkpt lat="49.21728" lon="1.55722">
        <ele>148</ele>
        <time>2014-09-28T08:35:46.000Z</time>
      </trkpt>
      <trkpt lat="49.21725" lon="1.55736">
        <ele>148</ele>
        <time>2014-09-28T08:35:48.000Z</time>
      </trkpt>
      <trkpt lat="49.21723" lon="1.5575">
        <ele>148</ele>
        <time>2014-09-28T08:35:50.000Z</time>
      </trkpt>
      <trkpt lat="49.21721" lon="1.55765">
        <ele>148</ele>
        <time>2014-09-28T08:35:52.000Z</time>
      </trkpt>
      <trkpt lat="49.21719" lon="1.5578">
        <ele>148</ele>
        <time>2014-09-28T08:35:54.000Z</time>
      </trkpt>
      <trkpt lat="49.21717" lon="1.55794">
        <ele>148</ele>
        <time>2014-09-28T08:35:56.000Z</time>
      </trkpt>
      <trkpt lat="49.21714" lon="1.55809">
        <ele>148</ele>
        <time>2014-09-28T08:35:58.000Z</time>
      </trkpt>
      <trkpt lat="49.21711" lon="1.55824">
        <ele>148</ele>
        <time>2014-09-28T08:36:00.000Z</time>
      </trkpt>
      <trkpt lat="49.21709" lon="1.55838">
        <ele>148</ele>
        <time>2014-09-28T08:36:02.000Z</time>
      </trkpt>
      <trkpt lat="49.21706" lon="1.55853">
        <ele>148</ele>
        <time>2014-09-28T08:36:04.000Z</time>
      </trkpt>
      <trkpt lat="49.21703" lon="1.55869">
        <ele>148</ele>
        <time>2014-09-28T08:36:06.000Z</time>
      </trkpt>
      <trkpt lat="49.217" lon="1.55884">
        <ele>148</ele>
        <time>2014-09-28T08:36:08.000Z</time>
      </trkpt>
      <trkpt lat="49.21698" lon="1.559">
        <ele>148</ele>
        <time>2014-09-28T08:36:10.000Z</time>
      </trkpt>
      <trkpt lat="49.21695" lon="1.55915">
        <ele>148</ele>
        <time>2014-09-28T08:36:12.000Z</time>
      </trkpt>
      <trkpt lat="49.21692" lon="1.5593">
        <ele>148</ele>
        <time>2014-09-28T08:36:14.000Z</time>
      </trkpt>
      <trkpt lat="49.21689" lon="1.55944">
        <ele>148</ele>
        <time>2014-09-28T08:36:16.000Z</time>
      </trkpt>
      <trkpt lat="49.21687" lon="1.55959">
        <ele>148</ele>
        <time>2014-09-28T08:36:18.000Z</time>
      </trkpt>
      <trkpt lat="49.21684" lon="1.55973">
        <ele>148</ele>
        <time>2014-09-28T08:36:20.000Z</time>
      </trkpt>
      <trkpt lat="49.21682" lon="1.55989">
        <ele>148</ele>
        <time>2014-09-28T08:36:22.000Z</time>
      </trkpt>
      <trkpt lat="49.21678" lon="1.56005">
        <ele>148</ele>
        <time>2014-09-28T08:36:24.000Z</time>
      </trkpt>
      <trkpt lat="49.21675" lon="1.56021">
        <ele>147</ele>
        <time>2014-09-28T08:36:26.000Z</time>
      </trkpt>
      <trkpt lat="49.21672" lon="1.56037">
        <ele>147</ele>
        <time>2014-09-28T08:36:28.000Z</time>
      </trkpt>
      <trkpt lat="49.21669" lon="1.56054">
        <ele>147</ele>
        <time>2014-09-28T08:36:30.000Z</time>
      </trkpt>
      <trkpt lat="49.21666" lon="1.56071">
        <ele>147</ele>
        <time>2014-09-28T08:36:32.000Z</time>
      </trkpt>
      <trkpt lat="49.21663" lon="1.56089">
        <ele>147</ele>
        <time>2014-09-28T08:36:34.000Z</time>
      </trkpt>
      <trkpt lat="49.21659" lon="1.56107">
        <ele>146</ele>
        <time>2014-09-28T08:36:36.000Z</time>
      </trkpt>
      <trkpt lat="49.21656" lon="1.56125">
        <ele>145</ele>
        <time>2014-09-28T08:36:38.000Z</time>
      </trkpt>
      <trkpt lat="49.21653" lon="1.56143">
        <ele>146</ele>
        <time>2014-09-28T08:36:40.000Z</time>
      </trkpt>
      <trkpt lat="49.2165" lon="1.56161">
        <ele>145</ele>
        <time>2014-09-28T08:36:42.000Z</time>
      </trkpt>
      <trkpt lat="49.21646" lon="1.56179">
        <ele>145</ele>
        <time>2014-09-28T08:36:44.000Z</time>
      </trkpt>
      <trkpt lat="49.21643" lon="1.56197">
        <ele>145</ele>
        <time>2014-09-28T08:36:46.000Z</time>
      </trkpt>
      <trkpt lat="49.2164" lon="1.56213">
        <ele>144</ele>
        <time>2014-09-28T08:36:48.000Z</time>
      </trkpt>
      <trkpt lat="49.21637" lon="1.56229">
        <ele>144</ele>
        <time>2014-09-28T08:36:50.000Z</time>
      </trkpt>
      <trkpt lat="49.21634" lon="1.56246">
        <ele>143</ele>
        <time>2014-09-28T08:36:52.000Z</time>
      </trkpt>
      <trkpt lat="49.21631" lon="1.56262">
        <ele>143</ele>
        <time>2014-09-28T08:36:54.000Z</time>
      </trkpt>
      <trkpt lat="49.21628" lon="1.56279">
        <ele>143</ele>
        <time>2014-09-28T08:36:56.000Z</time>
      </trkpt>
      <trkpt lat="49.21625" lon="1.56294">
        <ele>143</ele>
        <time>2014-09-28T08:36:58.000Z</time>
      </trkpt>
      <trkpt lat="49.21622" lon="1.56309">
        <ele>143</ele>
        <time>2014-09-28T08:37:00.000Z</time>
      </trkpt>
      <trkpt lat="49.21619" lon="1.56322">
        <ele>143</ele>
        <time>2014-09-28T08:37:02.000Z</time>
      </trkpt>
      <trkpt lat="49.21617" lon="1.56336">
        <ele>144</ele>
        <time>2014-09-28T08:37:04.000Z</time>
      </trkpt>
      <trkpt lat="49.21614" lon="1.5635">
        <ele>144</ele>
        <time>2014-09-28T08:37:06.000Z</time>
      </trkpt>
      <trkpt lat="49.21612" lon="1.56363">
        <ele>144</ele>
        <time>2014-09-28T08:37:08.000Z</time>
      </trkpt>
      <trkpt lat="49.21609" lon="1.56377">
        <ele>144</ele>
        <time>2014-09-28T08:37:10.000Z</time>
      </trkpt>
      <trkpt lat="49.21607" lon="1.5639">
        <ele>144</ele>
        <time>2014-09-28T08:37:12.000Z</time>
      </trkpt>
      <trkpt lat="49.21605" lon="1.56404">
        <ele>145</ele>
        <time>2014-09-28T08:37:14.000Z</time>
      </trkpt>
      <trkpt lat="49.21602" lon="1.56417">
        <ele>145</ele>
        <time>2014-09-28T08:37:16.000Z</time>
      </trkpt>
      <trkpt lat="49.216" lon="1.56431">
        <ele>145</ele>
        <time>2014-09-28T08:37:18.000Z</time>
      </trkpt>
      <trkpt lat="49.21598" lon="1.56445">
        <ele>145</ele>
        <time>2014-09-28T08:37:20.000Z</time>
      </trkpt>
      <trkpt lat="49.21597" lon="1.56459">
        <ele>145</ele>
        <time>2014-09-28T08:37:22.000Z</time>
      </trkpt>
      <trkpt lat="49.21595" lon="1.56474">
        <ele>145</ele>
        <time>2014-09-28T08:37:24.000Z</time>
      </trkpt>
      <trkpt lat="49.21592" lon="1.56487">
        <ele>145</ele>
        <time>2014-09-28T08:37:26.000Z</time>
      </trkpt>
      <trkpt lat="49.2159" lon="1.56501">
        <ele>145</ele>
        <time>2014-09-28T08:37:28.000Z</time>
      </trkpt>
      <trkpt lat="49.21587" lon="1.56515">
        <ele>145</ele>
        <time>2014-09-28T08:37:30.000Z</time>
      </trkpt>
      <trkpt lat="49.21584" lon="1.56528">
        <ele>145</ele>
        <time>2014-09-28T08:37:32.000Z</time>
      </trkpt>
      <trkpt lat="49.21581" lon="1.56542">
        <ele>145</ele>
        <time>2014-09-28T08:37:34.000Z</time>
      </trkpt>
      <trkpt lat="49.21579" lon="1.56555">
        <ele>146</ele>
        <time>2014-09-28T08:37:36.000Z</time>
      </trkpt>
      <trkpt lat="49.21576" lon="1.56569">
        <ele>146</ele>
        <time>2014-09-28T08:37:38.000Z</time>
      </trkpt>
      <trkpt lat="49.21574" lon="1.56583">
        <ele>146</ele>
        <time>2014-09-28T08:37:40.000Z</time>
      </trkpt>
      <trkpt lat="49.21571" lon="1.56596">
        <ele>146</ele>
        <time>2014-09-28T08:37:42.000Z</time>
      </trkpt>
      <trkpt lat="49.21569" lon="1.56609">
        <ele>146</ele>
        <time>2014-09-28T08:37:44.000Z</time>
      </trkpt>
      <trkpt lat="49.21566" lon="1.56621">
        <ele>146</ele>
        <time>2014-09-28T08:37:46.000Z</time>
      </trkpt>
      <trkpt lat="49.21564" lon="1.56634">
        <ele>146</ele>
        <time>2014-09-28T08:37:48.000Z</time>
      </trkpt>
      <trkpt lat="49.21562" lon="1.56647">
        <ele>146</ele>
        <time>2014-09-28T08:37:50.000Z</time>
      </trkpt>
      <trkpt lat="49.2156" lon="1.56659">
        <ele>146</ele>
        <time>2014-09-28T08:37:52.000Z</time>
      </trkpt>
      <trkpt lat="49.21557" lon="1.56671">
        <ele>146</ele>
        <time>2014-09-28T08:37:54.000Z</time>
      </trkpt>
      <trkpt lat="49.21554" lon="1.56683">
        <ele>146</ele>
        <time>2014-09-28T08:37:56.000Z</time>
      </trkpt>
      <trkpt lat="49.21552" lon="1.56696">
        <ele>147</ele>
        <time>2014-09-28T08:37:58.000Z</time>
      </trkpt>
      <trkpt lat="49.2155" lon="1.56708">
        <ele>146</ele>
        <time>2014-09-28T08:38:00.000Z</time>
      </trkpt>
      <trkpt lat="49.21548" lon="1.5672">
        <ele>147</ele>
        <time>2014-09-28T08:38:02.000Z</time>
      </trkpt>
      <trkpt lat="49.21546" lon="1.56732">
        <ele>147</ele>
        <time>2014-09-28T08:38:04.000Z</time>
      </trkpt>
      <trkpt lat="49.21544" lon="1.56744">
        <ele>147</ele>
        <time>2014-09-28T08:38:06.000Z</time>
      </trkpt>
      <trkpt lat="49.21543" lon="1.56756">
        <ele>147</ele>
        <time>2014-09-28T08:38:08.000Z</time>
      </trkpt>
      <trkpt lat="49.21542" lon="1.56768">
        <ele>147</ele>
        <time>2014-09-28T08:38:10.000Z</time>
      </trkpt>
      <trkpt lat="49.21541" lon="1.5678">
        <ele>147</ele>
        <time>2014-09-28T08:38:12.000Z</time>
      </trkpt>
      <trkpt lat="49.2154" lon="1.56792">
        <ele>147</ele>
        <time>2014-09-28T08:38:14.000Z</time>
      </trkpt>
      <trkpt lat="49.21541" lon="1.56805">
        <ele>147</ele>
        <time>2014-09-28T08:38:16.000Z</time>
      </trkpt>
      <trkpt lat="49.21541" lon="1.56816">
        <ele>147</ele>
        <time>2014-09-28T08:38:18.000Z</time>
      </trkpt>
      <trkpt lat="49.21542" lon="1.56829">
        <ele>148</ele>
        <time>2014-09-28T08:38:20.000Z</time>
      </trkpt>
      <trkpt lat="49.21542" lon="1.56841">
        <ele>148</ele>
        <time>2014-09-28T08:38:22.000Z</time>
      </trkpt>
      <trkpt lat="49.21543" lon="1.56853">
        <ele>147</ele>
        <time>2014-09-28T08:38:24.000Z</time>
      </trkpt>
      <trkpt lat="49.21543" lon="1.56866">
        <ele>148</ele>
        <time>2014-09-28T08:38:26.000Z</time>
      </trkpt>
      <trkpt lat="49.21544" lon="1.56878">
        <ele>148</ele>
        <time>2014-09-28T08:38:28.000Z</time>
      </trkpt>
      <trkpt lat="49.21544" lon="1.5689">
        <ele>149</ele>
        <time>2014-09-28T08:38:30.000Z</time>
      </trkpt>
      <trkpt lat="49.21544" lon="1.56903">
        <ele>148</ele>
        <time>2014-09-28T08:38:32.000Z</time>
      </trkpt>
      <trkpt lat="49.21545" lon="1.56917">
        <ele>148</ele>
        <time>2014-09-28T08:38:34.000Z</time>
      </trkpt>
      <trkpt lat="49.21546" lon="1.5693">
        <ele>148</ele>
        <time>2014-09-28T08:38:36.000Z</time>
      </trkpt>
      <trkpt lat="49.21546" lon="1.56943">
        <ele>149</ele>
        <time>2014-09-28T08:38:38.000Z</time>
      </trkpt>
      <trkpt lat="49.21547" lon="1.56956">
        <ele>149</ele>
        <time>2014-09-28T08:38:40.000Z</time>
      </trkpt>
      <trkpt lat="49.21547" lon="1.56969">
        <ele>149</ele>
        <time>2014-09-28T08:38:42.000Z</time>
      </trkpt>
      <trkpt lat="49.21547" lon="1.56981">
        <ele>150</ele>
        <time>2014-09-28T08:38:44.000Z</time>
      </trkpt>
      <trkpt lat="49.21547" lon="1.56993">
        <ele>150</ele>
        <time>2014-09-28T08:38:46.000Z</time>
      </trkpt>
      <trkpt lat="49.21546" lon="1.57005">
        <ele>150</ele>
        <time>2014-09-28T08:38:48.000Z</time>
      </trkpt>
      <trkpt lat="49.21546" lon="1.57017">
        <ele>150</ele>
        <time>2014-09-28T08:38:50.000Z</time>
      </trkpt>
      <trkpt lat="49.21545" lon="1.57029">
        <ele>151</ele>
        <time>2014-09-28T08:38:52.000Z</time>
      </trkpt>
      <trkpt lat="49.21545" lon="1.57042">
        <ele>151</ele>
        <time>2014-09-28T08:38:54.000Z</time>
      </trkpt>
      <trkpt lat="49.21545" lon="1.57055">
        <ele>151</ele>
        <time>2014-09-28T08:38:56.000Z</time>
      </trkpt>
      <trkpt lat="49.21544" lon="1.57068">
        <ele>151</ele>
        <time>2014-09-28T08:38:58.000Z</time>
      </trkpt>
      <trkpt lat="49.21544" lon="1.57081">
        <ele>151</ele>
        <time>2014-09-28T08:39:00.000Z</time>
      </trkpt>
      <trkpt lat="49.21544" lon="1.57093">
        <ele>151</ele>
        <time>2014-09-28T08:39:02.000Z</time>
      </trkpt>
      <trkpt lat="49.21544" lon="1.57106">
        <ele>151</ele>
        <time>2014-09-28T08:39:04.000Z</time>
      </trkpt>
      <trkpt lat="49.21543" lon="1.57119">
        <ele>151</ele>
        <time>2014-09-28T08:39:06.000Z</time>
      </trkpt>
      <trkpt lat="49.21543" lon="1.57131">
        <ele>152</ele>
        <time>2014-09-28T08:39:08.000Z</time>
      </trkpt>
      <trkpt lat="49.21542" lon="1.57144">
        <ele>152</ele>
        <time>2014-09-28T08:39:10.000Z</time>
      </trkpt>
      <trkpt lat="49.21542" lon="1.57157">
        <ele>152</ele>
        <time>2014-09-28T08:39:12.000Z</time>
      </trkpt>
      <trkpt lat="49.21542" lon="1.57169">
        <ele>153</ele>
        <time>2014-09-28T08:39:14.000Z</time>
      </trkpt>
      <trkpt lat="49.21542" lon="1.57182">
        <ele>153</ele>
        <time>2014-09-28T08:39:16.000Z</time>
      </trkpt>
      <trkpt lat="49.21541" lon="1.57195">
        <ele>153</ele>
        <time>2014-09-28T08:39:18.000Z</time>
      </trkpt>
      <trkpt lat="49.21541" lon="1.57207">
        <ele>153</ele>
        <time>2014-09-28T08:39:20.000Z</time>
      </trkpt>
      <trkpt lat="49.21541" lon="1.57219">
        <ele>154</ele>
        <time>2014-09-28T08:39:22.000Z</time>
      </trkpt>
      <trkpt lat="49.21541" lon="1.57229">
        <ele>154</ele>
        <time>2014-09-28T08:39:24.000Z</time>
      </trkpt>
      <trkpt lat="49.2154" lon="1.57238">
        <ele>154</ele>
        <time>2014-09-28T08:39:26.000Z</time>
      </trkpt>
      <trkpt lat="49.2154" lon="1.57238">
        <ele>154</ele>
        <time>2014-09-28T08:39:28.000Z</time>
      </trkpt>
      <trkpt lat="49.2154" lon="1.57253">
        <ele>154</ele>
        <time>2014-09-28T08:39:30.000Z</time>
      </trkpt>
      <trkpt lat="49.2154" lon="1.57253">
        <ele>154</ele>
        <time>2014-09-28T08:39:32.000Z</time>
      </trkpt>
      <trkpt lat="49.21539" lon="1.57262">
        <ele>154</ele>
        <time>2014-09-28T08:39:34.000Z</time>
      </trkpt>
      <trkpt lat="49.21539" lon="1.57262">
        <ele>154</ele>
        <time>2014-09-28T08:39:36.000Z</time>
      </trkpt>
      <trkpt lat="49.21539" lon="1.57274">
        <ele>154</ele>
        <time>2014-09-28T08:39:54.000Z</time>
      </trkpt>
      <trkpt lat="49.21537" lon="1.57283">
        <ele>154</ele>
        <time>2014-09-28T08:39:56.000Z</time>
      </trkpt>
      <trkpt lat="49.21535" lon="1.57292">
        <ele>155</ele>
        <time>2014-09-28T08:39:58.000Z</time>
      </trkpt>
      <trkpt lat="49.21534" lon="1.57303">
        <ele>154</ele>
        <time>2014-09-28T08:40:00.000Z</time>
      </trkpt>
      <trkpt lat="49.21532" lon="1.57315">
        <ele>154</ele>
        <time>2014-09-28T08:40:02.000Z</time>
      </trkpt>
      <trkpt lat="49.21531" lon="1.57326">
        <ele>154</ele>
        <time>2014-09-28T08:40:04.000Z</time>
      </trkpt>
      <trkpt lat="49.21529" lon="1.57338">
        <ele>154</ele>
        <time>2014-09-28T08:40:06.000Z</time>
      </trkpt>
      <trkpt lat="49.21527" lon="1.5735">
        <ele>154</ele>
        <time>2014-09-28T08:40:08.000Z</time>
      </trkpt>
      <trkpt lat="49.21525" lon="1.57362">
        <ele>154</ele>
        <time>2014-09-28T08:40:10.000Z</time>
      </trkpt>
      <trkpt lat="49.21523" lon="1.57374">
        <ele>154</ele>
        <time>2014-09-28T08:40:12.000Z</time>
      </trkpt>
      <trkpt lat="49.21521" lon="1.57386">
        <ele>154</ele>
        <time>2014-09-28T08:40:14.000Z</time>
      </trkpt>
      <trkpt lat="49.21519" lon="1.57399">
        <ele>154</ele>
        <time>2014-09-28T08:40:16.000Z</time>
      </trkpt>
      <trkpt lat="49.21518" lon="1.57412">
        <ele>154</ele>
        <time>2014-09-28T08:40:18.000Z</time>
      </trkpt>
      <trkpt lat="49.21516" lon="1.57424">
        <ele>154</ele>
        <time>2014-09-28T08:40:20.000Z</time>
      </trkpt>
      <trkpt lat="49.21514" lon="1.57436">
        <ele>154</ele>
        <time>2014-09-28T08:40:22.000Z</time>
      </trkpt>
      <trkpt lat="49.21512" lon="1.57448">
        <ele>153</ele>
        <time>2014-09-28T08:40:24.000Z</time>
      </trkpt>
      <trkpt lat="49.2151" lon="1.57458">
        <ele>153</ele>
        <time>2014-09-28T08:40:26.000Z</time>
      </trkpt>
      <trkpt lat="49.21508" lon="1.57466">
        <ele>153</ele>
        <time>2014-09-28T08:40:28.000Z</time>
      </trkpt>
      <trkpt lat="49.21508" lon="1.57466">
        <ele>153</ele>
        <time>2014-09-28T08:40:30.000Z</time>
      </trkpt>
      <trkpt lat="49.21506" lon="1.57478">
        <ele>152</ele>
        <time>2014-09-28T08:40:32.000Z</time>
      </trkpt>
      <trkpt lat="49.21506" lon="1.57478">
        <ele>152</ele>
        <time>2014-09-28T08:40:34.000Z</time>
      </trkpt>
      <trkpt lat="49.21506" lon="1.57478">
        <ele>152</ele>
        <time>2014-09-28T08:40:36.000Z</time>
      </trkpt>
      <trkpt lat="49.21503" lon="1.57488">
        <ele>153</ele>
        <time>2014-09-28T08:43:37.000Z</time>
      </trkpt>
      <trkpt lat="49.21504" lon="1.57502">
        <ele>153</ele>
        <time>2014-09-28T08:43:41.000Z</time>
      </trkpt>
      <trkpt lat="49.21504" lon="1.57511">
        <ele>152</ele>
        <time>2014-09-28T08:43:43.000Z</time>
      </trkpt>
      <trkpt lat="49.21504" lon="1.5752">
        <ele>152</ele>
        <time>2014-09-28T08:43:45.000Z</time>
      </trkpt>
      <trkpt lat="49.21503" lon="1.5753">
        <ele>152</ele>
        <time>2014-09-28T08:43:47.000Z</time>
      </trkpt>
      <trkpt lat="49.21503" lon="1.57539">
        <ele>152</ele>
        <time>2014-09-28T08:43:49.000Z</time>
      </trkpt>
      <trkpt lat="49.21503" lon="1.5755">
        <ele>152</ele>
        <time>2014-09-28T08:43:51.000Z</time>
      </trkpt>
      <trkpt lat="49.21504" lon="1.57561">
        <ele>152</ele>
        <time>2014-09-28T08:43:53.000Z</time>
      </trkpt>
      <trkpt lat="49.21504" lon="1.57573">
        <ele>152</ele>
        <time>2014-09-28T08:43:55.000Z</time>
      </trkpt>
      <trkpt lat="49.21504" lon="1.57586">
        <ele>152</ele>
        <time>2014-09-28T08:43:57.000Z</time>
      </trkpt>
      <trkpt lat="49.21503" lon="1.57599">
        <ele>152</ele>
        <time>2014-09-28T08:43:59.000Z</time>
      </trkpt>
      <trkpt lat="49.21502" lon="1.57612">
        <ele>153</ele>
        <time>2014-09-28T08:44:01.000Z</time>
      </trkpt>
      <trkpt lat="49.21501" lon="1.57626">
        <ele>152</ele>
        <time>2014-09-28T08:44:03.000Z</time>
      </trkpt>
      <trkpt lat="49.21499" lon="1.5764">
        <ele>153</ele>
        <time>2014-09-28T08:44:05.000Z</time>
      </trkpt>
      <trkpt lat="49.21498" lon="1.57655">
        <ele>153</ele>
        <time>2014-09-28T08:44:07.000Z</time>
      </trkpt>
      <trkpt lat="49.21496" lon="1.5767">
        <ele>153</ele>
        <time>2014-09-28T08:44:09.000Z</time>
      </trkpt>
      <trkpt lat="49.21494" lon="1.57685">
        <ele>153</ele>
        <time>2014-09-28T08:44:11.000Z</time>
      </trkpt>
      <trkpt lat="49.21493" lon="1.57701">
        <ele>154</ele>
        <time>2014-09-28T08:44:13.000Z</time>
      </trkpt>
      <trkpt lat="49.21491" lon="1.57716">
        <ele>153</ele>
        <time>2014-09-28T08:44:15.000Z</time>
      </trkpt>
      <trkpt lat="49.21489" lon="1.57732">
        <ele>153</ele>
        <time>2014-09-28T08:44:17.000Z</time>
      </trkpt>
      <trkpt lat="49.21488" lon="1.57748">
        <ele>153</ele>
        <time>2014-09-28T08:44:19.000Z</time>
      </trkpt>
      <trkpt lat="49.21486" lon="1.57763">
        <ele>153</ele>
        <time>2014-09-28T08:44:21.000Z</time>
      </trkpt>
      <trkpt lat="49.21484" lon="1.57779">
        <ele>153</ele>
        <time>2014-09-28T08:44:23.000Z</time>
      </trkpt>
      <trkpt lat="49.21482" lon="1.57795">
        <ele>153</ele>
        <time>2014-09-28T08:44:25.000Z</time>
      </trkpt>
      <trkpt lat="49.21481" lon="1.5781">
        <ele>153</ele>
        <time>2014-09-28T08:44:27.000Z</time>
      </trkpt>
      <trkpt lat="49.21479" lon="1.57826">
        <ele>152</ele>
        <time>2014-09-28T08:44:29.000Z</time>
      </trkpt>
      <trkpt lat="49.21477" lon="1.57842">
        <ele>152</ele>
        <time>2014-09-28T08:44:31.000Z</time>
      </trkpt>
      <trkpt lat="49.21476" lon="1.57858">
        <ele>152</ele>
        <time>2014-09-28T08:44:33.000Z</time>
      </trkpt>
      <trkpt lat="49.21474" lon="1.57874">
        <ele>152</ele>
        <time>2014-09-28T08:44:35.000Z</time>
      </trkpt>
      <trkpt lat="49.21473" lon="1.5789">
        <ele>152</ele>
        <time>2014-09-28T08:44:37.000Z</time>
      </trkpt>
      <trkpt lat="49.21471" lon="1.57906">
        <ele>151</ele>
        <time>2014-09-28T08:44:39.000Z</time>
      </trkpt>
      <trkpt lat="49.21469" lon="1.57922">
        <ele>151</ele>
        <time>2014-09-28T08:44:41.000Z</time>
      </trkpt>
      <trkpt lat="49.21467" lon="1.57938">
        <ele>151</ele>
        <time>2014-09-28T08:44:43.000Z</time>
      </trkpt>
      <trkpt lat="49.21465" lon="1.57953">
        <ele>150</ele>
        <time>2014-09-28T08:44:45.000Z</time>
      </trkpt>
      <trkpt lat="49.21463" lon="1.57969">
        <ele>150</ele>
        <time>2014-09-28T08:44:47.000Z</time>
      </trkpt>
      <trkpt lat="49.21461" lon="1.57985">
        <ele>150</ele>
        <time>2014-09-28T08:44:49.000Z</time>
      </trkpt>
      <trkpt lat="49.2146" lon="1.57999">
        <ele>150</ele>
        <time>2014-09-28T08:44:51.000Z</time>
      </trkpt>
      <trkpt lat="49.21458" lon="1.58015">
        <ele>150</ele>
        <time>2014-09-28T08:44:53.000Z</time>
      </trkpt>
      <trkpt lat="49.21457" lon="1.5803">
        <ele>150</ele>
        <time>2014-09-28T08:44:55.000Z</time>
      </trkpt>
      <trkpt lat="49.21455" lon="1.58046">
        <ele>149</ele>
        <time>2014-09-28T08:44:57.000Z</time>
      </trkpt>
      <trkpt lat="49.21454" lon="1.58062">
        <ele>150</ele>
        <time>2014-09-28T08:44:59.000Z</time>
      </trkpt>
      <trkpt lat="49.21452" lon="1.58077">
        <ele>150</ele>
        <time>2014-09-28T08:45:01.000Z</time>
      </trkpt>
      <trkpt lat="49.21451" lon="1.58093">
        <ele>150</ele>
        <time>2014-09-28T08:45:03.000Z</time>
      </trkpt>
      <trkpt lat="49.21449" lon="1.58108">
        <ele>151</ele>
        <time>2014-09-28T08:45:05.000Z</time>
      </trkpt>
      <trkpt lat="49.21448" lon="1.58123">
        <ele>150</ele>
        <time>2014-09-28T08:45:07.000Z</time>
      </trkpt>
      <trkpt lat="49.21446" lon="1.58138">
        <ele>150</ele>
        <time>2014-09-28T08:45:09.000Z</time>
      </trkpt>
      <trkpt lat="49.21445" lon="1.58155">
        <ele>150</ele>
        <time>2014-09-28T08:45:11.000Z</time>
      </trkpt>
      <trkpt lat="49.21443" lon="1.58171">
        <ele>150</ele>
        <time>2014-09-28T08:45:13.000Z</time>
      </trkpt>
      <trkpt lat="49.21441" lon="1.58187">
        <ele>150</ele>
        <time>2014-09-28T08:45:15.000Z</time>
      </trkpt>
      <trkpt lat="49.2144" lon="1.58203">
        <ele>150</ele>
        <time>2014-09-28T08:45:17.000Z</time>
      </trkpt>
      <trkpt lat="49.21438" lon="1.58218">
        <ele>150</ele>
        <time>2014-09-28T08:45:19.000Z</time>
      </trkpt>
      <trkpt lat="49.21436" lon="1.58233">
        <ele>150</ele>
        <time>2014-09-28T08:45:21.000Z</time>
      </trkpt>
      <trkpt lat="49.21435" lon="1.58248">
        <ele>150</ele>
        <time>2014-09-28T08:45:23.000Z</time>
      </trkpt>
      <trkpt lat="49.21433" lon="1.58263">
        <ele>150</ele>
        <time>2014-09-28T08:45:25.000Z</time>
      </trkpt>
      <trkpt lat="49.21432" lon="1.58278">
        <ele>150</ele>
        <time>2014-09-28T08:45:27.000Z</time>
      </trkpt>
      <trkpt lat="49.21431" lon="1.58293">
        <ele>150</ele>
        <time>2014-09-28T08:45:29.000Z</time>
      </trkpt>
      <trkpt lat="49.21429" lon="1.58308">
        <ele>150</ele>
        <time>2014-09-28T08:45:31.000Z</time>
      </trkpt>
      <trkpt lat="49.21428" lon="1.58323">
        <ele>150</ele>
        <time>2014-09-28T08:45:33.000Z</time>
      </trkpt>
      <trkpt lat="49.21427" lon="1.58337">
        <ele>150</ele>
        <time>2014-09-28T08:45:35.000Z</time>
      </trkpt>
      <trkpt lat="49.21426" lon="1.5835">
        <ele>151</ele>
        <time>2014-09-28T08:45:37.000Z</time>
      </trkpt>
      <trkpt lat="49.21424" lon="1.58364">
        <ele>151</ele>
        <time>2014-09-28T08:45:39.000Z</time>
      </trkpt>
      <trkpt lat="49.21423" lon="1.58377">
        <ele>151</ele>
        <time>2014-09-28T08:45:41.000Z</time>
      </trkpt>
      <trkpt lat="49.21421" lon="1.58391">
        <ele>151</ele>
        <time>2014-09-28T08:45:43.000Z</time>
      </trkpt>
      <trkpt lat="49.2142" lon="1.58405">
        <ele>150</ele>
        <time>2014-09-28T08:45:45.000Z</time>
      </trkpt>
      <trkpt lat="49.21418" lon="1.58419">
        <ele>150</ele>
        <time>2014-09-28T08:45:47.000Z</time>
      </trkpt>
      <trkpt lat="49.21416" lon="1.58433">
        <ele>150</ele>
        <time>2014-09-28T08:45:49.000Z</time>
      </trkpt>
      <trkpt lat="49.21415" lon="1.58447">
        <ele>151</ele>
        <time>2014-09-28T08:45:51.000Z</time>
      </trkpt>
      <trkpt lat="49.21414" lon="1.58461">
        <ele>151</ele>
        <time>2014-09-28T08:45:53.000Z</time>
      </trkpt>
      <trkpt lat="49.21412" lon="1.58475">
        <ele>152</ele>
        <time>2014-09-28T08:45:55.000Z</time>
      </trkpt>
      <trkpt lat="49.21411" lon="1.5849">
        <ele>151</ele>
        <time>2014-09-28T08:45:57.000Z</time>
      </trkpt>
      <trkpt lat="49.2141" lon="1.58504">
        <ele>151</ele>
        <time>2014-09-28T08:45:59.000Z</time>
      </trkpt>
      <trkpt lat="49.21408" lon="1.58519">
        <ele>151</ele>
        <time>2014-09-28T08:46:01.000Z</time>
      </trkpt>
      <trkpt lat="49.21407" lon="1.58533">
        <ele>151</ele>
        <time>2014-09-28T08:46:03.000Z</time>
      </trkpt>
      <trkpt lat="49.21405" lon="1.58547">
        <ele>151</ele>
        <time>2014-09-28T08:46:05.000Z</time>
      </trkpt>
      <trkpt lat="49.21404" lon="1.58561">
        <ele>151</ele>
        <time>2014-09-28T08:46:07.000Z</time>
      </trkpt>
      <trkpt lat="49.21402" lon="1.58575">
        <ele>151</ele>
        <time>2014-09-28T08:46:09.000Z</time>
      </trkpt>
      <trkpt lat="49.214" lon="1.58589">
        <ele>151</ele>
        <time>2014-09-28T08:46:11.000Z</time>
      </trkpt>
      <trkpt lat="49.21399" lon="1.58604">
        <ele>151</ele>
        <time>2014-09-28T08:46:13.000Z</time>
      </trkpt>
      <trkpt lat="49.21397" lon="1.58617">
        <ele>151</ele>
        <time>2014-09-28T08:46:15.000Z</time>
      </trkpt>
      <trkpt lat="49.21396" lon="1.58631">
        <ele>151</ele>
        <time>2014-09-28T08:46:17.000Z</time>
      </trkpt>
      <trkpt lat="49.21394" lon="1.58645">
        <ele>151</ele>
        <time>2014-09-28T08:46:19.000Z</time>
      </trkpt>
      <trkpt lat="49.21393" lon="1.58658">
        <ele>151</ele>
        <time>2014-09-28T08:46:21.000Z</time>
      </trkpt>
      <trkpt lat="49.21392" lon="1.58671">
        <ele>151</ele>
        <time>2014-09-28T08:46:23.000Z</time>
      </trkpt>
      <trkpt lat="49.21391" lon="1.58684">
        <ele>151</ele>
        <time>2014-09-28T08:46:25.000Z</time>
      </trkpt>
      <trkpt lat="49.21389" lon="1.58697">
        <ele>151</ele>
        <time>2014-09-28T08:46:27.000Z</time>
      </trkpt>
      <trkpt lat="49.21387" lon="1.58711">
        <ele>151</ele>
        <time>2014-09-28T08:46:29.000Z</time>
      </trkpt>
      <trkpt lat="49.21386" lon="1.58725">
        <ele>150</ele>
        <time>2014-09-28T08:46:31.000Z</time>
      </trkpt>
      <trkpt lat="49.21385" lon="1.58739">
        <ele>150</ele>
        <time>2014-09-28T08:46:33.000Z</time>
      </trkpt>
      <trkpt lat="49.21383" lon="1.58753">
        <ele>150</ele>
        <time>2014-09-28T08:46:35.000Z</time>
      </trkpt>
      <trkpt lat="49.21382" lon="1.58767">
        <ele>150</ele>
        <time>2014-09-28T08:46:37.000Z</time>
      </trkpt>
      <trkpt lat="49.21381" lon="1.5878">
        <ele>150</ele>
        <time>2014-09-28T08:46:39.000Z</time>
      </trkpt>
      <trkpt lat="49.21379" lon="1.58793">
        <ele>150</ele>
        <time>2014-09-28T08:46:41.000Z</time>
      </trkpt>
      <trkpt lat="49.21378" lon="1.58805">
        <ele>150</ele>
        <time>2014-09-28T08:46:43.000Z</time>
      </trkpt>
      <trkpt lat="49.21377" lon="1.58818">
        <ele>149</ele>
        <time>2014-09-28T08:46:45.000Z</time>
      </trkpt>
      <trkpt lat="49.21376" lon="1.58831">
        <ele>149</ele>
        <time>2014-09-28T08:46:47.000Z</time>
      </trkpt>
      <trkpt lat="49.21375" lon="1.58845">
        <ele>149</ele>
        <time>2014-09-28T08:46:49.000Z</time>
      </trkpt>
      <trkpt lat="49.21374" lon="1.58859">
        <ele>149</ele>
        <time>2014-09-28T08:46:51.000Z</time>
      </trkpt>
      <trkpt lat="49.21373" lon="1.58872">
        <ele>148</ele>
        <time>2014-09-28T08:46:53.000Z</time>
      </trkpt>
      <trkpt lat="49.21371" lon="1.58885">
        <ele>148</ele>
        <time>2014-09-28T08:46:55.000Z</time>
      </trkpt>
      <trkpt lat="49.21369" lon="1.589">
        <ele>148</ele>
        <time>2014-09-28T08:46:57.000Z</time>
      </trkpt>
      <trkpt lat="49.21367" lon="1.58915">
        <ele>148</ele>
        <time>2014-09-28T08:46:59.000Z</time>
      </trkpt>
      <trkpt lat="49.21365" lon="1.58929">
        <ele>148</ele>
        <time>2014-09-28T08:47:01.000Z</time>
      </trkpt>
      <trkpt lat="49.21364" lon="1.58944">
        <ele>148</ele>
        <time>2014-09-28T08:47:03.000Z</time>
      </trkpt>
      <trkpt lat="49.21363" lon="1.58956">
        <ele>148</ele>
        <time>2014-09-28T08:47:05.000Z</time>
      </trkpt>
      <trkpt lat="49.21362" lon="1.58969">
        <ele>148</ele>
        <time>2014-09-28T08:47:07.000Z</time>
      </trkpt>
      <trkpt lat="49.21361" lon="1.5898">
        <ele>148</ele>
        <time>2014-09-28T08:47:09.000Z</time>
      </trkpt>
      <trkpt lat="49.2136" lon="1.58992">
        <ele>148</ele>
        <time>2014-09-28T08:47:11.000Z</time>
      </trkpt>
      <trkpt lat="49.21358" lon="1.59004">
        <ele>148</ele>
        <time>2014-09-28T08:47:13.000Z</time>
      </trkpt>
      <trkpt lat="49.21357" lon="1.59015">
        <ele>148</ele>
        <time>2014-09-28T08:47:15.000Z</time>
      </trkpt>
      <trkpt lat="49.21356" lon="1.59026">
        <ele>148</ele>
        <time>2014-09-28T08:47:17.000Z</time>
      </trkpt>
      <trkpt lat="49.21355" lon="1.59038">
        <ele>148</ele>
        <time>2014-09-28T08:47:19.000Z</time>
      </trkpt>
      <trkpt lat="49.21354" lon="1.59049">
        <ele>149</ele>
        <time>2014-09-28T08:47:21.000Z</time>
      </trkpt>
      <trkpt lat="49.21352" lon="1.5906">
        <ele>149</ele>
        <time>2014-09-28T08:47:23.000Z</time>
      </trkpt>
      <trkpt lat="49.21351" lon="1.59071">
        <ele>149</ele>
        <time>2014-09-28T08:47:25.000Z</time>
      </trkpt>
      <trkpt lat="49.2135" lon="1.59083">
        <ele>149</ele>
        <time>2014-09-28T08:47:27.000Z</time>
      </trkpt>
      <trkpt lat="49.21349" lon="1.59095">
        <ele>149</ele>
        <time>2014-09-28T08:47:29.000Z</time>
      </trkpt>
      <trkpt lat="49.21348" lon="1.59108">
        <ele>149</ele>
        <time>2014-09-28T08:47:31.000Z</time>
      </trkpt>
      <trkpt lat="49.21347" lon="1.5912">
        <ele>150</ele>
        <time>2014-09-28T08:47:33.000Z</time>
      </trkpt>
      <trkpt lat="49.21346" lon="1.59132">
        <ele>150</ele>
        <time>2014-09-28T08:47:35.000Z</time>
      </trkpt>
      <trkpt lat="49.21344" lon="1.59144">
        <ele>150</ele>
        <time>2014-09-28T08:47:37.000Z</time>
      </trkpt>
      <trkpt lat="49.21343" lon="1.59156">
        <ele>150</ele>
        <time>2014-09-28T08:47:39.000Z</time>
      </trkpt>
      <trkpt lat="49.21341" lon="1.59167">
        <ele>150</ele>
        <time>2014-09-28T08:47:41.000Z</time>
      </trkpt>
      <trkpt lat="49.21341" lon="1.59179">
        <ele>150</ele>
        <time>2014-09-28T08:47:43.000Z</time>
      </trkpt>
      <trkpt lat="49.21339" lon="1.5919">
        <ele>150</ele>
        <time>2014-09-28T08:47:45.000Z</time>
      </trkpt>
      <trkpt lat="49.21339" lon="1.592">
        <ele>150</ele>
        <time>2014-09-28T08:47:47.000Z</time>
      </trkpt>
      <trkpt lat="49.21337" lon="1.5921">
        <ele>150</ele>
        <time>2014-09-28T08:47:49.000Z</time>
      </trkpt>
      <trkpt lat="49.21336" lon="1.5922">
        <ele>150</ele>
        <time>2014-09-28T08:47:51.000Z</time>
      </trkpt>
      <trkpt lat="49.21335" lon="1.59229">
        <ele>150</ele>
        <time>2014-09-28T08:47:53.000Z</time>
      </trkpt>
      <trkpt lat="49.21335" lon="1.59229">
        <ele>150</ele>
        <time>2014-09-28T08:47:55.000Z</time>
      </trkpt>
      <trkpt lat="49.21334" lon="1.59241">
        <ele>150</ele>
        <time>2014-09-28T08:47:57.000Z</time>
      </trkpt>
      <trkpt lat="49.21334" lon="1.59241">
        <ele>150</ele>
        <time>2014-09-28T08:47:59.000Z</time>
      </trkpt>
      <trkpt lat="49.21334" lon="1.59241">
        <ele>150</ele>
        <time>2014-09-28T08:48:01.000Z</time>
      </trkpt>
      <trkpt lat="49.21333" lon="1.59252">
        <ele>150</ele>
        <time>2014-09-28T08:48:38.000Z</time>
      </trkpt>
      <trkpt lat="49.21339" lon="1.59262">
        <ele>150</ele>
        <time>2014-09-28T08:48:42.000Z</time>
      </trkpt>
      <trkpt lat="49.21346" lon="1.59266">
        <ele>150</ele>
        <time>2014-09-28T08:48:44.000Z</time>
      </trkpt>
      <trkpt lat="49.21354" lon="1.59269">
        <ele>150</ele>
        <time>2014-09-28T08:48:46.000Z</time>
      </trkpt>
      <trkpt lat="49.21362" lon="1.59273">
        <ele>150</ele>
        <time>2014-09-28T08:48:48.000Z</time>
      </trkpt>
      <trkpt lat="49.21371" lon="1.59277">
        <ele>150</ele>
        <time>2014-09-28T08:48:50.000Z</time>
      </trkpt>
      <trkpt lat="49.2138" lon="1.59281">
        <ele>150</ele>
        <time>2014-09-28T08:48:52.000Z</time>
      </trkpt>
      <trkpt lat="49.2139" lon="1.59286">
        <ele>150</ele>
        <time>2014-09-28T08:48:54.000Z</time>
      </trkpt>
      <trkpt lat="49.214" lon="1.59292">
        <ele>150</ele>
        <time>2014-09-28T08:48:56.000Z</time>
      </trkpt>
      <trkpt lat="49.2141" lon="1.59297">
        <ele>149</ele>
        <time>2014-09-28T08:48:58.000Z</time>
      </trkpt>
      <trkpt lat="49.21421" lon="1.59303">
        <ele>150</ele>
        <time>2014-09-28T08:49:00.000Z</time>
      </trkpt>
      <trkpt lat="49.21433" lon="1.59309">
        <ele>150</ele>
        <time>2014-09-28T08:49:02.000Z</time>
      </trkpt>
      <trkpt lat="49.21445" lon="1.59315">
        <ele>150</ele>
        <time>2014-09-28T08:49:04.000Z</time>
      </trkpt>
      <trkpt lat="49.21457" lon="1.59321">
        <ele>150</ele>
        <time>2014-09-28T08:49:06.000Z</time>
      </trkpt>
      <trkpt lat="49.21469" lon="1.59327">
        <ele>150</ele>
        <time>2014-09-28T08:49:08.000Z</time>
      </trkpt>
      <trkpt lat="49.21481" lon="1.59333">
        <ele>150</ele>
        <time>2014-09-28T08:49:10.000Z</time>
      </trkpt>
      <trkpt lat="49.21493" lon="1.5934">
        <ele>150</ele>
        <time>2014-09-28T08:49:12.000Z</time>
      </trkpt>
      <trkpt lat="49.21506" lon="1.59346">
        <ele>150</ele>
        <time>2014-09-28T08:49:14.000Z</time>
      </trkpt>
      <trkpt lat="49.21518" lon="1.59351">
        <ele>150</ele>
        <time>2014-09-28T08:49:16.000Z</time>
      </trkpt>
      <trkpt lat="49.21531" lon="1.59357">
        <ele>150</ele>
        <time>2014-09-28T08:49:18.000Z</time>
      </trkpt>
      <trkpt lat="49.21544" lon="1.59362">
        <ele>150</ele>
        <time>2014-09-28T08:49:20.000Z</time>
      </trkpt>
      <trkpt lat="49.21557" lon="1.59368">
        <ele>150</ele>
        <time>2014-09-28T08:49:22.000Z</time>
      </trkpt>
      <trkpt lat="49.21571" lon="1.59377">
        <ele>149</ele>
        <time>2014-09-28T08:49:24.000Z</time>
      </trkpt>
      <trkpt lat="49.21584" lon="1.59383">
        <ele>150</ele>
        <time>2014-09-28T08:49:26.000Z</time>
      </trkpt>
      <trkpt lat="49.21597" lon="1.5939">
        <ele>150</ele>
        <time>2014-09-28T08:49:28.000Z</time>
      </trkpt>
      <trkpt lat="49.21609" lon="1.59397">
        <ele>150</ele>
        <time>2014-09-28T08:49:30.000Z</time>
      </trkpt>
      <trkpt lat="49.21621" lon="1.59403">
        <ele>149</ele>
        <time>2014-09-28T08:49:32.000Z</time>
      </trkpt>
      <trkpt lat="49.21634" lon="1.5941">
        <ele>149</ele>
        <time>2014-09-28T08:49:34.000Z</time>
      </trkpt>
      <trkpt lat="49.21646" lon="1.59417">
        <ele>149</ele>
        <time>2014-09-28T08:49:36.000Z</time>
      </trkpt>
      <trkpt lat="49.21658" lon="1.59424">
        <ele>149</ele>
        <time>2014-09-28T08:49:38.000Z</time>
      </trkpt>
      <trkpt lat="49.2167" lon="1.59431">
        <ele>149</ele>
        <time>2014-09-28T08:49:40.000Z</time>
      </trkpt>
      <trkpt lat="49.21682" lon="1.59437">
        <ele>149</ele>
        <time>2014-09-28T08:49:42.000Z</time>
      </trkpt>
      <trkpt lat="49.21693" lon="1.59442">
        <ele>149</ele>
        <time>2014-09-28T08:49:44.000Z</time>
      </trkpt>
      <trkpt lat="49.21703" lon="1.59448">
        <ele>148</ele>
        <time>2014-09-28T08:49:46.000Z</time>
      </trkpt>
      <trkpt lat="49.21714" lon="1.59453">
        <ele>148</ele>
        <time>2014-09-28T08:49:48.000Z</time>
      </trkpt>
      <trkpt lat="49.21723" lon="1.5946">
        <ele>148</ele>
        <time>2014-09-28T08:49:50.000Z</time>
      </trkpt>
      <trkpt lat="49.21728" lon="1.59473">
        <ele>148</ele>
        <time>2014-09-28T08:49:52.000Z</time>
      </trkpt>
      <trkpt lat="49.21727" lon="1.59489">
        <ele>147</ele>
        <time>2014-09-28T08:49:54.000Z</time>
      </trkpt>
      <trkpt lat="49.21722" lon="1.59504">
        <ele>148</ele>
        <time>2014-09-28T08:49:56.000Z</time>
      </trkpt>
      <trkpt lat="49.21714" lon="1.59517">
        <ele>147</ele>
        <time>2014-09-28T08:49:58.000Z</time>
      </trkpt>
      <trkpt lat="49.21702" lon="1.59525">
        <ele>147</ele>
        <time>2014-09-28T08:50:00.000Z</time>
      </trkpt>
      <trkpt lat="49.2169" lon="1.59527">
        <ele>146</ele>
        <time>2014-09-28T08:50:02.000Z</time>
      </trkpt>
      <trkpt lat="49.21677" lon="1.59529">
        <ele>146</ele>
        <time>2014-09-28T08:50:04.000Z</time>
      </trkpt>
      <trkpt lat="49.21664" lon="1.59532">
        <ele>145</ele>
        <time>2014-09-28T08:50:06.000Z</time>
      </trkpt>
      <trkpt lat="49.21652" lon="1.59536">
        <ele>145</ele>
        <time>2014-09-28T08:50:08.000Z</time>
      </trkpt>
      <trkpt lat="49.21641" lon="1.59544">
        <ele>145</ele>
        <time>2014-09-28T08:50:10.000Z</time>
      </trkpt>
      <trkpt lat="49.21631" lon="1.59556">
        <ele>145</ele>
        <time>2014-09-28T08:50:12.000Z</time>
      </trkpt>
      <trkpt lat="49.21621" lon="1.59567">
        <ele>144</ele>
        <time>2014-09-28T08:50:14.000Z</time>
      </trkpt>
      <trkpt lat="49.21611" lon="1.59578">
        <ele>144</ele>
        <time>2014-09-28T08:50:16.000Z</time>
      </trkpt>
      <trkpt lat="49.21601" lon="1.59588">
        <ele>143</ele>
        <time>2014-09-28T08:50:18.000Z</time>
      </trkpt>
      <trkpt lat="49.21592" lon="1.59599">
        <ele>143</ele>
        <time>2014-09-28T08:50:20.000Z</time>
      </trkpt>
      <trkpt lat="49.21582" lon="1.59609">
        <ele>143</ele>
        <time>2014-09-28T08:50:22.000Z</time>
      </trkpt>
      <trkpt lat="49.21573" lon="1.5962">
        <ele>143</ele>
        <time>2014-09-28T08:50:24.000Z</time>
      </trkpt>
      <trkpt lat="49.21563" lon="1.5963">
        <ele>143</ele>
        <time>2014-09-28T08:50:26.000Z</time>
      </trkpt>
      <trkpt lat="49.21553" lon="1.5964">
        <ele>143</ele>
        <time>2014-09-28T08:50:28.000Z</time>
      </trkpt>
      <trkpt lat="49.21543" lon="1.5965">
        <ele>143</ele>
        <time>2014-09-28T08:50:30.000Z</time>
      </trkpt>
      <trkpt lat="49.21533" lon="1.59661">
        <ele>143</ele>
        <time>2014-09-28T08:50:32.000Z</time>
      </trkpt>
      <trkpt lat="49.21523" lon="1.59671">
        <ele>143</ele>
        <time>2014-09-28T08:50:34.000Z</time>
      </trkpt>
      <trkpt lat="49.21514" lon="1.59681">
        <ele>143</ele>
        <time>2014-09-28T08:50:36.000Z</time>
      </trkpt>
      <trkpt lat="49.21505" lon="1.59691">
        <ele>143</ele>
        <time>2014-09-28T08:50:38.000Z</time>
      </trkpt>
      <trkpt lat="49.21495" lon="1.59701">
        <ele>143</ele>
        <time>2014-09-28T08:50:40.000Z</time>
      </trkpt>
      <trkpt lat="49.21486" lon="1.59712">
        <ele>142</ele>
        <time>2014-09-28T08:50:42.000Z</time>
      </trkpt>
      <trkpt lat="49.21478" lon="1.59722">
        <ele>142</ele>
        <time>2014-09-28T08:50:44.000Z</time>
      </trkpt>
      <trkpt lat="49.21469" lon="1.59733">
        <ele>142</ele>
        <time>2014-09-28T08:50:46.000Z</time>
      </trkpt>
      <trkpt lat="49.21459" lon="1.59742">
        <ele>142</ele>
        <time>2014-09-28T08:50:48.000Z</time>
      </trkpt>
      <trkpt lat="49.21449" lon="1.59752">
        <ele>142</ele>
        <time>2014-09-28T08:50:50.000Z</time>
      </trkpt>
      <trkpt lat="49.2144" lon="1.59761">
        <ele>141</ele>
        <time>2014-09-28T08:50:52.000Z</time>
      </trkpt>
      <trkpt lat="49.21431" lon="1.59771">
        <ele>142</ele>
        <time>2014-09-28T08:50:54.000Z</time>
      </trkpt>
      <trkpt lat="49.21422" lon="1.59782">
        <ele>142</ele>
        <time>2014-09-28T08:50:56.000Z</time>
      </trkpt>
      <trkpt lat="49.21413" lon="1.59792">
        <ele>142</ele>
        <time>2014-09-28T08:50:58.000Z</time>
      </trkpt>
      <trkpt lat="49.21404" lon="1.59803">
        <ele>142</ele>
        <time>2014-09-28T08:51:00.000Z</time>
      </trkpt>
      <trkpt lat="49.21394" lon="1.59813">
        <ele>143</ele>
        <time>2014-09-28T08:51:02.000Z</time>
      </trkpt>
      <trkpt lat="49.21385" lon="1.59823">
        <ele>143</ele>
        <time>2014-09-28T08:51:04.000Z</time>
      </trkpt>
      <trkpt lat="49.21376" lon="1.59833">
        <ele>142</ele>
        <time>2014-09-28T08:51:06.000Z</time>
      </trkpt>
      <trkpt lat="49.21368" lon="1.59843">
        <ele>143</ele>
        <time>2014-09-28T08:51:08.000Z</time>
      </trkpt>
      <trkpt lat="49.21359" lon="1.59852">
        <ele>142</ele>
        <time>2014-09-28T08:51:10.000Z</time>
      </trkpt>
      <trkpt lat="49.21349" lon="1.59861">
        <ele>142</ele>
        <time>2014-09-28T08:51:12.000Z</time>
      </trkpt>
      <trkpt lat="49.2134" lon="1.59869">
        <ele>143</ele>
        <time>2014-09-28T08:51:14.000Z</time>
      </trkpt>
      <trkpt lat="49.21332" lon="1.59876">
        <ele>144</ele>
        <time>2014-09-28T08:51:16.000Z</time>
      </trkpt>
      <trkpt lat="49.21324" lon="1.59884">
        <ele>144</ele>
        <time>2014-09-28T08:51:18.000Z</time>
      </trkpt>
      <trkpt lat="49.2132" lon="1.59894">
        <ele>144</ele>
        <time>2014-09-28T08:51:20.000Z</time>
      </trkpt>
      <trkpt lat="49.21323" lon="1.59905">
        <ele>145</ele>
        <time>2014-09-28T08:51:22.000Z</time>
      </trkpt>
      <trkpt lat="49.2133" lon="1.59912">
        <ele>146</ele>
        <time>2014-09-28T08:51:24.000Z</time>
      </trkpt>
      <trkpt lat="49.21337" lon="1.59921">
        <ele>146</ele>
        <time>2014-09-28T08:51:26.000Z</time>
      </trkpt>
      <trkpt lat="49.21346" lon="1.59933">
        <ele>146</ele>
        <time>2014-09-28T08:51:28.000Z</time>
      </trkpt>
      <trkpt lat="49.21352" lon="1.59946">
        <ele>146</ele>
        <time>2014-09-28T08:51:30.000Z</time>
      </trkpt>
      <trkpt lat="49.21358" lon="1.59961">
        <ele>146</ele>
        <time>2014-09-28T08:51:32.000Z</time>
      </trkpt>
      <trkpt lat="49.21362" lon="1.59977">
        <ele>146</ele>
        <time>2014-09-28T08:51:34.000Z</time>
      </trkpt>
      <trkpt lat="49.21367" lon="1.59994">
        <ele>146</ele>
        <time>2014-09-28T08:51:36.000Z</time>
      </trkpt>
      <trkpt lat="49.2137" lon="1.6001">
        <ele>145</ele>
        <time>2014-09-28T08:51:38.000Z</time>
      </trkpt>
      <trkpt lat="49.21373" lon="1.60026">
        <ele>145</ele>
        <time>2014-09-28T08:51:40.000Z</time>
      </trkpt>
      <trkpt lat="49.21378" lon="1.60043">
        <ele>145</ele>
        <time>2014-09-28T08:51:42.000Z</time>
      </trkpt>
      <trkpt lat="49.21381" lon="1.6006">
        <ele>145</ele>
        <time>2014-09-28T08:51:44.000Z</time>
      </trkpt>
      <trkpt lat="49.21386" lon="1.60076">
        <ele>145</ele>
        <time>2014-09-28T08:51:46.000Z</time>
      </trkpt>
      <trkpt lat="49.21389" lon="1.60093">
        <ele>145</ele>
        <time>2014-09-28T08:51:48.000Z</time>
      </trkpt>
      <trkpt lat="49.21394" lon="1.6011">
        <ele>146</ele>
        <time>2014-09-28T08:51:50.000Z</time>
      </trkpt>
      <trkpt lat="49.21398" lon="1.60126">
        <ele>146</ele>
        <time>2014-09-28T08:51:52.000Z</time>
      </trkpt>
      <trkpt lat="49.21402" lon="1.60142">
        <ele>146</ele>
        <time>2014-09-28T08:51:54.000Z</time>
      </trkpt>
      <trkpt lat="49.21405" lon="1.60159">
        <ele>146</ele>
        <time>2014-09-28T08:51:56.000Z</time>
      </trkpt>
      <trkpt lat="49.21409" lon="1.60175">
        <ele>146</ele>
        <time>2014-09-28T08:51:58.000Z</time>
      </trkpt>
      <trkpt lat="49.21413" lon="1.60191">
        <ele>146</ele>
        <time>2014-09-28T08:52:00.000Z</time>
      </trkpt>
      <trkpt lat="49.21416" lon="1.60208">
        <ele>146</ele>
        <time>2014-09-28T08:52:02.000Z</time>
      </trkpt>
      <trkpt lat="49.21421" lon="1.60224">
        <ele>146</ele>
        <time>2014-09-28T08:52:04.000Z</time>
      </trkpt>
      <trkpt lat="49.21424" lon="1.60239">
        <ele>146</ele>
        <time>2014-09-28T08:52:06.000Z</time>
      </trkpt>
      <trkpt lat="49.21428" lon="1.60253">
        <ele>146</ele>
        <time>2014-09-28T08:52:08.000Z</time>
      </trkpt>
      <trkpt lat="49.21431" lon="1.60267">
        <ele>146</ele>
        <time>2014-09-28T08:52:10.000Z</time>
      </trkpt>
      <trkpt lat="49.21434" lon="1.60281">
        <ele>146</ele>
        <time>2014-09-28T08:52:12.000Z</time>
      </trkpt>
      <trkpt lat="49.21437" lon="1.60296">
        <ele>146</ele>
        <time>2014-09-28T08:52:14.000Z</time>
      </trkpt>
      <trkpt lat="49.21442" lon="1.60311">
        <ele>146</ele>
        <time>2014-09-28T08:52:16.000Z</time>
      </trkpt>
      <trkpt lat="49.21447" lon="1.60326">
        <ele>146</ele>
        <time>2014-09-28T08:52:18.000Z</time>
      </trkpt>
      <trkpt lat="49.21452" lon="1.60339">
        <ele>146</ele>
        <time>2014-09-28T08:52:20.000Z</time>
      </trkpt>
      <trkpt lat="49.21458" lon="1.60351">
        <ele>146</ele>
        <time>2014-09-28T08:52:22.000Z</time>
      </trkpt>
      <trkpt lat="49.21465" lon="1.60362">
        <ele>146</ele>
        <time>2014-09-28T08:52:24.000Z</time>
      </trkpt>
      <trkpt lat="49.21473" lon="1.60373">
        <ele>146</ele>
        <time>2014-09-28T08:52:26.000Z</time>
      </trkpt>
      <trkpt lat="49.21481" lon="1.60384">
        <ele>146</ele>
        <time>2014-09-28T08:52:28.000Z</time>
      </trkpt>
      <trkpt lat="49.21488" lon="1.60395">
        <ele>146</ele>
        <time>2014-09-28T08:52:30.000Z</time>
      </trkpt>
      <trkpt lat="49.21495" lon="1.60405">
        <ele>146</ele>
        <time>2014-09-28T08:52:32.000Z</time>
      </trkpt>
      <trkpt lat="49.21502" lon="1.60415">
        <ele>146</ele>
        <time>2014-09-28T08:52:34.000Z</time>
      </trkpt>
      <trkpt lat="49.21508" lon="1.60424">
        <ele>146</ele>
        <time>2014-09-28T08:52:36.000Z</time>
      </trkpt>
      <trkpt lat="49.21514" lon="1.60432">
        <ele>146</ele>
        <time>2014-09-28T08:52:38.000Z</time>
      </trkpt>
      <trkpt lat="49.21521" lon="1.60441">
        <ele>146</ele>
        <time>2014-09-28T08:52:40.000Z</time>
      </trkpt>
      <trkpt lat="49.21526" lon="1.6045">
        <ele>146</ele>
        <time>2014-09-28T08:52:42.000Z</time>
      </trkpt>
      <trkpt lat="49.2153" lon="1.60462">
        <ele>146</ele>
        <time>2014-09-28T08:52:44.000Z</time>
      </trkpt>
      <trkpt lat="49.21528" lon="1.60475">
        <ele>146</ele>
        <time>2014-09-28T08:52:46.000Z</time>
      </trkpt>
      <trkpt lat="49.21523" lon="1.60487">
        <ele>146</ele>
        <time>2014-09-28T08:52:48.000Z</time>
      </trkpt>
      <trkpt lat="49.21515" lon="1.60497">
        <ele>145</ele>
        <time>2014-09-28T08:52:50.000Z</time>
      </trkpt>
      <trkpt lat="49.21507" lon="1.60507">
        <ele>145</ele>
        <time>2014-09-28T08:52:52.000Z</time>
      </trkpt>
      <trkpt lat="49.21498" lon="1.60518">
        <ele>145</ele>
        <time>2014-09-28T08:52:54.000Z</time>
      </trkpt>
      <trkpt lat="49.2149" lon="1.6053">
        <ele>145</ele>
        <time>2014-09-28T08:52:56.000Z</time>
      </trkpt>
      <trkpt lat="49.21481" lon="1.60541">
        <ele>144</ele>
        <time>2014-09-28T08:52:58.000Z</time>
      </trkpt>
      <trkpt lat="49.21473" lon="1.60553">
        <ele>144</ele>
        <time>2014-09-28T08:53:00.000Z</time>
      </trkpt>
      <trkpt lat="49.21466" lon="1.60566">
        <ele>144</ele>
        <time>2014-09-28T08:53:02.000Z</time>
      </trkpt>
      <trkpt lat="49.21459" lon="1.6058">
        <ele>144</ele>
        <time>2014-09-28T08:53:04.000Z</time>
      </trkpt>
      <trkpt lat="49.21452" lon="1.60595">
        <ele>144</ele>
        <time>2014-09-28T08:53:06.000Z</time>
      </trkpt>
      <trkpt lat="49.21446" lon="1.6061">
        <ele>144</ele>
        <time>2014-09-28T08:53:08.000Z</time>
      </trkpt>
      <trkpt lat="49.2144" lon="1.60625">
        <ele>144</ele>
        <time>2014-09-28T08:53:10.000Z</time>
      </trkpt>
      <trkpt lat="49.21434" lon="1.6064">
        <ele>144</ele>
        <time>2014-09-28T08:53:12.000Z</time>
      </trkpt>
      <trkpt lat="49.21428" lon="1.60655">
        <ele>144</ele>
        <time>2014-09-28T08:53:14.000Z</time>
      </trkpt>
      <trkpt lat="49.21422" lon="1.6067">
        <ele>144</ele>
        <time>2014-09-28T08:53:16.000Z</time>
      </trkpt>
      <trkpt lat="49.21417" lon="1.60684">
        <ele>144</ele>
        <time>2014-09-28T08:53:18.000Z</time>
      </trkpt>
      <trkpt lat="49.21413" lon="1.60699">
        <ele>145</ele>
        <time>2014-09-28T08:53:20.000Z</time>
      </trkpt>
      <trkpt lat="49.2141" lon="1.60712">
        <ele>145</ele>
        <time>2014-09-28T08:53:22.000Z</time>
      </trkpt>
      <trkpt lat="49.21409" lon="1.60723">
        <ele>145</ele>
        <time>2014-09-28T08:53:24.000Z</time>
      </trkpt>
      <trkpt lat="49.21407" lon="1.60734">
        <ele>145</ele>
        <time>2014-09-28T08:53:26.000Z</time>
      </trkpt>
      <trkpt lat="49.21404" lon="1.60746">
        <ele>145</ele>
        <time>2014-09-28T08:53:28.000Z</time>
      </trkpt>
      <trkpt lat="49.21402" lon="1.60757">
        <ele>145</ele>
        <time>2014-09-28T08:53:30.000Z</time>
      </trkpt>
      <trkpt lat="49.21399" lon="1.60768">
        <ele>145</ele>
        <time>2014-09-28T08:53:32.000Z</time>
      </trkpt>
      <trkpt lat="49.21397" lon="1.6078">
        <ele>145</ele>
        <time>2014-09-28T08:53:34.000Z</time>
      </trkpt>
      <trkpt lat="49.21395" lon="1.60793">
        <ele>145</ele>
        <time>2014-09-28T08:53:36.000Z</time>
      </trkpt>
      <trkpt lat="49.21392" lon="1.60806">
        <ele>144</ele>
        <time>2014-09-28T08:53:38.000Z</time>
      </trkpt>
      <trkpt lat="49.21389" lon="1.60816">
        <ele>145</ele>
        <time>2014-09-28T08:53:40.000Z</time>
      </trkpt>
      <trkpt lat="49.21385" lon="1.60827">
        <ele>145</ele>
        <time>2014-09-28T08:53:42.000Z</time>
      </trkpt>
      <trkpt lat="49.21381" lon="1.60838">
        <ele>144</ele>
        <time>2014-09-28T08:53:44.000Z</time>
      </trkpt>
      <trkpt lat="49.21378" lon="1.6085">
        <ele>144</ele>
        <time>2014-09-28T08:53:46.000Z</time>
      </trkpt>
      <trkpt lat="49.21377" lon="1.60862">
        <ele>145</ele>
        <time>2014-09-28T08:53:48.000Z</time>
      </trkpt>
      <trkpt lat="49.21377" lon="1.60876">
        <ele>145</ele>
        <time>2014-09-28T08:53:50.000Z</time>
      </trkpt>
      <trkpt lat="49.21378" lon="1.60889">
        <ele>145</ele>
        <time>2014-09-28T08:53:52.000Z</time>
      </trkpt>
      <trkpt lat="49.21379" lon="1.60901">
        <ele>145</ele>
        <time>2014-09-28T08:53:54.000Z</time>
      </trkpt>
      <trkpt lat="49.21379" lon="1.60911">
        <ele>145</ele>
        <time>2014-09-28T08:53:56.000Z</time>
      </trkpt>
      <trkpt lat="49.21379" lon="1.60921">
        <ele>145</ele>
        <time>2014-09-28T08:53:59.000Z</time>
      </trkpt>
      <trkpt lat="49.21381" lon="1.60931">
        <ele>145</ele>
        <time>2014-09-28T08:54:00.000Z</time>
      </trkpt>
      <trkpt lat="49.21383" lon="1.60942">
        <ele>145</ele>
        <time>2014-09-28T08:54:02.000Z</time>
      </trkpt>
      <trkpt lat="49.21384" lon="1.60953">
        <ele>145</ele>
        <time>2014-09-28T08:54:04.000Z</time>
      </trkpt>
      <trkpt lat="49.21385" lon="1.60965">
        <ele>145</ele>
        <time>2014-09-28T08:54:06.000Z</time>
      </trkpt>
      <trkpt lat="49.21387" lon="1.60978">
        <ele>145</ele>
        <time>2014-09-28T08:54:08.000Z</time>
      </trkpt>
      <trkpt lat="49.21389" lon="1.6099">
        <ele>145</ele>
        <time>2014-09-28T08:54:10.000Z</time>
      </trkpt>
      <trkpt lat="49.2139" lon="1.61003">
        <ele>145</ele>
        <time>2014-09-28T08:54:12.000Z</time>
      </trkpt>
      <trkpt lat="49.21391" lon="1.61015">
        <ele>146</ele>
        <time>2014-09-28T08:54:14.000Z</time>
      </trkpt>
      <trkpt lat="49.21393" lon="1.61026">
        <ele>146</ele>
        <time>2014-09-28T08:54:16.000Z</time>
      </trkpt>
      <trkpt lat="49.21395" lon="1.61039">
        <ele>146</ele>
        <time>2014-09-28T08:54:18.000Z</time>
      </trkpt>
      <trkpt lat="49.21396" lon="1.61052">
        <ele>146</ele>
        <time>2014-09-28T08:54:20.000Z</time>
      </trkpt>
      <trkpt lat="49.21397" lon="1.61064">
        <ele>146</ele>
        <time>2014-09-28T08:54:22.000Z</time>
      </trkpt>
      <trkpt lat="49.21399" lon="1.61077">
        <ele>146</ele>
        <time>2014-09-28T08:54:24.000Z</time>
      </trkpt>
      <trkpt lat="49.214" lon="1.61091">
        <ele>146</ele>
        <time>2014-09-28T08:54:26.000Z</time>
      </trkpt>
      <trkpt lat="49.21401" lon="1.61104">
        <ele>146</ele>
        <time>2014-09-28T08:54:28.000Z</time>
      </trkpt>
      <trkpt lat="49.21402" lon="1.61118">
        <ele>145</ele>
        <time>2014-09-28T08:54:30.000Z</time>
      </trkpt>
      <trkpt lat="49.21403" lon="1.61131">
        <ele>145</ele>
        <time>2014-09-28T08:54:32.000Z</time>
      </trkpt>
      <trkpt lat="49.21404" lon="1.61145">
        <ele>145</ele>
        <time>2014-09-28T08:54:34.000Z</time>
      </trkpt>
      <trkpt lat="49.21405" lon="1.61157">
        <ele>145</ele>
        <time>2014-09-28T08:54:36.000Z</time>
      </trkpt>
      <trkpt lat="49.21406" lon="1.6117">
        <ele>145</ele>
        <time>2014-09-28T08:54:38.000Z</time>
      </trkpt>
      <trkpt lat="49.21406" lon="1.61183">
        <ele>145</ele>
        <time>2014-09-28T08:54:40.000Z</time>
      </trkpt>
      <trkpt lat="49.21407" lon="1.61196">
        <ele>145</ele>
        <time>2014-09-28T08:54:42.000Z</time>
      </trkpt>
      <trkpt lat="49.21406" lon="1.6121">
        <ele>145</ele>
        <time>2014-09-28T08:54:44.000Z</time>
      </trkpt>
      <trkpt lat="49.21405" lon="1.61223">
        <ele>145</ele>
        <time>2014-09-28T08:54:47.000Z</time>
      </trkpt>
      <trkpt lat="49.21404" lon="1.61236">
        <ele>145</ele>
        <time>2014-09-28T08:54:48.000Z</time>
      </trkpt>
      <trkpt lat="49.21403" lon="1.61249">
        <ele>145</ele>
        <time>2014-09-28T08:54:50.000Z</time>
      </trkpt>
      <trkpt lat="49.21401" lon="1.61262">
        <ele>145</ele>
        <time>2014-09-28T08:54:52.000Z</time>
      </trkpt>
      <trkpt lat="49.21399" lon="1.61275">
        <ele>145</ele>
        <time>2014-09-28T08:54:54.000Z</time>
      </trkpt>
      <trkpt lat="49.21397" lon="1.61287">
        <ele>146</ele>
        <time>2014-09-28T08:54:56.000Z</time>
      </trkpt>
      <trkpt lat="49.21395" lon="1.613">
        <ele>146</ele>
        <time>2014-09-28T08:54:58.000Z</time>
      </trkpt>
      <trkpt lat="49.21392" lon="1.61312">
        <ele>146</ele>
        <time>2014-09-28T08:55:00.000Z</time>
      </trkpt>
      <trkpt lat="49.2139" lon="1.61324">
        <ele>146</ele>
        <time>2014-09-28T08:55:02.000Z</time>
      </trkpt>
      <trkpt lat="49.21387" lon="1.61336">
        <ele>146</ele>
        <time>2014-09-28T08:55:04.000Z</time>
      </trkpt>
      <trkpt lat="49.21385" lon="1.61347">
        <ele>146</ele>
        <time>2014-09-28T08:55:06.000Z</time>
      </trkpt>
      <trkpt lat="49.21383" lon="1.61358">
        <ele>146</ele>
        <time>2014-09-28T08:55:08.000Z</time>
      </trkpt>
      <trkpt lat="49.2138" lon="1.61369">
        <ele>146</ele>
        <time>2014-09-28T08:55:10.000Z</time>
      </trkpt>
      <trkpt lat="49.21377" lon="1.61381">
        <ele>147</ele>
        <time>2014-09-28T08:55:12.000Z</time>
      </trkpt>
      <trkpt lat="49.21375" lon="1.61392">
        <ele>147</ele>
        <time>2014-09-28T08:55:14.000Z</time>
      </trkpt>
      <trkpt lat="49.21372" lon="1.61403">
        <ele>147</ele>
        <time>2014-09-28T08:55:16.000Z</time>
      </trkpt>
      <trkpt lat="49.21368" lon="1.61414">
        <ele>147</ele>
        <time>2014-09-28T08:55:18.000Z</time>
      </trkpt>
      <trkpt lat="49.21365" lon="1.61425">
        <ele>147</ele>
        <time>2014-09-28T08:55:20.000Z</time>
      </trkpt>
      <trkpt lat="49.21361" lon="1.61436">
        <ele>147</ele>
        <time>2014-09-28T08:55:22.000Z</time>
      </trkpt>
      <trkpt lat="49.21357" lon="1.61447">
        <ele>147</ele>
        <time>2014-09-28T08:55:24.000Z</time>
      </trkpt>
      <trkpt lat="49.21353" lon="1.61457">
        <ele>147</ele>
        <time>2014-09-28T08:55:26.000Z</time>
      </trkpt>
      <trkpt lat="49.21349" lon="1.61468">
        <ele>147</ele>
        <time>2014-09-28T08:55:28.000Z</time>
      </trkpt>
      <trkpt lat="49.21345" lon="1.61479">
        <ele>147</ele>
        <time>2014-09-28T08:55:30.000Z</time>
      </trkpt>
      <trkpt lat="49.2134" lon="1.6149">
        <ele>147</ele>
        <time>2014-09-28T08:55:32.000Z</time>
      </trkpt>
      <trkpt lat="49.21336" lon="1.615">
        <ele>147</ele>
        <time>2014-09-28T08:55:34.000Z</time>
      </trkpt>
      <trkpt lat="49.21331" lon="1.6151">
        <ele>147</ele>
        <time>2014-09-28T08:55:36.000Z</time>
      </trkpt>
      <trkpt lat="49.21327" lon="1.6152">
        <ele>147</ele>
        <time>2014-09-28T08:55:38.000Z</time>
      </trkpt>
      <trkpt lat="49.21322" lon="1.61531">
        <ele>147</ele>
        <time>2014-09-28T08:55:40.000Z</time>
      </trkpt>
      <trkpt lat="49.21318" lon="1.61541">
        <ele>147</ele>
        <time>2014-09-28T08:55:42.000Z</time>
      </trkpt>
      <trkpt lat="49.21313" lon="1.61552">
        <ele>147</ele>
        <time>2014-09-28T08:55:44.000Z</time>
      </trkpt>
      <trkpt lat="49.21309" lon="1.61562">
        <ele>147</ele>
        <time>2014-09-28T08:55:46.000Z</time>
      </trkpt>
      <trkpt lat="49.21305" lon="1.61572">
        <ele>147</ele>
        <time>2014-09-28T08:55:48.000Z</time>
      </trkpt>
      <trkpt lat="49.21302" lon="1.61583">
        <ele>147</ele>
        <time>2014-09-28T08:55:50.000Z</time>
      </trkpt>
      <trkpt lat="49.21297" lon="1.61594">
        <ele>147</ele>
        <time>2014-09-28T08:55:52.000Z</time>
      </trkpt>
      <trkpt lat="49.21294" lon="1.61605">
        <ele>148</ele>
        <time>2014-09-28T08:55:54.000Z</time>
      </trkpt>
      <trkpt lat="49.2129" lon="1.61615">
        <ele>148</ele>
        <time>2014-09-28T08:55:56.000Z</time>
      </trkpt>
      <trkpt lat="49.21287" lon="1.61626">
        <ele>148</ele>
        <time>2014-09-28T08:55:58.000Z</time>
      </trkpt>
      <trkpt lat="49.21284" lon="1.61637">
        <ele>147</ele>
        <time>2014-09-28T08:56:00.000Z</time>
      </trkpt>
      <trkpt lat="49.2128" lon="1.61649">
        <ele>147</ele>
        <time>2014-09-28T08:56:02.000Z</time>
      </trkpt>
      <trkpt lat="49.21277" lon="1.61661">
        <ele>148</ele>
        <time>2014-09-28T08:56:04.000Z</time>
      </trkpt>
      <trkpt lat="49.21273" lon="1.61673">
        <ele>148</ele>
        <time>2014-09-28T08:56:06.000Z</time>
      </trkpt>
      <trkpt lat="49.2127" lon="1.61685">
        <ele>148</ele>
        <time>2014-09-28T08:56:08.000Z</time>
      </trkpt>
      <trkpt lat="49.21265" lon="1.61697">
        <ele>148</ele>
        <time>2014-09-28T08:56:10.000Z</time>
      </trkpt>
      <trkpt lat="49.21262" lon="1.6171">
        <ele>148</ele>
        <time>2014-09-28T08:56:12.000Z</time>
      </trkpt>
      <trkpt lat="49.21258" lon="1.61724">
        <ele>148</ele>
        <time>2014-09-28T08:56:14.000Z</time>
      </trkpt>
      <trkpt lat="49.21254" lon="1.61737">
        <ele>148</ele>
        <time>2014-09-28T08:56:16.000Z</time>
      </trkpt>
      <trkpt lat="49.2125" lon="1.6175">
        <ele>148</ele>
        <time>2014-09-28T08:56:18.000Z</time>
      </trkpt>
      <trkpt lat="49.21246" lon="1.61762">
        <ele>148</ele>
        <time>2014-09-28T08:56:20.000Z</time>
      </trkpt>
      <trkpt lat="49.21242" lon="1.61774">
        <ele>148</ele>
        <time>2014-09-28T08:56:23.000Z</time>
      </trkpt>
      <trkpt lat="49.21239" lon="1.61787">
        <ele>148</ele>
        <time>2014-09-28T08:56:24.000Z</time>
      </trkpt>
      <trkpt lat="49.21236" lon="1.61799">
        <ele>148</ele>
        <time>2014-09-28T08:56:26.000Z</time>
      </trkpt>
      <trkpt lat="49.21231" lon="1.61811">
        <ele>148</ele>
        <time>2014-09-28T08:56:28.000Z</time>
      </trkpt>
      <trkpt lat="49.21227" lon="1.61823">
        <ele>148</ele>
        <time>2014-09-28T08:56:30.000Z</time>
      </trkpt>
      <trkpt lat="49.21222" lon="1.61835">
        <ele>148</ele>
        <time>2014-09-28T08:56:32.000Z</time>
      </trkpt>
      <trkpt lat="49.21217" lon="1.61848">
        <ele>148</ele>
        <time>2014-09-28T08:56:34.000Z</time>
      </trkpt>
      <trkpt lat="49.21212" lon="1.6186">
        <ele>148</ele>
        <time>2014-09-28T08:56:36.000Z</time>
      </trkpt>
      <trkpt lat="49.21207" lon="1.61872">
        <ele>148</ele>
        <time>2014-09-28T08:56:38.000Z</time>
      </trkpt>
      <trkpt lat="49.21201" lon="1.61884">
        <ele>148</ele>
        <time>2014-09-28T08:56:40.000Z</time>
      </trkpt>
      <trkpt lat="49.21196" lon="1.61896">
        <ele>148</ele>
        <time>2014-09-28T08:56:42.000Z</time>
      </trkpt>
      <trkpt lat="49.21191" lon="1.61908">
        <ele>148</ele>
        <time>2014-09-28T08:56:44.000Z</time>
      </trkpt>
      <trkpt lat="49.21187" lon="1.6192">
        <ele>148</ele>
        <time>2014-09-28T08:56:46.000Z</time>
      </trkpt>
      <trkpt lat="49.21182" lon="1.61931">
        <ele>148</ele>
        <time>2014-09-28T08:56:48.000Z</time>
      </trkpt>
      <trkpt lat="49.21177" lon="1.61942">
        <ele>148</ele>
        <time>2014-09-28T08:56:50.000Z</time>
      </trkpt>
      <trkpt lat="49.21174" lon="1.61951">
        <ele>148</ele>
        <time>2014-09-28T08:56:52.000Z</time>
      </trkpt>
      <trkpt lat="49.21174" lon="1.61951">
        <ele>148</ele>
        <time>2014-09-28T08:56:54.000Z</time>
      </trkpt>
      <trkpt lat="49.21168" lon="1.61967">
        <ele>149</ele>
        <time>2014-09-28T08:56:56.000Z</time>
      </trkpt>
      <trkpt lat="49.21164" lon="1.61976">
        <ele>149</ele>
        <time>2014-09-28T08:56:59.000Z</time>
      </trkpt>
      <trkpt lat="49.21164" lon="1.61976">
        <ele>149</ele>
        <time>2014-09-28T08:57:00.000Z</time>
      </trkpt>
      <trkpt lat="49.2116" lon="1.61989">
        <ele>149</ele>
        <time>2014-09-28T08:57:02.000Z</time>
      </trkpt>
      <trkpt lat="49.2116" lon="1.61989">
        <ele>149</ele>
        <time>2014-09-28T08:57:04.000Z</time>
      </trkpt>
      <trkpt lat="49.21156" lon="1.62002">
        <ele>149</ele>
        <time>2014-09-28T08:57:06.000Z</time>
      </trkpt>
      <trkpt lat="49.2115" lon="1.62016">
        <ele>149</ele>
        <time>2014-09-28T08:57:10.000Z</time>
      </trkpt>
      <trkpt lat="49.21143" lon="1.62029">
        <ele>149</ele>
        <time>2014-09-28T08:57:14.000Z</time>
      </trkpt>
      <trkpt lat="49.21141" lon="1.62037">
        <ele>149</ele>
        <time>2014-09-28T08:57:16.000Z</time>
      </trkpt>
      <trkpt lat="49.21138" lon="1.62046">
        <ele>149</ele>
        <time>2014-09-28T08:57:18.000Z</time>
      </trkpt>
      <trkpt lat="49.21134" lon="1.62053">
        <ele>148</ele>
        <time>2014-09-28T08:57:20.000Z</time>
      </trkpt>
      <trkpt lat="49.2113" lon="1.6206">
        <ele>148</ele>
        <time>2014-09-28T08:57:22.000Z</time>
      </trkpt>
      <trkpt lat="49.2113" lon="1.6206">
        <ele>148</ele>
        <time>2014-09-28T08:57:24.000Z</time>
      </trkpt>
      <trkpt lat="49.21123" lon="1.62074">
        <ele>148</ele>
        <time>2014-09-28T08:57:26.000Z</time>
      </trkpt>
      <trkpt lat="49.2112" lon="1.62083">
        <ele>148</ele>
        <time>2014-09-28T08:57:28.000Z</time>
      </trkpt>
      <trkpt lat="49.21115" lon="1.62092">
        <ele>148</ele>
        <time>2014-09-28T08:57:30.000Z</time>
      </trkpt>
      <trkpt lat="49.21111" lon="1.62101">
        <ele>149</ele>
        <time>2014-09-28T08:57:32.000Z</time>
      </trkpt>
      <trkpt lat="49.21107" lon="1.6211">
        <ele>149</ele>
        <time>2014-09-28T08:57:34.000Z</time>
      </trkpt>
      <trkpt lat="49.21103" lon="1.62118">
        <ele>148</ele>
        <time>2014-09-28T08:57:36.000Z</time>
      </trkpt>
      <trkpt lat="49.211" lon="1.62127">
        <ele>148</ele>
        <time>2014-09-28T08:57:38.000Z</time>
      </trkpt>
      <trkpt lat="49.21097" lon="1.62135">
        <ele>148</ele>
        <time>2014-09-28T08:57:40.000Z</time>
      </trkpt>
      <trkpt lat="49.21093" lon="1.62143">
        <ele>148</ele>
        <time>2014-09-28T08:57:42.000Z</time>
      </trkpt>
      <trkpt lat="49.21089" lon="1.62152">
        <ele>148</ele>
        <time>2014-09-28T08:57:44.000Z</time>
      </trkpt>
      <trkpt lat="49.21085" lon="1.62162">
        <ele>148</ele>
        <time>2014-09-28T08:57:46.000Z</time>
      </trkpt>
      <trkpt lat="49.21082" lon="1.62172">
        <ele>148</ele>
        <time>2014-09-28T08:57:48.000Z</time>
      </trkpt>
      <trkpt lat="49.21078" lon="1.62179">
        <ele>148</ele>
        <time>2014-09-28T08:57:50.000Z</time>
      </trkpt>
      <trkpt lat="49.21075" lon="1.62188">
        <ele>148</ele>
        <time>2014-09-28T08:57:52.000Z</time>
      </trkpt>
      <trkpt lat="49.21071" lon="1.62196">
        <ele>148</ele>
        <time>2014-09-28T08:57:54.000Z</time>
      </trkpt>
      <trkpt lat="49.21066" lon="1.62204">
        <ele>148</ele>
        <time>2014-09-28T08:57:56.000Z</time>
      </trkpt>
      <trkpt lat="49.21061" lon="1.62212">
        <ele>148</ele>
        <time>2014-09-28T08:57:58.000Z</time>
      </trkpt>
      <trkpt lat="49.21057" lon="1.62222">
        <ele>148</ele>
        <time>2014-09-28T08:58:00.000Z</time>
      </trkpt>
      <trkpt lat="49.21052" lon="1.62231">
        <ele>148</ele>
        <time>2014-09-28T08:58:02.000Z</time>
      </trkpt>
      <trkpt lat="49.21048" lon="1.6224">
        <ele>148</ele>
        <time>2014-09-28T08:58:04.000Z</time>
      </trkpt>
      <trkpt lat="49.21043" lon="1.62248">
        <ele>148</ele>
        <time>2014-09-28T08:58:06.000Z</time>
      </trkpt>
      <trkpt lat="49.21039" lon="1.62256">
        <ele>148</ele>
        <time>2014-09-28T08:58:08.000Z</time>
      </trkpt>
      <trkpt lat="49.21035" lon="1.62263">
        <ele>148</ele>
        <time>2014-09-28T08:58:10.000Z</time>
      </trkpt>
      <trkpt lat="49.21031" lon="1.6227">
        <ele>149</ele>
        <time>2014-09-28T08:58:12.000Z</time>
      </trkpt>
      <trkpt lat="49.21028" lon="1.62279">
        <ele>149</ele>
        <time>2014-09-28T08:58:14.000Z</time>
      </trkpt>
      <trkpt lat="49.21027" lon="1.62288">
        <ele>149</ele>
        <time>2014-09-28T08:58:16.000Z</time>
      </trkpt>
      <trkpt lat="49.21031" lon="1.62298">
        <ele>149</ele>
        <time>2014-09-28T08:58:18.000Z</time>
      </trkpt>
      <trkpt lat="49.21037" lon="1.62307">
        <ele>149</ele>
        <time>2014-09-28T08:58:20.000Z</time>
      </trkpt>
      <trkpt lat="49.21043" lon="1.62315">
        <ele>148</ele>
        <time>2014-09-28T08:58:22.000Z</time>
      </trkpt>
      <trkpt lat="49.2105" lon="1.62324">
        <ele>148</ele>
        <time>2014-09-28T08:58:24.000Z</time>
      </trkpt>
      <trkpt lat="49.21056" lon="1.62333">
        <ele>148</ele>
        <time>2014-09-28T08:58:26.000Z</time>
      </trkpt>
      <trkpt lat="49.21062" lon="1.62341">
        <ele>148</ele>
        <time>2014-09-28T08:58:28.000Z</time>
      </trkpt>
      <trkpt lat="49.21068" lon="1.62349">
        <ele>148</ele>
        <time>2014-09-28T08:58:30.000Z</time>
      </trkpt>
      <trkpt lat="49.21074" lon="1.62357">
        <ele>148</ele>
        <time>2014-09-28T08:58:32.000Z</time>
      </trkpt>
      <trkpt lat="49.21079" lon="1.62364">
        <ele>148</ele>
        <time>2014-09-28T08:58:34.000Z</time>
      </trkpt>
      <trkpt lat="49.21085" lon="1.62372">
        <ele>148</ele>
        <time>2014-09-28T08:58:36.000Z</time>
      </trkpt>
      <trkpt lat="49.21091" lon="1.6238">
        <ele>148</ele>
        <time>2014-09-28T08:58:38.000Z</time>
      </trkpt>
      <trkpt lat="49.21097" lon="1.62389">
        <ele>148</ele>
        <time>2014-09-28T08:58:40.000Z</time>
      </trkpt>
      <trkpt lat="49.21103" lon="1.62397">
        <ele>148</ele>
        <time>2014-09-28T08:58:42.000Z</time>
      </trkpt>
      <trkpt lat="49.21109" lon="1.62406">
        <ele>148</ele>
        <time>2014-09-28T08:58:44.000Z</time>
      </trkpt>
      <trkpt lat="49.21116" lon="1.62414">
        <ele>148</ele>
        <time>2014-09-28T08:58:46.000Z</time>
      </trkpt>
      <trkpt lat="49.21122" lon="1.62422">
        <ele>148</ele>
        <time>2014-09-28T08:58:48.000Z</time>
      </trkpt>
      <trkpt lat="49.21128" lon="1.6243">
        <ele>148</ele>
        <time>2014-09-28T08:58:50.000Z</time>
      </trkpt>
      <trkpt lat="49.21134" lon="1.62437">
        <ele>148</ele>
        <time>2014-09-28T08:58:52.000Z</time>
      </trkpt>
      <trkpt lat="49.2114" lon="1.62444">
        <ele>148</ele>
        <time>2014-09-28T08:58:54.000Z</time>
      </trkpt>
      <trkpt lat="49.21145" lon="1.62451">
        <ele>149</ele>
        <time>2014-09-28T08:58:56.000Z</time>
      </trkpt>
      <trkpt lat="49.21151" lon="1.62459">
        <ele>149</ele>
        <time>2014-09-28T08:58:58.000Z</time>
      </trkpt>
      <trkpt lat="49.21157" lon="1.62468">
        <ele>149</ele>
        <time>2014-09-28T08:59:00.000Z</time>
      </trkpt>
      <trkpt lat="49.21162" lon="1.62476">
        <ele>149</ele>
        <time>2014-09-28T08:59:02.000Z</time>
      </trkpt>
      <trkpt lat="49.21167" lon="1.62483">
        <ele>149</ele>
        <time>2014-09-28T08:59:04.000Z</time>
      </trkpt>
      <trkpt lat="49.21167" lon="1.62483">
        <ele>149</ele>
        <time>2014-09-28T08:59:06.000Z</time>
      </trkpt>
      <trkpt lat="49.21173" lon="1.62498">
        <ele>150</ele>
        <time>2014-09-28T08:59:08.000Z</time>
      </trkpt>
      <trkpt lat="49.21178" lon="1.62505">
        <ele>150</ele>
        <time>2014-09-28T08:59:10.000Z</time>
      </trkpt>
      <trkpt lat="49.21184" lon="1.62512">
        <ele>150</ele>
        <time>2014-09-28T08:59:12.000Z</time>
      </trkpt>
      <trkpt lat="49.21189" lon="1.62519">
        <ele>151</ele>
        <time>2014-09-28T08:59:14.000Z</time>
      </trkpt>
      <trkpt lat="49.21193" lon="1.62527">
        <ele>151</ele>
        <time>2014-09-28T08:59:16.000Z</time>
      </trkpt>
      <trkpt lat="49.21198" lon="1.62534">
        <ele>151</ele>
        <time>2014-09-28T08:59:18.000Z</time>
      </trkpt>
      <trkpt lat="49.21202" lon="1.62542">
        <ele>151</ele>
        <time>2014-09-28T08:59:20.000Z</time>
      </trkpt>
      <trkpt lat="49.21207" lon="1.62549">
        <ele>152</ele>
        <time>2014-09-28T08:59:22.000Z</time>
      </trkpt>
      <trkpt lat="49.21212" lon="1.62557">
        <ele>152</ele>
        <time>2014-09-28T08:59:24.000Z</time>
      </trkpt>
      <trkpt lat="49.21217" lon="1.62566">
        <ele>152</ele>
        <time>2014-09-28T08:59:26.000Z</time>
      </trkpt>
      <trkpt lat="49.21222" lon="1.62574">
        <ele>152</ele>
        <time>2014-09-28T08:59:28.000Z</time>
      </trkpt>
      <trkpt lat="49.21227" lon="1.62582">
        <ele>153</ele>
        <time>2014-09-28T08:59:30.000Z</time>
      </trkpt>
      <trkpt lat="49.21231" lon="1.6259">
        <ele>153</ele>
        <time>2014-09-28T08:59:32.000Z</time>
      </trkpt>
      <trkpt lat="49.21236" lon="1.62598">
        <ele>153</ele>
        <time>2014-09-28T08:59:34.000Z</time>
      </trkpt>
      <trkpt lat="49.21242" lon="1.62607">
        <ele>153</ele>
        <time>2014-09-28T08:59:36.000Z</time>
      </trkpt>
      <trkpt lat="49.21247" lon="1.62615">
        <ele>153</ele>
        <time>2014-09-28T08:59:38.000Z</time>
      </trkpt>
      <trkpt lat="49.21252" lon="1.62623">
        <ele>153</ele>
        <time>2014-09-28T08:59:40.000Z</time>
      </trkpt>
      <trkpt lat="49.21257" lon="1.62632">
        <ele>154</ele>
        <time>2014-09-28T08:59:42.000Z</time>
      </trkpt>
      <trkpt lat="49.21262" lon="1.62641">
        <ele>154</ele>
        <time>2014-09-28T08:59:44.000Z</time>
      </trkpt>
      <trkpt lat="49.21268" lon="1.62648">
        <ele>154</ele>
        <time>2014-09-28T08:59:46.000Z</time>
      </trkpt>
      <trkpt lat="49.21274" lon="1.62657">
        <ele>154</ele>
        <time>2014-09-28T08:59:48.000Z</time>
      </trkpt>
      <trkpt lat="49.21279" lon="1.62666">
        <ele>154</ele>
        <time>2014-09-28T08:59:50.000Z</time>
      </trkpt>
      <trkpt lat="49.21284" lon="1.62674">
        <ele>155</ele>
        <time>2014-09-28T08:59:52.000Z</time>
      </trkpt>
      <trkpt lat="49.2129" lon="1.62683">
        <ele>155</ele>
        <time>2014-09-28T08:59:54.000Z</time>
      </trkpt>
      <trkpt lat="49.21295" lon="1.62691">
        <ele>155</ele>
        <time>2014-09-28T08:59:56.000Z</time>
      </trkpt>
      <trkpt lat="49.213" lon="1.62698">
        <ele>155</ele>
        <time>2014-09-28T08:59:58.000Z</time>
      </trkpt>
      <trkpt lat="49.21306" lon="1.62706">
        <ele>155</ele>
        <time>2014-09-28T09:00:00.000Z</time>
      </trkpt>
      <trkpt lat="49.21311" lon="1.62715">
        <ele>155</ele>
        <time>2014-09-28T09:00:02.000Z</time>
      </trkpt>
      <trkpt lat="49.21317" lon="1.62723">
        <ele>155</ele>
        <time>2014-09-28T09:00:04.000Z</time>
      </trkpt>
      <trkpt lat="49.21321" lon="1.6273">
        <ele>155</ele>
        <time>2014-09-28T09:00:06.000Z</time>
      </trkpt>
      <trkpt lat="49.21326" lon="1.62738">
        <ele>155</ele>
        <time>2014-09-28T09:00:08.000Z</time>
      </trkpt>
      <trkpt lat="49.21331" lon="1.62745">
        <ele>155</ele>
        <time>2014-09-28T09:00:10.000Z</time>
      </trkpt>
      <trkpt lat="49.21335" lon="1.62753">
        <ele>154</ele>
        <time>2014-09-28T09:00:12.000Z</time>
      </trkpt>
      <trkpt lat="49.21341" lon="1.6276">
        <ele>154</ele>
        <time>2014-09-28T09:00:14.000Z</time>
      </trkpt>
      <trkpt lat="49.21346" lon="1.62767">
        <ele>155</ele>
        <time>2014-09-28T09:00:16.000Z</time>
      </trkpt>
      <trkpt lat="49.21351" lon="1.62774">
        <ele>155</ele>
        <time>2014-09-28T09:00:18.000Z</time>
      </trkpt>
      <trkpt lat="49.21356" lon="1.62782">
        <ele>155</ele>
        <time>2014-09-28T09:00:20.000Z</time>
      </trkpt>
      <trkpt lat="49.21362" lon="1.62789">
        <ele>156</ele>
        <time>2014-09-28T09:00:22.000Z</time>
      </trkpt>
      <trkpt lat="49.21367" lon="1.62797">
        <ele>156</ele>
        <time>2014-09-28T09:00:24.000Z</time>
      </trkpt>
      <trkpt lat="49.21373" lon="1.62804">
        <ele>156</ele>
        <time>2014-09-28T09:00:26.000Z</time>
      </trkpt>
      <trkpt lat="49.21378" lon="1.62812">
        <ele>157</ele>
        <time>2014-09-28T09:00:28.000Z</time>
      </trkpt>
      <trkpt lat="49.21384" lon="1.62819">
        <ele>157</ele>
        <time>2014-09-28T09:00:30.000Z</time>
      </trkpt>
      <trkpt lat="49.2139" lon="1.62826">
        <ele>157</ele>
        <time>2014-09-28T09:00:32.000Z</time>
      </trkpt>
      <trkpt lat="49.21396" lon="1.62833">
        <ele>158</ele>
        <time>2014-09-28T09:00:34.000Z</time>
      </trkpt>
      <trkpt lat="49.21401" lon="1.6284">
        <ele>157</ele>
        <time>2014-09-28T09:00:36.000Z</time>
      </trkpt>
      <trkpt lat="49.21407" lon="1.62847">
        <ele>158</ele>
        <time>2014-09-28T09:00:38.000Z</time>
      </trkpt>
      <trkpt lat="49.21412" lon="1.62853">
        <ele>158</ele>
        <time>2014-09-28T09:00:40.000Z</time>
      </trkpt>
      <trkpt lat="49.21418" lon="1.62861">
        <ele>158</ele>
        <time>2014-09-28T09:00:42.000Z</time>
      </trkpt>
      <trkpt lat="49.21424" lon="1.62868">
        <ele>158</ele>
        <time>2014-09-28T09:00:44.000Z</time>
      </trkpt>
      <trkpt lat="49.2143" lon="1.62875">
        <ele>158</ele>
        <time>2014-09-28T09:00:46.000Z</time>
      </trkpt>
      <trkpt lat="49.21436" lon="1.62883">
        <ele>158</ele>
        <time>2014-09-28T09:00:48.000Z</time>
      </trkpt>
      <trkpt lat="49.21442" lon="1.62889">
        <ele>158</ele>
        <time>2014-09-28T09:00:50.000Z</time>
      </trkpt>
      <trkpt lat="49.21449" lon="1.62896">
        <ele>158</ele>
        <time>2014-09-28T09:00:52.000Z</time>
      </trkpt>
      <trkpt lat="49.21455" lon="1.62903">
        <ele>158</ele>
        <time>2014-09-28T09:00:54.000Z</time>
      </trkpt>
      <trkpt lat="49.21461" lon="1.62911">
        <ele>158</ele>
        <time>2014-09-28T09:00:56.000Z</time>
      </trkpt>
      <trkpt lat="49.21468" lon="1.62918">
        <ele>158</ele>
        <time>2014-09-28T09:00:58.000Z</time>
      </trkpt>
      <trkpt lat="49.21474" lon="1.62925">
        <ele>158</ele>
        <time>2014-09-28T09:01:00.000Z</time>
      </trkpt>
      <trkpt lat="49.2148" lon="1.62933">
        <ele>158</ele>
        <time>2014-09-28T09:01:02.000Z</time>
      </trkpt>
      <trkpt lat="49.21487" lon="1.62941">
        <ele>158</ele>
        <time>2014-09-28T09:01:04.000Z</time>
      </trkpt>
      <trkpt lat="49.21493" lon="1.62948">
        <ele>158</ele>
        <time>2014-09-28T09:01:06.000Z</time>
      </trkpt>
      <trkpt lat="49.215" lon="1.62955">
        <ele>158</ele>
        <time>2014-09-28T09:01:08.000Z</time>
      </trkpt>
      <trkpt lat="49.21506" lon="1.62963">
        <ele>158</ele>
        <time>2014-09-28T09:01:10.000Z</time>
      </trkpt>
      <trkpt lat="49.21511" lon="1.62971">
        <ele>157</ele>
        <time>2014-09-28T09:01:12.000Z</time>
      </trkpt>
      <trkpt lat="49.21517" lon="1.62978">
        <ele>157</ele>
        <time>2014-09-28T09:01:14.000Z</time>
      </trkpt>
      <trkpt lat="49.21522" lon="1.62984">
        <ele>157</ele>
        <time>2014-09-28T09:01:16.000Z</time>
      </trkpt>
      <trkpt lat="49.21527" lon="1.6299">
        <ele>157</ele>
        <time>2014-09-28T09:01:18.000Z</time>
      </trkpt>
      <trkpt lat="49.21532" lon="1.62996">
        <ele>157</ele>
        <time>2014-09-28T09:01:20.000Z</time>
      </trkpt>
      <trkpt lat="49.21537" lon="1.63003">
        <ele>157</ele>
        <time>2014-09-28T09:01:22.000Z</time>
      </trkpt>
      <trkpt lat="49.21543" lon="1.63009">
        <ele>157</ele>
        <time>2014-09-28T09:01:24.000Z</time>
      </trkpt>
      <trkpt lat="49.21549" lon="1.63014">
        <ele>157</ele>
        <time>2014-09-28T09:01:26.000Z</time>
      </trkpt>
      <trkpt lat="49.21555" lon="1.63019">
        <ele>157</ele>
        <time>2014-09-28T09:01:28.000Z</time>
      </trkpt>
      <trkpt lat="49.21559" lon="1.63025">
        <ele>157</ele>
        <time>2014-09-28T09:01:30.000Z</time>
      </trkpt>
      <trkpt lat="49.21563" lon="1.63032">
        <ele>157</ele>
        <time>2014-09-28T09:01:32.000Z</time>
      </trkpt>
      <trkpt lat="49.21568" lon="1.63039">
        <ele>157</ele>
        <time>2014-09-28T09:01:34.000Z</time>
      </trkpt>
      <trkpt lat="49.21573" lon="1.63046">
        <ele>157</ele>
        <time>2014-09-28T09:01:36.000Z</time>
      </trkpt>
      <trkpt lat="49.21579" lon="1.63054">
        <ele>157</ele>
        <time>2014-09-28T09:01:38.000Z</time>
      </trkpt>
      <trkpt lat="49.21584" lon="1.63062">
        <ele>157</ele>
        <time>2014-09-28T09:01:40.000Z</time>
      </trkpt>
      <trkpt lat="49.2159" lon="1.6307">
        <ele>158</ele>
        <time>2014-09-28T09:01:42.000Z</time>
      </trkpt>
      <trkpt lat="49.21596" lon="1.63077">
        <ele>158</ele>
        <time>2014-09-28T09:01:44.000Z</time>
      </trkpt>
      <trkpt lat="49.21602" lon="1.63085">
        <ele>158</ele>
        <time>2014-09-28T09:01:46.000Z</time>
      </trkpt>
      <trkpt lat="49.21608" lon="1.63094">
        <ele>158</ele>
        <time>2014-09-28T09:01:48.000Z</time>
      </trkpt>
      <trkpt lat="49.21615" lon="1.63103">
        <ele>158</ele>
        <time>2014-09-28T09:01:50.000Z</time>
      </trkpt>
      <trkpt lat="49.21621" lon="1.63111">
        <ele>158</ele>
        <time>2014-09-28T09:01:52.000Z</time>
      </trkpt>
      <trkpt lat="49.21628" lon="1.6312">
        <ele>159</ele>
        <time>2014-09-28T09:01:54.000Z</time>
      </trkpt>
      <trkpt lat="49.21634" lon="1.63129">
        <ele>159</ele>
        <time>2014-09-28T09:01:56.000Z</time>
      </trkpt>
      <trkpt lat="49.2164" lon="1.63138">
        <ele>159</ele>
        <time>2014-09-28T09:01:58.000Z</time>
      </trkpt>
      <trkpt lat="49.21646" lon="1.63146">
        <ele>159</ele>
        <time>2014-09-28T09:02:00.000Z</time>
      </trkpt>
      <trkpt lat="49.21653" lon="1.63155">
        <ele>159</ele>
        <time>2014-09-28T09:02:02.000Z</time>
      </trkpt>
      <trkpt lat="49.21659" lon="1.63163">
        <ele>159</ele>
        <time>2014-09-28T09:02:04.000Z</time>
      </trkpt>
      <trkpt lat="49.21665" lon="1.63172">
        <ele>159</ele>
        <time>2014-09-28T09:02:06.000Z</time>
      </trkpt>
      <trkpt lat="49.21672" lon="1.63181">
        <ele>159</ele>
        <time>2014-09-28T09:02:08.000Z</time>
      </trkpt>
      <trkpt lat="49.21678" lon="1.6319">
        <ele>160</ele>
        <time>2014-09-28T09:02:10.000Z</time>
      </trkpt>
      <trkpt lat="49.21685" lon="1.63199">
        <ele>160</ele>
        <time>2014-09-28T09:02:12.000Z</time>
      </trkpt>
      <trkpt lat="49.21691" lon="1.63208">
        <ele>160</ele>
        <time>2014-09-28T09:02:14.000Z</time>
      </trkpt>
      <trkpt lat="49.21698" lon="1.63217">
        <ele>160</ele>
        <time>2014-09-28T09:02:16.000Z</time>
      </trkpt>
      <trkpt lat="49.21704" lon="1.63226">
        <ele>160</ele>
        <time>2014-09-28T09:02:18.000Z</time>
      </trkpt>
      <trkpt lat="49.2171" lon="1.63236">
        <ele>161</ele>
        <time>2014-09-28T09:02:20.000Z</time>
      </trkpt>
      <trkpt lat="49.21717" lon="1.63245">
        <ele>161</ele>
        <time>2014-09-28T09:02:22.000Z</time>
      </trkpt>
      <trkpt lat="49.21723" lon="1.63254">
        <ele>161</ele>
        <time>2014-09-28T09:02:24.000Z</time>
      </trkpt>
      <trkpt lat="49.2173" lon="1.63263">
        <ele>162</ele>
        <time>2014-09-28T09:02:26.000Z</time>
      </trkpt>
      <trkpt lat="49.21736" lon="1.63272">
        <ele>162</ele>
        <time>2014-09-28T09:02:28.000Z</time>
      </trkpt>
      <trkpt lat="49.21742" lon="1.63282">
        <ele>161</ele>
        <time>2014-09-28T09:02:30.000Z</time>
      </trkpt>
      <trkpt lat="49.21748" lon="1.6329">
        <ele>161</ele>
        <time>2014-09-28T09:02:32.000Z</time>
      </trkpt>
      <trkpt lat="49.21755" lon="1.63299">
        <ele>161</ele>
        <time>2014-09-28T09:02:34.000Z</time>
      </trkpt>
      <trkpt lat="49.21761" lon="1.63307">
        <ele>161</ele>
        <time>2014-09-28T09:02:36.000Z</time>
      </trkpt>
      <trkpt lat="49.21768" lon="1.63315">
        <ele>162</ele>
        <time>2014-09-28T09:02:38.000Z</time>
      </trkpt>
      <trkpt lat="49.21775" lon="1.63323">
        <ele>162</ele>
        <time>2014-09-28T09:02:40.000Z</time>
      </trkpt>
      <trkpt lat="49.21783" lon="1.63329">
        <ele>163</ele>
        <time>2014-09-28T09:02:42.000Z</time>
      </trkpt>
      <trkpt lat="49.2179" lon="1.63336">
        <ele>163</ele>
        <time>2014-09-28T09:02:44.000Z</time>
      </trkpt>
      <trkpt lat="49.21798" lon="1.63342">
        <ele>163</ele>
        <time>2014-09-28T09:02:46.000Z</time>
      </trkpt>
      <trkpt lat="49.21805" lon="1.63347">
        <ele>163</ele>
        <time>2014-09-28T09:02:48.000Z</time>
      </trkpt>
      <trkpt lat="49.21812" lon="1.63352">
        <ele>163</ele>
        <time>2014-09-28T09:02:50.000Z</time>
      </trkpt>
      <trkpt lat="49.21819" lon="1.63356">
        <ele>163</ele>
        <time>2014-09-28T09:02:52.000Z</time>
      </trkpt>
      <trkpt lat="49.21826" lon="1.63361">
        <ele>163</ele>
        <time>2014-09-28T09:02:54.000Z</time>
      </trkpt>
      <trkpt lat="49.21833" lon="1.63364">
        <ele>163</ele>
        <time>2014-09-28T09:02:56.000Z</time>
      </trkpt>
      <trkpt lat="49.21839" lon="1.63368">
        <ele>164</ele>
        <time>2014-09-28T09:02:59.000Z</time>
      </trkpt>
      <trkpt lat="49.21845" lon="1.63373">
        <ele>164</ele>
        <time>2014-09-28T09:03:00.000Z</time>
      </trkpt>
      <trkpt lat="49.21851" lon="1.63378">
        <ele>164</ele>
        <time>2014-09-28T09:03:02.000Z</time>
      </trkpt>
      <trkpt lat="49.21857" lon="1.63385">
        <ele>164</ele>
        <time>2014-09-28T09:03:04.000Z</time>
      </trkpt>
      <trkpt lat="49.21862" lon="1.63391">
        <ele>164</ele>
        <time>2014-09-28T09:03:06.000Z</time>
      </trkpt>
      <trkpt lat="49.21867" lon="1.63398">
        <ele>165</ele>
        <time>2014-09-28T09:03:08.000Z</time>
      </trkpt>
      <trkpt lat="49.21867" lon="1.63398">
        <ele>165</ele>
        <time>2014-09-28T09:03:10.000Z</time>
      </trkpt>
      <trkpt lat="49.21874" lon="1.63411">
        <ele>167</ele>
        <time>2014-09-28T09:03:12.000Z</time>
      </trkpt>
      <trkpt lat="49.21874" lon="1.63411">
        <ele>167</ele>
        <time>2014-09-28T09:03:14.000Z</time>
      </trkpt>
      <trkpt lat="49.21878" lon="1.63424">
        <ele>168</ele>
        <time>2014-09-28T09:03:16.000Z</time>
      </trkpt>
      <trkpt lat="49.21878" lon="1.63424">
        <ele>168</ele>
        <time>2014-09-28T09:03:18.000Z</time>
      </trkpt>
      <trkpt lat="49.21882" lon="1.63437">
        <ele>169</ele>
        <time>2014-09-28T09:03:20.000Z</time>
      </trkpt>
      <trkpt lat="49.21882" lon="1.63437">
        <ele>169</ele>
        <time>2014-09-28T09:03:22.000Z</time>
      </trkpt>
      <trkpt lat="49.21887" lon="1.63448">
        <ele>170</ele>
        <time>2014-09-28T09:03:24.000Z</time>
      </trkpt>
      <trkpt lat="49.21887" lon="1.63448">
        <ele>170</ele>
        <time>2014-09-28T09:03:26.000Z</time>
      </trkpt>
      <trkpt lat="49.21891" lon="1.63461">
        <ele>172</ele>
        <time>2014-09-28T09:03:28.000Z</time>
      </trkpt>
      <trkpt lat="49.21893" lon="1.63467">
        <ele>172</ele>
        <time>2014-09-28T09:03:32.000Z</time>
      </trkpt>
      <trkpt lat="49.21895" lon="1.63473">
        <ele>173</ele>
        <time>2014-09-28T09:03:34.000Z</time>
      </trkpt>
      <trkpt lat="49.21897" lon="1.63479">
        <ele>173</ele>
        <time>2014-09-28T09:03:36.000Z</time>
      </trkpt>
      <trkpt lat="49.21899" lon="1.63484">
        <ele>174</ele>
        <time>2014-09-28T09:03:38.000Z</time>
      </trkpt>
      <trkpt lat="49.21901" lon="1.6349">
        <ele>174</ele>
        <time>2014-09-28T09:03:40.000Z</time>
      </trkpt>
      <trkpt lat="49.21904" lon="1.635">
        <ele>175</ele>
        <time>2014-09-28T09:03:42.000Z</time>
      </trkpt>
      <trkpt lat="49.21904" lon="1.635">
        <ele>175</ele>
        <time>2014-09-28T09:03:44.000Z</time>
      </trkpt>
      <trkpt lat="49.21908" lon="1.63512">
        <ele>175</ele>
        <time>2014-09-28T09:03:46.000Z</time>
      </trkpt>
      <trkpt lat="49.21908" lon="1.63512">
        <ele>175</ele>
        <time>2014-09-28T09:03:48.000Z</time>
      </trkpt>
      <trkpt lat="49.21913" lon="1.63522">
        <ele>176</ele>
        <time>2014-09-28T09:03:50.000Z</time>
      </trkpt>
      <trkpt lat="49.21917" lon="1.63533">
        <ele>178</ele>
        <time>2014-09-28T09:03:54.000Z</time>
      </trkpt>
      <trkpt lat="49.21922" lon="1.63544">
        <ele>179</ele>
        <time>2014-09-28T09:03:58.000Z</time>
      </trkpt>
      <trkpt lat="49.21926" lon="1.63556">
        <ele>180</ele>
        <time>2014-09-28T09:04:02.000Z</time>
      </trkpt>
      <trkpt lat="49.21926" lon="1.63556">
        <ele>180</ele>
        <time>2014-09-28T09:04:04.000Z</time>
      </trkpt>
      <trkpt lat="49.21931" lon="1.63567">
        <ele>181</ele>
        <time>2014-09-28T09:04:06.000Z</time>
      </trkpt>
      <trkpt lat="49.21931" lon="1.63567">
        <ele>181</ele>
        <time>2014-09-28T09:04:08.000Z</time>
      </trkpt>
      <trkpt lat="49.21936" lon="1.63577">
        <ele>182</ele>
        <time>2014-09-28T09:04:10.000Z</time>
      </trkpt>
      <trkpt lat="49.21936" lon="1.63577">
        <ele>182</ele>
        <time>2014-09-28T09:04:12.000Z</time>
      </trkpt>
      <trkpt lat="49.21939" lon="1.63585">
        <ele>183</ele>
        <time>2014-09-28T09:04:14.000Z</time>
      </trkpt>
      <trkpt lat="49.21939" lon="1.63585">
        <ele>183</ele>
        <time>2014-09-28T09:04:16.000Z</time>
      </trkpt>
      <trkpt lat="49.21941" lon="1.63601">
        <ele>181</ele>
        <time>2014-09-28T09:06:07.000Z</time>
      </trkpt>
      <trkpt lat="49.21947" lon="1.6361">
        <ele>181</ele>
        <time>2014-09-28T09:06:11.000Z</time>
      </trkpt>
      <trkpt lat="49.21952" lon="1.63616">
        <ele>182</ele>
        <time>2014-09-28T09:06:13.000Z</time>
      </trkpt>
      <trkpt lat="49.21956" lon="1.63624">
        <ele>182</ele>
        <time>2014-09-28T09:06:15.000Z</time>
      </trkpt>
      <trkpt lat="49.2196" lon="1.63633">
        <ele>182</ele>
        <time>2014-09-28T09:06:17.000Z</time>
      </trkpt>
      <trkpt lat="49.21964" lon="1.63642">
        <ele>183</ele>
        <time>2014-09-28T09:06:19.000Z</time>
      </trkpt>
      <trkpt lat="49.21968" lon="1.63651">
        <ele>183</ele>
        <time>2014-09-28T09:06:21.000Z</time>
      </trkpt>
      <trkpt lat="49.21972" lon="1.63661">
        <ele>183</ele>
        <time>2014-09-28T09:06:23.000Z</time>
      </trkpt>
      <trkpt lat="49.21977" lon="1.63669">
        <ele>183</ele>
        <time>2014-09-28T09:06:25.000Z</time>
      </trkpt>
      <trkpt lat="49.21982" lon="1.63679">
        <ele>183</ele>
        <time>2014-09-28T09:06:27.000Z</time>
      </trkpt>
      <trkpt lat="49.21988" lon="1.63688">
        <ele>183</ele>
        <time>2014-09-28T09:06:29.000Z</time>
      </trkpt>
      <trkpt lat="49.21993" lon="1.63698">
        <ele>183</ele>
        <time>2014-09-28T09:06:31.000Z</time>
      </trkpt>
      <trkpt lat="49.21999" lon="1.63707">
        <ele>183</ele>
        <time>2014-09-28T09:06:33.000Z</time>
      </trkpt>
      <trkpt lat="49.22004" lon="1.63718">
        <ele>183</ele>
        <time>2014-09-28T09:06:35.000Z</time>
      </trkpt>
      <trkpt lat="49.2201" lon="1.63728">
        <ele>184</ele>
        <time>2014-09-28T09:06:37.000Z</time>
      </trkpt>
      <trkpt lat="49.22015" lon="1.63738">
        <ele>184</ele>
        <time>2014-09-28T09:06:39.000Z</time>
      </trkpt>
      <trkpt lat="49.22021" lon="1.63748">
        <ele>184</ele>
        <time>2014-09-28T09:06:41.000Z</time>
      </trkpt>
      <trkpt lat="49.22028" lon="1.63758">
        <ele>184</ele>
        <time>2014-09-28T09:06:43.000Z</time>
      </trkpt>
      <trkpt lat="49.22033" lon="1.63769">
        <ele>185</ele>
        <time>2014-09-28T09:06:45.000Z</time>
      </trkpt>
      <trkpt lat="49.22039" lon="1.63779">
        <ele>184</ele>
        <time>2014-09-28T09:06:47.000Z</time>
      </trkpt>
      <trkpt lat="49.22044" lon="1.6379">
        <ele>184</ele>
        <time>2014-09-28T09:06:49.000Z</time>
      </trkpt>
      <trkpt lat="49.22051" lon="1.638">
        <ele>185</ele>
        <time>2014-09-28T09:06:51.000Z</time>
      </trkpt>
      <trkpt lat="49.22056" lon="1.63811">
        <ele>185</ele>
        <time>2014-09-28T09:06:53.000Z</time>
      </trkpt>
      <trkpt lat="49.22062" lon="1.63823">
        <ele>185</ele>
        <time>2014-09-28T09:06:55.000Z</time>
      </trkpt>
      <trkpt lat="49.22068" lon="1.63834">
        <ele>185</ele>
        <time>2014-09-28T09:06:57.000Z</time>
      </trkpt>
      <trkpt lat="49.22074" lon="1.63845">
        <ele>185</ele>
        <time>2014-09-28T09:06:59.000Z</time>
      </trkpt>
      <trkpt lat="49.22079" lon="1.63856">
        <ele>185</ele>
        <time>2014-09-28T09:07:01.000Z</time>
      </trkpt>
      <trkpt lat="49.22085" lon="1.63868">
        <ele>185</ele>
        <time>2014-09-28T09:07:03.000Z</time>
      </trkpt>
      <trkpt lat="49.22091" lon="1.6388">
        <ele>185</ele>
        <time>2014-09-28T09:07:05.000Z</time>
      </trkpt>
      <trkpt lat="49.22097" lon="1.63891">
        <ele>185</ele>
        <time>2014-09-28T09:07:07.000Z</time>
      </trkpt>
      <trkpt lat="49.22103" lon="1.63901">
        <ele>184</ele>
        <time>2014-09-28T09:07:09.000Z</time>
      </trkpt>
      <trkpt lat="49.22109" lon="1.63912">
        <ele>184</ele>
        <time>2014-09-28T09:07:11.000Z</time>
      </trkpt>
      <trkpt lat="49.22115" lon="1.63923">
        <ele>184</ele>
        <time>2014-09-28T09:07:13.000Z</time>
      </trkpt>
      <trkpt lat="49.22121" lon="1.63934">
        <ele>184</ele>
        <time>2014-09-28T09:07:15.000Z</time>
      </trkpt>
      <trkpt lat="49.22128" lon="1.63945">
        <ele>184</ele>
        <time>2014-09-28T09:07:17.000Z</time>
      </trkpt>
      <trkpt lat="49.22133" lon="1.63955">
        <ele>184</ele>
        <time>2014-09-28T09:07:19.000Z</time>
      </trkpt>
      <trkpt lat="49.22139" lon="1.63965">
        <ele>184</ele>
        <time>2014-09-28T09:07:21.000Z</time>
      </trkpt>
      <trkpt lat="49.22144" lon="1.63975">
        <ele>184</ele>
        <time>2014-09-28T09:07:23.000Z</time>
      </trkpt>
      <trkpt lat="49.22149" lon="1.63984">
        <ele>184</ele>
        <time>2014-09-28T09:07:25.000Z</time>
      </trkpt>
      <trkpt lat="49.22154" lon="1.63994">
        <ele>183</ele>
        <time>2014-09-28T09:07:27.000Z</time>
      </trkpt>
      <trkpt lat="49.22159" lon="1.64003">
        <ele>183</ele>
        <time>2014-09-28T09:07:29.000Z</time>
      </trkpt>
      <trkpt lat="49.22164" lon="1.64013">
        <ele>183</ele>
        <time>2014-09-28T09:07:31.000Z</time>
      </trkpt>
      <trkpt lat="49.22169" lon="1.64022">
        <ele>183</ele>
        <time>2014-09-28T09:07:33.000Z</time>
      </trkpt>
      <trkpt lat="49.22175" lon="1.64032">
        <ele>183</ele>
        <time>2014-09-28T09:07:35.000Z</time>
      </trkpt>
      <trkpt lat="49.22181" lon="1.64042">
        <ele>183</ele>
        <time>2014-09-28T09:07:37.000Z</time>
      </trkpt>
      <trkpt lat="49.22186" lon="1.64053">
        <ele>182</ele>
        <time>2014-09-28T09:07:39.000Z</time>
      </trkpt>
      <trkpt lat="49.22193" lon="1.64065">
        <ele>182</ele>
        <time>2014-09-28T09:07:41.000Z</time>
      </trkpt>
      <trkpt lat="49.222" lon="1.64077">
        <ele>182</ele>
        <time>2014-09-28T09:07:43.000Z</time>
      </trkpt>
      <trkpt lat="49.22206" lon="1.64088">
        <ele>182</ele>
        <time>2014-09-28T09:07:45.000Z</time>
      </trkpt>
      <trkpt lat="49.22211" lon="1.64098">
        <ele>182</ele>
        <time>2014-09-28T09:07:47.000Z</time>
      </trkpt>
      <trkpt lat="49.22217" lon="1.64107">
        <ele>182</ele>
        <time>2014-09-28T09:07:49.000Z</time>
      </trkpt>
      <trkpt lat="49.22224" lon="1.64115">
        <ele>182</ele>
        <time>2014-09-28T09:07:51.000Z</time>
      </trkpt>
      <trkpt lat="49.22229" lon="1.64121">
        <ele>183</ele>
        <time>2014-09-28T09:07:53.000Z</time>
      </trkpt>
      <trkpt lat="49.22229" lon="1.64121">
        <ele>183</ele>
        <time>2014-09-28T09:07:55.000Z</time>
      </trkpt>
      <trkpt lat="49.22235" lon="1.64132">
        <ele>182</ele>
        <time>2014-09-28T09:07:57.000Z</time>
      </trkpt>
      <trkpt lat="49.22235" lon="1.64132">
        <ele>182</ele>
        <time>2014-09-28T09:07:59.000Z</time>
      </trkpt>
      <trkpt lat="49.22235" lon="1.64132">
        <ele>182</ele>
        <time>2014-09-28T09:08:01.000Z</time>
      </trkpt>
      <trkpt lat="49.22239" lon="1.64141">
        <ele>181</ele>
        <time>2014-09-28T09:08:36.000Z</time>
      </trkpt>
      <trkpt lat="49.22239" lon="1.64141">
        <ele>181</ele>
        <time>2014-09-28T09:08:38.000Z</time>
      </trkpt>
      <trkpt lat="49.22239" lon="1.64141">
        <ele>181</ele>
        <time>2014-09-28T09:08:40.000Z</time>
      </trkpt>
      <trkpt lat="49.22246" lon="1.64145">
        <ele>182</ele>
        <time>2014-09-28T09:08:43.000Z</time>
      </trkpt>
      <trkpt lat="49.22253" lon="1.64152">
        <ele>183</ele>
        <time>2014-09-28T09:08:47.000Z</time>
      </trkpt>
      <trkpt lat="49.22258" lon="1.64157">
        <ele>184</ele>
        <time>2014-09-28T09:08:49.000Z</time>
      </trkpt>
      <trkpt lat="49.22264" lon="1.64162">
        <ele>184</ele>
        <time>2014-09-28T09:08:51.000Z</time>
      </trkpt>
      <trkpt lat="49.2227" lon="1.64168">
        <ele>184</ele>
        <time>2014-09-28T09:08:53.000Z</time>
      </trkpt>
      <trkpt lat="49.22277" lon="1.64175">
        <ele>183</ele>
        <time>2014-09-28T09:08:55.000Z</time>
      </trkpt>
      <trkpt lat="49.22283" lon="1.64181">
        <ele>183</ele>
        <time>2014-09-28T09:08:57.000Z</time>
      </trkpt>
      <trkpt lat="49.22289" lon="1.64187">
        <ele>183</ele>
        <time>2014-09-28T09:08:59.000Z</time>
      </trkpt>
      <trkpt lat="49.22296" lon="1.64193">
        <ele>183</ele>
        <time>2014-09-28T09:09:01.000Z</time>
      </trkpt>
      <trkpt lat="49.22301" lon="1.642">
        <ele>183</ele>
        <time>2014-09-28T09:09:03.000Z</time>
      </trkpt>
      <trkpt lat="49.22308" lon="1.64207">
        <ele>183</ele>
        <time>2014-09-28T09:09:05.000Z</time>
      </trkpt>
      <trkpt lat="49.22314" lon="1.64215">
        <ele>183</ele>
        <time>2014-09-28T09:09:07.000Z</time>
      </trkpt>
      <trkpt lat="49.22319" lon="1.64222">
        <ele>183</ele>
        <time>2014-09-28T09:09:09.000Z</time>
      </trkpt>
      <trkpt lat="49.22326" lon="1.6423">
        <ele>183</ele>
        <time>2014-09-28T09:09:11.000Z</time>
      </trkpt>
      <trkpt lat="49.22332" lon="1.64238">
        <ele>183</ele>
        <time>2014-09-28T09:09:13.000Z</time>
      </trkpt>
      <trkpt lat="49.22339" lon="1.64247">
        <ele>183</ele>
        <time>2014-09-28T09:09:15.000Z</time>
      </trkpt>
      <trkpt lat="49.22347" lon="1.64257">
        <ele>183</ele>
        <time>2014-09-28T09:09:17.000Z</time>
      </trkpt>
      <trkpt lat="49.22355" lon="1.64267">
        <ele>183</ele>
        <time>2014-09-28T09:09:19.000Z</time>
      </trkpt>
      <trkpt lat="49.22362" lon="1.64277">
        <ele>182</ele>
        <time>2014-09-28T09:09:21.000Z</time>
      </trkpt>
      <trkpt lat="49.2237" lon="1.64287">
        <ele>182</ele>
        <time>2014-09-28T09:09:23.000Z</time>
      </trkpt>
      <trkpt lat="49.22377" lon="1.64296">
        <ele>182</ele>
        <time>2014-09-28T09:09:25.000Z</time>
      </trkpt>
      <trkpt lat="49.22385" lon="1.64306">
        <ele>181</ele>
        <time>2014-09-28T09:09:27.000Z</time>
      </trkpt>
      <trkpt lat="49.22392" lon="1.64317">
        <ele>181</ele>
        <time>2014-09-28T09:09:29.000Z</time>
      </trkpt>
      <trkpt lat="49.224" lon="1.64327">
        <ele>181</ele>
        <time>2014-09-28T09:09:31.000Z</time>
      </trkpt>
      <trkpt lat="49.22408" lon="1.64336">
        <ele>181</ele>
        <time>2014-09-28T09:09:33.000Z</time>
      </trkpt>
      <trkpt lat="49.22415" lon="1.64347">
        <ele>181</ele>
        <time>2014-09-28T09:09:35.000Z</time>
      </trkpt>
      <trkpt lat="49.22422" lon="1.64357">
        <ele>181</ele>
        <time>2014-09-28T09:09:37.000Z</time>
      </trkpt>
      <trkpt lat="49.2243" lon="1.64366">
        <ele>181</ele>
        <time>2014-09-28T09:09:39.000Z</time>
      </trkpt>
      <trkpt lat="49.22437" lon="1.64374">
        <ele>181</ele>
        <time>2014-09-28T09:09:41.000Z</time>
      </trkpt>
      <trkpt lat="49.22444" lon="1.64383">
        <ele>180</ele>
        <time>2014-09-28T09:09:43.000Z</time>
      </trkpt>
      <trkpt lat="49.22452" lon="1.64392">
        <ele>180</ele>
        <time>2014-09-28T09:09:45.000Z</time>
      </trkpt>
      <trkpt lat="49.2246" lon="1.64402">
        <ele>180</ele>
        <time>2014-09-28T09:09:47.000Z</time>
      </trkpt>
      <trkpt lat="49.22469" lon="1.64412">
        <ele>180</ele>
        <time>2014-09-28T09:09:49.000Z</time>
      </trkpt>
      <trkpt lat="49.22477" lon="1.64423">
        <ele>179</ele>
        <time>2014-09-28T09:09:51.000Z</time>
      </trkpt>
      <trkpt lat="49.22486" lon="1.64434">
        <ele>179</ele>
        <time>2014-09-28T09:09:53.000Z</time>
      </trkpt>
      <trkpt lat="49.22496" lon="1.64445">
        <ele>178</ele>
        <time>2014-09-28T09:09:55.000Z</time>
      </trkpt>
      <trkpt lat="49.22505" lon="1.64456">
        <ele>178</ele>
        <time>2014-09-28T09:09:57.000Z</time>
      </trkpt>
      <trkpt lat="49.22514" lon="1.64467">
        <ele>177</ele>
        <time>2014-09-28T09:09:59.000Z</time>
      </trkpt>
      <trkpt lat="49.22523" lon="1.64478">
        <ele>177</ele>
        <time>2014-09-28T09:10:01.000Z</time>
      </trkpt>
      <trkpt lat="49.22532" lon="1.64488">
        <ele>177</ele>
        <time>2014-09-28T09:10:03.000Z</time>
      </trkpt>
      <trkpt lat="49.22541" lon="1.64498">
        <ele>177</ele>
        <time>2014-09-28T09:10:05.000Z</time>
      </trkpt>
      <trkpt lat="49.22548" lon="1.64509">
        <ele>177</ele>
        <time>2014-09-28T09:10:07.000Z</time>
      </trkpt>
      <trkpt lat="49.22551" lon="1.64523">
        <ele>177</ele>
        <time>2014-09-28T09:10:09.000Z</time>
      </trkpt>
      <trkpt lat="49.22556" lon="1.64536">
        <ele>176</ele>
        <time>2014-09-28T09:10:11.000Z</time>
      </trkpt>
      <trkpt lat="49.22562" lon="1.64548">
        <ele>176</ele>
        <time>2014-09-28T09:10:13.000Z</time>
      </trkpt>
      <trkpt lat="49.22569" lon="1.64561">
        <ele>176</ele>
        <time>2014-09-28T09:10:15.000Z</time>
      </trkpt>
      <trkpt lat="49.22577" lon="1.64572">
        <ele>176</ele>
        <time>2014-09-28T09:10:17.000Z</time>
      </trkpt>
      <trkpt lat="49.22584" lon="1.64584">
        <ele>176</ele>
        <time>2014-09-28T09:10:19.000Z</time>
      </trkpt>
      <trkpt lat="49.22589" lon="1.64596">
        <ele>176</ele>
        <time>2014-09-28T09:10:21.000Z</time>
      </trkpt>
      <trkpt lat="49.22597" lon="1.64608">
        <ele>176</ele>
        <time>2014-09-28T09:10:23.000Z</time>
      </trkpt>
      <trkpt lat="49.22604" lon="1.6462">
        <ele>176</ele>
        <time>2014-09-28T09:10:25.000Z</time>
      </trkpt>
      <trkpt lat="49.22612" lon="1.64632">
        <ele>176</ele>
        <time>2014-09-28T09:10:27.000Z</time>
      </trkpt>
      <trkpt lat="49.22619" lon="1.64645">
        <ele>175</ele>
        <time>2014-09-28T09:10:29.000Z</time>
      </trkpt>
      <trkpt lat="49.22626" lon="1.64656">
        <ele>175</ele>
        <time>2014-09-28T09:10:31.000Z</time>
      </trkpt>
      <trkpt lat="49.22634" lon="1.64668">
        <ele>175</ele>
        <time>2014-09-28T09:10:33.000Z</time>
      </trkpt>
      <trkpt lat="49.22641" lon="1.6468">
        <ele>175</ele>
        <time>2014-09-28T09:10:35.000Z</time>
      </trkpt>
      <trkpt lat="49.22648" lon="1.64693">
        <ele>175</ele>
        <time>2014-09-28T09:10:37.000Z</time>
      </trkpt>
      <trkpt lat="49.22655" lon="1.64706">
        <ele>175</ele>
        <time>2014-09-28T09:10:39.000Z</time>
      </trkpt>
      <trkpt lat="49.22663" lon="1.64719">
        <ele>174</ele>
        <time>2014-09-28T09:10:41.000Z</time>
      </trkpt>
      <trkpt lat="49.22671" lon="1.64733">
        <ele>174</ele>
        <time>2014-09-28T09:10:43.000Z</time>
      </trkpt>
      <trkpt lat="49.2268" lon="1.64746">
        <ele>174</ele>
        <time>2014-09-28T09:10:45.000Z</time>
      </trkpt>
      <trkpt lat="49.22688" lon="1.64759">
        <ele>174</ele>
        <time>2014-09-28T09:10:47.000Z</time>
      </trkpt>
      <trkpt lat="49.22697" lon="1.64771">
        <ele>174</ele>
        <time>2014-09-28T09:10:49.000Z</time>
      </trkpt>
      <trkpt lat="49.22706" lon="1.64783">
        <ele>174</ele>
        <time>2014-09-28T09:10:51.000Z</time>
      </trkpt>
      <trkpt lat="49.22715" lon="1.64795">
        <ele>174</ele>
        <time>2014-09-28T09:10:53.000Z</time>
      </trkpt>
      <trkpt lat="49.22723" lon="1.64806">
        <ele>174</ele>
        <time>2014-09-28T09:10:55.000Z</time>
      </trkpt>
      <trkpt lat="49.22731" lon="1.64818">
        <ele>174</ele>
        <time>2014-09-28T09:10:57.000Z</time>
      </trkpt>
      <trkpt lat="49.22741" lon="1.6483">
        <ele>173</ele>
        <time>2014-09-28T09:10:59.000Z</time>
      </trkpt>
      <trkpt lat="49.22749" lon="1.64842">
        <ele>174</ele>
        <time>2014-09-28T09:11:01.000Z</time>
      </trkpt>
      <trkpt lat="49.22758" lon="1.64853">
        <ele>174</ele>
        <time>2014-09-28T09:11:03.000Z</time>
      </trkpt>
      <trkpt lat="49.22766" lon="1.64864">
        <ele>173</ele>
        <time>2014-09-28T09:11:05.000Z</time>
      </trkpt>
      <trkpt lat="49.22775" lon="1.64875">
        <ele>173</ele>
        <time>2014-09-28T09:11:07.000Z</time>
      </trkpt>
      <trkpt lat="49.22783" lon="1.64884">
        <ele>173</ele>
        <time>2014-09-28T09:11:09.000Z</time>
      </trkpt>
      <trkpt lat="49.22791" lon="1.64893">
        <ele>173</ele>
        <time>2014-09-28T09:11:11.000Z</time>
      </trkpt>
      <trkpt lat="49.22798" lon="1.64903">
        <ele>173</ele>
        <time>2014-09-28T09:11:13.000Z</time>
      </trkpt>
      <trkpt lat="49.22805" lon="1.64912">
        <ele>173</ele>
        <time>2014-09-28T09:11:15.000Z</time>
      </trkpt>
      <trkpt lat="49.22811" lon="1.64921">
        <ele>173</ele>
        <time>2014-09-28T09:11:17.000Z</time>
      </trkpt>
      <trkpt lat="49.22816" lon="1.64928">
        <ele>172</ele>
        <time>2014-09-28T09:11:19.000Z</time>
      </trkpt>
      <trkpt lat="49.22823" lon="1.64935">
        <ele>173</ele>
        <time>2014-09-28T09:11:21.000Z</time>
      </trkpt>
      <trkpt lat="49.2283" lon="1.64944">
        <ele>173</ele>
        <time>2014-09-28T09:11:23.000Z</time>
      </trkpt>
      <trkpt lat="49.22837" lon="1.64952">
        <ele>173</ele>
        <time>2014-09-28T09:11:25.000Z</time>
      </trkpt>
      <trkpt lat="49.22846" lon="1.64961">
        <ele>173</ele>
        <time>2014-09-28T09:11:27.000Z</time>
      </trkpt>
      <trkpt lat="49.22855" lon="1.64969">
        <ele>173</ele>
        <time>2014-09-28T09:11:29.000Z</time>
      </trkpt>
      <trkpt lat="49.22863" lon="1.64976">
        <ele>173</ele>
        <time>2014-09-28T09:11:31.000Z</time>
      </trkpt>
      <trkpt lat="49.22873" lon="1.64984">
        <ele>173</ele>
        <time>2014-09-28T09:11:33.000Z</time>
      </trkpt>
      <trkpt lat="49.22882" lon="1.6499">
        <ele>174</ele>
        <time>2014-09-28T09:11:35.000Z</time>
      </trkpt>
      <trkpt lat="49.22891" lon="1.64995">
        <ele>174</ele>
        <time>2014-09-28T09:11:37.000Z</time>
      </trkpt>
      <trkpt lat="49.229" lon="1.65001">
        <ele>174</ele>
        <time>2014-09-28T09:11:39.000Z</time>
      </trkpt>
      <trkpt lat="49.22909" lon="1.65006">
        <ele>174</ele>
        <time>2014-09-28T09:11:41.000Z</time>
      </trkpt>
      <trkpt lat="49.22919" lon="1.65012">
        <ele>175</ele>
        <time>2014-09-28T09:11:43.000Z</time>
      </trkpt>
      <trkpt lat="49.22928" lon="1.65017">
        <ele>175</ele>
        <time>2014-09-28T09:11:45.000Z</time>
      </trkpt>
      <trkpt lat="49.22937" lon="1.65022">
        <ele>175</ele>
        <time>2014-09-28T09:11:47.000Z</time>
      </trkpt>
      <trkpt lat="49.22946" lon="1.65026">
        <ele>175</ele>
        <time>2014-09-28T09:11:49.000Z</time>
      </trkpt>
      <trkpt lat="49.22956" lon="1.65031">
        <ele>176</ele>
        <time>2014-09-28T09:11:51.000Z</time>
      </trkpt>
      <trkpt lat="49.22965" lon="1.65036">
        <ele>176</ele>
        <time>2014-09-28T09:11:53.000Z</time>
      </trkpt>
      <trkpt lat="49.22974" lon="1.6504">
        <ele>177</ele>
        <time>2014-09-28T09:11:55.000Z</time>
      </trkpt>
      <trkpt lat="49.22984" lon="1.65045">
        <ele>177</ele>
        <time>2014-09-28T09:11:57.000Z</time>
      </trkpt>
      <trkpt lat="49.22993" lon="1.6505">
        <ele>178</ele>
        <time>2014-09-28T09:11:59.000Z</time>
      </trkpt>
      <trkpt lat="49.23003" lon="1.65055">
        <ele>179</ele>
        <time>2014-09-28T09:12:01.000Z</time>
      </trkpt>
      <trkpt lat="49.23012" lon="1.65061">
        <ele>179</ele>
        <time>2014-09-28T09:12:03.000Z</time>
      </trkpt>
      <trkpt lat="49.23022" lon="1.65066">
        <ele>179</ele>
        <time>2014-09-28T09:12:05.000Z</time>
      </trkpt>
      <trkpt lat="49.23031" lon="1.65073">
        <ele>180</ele>
        <time>2014-09-28T09:12:07.000Z</time>
      </trkpt>
      <trkpt lat="49.2304" lon="1.65078">
        <ele>180</ele>
        <time>2014-09-28T09:12:09.000Z</time>
      </trkpt>
      <trkpt lat="49.23048" lon="1.65083">
        <ele>180</ele>
        <time>2014-09-28T09:12:11.000Z</time>
      </trkpt>
      <trkpt lat="49.23056" lon="1.65087">
        <ele>180</ele>
        <time>2014-09-28T09:12:13.000Z</time>
      </trkpt>
      <trkpt lat="49.23064" lon="1.65091">
        <ele>180</ele>
        <time>2014-09-28T09:12:15.000Z</time>
      </trkpt>
      <trkpt lat="49.23072" lon="1.65096">
        <ele>180</ele>
        <time>2014-09-28T09:12:17.000Z</time>
      </trkpt>
      <trkpt lat="49.23081" lon="1.65102">
        <ele>180</ele>
        <time>2014-09-28T09:12:19.000Z</time>
      </trkpt>
      <trkpt lat="49.2309" lon="1.65107">
        <ele>180</ele>
        <time>2014-09-28T09:12:21.000Z</time>
      </trkpt>
      <trkpt lat="49.23099" lon="1.65113">
        <ele>181</ele>
        <time>2014-09-28T09:12:23.000Z</time>
      </trkpt>
      <trkpt lat="49.23108" lon="1.65119">
        <ele>180</ele>
        <time>2014-09-28T09:12:25.000Z</time>
      </trkpt>
      <trkpt lat="49.23117" lon="1.65124">
        <ele>180</ele>
        <time>2014-09-28T09:12:27.000Z</time>
      </trkpt>
      <trkpt lat="49.23126" lon="1.6513">
        <ele>180</ele>
        <time>2014-09-28T09:12:29.000Z</time>
      </trkpt>
      <trkpt lat="49.23136" lon="1.65135">
        <ele>181</ele>
        <time>2014-09-28T09:12:31.000Z</time>
      </trkpt>
      <trkpt lat="49.23146" lon="1.6514">
        <ele>181</ele>
        <time>2014-09-28T09:12:33.000Z</time>
      </trkpt>
      <trkpt lat="49.23156" lon="1.65144">
        <ele>181</ele>
        <time>2014-09-28T09:12:35.000Z</time>
      </trkpt>
      <trkpt lat="49.23165" lon="1.65149">
        <ele>181</ele>
        <time>2014-09-28T09:12:37.000Z</time>
      </trkpt>
      <trkpt lat="49.23174" lon="1.65155">
        <ele>182</ele>
        <time>2014-09-28T09:12:39.000Z</time>
      </trkpt>
      <trkpt lat="49.23183" lon="1.65161">
        <ele>182</ele>
        <time>2014-09-28T09:12:41.000Z</time>
      </trkpt>
      <trkpt lat="49.23191" lon="1.65166">
        <ele>182</ele>
        <time>2014-09-28T09:12:43.000Z</time>
      </trkpt>
      <trkpt lat="49.232" lon="1.65172">
        <ele>182</ele>
        <time>2014-09-28T09:12:45.000Z</time>
      </trkpt>
      <trkpt lat="49.23209" lon="1.65177">
        <ele>182</ele>
        <time>2014-09-28T09:12:47.000Z</time>
      </trkpt>
      <trkpt lat="49.23217" lon="1.65183">
        <ele>182</ele>
        <time>2014-09-28T09:12:49.000Z</time>
      </trkpt>
      <trkpt lat="49.23225" lon="1.65188">
        <ele>182</ele>
        <time>2014-09-28T09:12:51.000Z</time>
      </trkpt>
      <trkpt lat="49.23232" lon="1.65195">
        <ele>182</ele>
        <time>2014-09-28T09:12:53.000Z</time>
      </trkpt>
      <trkpt lat="49.23241" lon="1.65202">
        <ele>182</ele>
        <time>2014-09-28T09:12:55.000Z</time>
      </trkpt>
      <trkpt lat="49.23248" lon="1.65209">
        <ele>182</ele>
        <time>2014-09-28T09:12:57.000Z</time>
      </trkpt>
      <trkpt lat="49.23256" lon="1.65217">
        <ele>182</ele>
        <time>2014-09-28T09:12:59.000Z</time>
      </trkpt>
      <trkpt lat="49.23263" lon="1.65224">
        <ele>182</ele>
        <time>2014-09-28T09:13:01.000Z</time>
      </trkpt>
      <trkpt lat="49.23269" lon="1.65231">
        <ele>182</ele>
        <time>2014-09-28T09:13:03.000Z</time>
      </trkpt>
      <trkpt lat="49.23274" lon="1.65237">
        <ele>182</ele>
        <time>2014-09-28T09:13:05.000Z</time>
      </trkpt>
      <trkpt lat="49.23281" lon="1.65244">
        <ele>181</ele>
        <time>2014-09-28T09:13:07.000Z</time>
      </trkpt>
      <trkpt lat="49.23289" lon="1.65252">
        <ele>181</ele>
        <time>2014-09-28T09:13:09.000Z</time>
      </trkpt>
      <trkpt lat="49.23297" lon="1.65261">
        <ele>182</ele>
        <time>2014-09-28T09:13:11.000Z</time>
      </trkpt>
      <trkpt lat="49.23306" lon="1.6527">
        <ele>182</ele>
        <time>2014-09-28T09:13:13.000Z</time>
      </trkpt>
      <trkpt lat="49.23314" lon="1.65279">
        <ele>182</ele>
        <time>2014-09-28T09:13:15.000Z</time>
      </trkpt>
      <trkpt lat="49.23321" lon="1.65286">
        <ele>182</ele>
        <time>2014-09-28T09:13:17.000Z</time>
      </trkpt>
      <trkpt lat="49.23329" lon="1.65293">
        <ele>183</ele>
        <time>2014-09-28T09:13:19.000Z</time>
      </trkpt>
      <trkpt lat="49.23336" lon="1.65302">
        <ele>183</ele>
        <time>2014-09-28T09:13:21.000Z</time>
      </trkpt>
      <trkpt lat="49.23341" lon="1.65309">
        <ele>183</ele>
        <time>2014-09-28T09:13:23.000Z</time>
      </trkpt>
      <trkpt lat="49.2335" lon="1.65317">
        <ele>183</ele>
        <time>2014-09-28T09:13:25.000Z</time>
      </trkpt>
      <trkpt lat="49.23359" lon="1.65327">
        <ele>184</ele>
        <time>2014-09-28T09:13:27.000Z</time>
      </trkpt>
      <trkpt lat="49.23367" lon="1.65337">
        <ele>184</ele>
        <time>2014-09-28T09:13:29.000Z</time>
      </trkpt>
      <trkpt lat="49.23375" lon="1.65348">
        <ele>184</ele>
        <time>2014-09-28T09:13:31.000Z</time>
      </trkpt>
      <trkpt lat="49.23384" lon="1.65359">
        <ele>184</ele>
        <time>2014-09-28T09:13:33.000Z</time>
      </trkpt>
      <trkpt lat="49.23393" lon="1.65369">
        <ele>184</ele>
        <time>2014-09-28T09:13:35.000Z</time>
      </trkpt>
      <trkpt lat="49.23402" lon="1.65377">
        <ele>184</ele>
        <time>2014-09-28T09:13:37.000Z</time>
      </trkpt>
      <trkpt lat="49.23409" lon="1.65385">
        <ele>184</ele>
        <time>2014-09-28T09:13:39.000Z</time>
      </trkpt>
      <trkpt lat="49.23414" lon="1.65392">
        <ele>184</ele>
        <time>2014-09-28T09:13:41.000Z</time>
      </trkpt>
      <trkpt lat="49.2342" lon="1.65399">
        <ele>184</ele>
        <time>2014-09-28T09:13:43.000Z</time>
      </trkpt>
      <trkpt lat="49.23428" lon="1.65408">
        <ele>184</ele>
        <time>2014-09-28T09:13:45.000Z</time>
      </trkpt>
      <trkpt lat="49.23436" lon="1.65417">
        <ele>184</ele>
        <time>2014-09-28T09:13:47.000Z</time>
      </trkpt>
      <trkpt lat="49.23446" lon="1.65426">
        <ele>184</ele>
        <time>2014-09-28T09:13:49.000Z</time>
      </trkpt>
      <trkpt lat="49.23454" lon="1.65434">
        <ele>185</ele>
        <time>2014-09-28T09:13:51.000Z</time>
      </trkpt>
      <trkpt lat="49.23461" lon="1.65438">
        <ele>185</ele>
        <time>2014-09-28T09:13:53.000Z</time>
      </trkpt>
      <trkpt lat="49.23468" lon="1.65445">
        <ele>185</ele>
        <time>2014-09-28T09:13:55.000Z</time>
      </trkpt>
      <trkpt lat="49.23474" lon="1.6545">
        <ele>185</ele>
        <time>2014-09-28T09:13:57.000Z</time>
      </trkpt>
      <trkpt lat="49.23481" lon="1.65457">
        <ele>185</ele>
        <time>2014-09-28T09:13:59.000Z</time>
      </trkpt>
      <trkpt lat="49.23487" lon="1.65463">
        <ele>185</ele>
        <time>2014-09-28T09:14:01.000Z</time>
      </trkpt>
      <trkpt lat="49.23495" lon="1.65471">
        <ele>185</ele>
        <time>2014-09-28T09:14:03.000Z</time>
      </trkpt>
      <trkpt lat="49.23502" lon="1.65482">
        <ele>185</ele>
        <time>2014-09-28T09:14:05.000Z</time>
      </trkpt>
      <trkpt lat="49.2351" lon="1.65499">
        <ele>183</ele>
        <time>2014-09-28T09:14:07.000Z</time>
      </trkpt>
      <trkpt lat="49.2352" lon="1.65517">
        <ele>182</ele>
        <time>2014-09-28T09:14:09.000Z</time>
      </trkpt>
      <trkpt lat="49.23531" lon="1.65533">
        <ele>180</ele>
        <time>2014-09-28T09:14:11.000Z</time>
      </trkpt>
      <trkpt lat="49.23539" lon="1.65547">
        <ele>179</ele>
        <time>2014-09-28T09:14:13.000Z</time>
      </trkpt>
      <trkpt lat="49.23546" lon="1.65562">
        <ele>180</ele>
        <time>2014-09-28T09:14:15.000Z</time>
      </trkpt>
      <trkpt lat="49.23553" lon="1.65577">
        <ele>180</ele>
        <time>2014-09-28T09:14:17.000Z</time>
      </trkpt>
      <trkpt lat="49.23559" lon="1.65592">
        <ele>179</ele>
        <time>2014-09-28T09:14:19.000Z</time>
      </trkpt>
      <trkpt lat="49.23564" lon="1.65606">
        <ele>178</ele>
        <time>2014-09-28T09:14:21.000Z</time>
      </trkpt>
      <trkpt lat="49.2357" lon="1.65618">
        <ele>177</ele>
        <time>2014-09-28T09:14:23.000Z</time>
      </trkpt>
      <trkpt lat="49.23575" lon="1.6563">
        <ele>177</ele>
        <time>2014-09-28T09:14:25.000Z</time>
      </trkpt>
      <trkpt lat="49.23581" lon="1.65642">
        <ele>177</ele>
        <time>2014-09-28T09:14:27.000Z</time>
      </trkpt>
      <trkpt lat="49.23587" lon="1.65655">
        <ele>177</ele>
        <time>2014-09-28T09:14:29.000Z</time>
      </trkpt>
      <trkpt lat="49.23594" lon="1.65668">
        <ele>177</ele>
        <time>2014-09-28T09:14:31.000Z</time>
      </trkpt>
      <trkpt lat="49.23601" lon="1.6568">
        <ele>177</ele>
        <time>2014-09-28T09:14:33.000Z</time>
      </trkpt>
      <trkpt lat="49.23607" lon="1.65692">
        <ele>177</ele>
        <time>2014-09-28T09:14:35.000Z</time>
      </trkpt>
      <trkpt lat="49.23612" lon="1.65704">
        <ele>177</ele>
        <time>2014-09-28T09:14:37.000Z</time>
      </trkpt>
      <trkpt lat="49.23618" lon="1.65714">
        <ele>177</ele>
        <time>2014-09-28T09:14:39.000Z</time>
      </trkpt>
      <trkpt lat="49.23623" lon="1.65724">
        <ele>177</ele>
        <time>2014-09-28T09:14:41.000Z</time>
      </trkpt>
      <trkpt lat="49.23629" lon="1.65735">
        <ele>176</ele>
        <time>2014-09-28T09:14:43.000Z</time>
      </trkpt>
      <trkpt lat="49.23635" lon="1.65746">
        <ele>176</ele>
        <time>2014-09-28T09:14:45.000Z</time>
      </trkpt>
      <trkpt lat="49.2364" lon="1.65756">
        <ele>176</ele>
        <time>2014-09-28T09:14:47.000Z</time>
      </trkpt>
      <trkpt lat="49.23645" lon="1.65766">
        <ele>176</ele>
        <time>2014-09-28T09:14:49.000Z</time>
      </trkpt>
      <trkpt lat="49.23648" lon="1.65775">
        <ele>176</ele>
        <time>2014-09-28T09:14:51.000Z</time>
      </trkpt>
      <trkpt lat="49.23652" lon="1.65782">
        <ele>175</ele>
        <time>2014-09-28T09:14:53.000Z</time>
      </trkpt>
      <trkpt lat="49.23655" lon="1.65791">
        <ele>175</ele>
        <time>2014-09-28T09:14:55.000Z</time>
      </trkpt>
      <trkpt lat="49.23658" lon="1.658">
        <ele>175</ele>
        <time>2014-09-28T09:14:57.000Z</time>
      </trkpt>
      <trkpt lat="49.23658" lon="1.658">
        <ele>175</ele>
        <time>2014-09-28T09:14:59.000Z</time>
      </trkpt>
      <trkpt lat="49.23664" lon="1.65813">
        <ele>175</ele>
        <time>2014-09-28T09:15:01.000Z</time>
      </trkpt>
      <trkpt lat="49.23669" lon="1.6582">
        <ele>174</ele>
        <time>2014-09-28T09:15:03.000Z</time>
      </trkpt>
      <trkpt lat="49.23674" lon="1.65826">
        <ele>174</ele>
        <time>2014-09-28T09:15:05.000Z</time>
      </trkpt>
      <trkpt lat="49.23679" lon="1.65831">
        <ele>174</ele>
        <time>2014-09-28T09:15:07.000Z</time>
      </trkpt>
      <trkpt lat="49.23685" lon="1.65837">
        <ele>174</ele>
        <time>2014-09-28T09:15:09.000Z</time>
      </trkpt>
      <trkpt lat="49.23691" lon="1.65844">
        <ele>174</ele>
        <time>2014-09-28T09:15:11.000Z</time>
      </trkpt>
      <trkpt lat="49.23696" lon="1.6585">
        <ele>174</ele>
        <time>2014-09-28T09:15:13.000Z</time>
      </trkpt>
      <trkpt lat="49.23702" lon="1.65857">
        <ele>174</ele>
        <time>2014-09-28T09:15:15.000Z</time>
      </trkpt>
      <trkpt lat="49.23709" lon="1.65866">
        <ele>173</ele>
        <time>2014-09-28T09:15:17.000Z</time>
      </trkpt>
      <trkpt lat="49.23714" lon="1.65878">
        <ele>173</ele>
        <time>2014-09-28T09:15:19.000Z</time>
      </trkpt>
      <trkpt lat="49.23716" lon="1.65888">
        <ele>173</ele>
        <time>2014-09-28T09:15:21.000Z</time>
      </trkpt>
      <trkpt lat="49.23714" lon="1.65897">
        <ele>173</ele>
        <time>2014-09-28T09:15:23.000Z</time>
      </trkpt>
      <trkpt lat="49.23713" lon="1.65905">
        <ele>173</ele>
        <time>2014-09-28T09:15:25.000Z</time>
      </trkpt>
      <trkpt lat="49.23712" lon="1.65914">
        <ele>173</ele>
        <time>2014-09-28T09:15:27.000Z</time>
      </trkpt>
      <trkpt lat="49.23712" lon="1.65914">
        <ele>173</ele>
        <time>2014-09-28T09:15:29.000Z</time>
      </trkpt>
      <trkpt lat="49.2371" lon="1.6593">
        <ele>173</ele>
        <time>2014-09-28T09:15:31.000Z</time>
      </trkpt>
      <trkpt lat="49.2371" lon="1.6593">
        <ele>173</ele>
        <time>2014-09-28T09:15:33.000Z</time>
      </trkpt>
      <trkpt lat="49.23712" lon="1.65945">
        <ele>174</ele>
        <time>2014-09-28T09:15:35.000Z</time>
      </trkpt>
      <trkpt lat="49.23712" lon="1.65945">
        <ele>174</ele>
        <time>2014-09-28T09:15:37.000Z</time>
      </trkpt>
      <trkpt lat="49.23718" lon="1.65959">
        <ele>174</ele>
        <time>2014-09-28T09:15:39.000Z</time>
      </trkpt>
      <trkpt lat="49.23722" lon="1.65966">
        <ele>174</ele>
        <time>2014-09-28T09:15:41.000Z</time>
      </trkpt>
      <trkpt lat="49.23725" lon="1.65974">
        <ele>175</ele>
        <time>2014-09-28T09:15:43.000Z</time>
      </trkpt>
      <trkpt lat="49.23728" lon="1.65983">
        <ele>175</ele>
        <time>2014-09-28T09:15:45.000Z</time>
      </trkpt>
      <trkpt lat="49.23732" lon="1.65991">
        <ele>176</ele>
        <time>2014-09-28T09:15:47.000Z</time>
      </trkpt>
      <trkpt lat="49.23737" lon="1.66">
        <ele>176</ele>
        <time>2014-09-28T09:15:49.000Z</time>
      </trkpt>
      <trkpt lat="49.2374" lon="1.66009">
        <ele>177</ele>
        <time>2014-09-28T09:15:51.000Z</time>
      </trkpt>
      <trkpt lat="49.23743" lon="1.66018">
        <ele>176</ele>
        <time>2014-09-28T09:15:53.000Z</time>
      </trkpt>
      <trkpt lat="49.23746" lon="1.66027">
        <ele>177</ele>
        <time>2014-09-28T09:15:55.000Z</time>
      </trkpt>
      <trkpt lat="49.23751" lon="1.66036">
        <ele>177</ele>
        <time>2014-09-28T09:15:57.000Z</time>
      </trkpt>
      <trkpt lat="49.23755" lon="1.66045">
        <ele>177</ele>
        <time>2014-09-28T09:15:59.000Z</time>
      </trkpt>
      <trkpt lat="49.23759" lon="1.66053">
        <ele>177</ele>
        <time>2014-09-28T09:16:01.000Z</time>
      </trkpt>
      <trkpt lat="49.23764" lon="1.66062">
        <ele>178</ele>
        <time>2014-09-28T09:16:03.000Z</time>
      </trkpt>
      <trkpt lat="49.2377" lon="1.6607">
        <ele>178</ele>
        <time>2014-09-28T09:16:05.000Z</time>
      </trkpt>
      <trkpt lat="49.23774" lon="1.66077">
        <ele>178</ele>
        <time>2014-09-28T09:16:07.000Z</time>
      </trkpt>
      <trkpt lat="49.23779" lon="1.66084">
        <ele>179</ele>
        <time>2014-09-28T09:16:09.000Z</time>
      </trkpt>
      <trkpt lat="49.23779" lon="1.66084">
        <ele>179</ele>
        <time>2014-09-28T09:16:11.000Z</time>
      </trkpt>
      <trkpt lat="49.23785" lon="1.66096">
        <ele>179</ele>
        <time>2014-09-28T09:16:13.000Z</time>
      </trkpt>
      <trkpt lat="49.23789" lon="1.66103">
        <ele>180</ele>
        <time>2014-09-28T09:16:15.000Z</time>
      </trkpt>
      <trkpt lat="49.23793" lon="1.66111">
        <ele>180</ele>
        <time>2014-09-28T09:16:17.000Z</time>
      </trkpt>
      <trkpt lat="49.23798" lon="1.66119">
        <ele>180</ele>
        <time>2014-09-28T09:16:19.000Z</time>
      </trkpt>
      <trkpt lat="49.23802" lon="1.66127">
        <ele>180</ele>
        <time>2014-09-28T09:16:21.000Z</time>
      </trkpt>
      <trkpt lat="49.23807" lon="1.66134">
        <ele>180</ele>
        <time>2014-09-28T09:16:23.000Z</time>
      </trkpt>
      <trkpt lat="49.23807" lon="1.66134">
        <ele>180</ele>
        <time>2014-09-28T09:16:25.000Z</time>
      </trkpt>
      <trkpt lat="49.23814" lon="1.66146">
        <ele>181</ele>
        <time>2014-09-28T09:16:27.000Z</time>
      </trkpt>
      <trkpt lat="49.23818" lon="1.66153">
        <ele>181</ele>
        <time>2014-09-28T09:16:29.000Z</time>
      </trkpt>
      <trkpt lat="49.23818" lon="1.66153">
        <ele>181</ele>
        <time>2014-09-28T09:16:31.000Z</time>
      </trkpt>
      <trkpt lat="49.23824" lon="1.66165">
        <ele>181</ele>
        <time>2014-09-28T09:16:33.000Z</time>
      </trkpt>
      <trkpt lat="49.23828" lon="1.66173">
        <ele>182</ele>
        <time>2014-09-28T09:16:35.000Z</time>
      </trkpt>
      <trkpt lat="49.23832" lon="1.66183">
        <ele>182</ele>
        <time>2014-09-28T09:16:37.000Z</time>
      </trkpt>
      <trkpt lat="49.23835" lon="1.66191">
        <ele>182</ele>
        <time>2014-09-28T09:16:39.000Z</time>
      </trkpt>
      <trkpt lat="49.23835" lon="1.66191">
        <ele>182</ele>
        <time>2014-09-28T09:16:41.000Z</time>
      </trkpt>
      <trkpt lat="49.23833" lon="1.66206">
        <ele>182</ele>
        <time>2014-09-28T09:16:43.000Z</time>
      </trkpt>
      <trkpt lat="49.23833" lon="1.66206">
        <ele>182</ele>
        <time>2014-09-28T09:16:45.000Z</time>
      </trkpt>
      <trkpt lat="49.23836" lon="1.66223">
        <ele>182</ele>
        <time>2014-09-28T09:16:47.000Z</time>
      </trkpt>
      <trkpt lat="49.23841" lon="1.66234">
        <ele>182</ele>
        <time>2014-09-28T09:16:49.000Z</time>
      </trkpt>
      <trkpt lat="49.23846" lon="1.66243">
        <ele>183</ele>
        <time>2014-09-28T09:16:51.000Z</time>
      </trkpt>
      <trkpt lat="49.23849" lon="1.66252">
        <ele>184</ele>
        <time>2014-09-28T09:16:53.000Z</time>
      </trkpt>
      <trkpt lat="49.23854" lon="1.66259">
        <ele>184</ele>
        <time>2014-09-28T09:16:55.000Z</time>
      </trkpt>
      <trkpt lat="49.23859" lon="1.66266">
        <ele>185</ele>
        <time>2014-09-28T09:16:57.000Z</time>
      </trkpt>
      <trkpt lat="49.23859" lon="1.66266">
        <ele>185</ele>
        <time>2014-09-28T09:16:59.000Z</time>
      </trkpt>
      <trkpt lat="49.23866" lon="1.66277">
        <ele>186</ele>
        <time>2014-09-28T09:17:01.000Z</time>
      </trkpt>
      <trkpt lat="49.23873" lon="1.66284">
        <ele>187</ele>
        <time>2014-09-28T09:17:03.000Z</time>
      </trkpt>
      <trkpt lat="49.23876" lon="1.66292">
        <ele>188</ele>
        <time>2014-09-28T09:17:05.000Z</time>
      </trkpt>
      <trkpt lat="49.23881" lon="1.66302">
        <ele>189</ele>
        <time>2014-09-28T09:17:07.000Z</time>
      </trkpt>
      <trkpt lat="49.23883" lon="1.66311">
        <ele>189</ele>
        <time>2014-09-28T09:17:09.000Z</time>
      </trkpt>
      <trkpt lat="49.23883" lon="1.66311">
        <ele>189</ele>
        <time>2014-09-28T09:17:11.000Z</time>
      </trkpt>
      <trkpt lat="49.23888" lon="1.66327">
        <ele>190</ele>
        <time>2014-09-28T09:17:13.000Z</time>
      </trkpt>
      <trkpt lat="49.2389" lon="1.66336">
        <ele>190</ele>
        <time>2014-09-28T09:17:15.000Z</time>
      </trkpt>
      <trkpt lat="49.23891" lon="1.66346">
        <ele>191</ele>
        <time>2014-09-28T09:17:17.000Z</time>
      </trkpt>
      <trkpt lat="49.23894" lon="1.66357">
        <ele>191</ele>
        <time>2014-09-28T09:17:19.000Z</time>
      </trkpt>
      <trkpt lat="49.23896" lon="1.66366">
        <ele>192</ele>
        <time>2014-09-28T09:17:21.000Z</time>
      </trkpt>
      <trkpt lat="49.23898" lon="1.66376">
        <ele>192</ele>
        <time>2014-09-28T09:17:23.000Z</time>
      </trkpt>
      <trkpt lat="49.23899" lon="1.66385">
        <ele>192</ele>
        <time>2014-09-28T09:17:25.000Z</time>
      </trkpt>
      <trkpt lat="49.23901" lon="1.66395">
        <ele>192</ele>
        <time>2014-09-28T09:17:27.000Z</time>
      </trkpt>
      <trkpt lat="49.23901" lon="1.66395">
        <ele>192</ele>
        <time>2014-09-28T09:17:29.000Z</time>
      </trkpt>
      <trkpt lat="49.23903" lon="1.6641">
        <ele>193</ele>
        <time>2014-09-28T09:17:31.000Z</time>
      </trkpt>
      <trkpt lat="49.23905" lon="1.6642">
        <ele>193</ele>
        <time>2014-09-28T09:17:33.000Z</time>
      </trkpt>
      <trkpt lat="49.23907" lon="1.66432">
        <ele>193</ele>
        <time>2014-09-28T09:17:35.000Z</time>
      </trkpt>
      <trkpt lat="49.23911" lon="1.66445">
        <ele>194</ele>
        <time>2014-09-28T09:17:37.000Z</time>
      </trkpt>
      <trkpt lat="49.23914" lon="1.66459">
        <ele>195</ele>
        <time>2014-09-28T09:17:39.000Z</time>
      </trkpt>
      <trkpt lat="49.23916" lon="1.66473">
        <ele>195</ele>
        <time>2014-09-28T09:17:41.000Z</time>
      </trkpt>
      <trkpt lat="49.23919" lon="1.66488">
        <ele>196</ele>
        <time>2014-09-28T09:17:43.000Z</time>
      </trkpt>
      <trkpt lat="49.23921" lon="1.66503">
        <ele>196</ele>
        <time>2014-09-28T09:17:45.000Z</time>
      </trkpt>
      <trkpt lat="49.23923" lon="1.66517">
        <ele>196</ele>
        <time>2014-09-28T09:17:47.000Z</time>
      </trkpt>
      <trkpt lat="49.23926" lon="1.66529">
        <ele>197</ele>
        <time>2014-09-28T09:17:49.000Z</time>
      </trkpt>
      <trkpt lat="49.23927" lon="1.66539">
        <ele>196</ele>
        <time>2014-09-28T09:17:51.000Z</time>
      </trkpt>
      <trkpt lat="49.2393" lon="1.6655">
        <ele>196</ele>
        <time>2014-09-28T09:17:53.000Z</time>
      </trkpt>
      <trkpt lat="49.23934" lon="1.66563">
        <ele>196</ele>
        <time>2014-09-28T09:17:55.000Z</time>
      </trkpt>
      <trkpt lat="49.23936" lon="1.66578">
        <ele>194</ele>
        <time>2014-09-28T09:17:57.000Z</time>
      </trkpt>
      <trkpt lat="49.23938" lon="1.66594">
        <ele>194</ele>
        <time>2014-09-28T09:17:59.000Z</time>
      </trkpt>
      <trkpt lat="49.23941" lon="1.66607">
        <ele>194</ele>
        <time>2014-09-28T09:18:01.000Z</time>
      </trkpt>
      <trkpt lat="49.23943" lon="1.66618">
        <ele>194</ele>
        <time>2014-09-28T09:18:03.000Z</time>
      </trkpt>
      <trkpt lat="49.23945" lon="1.66629">
        <ele>194</ele>
        <time>2014-09-28T09:18:05.000Z</time>
      </trkpt>
      <trkpt lat="49.23946" lon="1.6664">
        <ele>194</ele>
        <time>2014-09-28T09:18:07.000Z</time>
      </trkpt>
      <trkpt lat="49.23948" lon="1.66651">
        <ele>194</ele>
        <time>2014-09-28T09:18:09.000Z</time>
      </trkpt>
      <trkpt lat="49.23952" lon="1.66661">
        <ele>194</ele>
        <time>2014-09-28T09:18:11.000Z</time>
      </trkpt>
      <trkpt lat="49.23955" lon="1.66672">
        <ele>194</ele>
        <time>2014-09-28T09:18:13.000Z</time>
      </trkpt>
      <trkpt lat="49.23956" lon="1.66684">
        <ele>192</ele>
        <time>2014-09-28T09:18:15.000Z</time>
      </trkpt>
      <trkpt lat="49.23959" lon="1.66696">
        <ele>191</ele>
        <time>2014-09-28T09:18:17.000Z</time>
      </trkpt>
      <trkpt lat="49.2396" lon="1.66709">
        <ele>189</ele>
        <time>2014-09-28T09:18:19.000Z</time>
      </trkpt>
      <trkpt lat="49.2396" lon="1.6672">
        <ele>187</ele>
        <time>2014-09-28T09:18:21.000Z</time>
      </trkpt>
      <trkpt lat="49.23959" lon="1.66731">
        <ele>186</ele>
        <time>2014-09-28T09:18:23.000Z</time>
      </trkpt>
      <trkpt lat="49.23959" lon="1.66746">
        <ele>184</ele>
        <time>2014-09-28T09:18:25.000Z</time>
      </trkpt>
      <trkpt lat="49.2396" lon="1.6676">
        <ele>181</ele>
        <time>2014-09-28T09:18:27.000Z</time>
      </trkpt>
      <trkpt lat="49.2396" lon="1.66772">
        <ele>180</ele>
        <time>2014-09-28T09:18:29.000Z</time>
      </trkpt>
      <trkpt lat="49.23961" lon="1.66783">
        <ele>178</ele>
        <time>2014-09-28T09:18:31.000Z</time>
      </trkpt>
      <trkpt lat="49.23962" lon="1.66795">
        <ele>177</ele>
        <time>2014-09-28T09:18:33.000Z</time>
      </trkpt>
      <trkpt lat="49.23964" lon="1.66805">
        <ele>177</ele>
        <time>2014-09-28T09:18:35.000Z</time>
      </trkpt>
      <trkpt lat="49.23966" lon="1.66815">
        <ele>176</ele>
        <time>2014-09-28T09:18:37.000Z</time>
      </trkpt>
      <trkpt lat="49.2397" lon="1.66827">
        <ele>175</ele>
        <time>2014-09-28T09:18:39.000Z</time>
      </trkpt>
      <trkpt lat="49.23974" lon="1.66837">
        <ele>175</ele>
        <time>2014-09-28T09:18:41.000Z</time>
      </trkpt>
      <trkpt lat="49.23977" lon="1.66845">
        <ele>175</ele>
        <time>2014-09-28T09:18:43.000Z</time>
      </trkpt>
      <trkpt lat="49.23977" lon="1.66845">
        <ele>175</ele>
        <time>2014-09-28T09:18:45.000Z</time>
      </trkpt>
      <trkpt lat="49.23978" lon="1.6685">
        <ele>174</ele>
        <time>2014-09-28T09:18:47.000Z</time>
      </trkpt>
      <trkpt lat="49.23976" lon="1.66854">
        <ele>174</ele>
        <time>2014-09-28T09:18:49.000Z</time>
      </trkpt>
      <trkpt lat="49.23974" lon="1.66858">
        <ele>174</ele>
        <time>2014-09-28T09:18:51.000Z</time>
      </trkpt>
      <trkpt lat="49.23971" lon="1.66862">
        <ele>174</ele>
        <time>2014-09-28T09:18:53.000Z</time>
      </trkpt>
      <trkpt lat="49.23968" lon="1.66866">
        <ele>173</ele>
        <time>2014-09-28T09:18:55.000Z</time>
      </trkpt>
      <trkpt lat="49.23962" lon="1.66874">
        <ele>173</ele>
        <time>2014-09-28T09:18:57.000Z</time>
      </trkpt>
      <trkpt lat="49.23956" lon="1.66881">
        <ele>172</ele>
        <time>2014-09-28T09:19:01.000Z</time>
      </trkpt>
      <trkpt lat="49.2395" lon="1.66889">
        <ele>171</ele>
        <time>2014-09-28T09:19:05.000Z</time>
      </trkpt>
      <trkpt lat="49.23942" lon="1.66898">
        <ele>170</ele>
        <time>2014-09-28T09:19:09.000Z</time>
      </trkpt>
      <trkpt lat="49.23934" lon="1.66908">
        <ele>170</ele>
        <time>2014-09-28T09:19:13.000Z</time>
      </trkpt>
      <trkpt lat="49.23926" lon="1.66917">
        <ele>169</ele>
        <time>2014-09-28T09:19:17.000Z</time>
      </trkpt>
      <trkpt lat="49.23918" lon="1.66926">
        <ele>168</ele>
        <time>2014-09-28T09:19:21.000Z</time>
      </trkpt>
      <trkpt lat="49.23918" lon="1.66926">
        <ele>168</ele>
        <time>2014-09-28T09:19:23.000Z</time>
      </trkpt>
      <trkpt lat="49.2391" lon="1.66935">
        <ele>167</ele>
        <time>2014-09-28T09:19:25.000Z</time>
      </trkpt>
      <trkpt lat="49.23902" lon="1.66945">
        <ele>166</ele>
        <time>2014-09-28T09:19:29.000Z</time>
      </trkpt>
      <trkpt lat="49.23893" lon="1.66955">
        <ele>165</ele>
        <time>2014-09-28T09:19:33.000Z</time>
      </trkpt>
      <trkpt lat="49.23885" lon="1.66965">
        <ele>164</ele>
        <time>2014-09-28T09:19:37.000Z</time>
      </trkpt>
      <trkpt lat="49.23885" lon="1.66965">
        <ele>164</ele>
        <time>2014-09-28T09:19:39.000Z</time>
      </trkpt>
      <trkpt lat="49.23876" lon="1.66974">
        <ele>163</ele>
        <time>2014-09-28T09:19:41.000Z</time>
      </trkpt>
      <trkpt lat="49.23876" lon="1.66974">
        <ele>163</ele>
        <time>2014-09-28T09:19:43.000Z</time>
      </trkpt>
      <trkpt lat="49.23868" lon="1.66983">
        <ele>162</ele>
        <time>2014-09-28T09:19:45.000Z</time>
      </trkpt>
      <trkpt lat="49.23868" lon="1.66983">
        <ele>162</ele>
        <time>2014-09-28T09:19:47.000Z</time>
      </trkpt>
      <trkpt lat="49.2386" lon="1.66992">
        <ele>162</ele>
        <time>2014-09-28T09:19:49.000Z</time>
      </trkpt>
      <trkpt lat="49.23851" lon="1.67002">
        <ele>161</ele>
        <time>2014-09-28T09:19:53.000Z</time>
      </trkpt>
      <trkpt lat="49.23843" lon="1.67012">
        <ele>160</ele>
        <time>2014-09-28T09:19:57.000Z</time>
      </trkpt>
      <trkpt lat="49.23843" lon="1.67012">
        <ele>160</ele>
        <time>2014-09-28T09:19:59.000Z</time>
      </trkpt>
      <trkpt lat="49.23834" lon="1.6702">
        <ele>160</ele>
        <time>2014-09-28T09:20:01.000Z</time>
      </trkpt>
      <trkpt lat="49.23825" lon="1.67031">
        <ele>159</ele>
        <time>2014-09-28T09:20:05.000Z</time>
      </trkpt>
      <trkpt lat="49.2382" lon="1.67037">
        <ele>159</ele>
        <time>2014-09-28T09:20:07.000Z</time>
      </trkpt>
      <trkpt lat="49.2382" lon="1.67037">
        <ele>159</ele>
        <time>2014-09-28T09:20:09.000Z</time>
      </trkpt>
      <trkpt lat="49.2382" lon="1.67037">
        <ele>159</ele>
        <time>2014-09-28T09:20:11.000Z</time>
      </trkpt>
      <trkpt lat="49.2382" lon="1.67037">
        <ele>159</ele>
        <time>2014-09-28T09:20:13.000Z</time>
      </trkpt>
      <trkpt lat="49.23813" lon="1.67044">
        <ele>159</ele>
        <time>2014-09-28T09:21:09.000Z</time>
      </trkpt>
      <trkpt lat="49.23804" lon="1.67055">
        <ele>158</ele>
        <time>2014-09-28T09:21:13.000Z</time>
      </trkpt>
      <trkpt lat="49.23798" lon="1.67061">
        <ele>157</ele>
        <time>2014-09-28T09:21:15.000Z</time>
      </trkpt>
      <trkpt lat="49.23792" lon="1.67068">
        <ele>156</ele>
        <time>2014-09-28T09:21:17.000Z</time>
      </trkpt>
      <trkpt lat="49.23787" lon="1.67074">
        <ele>156</ele>
        <time>2014-09-28T09:21:19.000Z</time>
      </trkpt>
      <trkpt lat="49.2378" lon="1.67081">
        <ele>155</ele>
        <time>2014-09-28T09:21:21.000Z</time>
      </trkpt>
      <trkpt lat="49.23774" lon="1.67088">
        <ele>154</ele>
        <time>2014-09-28T09:21:23.000Z</time>
      </trkpt>
      <trkpt lat="49.23767" lon="1.67096">
        <ele>154</ele>
        <time>2014-09-28T09:21:25.000Z</time>
      </trkpt>
      <trkpt lat="49.2376" lon="1.67104">
        <ele>153</ele>
        <time>2014-09-28T09:21:27.000Z</time>
      </trkpt>
      <trkpt lat="49.23752" lon="1.67112">
        <ele>152</ele>
        <time>2014-09-28T09:21:29.000Z</time>
      </trkpt>
      <trkpt lat="49.23745" lon="1.67118">
        <ele>150</ele>
        <time>2014-09-28T09:21:31.000Z</time>
      </trkpt>
      <trkpt lat="49.23739" lon="1.67124">
        <ele>149</ele>
        <time>2014-09-28T09:21:33.000Z</time>
      </trkpt>
      <trkpt lat="49.23733" lon="1.67129">
        <ele>148</ele>
        <time>2014-09-28T09:21:35.000Z</time>
      </trkpt>
      <trkpt lat="49.23728" lon="1.67134">
        <ele>147</ele>
        <time>2014-09-28T09:21:37.000Z</time>
      </trkpt>
      <trkpt lat="49.23722" lon="1.67138">
        <ele>146</ele>
        <time>2014-09-28T09:21:39.000Z</time>
      </trkpt>
      <trkpt lat="49.23716" lon="1.67142">
        <ele>145</ele>
        <time>2014-09-28T09:21:41.000Z</time>
      </trkpt>
      <trkpt lat="49.23708" lon="1.67147">
        <ele>144</ele>
        <time>2014-09-28T09:21:43.000Z</time>
      </trkpt>
      <trkpt lat="49.237" lon="1.67153">
        <ele>143</ele>
        <time>2014-09-28T09:21:45.000Z</time>
      </trkpt>
      <trkpt lat="49.23692" lon="1.67159">
        <ele>143</ele>
        <time>2014-09-28T09:21:47.000Z</time>
      </trkpt>
      <trkpt lat="49.23681" lon="1.67167">
        <ele>142</ele>
        <time>2014-09-28T09:21:49.000Z</time>
      </trkpt>
      <trkpt lat="49.23671" lon="1.67174">
        <ele>141</ele>
        <time>2014-09-28T09:21:51.000Z</time>
      </trkpt>
      <trkpt lat="49.23662" lon="1.67181">
        <ele>140</ele>
        <time>2014-09-28T09:21:53.000Z</time>
      </trkpt>
      <trkpt lat="49.23653" lon="1.67188">
        <ele>139</ele>
        <time>2014-09-28T09:21:55.000Z</time>
      </trkpt>
      <trkpt lat="49.23645" lon="1.67195">
        <ele>138</ele>
        <time>2014-09-28T09:21:57.000Z</time>
      </trkpt>
      <trkpt lat="49.23637" lon="1.67202">
        <ele>137</ele>
        <time>2014-09-28T09:21:59.000Z</time>
      </trkpt>
      <trkpt lat="49.23628" lon="1.67208">
        <ele>136</ele>
        <time>2014-09-28T09:22:01.000Z</time>
      </trkpt>
      <trkpt lat="49.23619" lon="1.67215">
        <ele>136</ele>
        <time>2014-09-28T09:22:03.000Z</time>
      </trkpt>
      <trkpt lat="49.23611" lon="1.67221">
        <ele>136</ele>
        <time>2014-09-28T09:22:05.000Z</time>
      </trkpt>
      <trkpt lat="49.23603" lon="1.67227">
        <ele>136</ele>
        <time>2014-09-28T09:22:07.000Z</time>
      </trkpt>
      <trkpt lat="49.23595" lon="1.67233">
        <ele>135</ele>
        <time>2014-09-28T09:22:09.000Z</time>
      </trkpt>
      <trkpt lat="49.23588" lon="1.67239">
        <ele>135</ele>
        <time>2014-09-28T09:22:11.000Z</time>
      </trkpt>
      <trkpt lat="49.23581" lon="1.67245">
        <ele>135</ele>
        <time>2014-09-28T09:22:13.000Z</time>
      </trkpt>
      <trkpt lat="49.23574" lon="1.67254">
        <ele>134</ele>
        <time>2014-09-28T09:22:15.000Z</time>
      </trkpt>
      <trkpt lat="49.23573" lon="1.67266">
        <ele>134</ele>
        <time>2014-09-28T09:22:17.000Z</time>
      </trkpt>
      <trkpt lat="49.23573" lon="1.67279">
        <ele>134</ele>
        <time>2014-09-28T09:22:19.000Z</time>
      </trkpt>
      <trkpt lat="49.23575" lon="1.67292">
        <ele>133</ele>
        <time>2014-09-28T09:22:21.000Z</time>
      </trkpt>
      <trkpt lat="49.23577" lon="1.67306">
        <ele>134</ele>
        <time>2014-09-28T09:22:23.000Z</time>
      </trkpt>
      <trkpt lat="49.23579" lon="1.6732">
        <ele>134</ele>
        <time>2014-09-28T09:22:25.000Z</time>
      </trkpt>
      <trkpt lat="49.23579" lon="1.67336">
        <ele>134</ele>
        <time>2014-09-28T09:22:27.000Z</time>
      </trkpt>
      <trkpt lat="49.23578" lon="1.67351">
        <ele>134</ele>
        <time>2014-09-28T09:22:29.000Z</time>
      </trkpt>
      <trkpt lat="49.23576" lon="1.67368">
        <ele>134</ele>
        <time>2014-09-28T09:22:31.000Z</time>
      </trkpt>
      <trkpt lat="49.23574" lon="1.67385">
        <ele>133</ele>
        <time>2014-09-28T09:22:33.000Z</time>
      </trkpt>
      <trkpt lat="49.23572" lon="1.67403">
        <ele>133</ele>
        <time>2014-09-28T09:22:35.000Z</time>
      </trkpt>
      <trkpt lat="49.23571" lon="1.67421">
        <ele>133</ele>
        <time>2014-09-28T09:22:37.000Z</time>
      </trkpt>
      <trkpt lat="49.23568" lon="1.6744">
        <ele>133</ele>
        <time>2014-09-28T09:22:39.000Z</time>
      </trkpt>
      <trkpt lat="49.23567" lon="1.67457">
        <ele>133</ele>
        <time>2014-09-28T09:22:41.000Z</time>
      </trkpt>
      <trkpt lat="49.23566" lon="1.67474">
        <ele>133</ele>
        <time>2014-09-28T09:22:43.000Z</time>
      </trkpt>
      <trkpt lat="49.23565" lon="1.6749">
        <ele>132</ele>
        <time>2014-09-28T09:22:45.000Z</time>
      </trkpt>
      <trkpt lat="49.23563" lon="1.67505">
        <ele>132</ele>
        <time>2014-09-28T09:22:47.000Z</time>
      </trkpt>
      <trkpt lat="49.23563" lon="1.67521">
        <ele>132</ele>
        <time>2014-09-28T09:22:48.000Z</time>
      </trkpt>
      <trkpt lat="49.23562" lon="1.67537">
        <ele>132</ele>
        <time>2014-09-28T09:22:50.000Z</time>
      </trkpt>
      <trkpt lat="49.23561" lon="1.67553">
        <ele>132</ele>
        <time>2014-09-28T09:22:52.000Z</time>
      </trkpt>
      <trkpt lat="49.2356" lon="1.67568">
        <ele>132</ele>
        <time>2014-09-28T09:22:54.000Z</time>
      </trkpt>
      <trkpt lat="49.23558" lon="1.67583">
        <ele>132</ele>
        <time>2014-09-28T09:22:56.000Z</time>
      </trkpt>
      <trkpt lat="49.23556" lon="1.67598">
        <ele>131</ele>
        <time>2014-09-28T09:22:58.000Z</time>
      </trkpt>
      <trkpt lat="49.23553" lon="1.67611">
        <ele>131</ele>
        <time>2014-09-28T09:23:00.000Z</time>
      </trkpt>
      <trkpt lat="49.23549" lon="1.67624">
        <ele>132</ele>
        <time>2014-09-28T09:23:02.000Z</time>
      </trkpt>
      <trkpt lat="49.23544" lon="1.67636">
        <ele>131</ele>
        <time>2014-09-28T09:23:04.000Z</time>
      </trkpt>
      <trkpt lat="49.23539" lon="1.67647">
        <ele>132</ele>
        <time>2014-09-28T09:23:06.000Z</time>
      </trkpt>
      <trkpt lat="49.23534" lon="1.67658">
        <ele>132</ele>
        <time>2014-09-28T09:23:08.000Z</time>
      </trkpt>
      <trkpt lat="49.23529" lon="1.67669">
        <ele>132</ele>
        <time>2014-09-28T09:23:10.000Z</time>
      </trkpt>
      <trkpt lat="49.23524" lon="1.67679">
        <ele>132</ele>
        <time>2014-09-28T09:23:12.000Z</time>
      </trkpt>
      <trkpt lat="49.2352" lon="1.67689">
        <ele>131</ele>
        <time>2014-09-28T09:23:14.000Z</time>
      </trkpt>
      <trkpt lat="49.23515" lon="1.67699">
        <ele>132</ele>
        <time>2014-09-28T09:23:16.000Z</time>
      </trkpt>
      <trkpt lat="49.23509" lon="1.67707">
        <ele>132</ele>
        <time>2014-09-28T09:23:18.000Z</time>
      </trkpt>
      <trkpt lat="49.23503" lon="1.67715">
        <ele>131</ele>
        <time>2014-09-28T09:23:20.000Z</time>
      </trkpt>
      <trkpt lat="49.23497" lon="1.67722">
        <ele>132</ele>
        <time>2014-09-28T09:23:22.000Z</time>
      </trkpt>
      <trkpt lat="49.23491" lon="1.67728">
        <ele>132</ele>
        <time>2014-09-28T09:23:24.000Z</time>
      </trkpt>
      <trkpt lat="49.23485" lon="1.67735">
        <ele>131</ele>
        <time>2014-09-28T09:23:26.000Z</time>
      </trkpt>
      <trkpt lat="49.23479" lon="1.67741">
        <ele>131</ele>
        <time>2014-09-28T09:23:28.000Z</time>
      </trkpt>
      <trkpt lat="49.23473" lon="1.67748">
        <ele>131</ele>
        <time>2014-09-28T09:23:30.000Z</time>
      </trkpt>
      <trkpt lat="49.23467" lon="1.67753">
        <ele>131</ele>
        <time>2014-09-28T09:23:32.000Z</time>
      </trkpt>
      <trkpt lat="49.23462" lon="1.67759">
        <ele>130</ele>
        <time>2014-09-28T09:23:34.000Z</time>
      </trkpt>
      <trkpt lat="49.23457" lon="1.67764">
        <ele>130</ele>
        <time>2014-09-28T09:23:36.000Z</time>
      </trkpt>
      <trkpt lat="49.23451" lon="1.67769">
        <ele>130</ele>
        <time>2014-09-28T09:23:38.000Z</time>
      </trkpt>
      <trkpt lat="49.23446" lon="1.67773">
        <ele>130</ele>
        <time>2014-09-28T09:23:40.000Z</time>
      </trkpt>
      <trkpt lat="49.23439" lon="1.67775">
        <ele>130</ele>
        <time>2014-09-28T09:23:42.000Z</time>
      </trkpt>
      <trkpt lat="49.23431" lon="1.67775">
        <ele>130</ele>
        <time>2014-09-28T09:23:44.000Z</time>
      </trkpt>
      <trkpt lat="49.23423" lon="1.67773">
        <ele>130</ele>
        <time>2014-09-28T09:23:46.000Z</time>
      </trkpt>
      <trkpt lat="49.23413" lon="1.67772">
        <ele>129</ele>
        <time>2014-09-28T09:23:48.000Z</time>
      </trkpt>
      <trkpt lat="49.23404" lon="1.67771">
        <ele>129</ele>
        <time>2014-09-28T09:23:50.000Z</time>
      </trkpt>
      <trkpt lat="49.23395" lon="1.67771">
        <ele>128</ele>
        <time>2014-09-28T09:23:52.000Z</time>
      </trkpt>
      <trkpt lat="49.23386" lon="1.67771">
        <ele>128</ele>
        <time>2014-09-28T09:23:54.000Z</time>
      </trkpt>
      <trkpt lat="49.23377" lon="1.67771">
        <ele>128</ele>
        <time>2014-09-28T09:23:56.000Z</time>
      </trkpt>
      <trkpt lat="49.23368" lon="1.6777">
        <ele>128</ele>
        <time>2014-09-28T09:23:58.000Z</time>
      </trkpt>
      <trkpt lat="49.2336" lon="1.67769">
        <ele>128</ele>
        <time>2014-09-28T09:24:00.000Z</time>
      </trkpt>
      <trkpt lat="49.23351" lon="1.6777">
        <ele>128</ele>
        <time>2014-09-28T09:24:02.000Z</time>
      </trkpt>
      <trkpt lat="49.23341" lon="1.67769">
        <ele>128</ele>
        <time>2014-09-28T09:24:04.000Z</time>
      </trkpt>
      <trkpt lat="49.23331" lon="1.67769">
        <ele>128</ele>
        <time>2014-09-28T09:24:06.000Z</time>
      </trkpt>
      <trkpt lat="49.2332" lon="1.67769">
        <ele>128</ele>
        <time>2014-09-28T09:24:08.000Z</time>
      </trkpt>
      <trkpt lat="49.23309" lon="1.67768">
        <ele>127</ele>
        <time>2014-09-28T09:24:10.000Z</time>
      </trkpt>
      <trkpt lat="49.23296" lon="1.67768">
        <ele>127</ele>
        <time>2014-09-28T09:24:12.000Z</time>
      </trkpt>
      <trkpt lat="49.23283" lon="1.67767">
        <ele>127</ele>
        <time>2014-09-28T09:24:14.000Z</time>
      </trkpt>
      <trkpt lat="49.2327" lon="1.67767">
        <ele>127</ele>
        <time>2014-09-28T09:24:16.000Z</time>
      </trkpt>
      <trkpt lat="49.23257" lon="1.67767">
        <ele>126</ele>
        <time>2014-09-28T09:24:18.000Z</time>
      </trkpt>
      <trkpt lat="49.23243" lon="1.67767">
        <ele>126</ele>
        <time>2014-09-28T09:24:20.000Z</time>
      </trkpt>
      <trkpt lat="49.23229" lon="1.67767">
        <ele>125</ele>
        <time>2014-09-28T09:24:22.000Z</time>
      </trkpt>
      <trkpt lat="49.23215" lon="1.67767">
        <ele>125</ele>
        <time>2014-09-28T09:24:24.000Z</time>
      </trkpt>
      <trkpt lat="49.23201" lon="1.67766">
        <ele>125</ele>
        <time>2014-09-28T09:24:26.000Z</time>
      </trkpt>
      <trkpt lat="49.23187" lon="1.67766">
        <ele>124</ele>
        <time>2014-09-28T09:24:28.000Z</time>
      </trkpt>
      <trkpt lat="49.23173" lon="1.67766">
        <ele>124</ele>
        <time>2014-09-28T09:24:30.000Z</time>
      </trkpt>
      <trkpt lat="49.23159" lon="1.67766">
        <ele>123</ele>
        <time>2014-09-28T09:24:32.000Z</time>
      </trkpt>
      <trkpt lat="49.23146" lon="1.67766">
        <ele>123</ele>
        <time>2014-09-28T09:24:34.000Z</time>
      </trkpt>
      <trkpt lat="49.23132" lon="1.67765">
        <ele>123</ele>
        <time>2014-09-28T09:24:36.000Z</time>
      </trkpt>
      <trkpt lat="49.23119" lon="1.67765">
        <ele>122</ele>
        <time>2014-09-28T09:24:38.000Z</time>
      </trkpt>
      <trkpt lat="49.23106" lon="1.67765">
        <ele>122</ele>
        <time>2014-09-28T09:24:40.000Z</time>
      </trkpt>
      <trkpt lat="49.23093" lon="1.67765">
        <ele>121</ele>
        <time>2014-09-28T09:24:42.000Z</time>
      </trkpt>
      <trkpt lat="49.23082" lon="1.67764">
        <ele>121</ele>
        <time>2014-09-28T09:24:44.000Z</time>
      </trkpt>
      <trkpt lat="49.23072" lon="1.67767">
        <ele>121</ele>
        <time>2014-09-28T09:24:46.000Z</time>
      </trkpt>
      <trkpt lat="49.23066" lon="1.67777">
        <ele>121</ele>
        <time>2014-09-28T09:24:48.000Z</time>
      </trkpt>
      <trkpt lat="49.23063" lon="1.67792">
        <ele>120</ele>
        <time>2014-09-28T09:24:50.000Z</time>
      </trkpt>
      <trkpt lat="49.23061" lon="1.67809">
        <ele>119</ele>
        <time>2014-09-28T09:24:52.000Z</time>
      </trkpt>
      <trkpt lat="49.2306" lon="1.67825">
        <ele>119</ele>
        <time>2014-09-28T09:24:54.000Z</time>
      </trkpt>
      <trkpt lat="49.23058" lon="1.67842">
        <ele>119</ele>
        <time>2014-09-28T09:24:56.000Z</time>
      </trkpt>
      <trkpt lat="49.23057" lon="1.67859">
        <ele>118</ele>
        <time>2014-09-28T09:24:58.000Z</time>
      </trkpt>
      <trkpt lat="49.23053" lon="1.67876">
        <ele>118</ele>
        <time>2014-09-28T09:25:00.000Z</time>
      </trkpt>
      <trkpt lat="49.23047" lon="1.67892">
        <ele>117</ele>
        <time>2014-09-28T09:25:02.000Z</time>
      </trkpt>
      <trkpt lat="49.2304" lon="1.67909">
        <ele>117</ele>
        <time>2014-09-28T09:25:04.000Z</time>
      </trkpt>
      <trkpt lat="49.23033" lon="1.67926">
        <ele>117</ele>
        <time>2014-09-28T09:25:06.000Z</time>
      </trkpt>
      <trkpt lat="49.23025" lon="1.67943">
        <ele>116</ele>
        <time>2014-09-28T09:25:08.000Z</time>
      </trkpt>
      <trkpt lat="49.23018" lon="1.67961">
        <ele>116</ele>
        <time>2014-09-28T09:25:10.000Z</time>
      </trkpt>
      <trkpt lat="49.23013" lon="1.6798">
        <ele>115</ele>
        <time>2014-09-28T09:25:12.000Z</time>
      </trkpt>
      <trkpt lat="49.23008" lon="1.68001">
        <ele>115</ele>
        <time>2014-09-28T09:25:14.000Z</time>
      </trkpt>
      <trkpt lat="49.23005" lon="1.68024">
        <ele>114</ele>
        <time>2014-09-28T09:25:16.000Z</time>
      </trkpt>
      <trkpt lat="49.23003" lon="1.68047">
        <ele>113</ele>
        <time>2014-09-28T09:25:18.000Z</time>
      </trkpt>
      <trkpt lat="49.23001" lon="1.68069">
        <ele>112</ele>
        <time>2014-09-28T09:25:20.000Z</time>
      </trkpt>
      <trkpt lat="49.23" lon="1.68091">
        <ele>112</ele>
        <time>2014-09-28T09:25:22.000Z</time>
      </trkpt>
      <trkpt lat="49.22998" lon="1.68112">
        <ele>112</ele>
        <time>2014-09-28T09:25:24.000Z</time>
      </trkpt>
      <trkpt lat="49.22997" lon="1.68132">
        <ele>112</ele>
        <time>2014-09-28T09:25:26.000Z</time>
      </trkpt>
      <trkpt lat="49.22997" lon="1.68152">
        <ele>111</ele>
        <time>2014-09-28T09:25:28.000Z</time>
      </trkpt>
      <trkpt lat="49.22996" lon="1.68173">
        <ele>111</ele>
        <time>2014-09-28T09:25:30.000Z</time>
      </trkpt>
      <trkpt lat="49.22995" lon="1.68194">
        <ele>110</ele>
        <time>2014-09-28T09:25:32.000Z</time>
      </trkpt>
      <trkpt lat="49.22994" lon="1.68216">
        <ele>110</ele>
        <time>2014-09-28T09:25:34.000Z</time>
      </trkpt>
      <trkpt lat="49.22994" lon="1.68237">
        <ele>110</ele>
        <time>2014-09-28T09:25:36.000Z</time>
      </trkpt>
      <trkpt lat="49.22994" lon="1.6826">
        <ele>110</ele>
        <time>2014-09-28T09:25:38.000Z</time>
      </trkpt>
      <trkpt lat="49.22994" lon="1.68282">
        <ele>110</ele>
        <time>2014-09-28T09:25:40.000Z</time>
      </trkpt>
      <trkpt lat="49.22994" lon="1.68304">
        <ele>110</ele>
        <time>2014-09-28T09:25:42.000Z</time>
      </trkpt>
      <trkpt lat="49.22994" lon="1.68327">
        <ele>110</ele>
        <time>2014-09-28T09:25:44.000Z</time>
      </trkpt>
      <trkpt lat="49.22995" lon="1.6835">
        <ele>111</ele>
        <time>2014-09-28T09:25:46.000Z</time>
      </trkpt>
      <trkpt lat="49.22995" lon="1.68372">
        <ele>111</ele>
        <time>2014-09-28T09:25:48.000Z</time>
      </trkpt>
      <trkpt lat="49.22994" lon="1.68395">
        <ele>111</ele>
        <time>2014-09-28T09:25:50.000Z</time>
      </trkpt>
      <trkpt lat="49.22993" lon="1.6842">
        <ele>110</ele>
        <time>2014-09-28T09:25:52.000Z</time>
      </trkpt>
      <trkpt lat="49.22991" lon="1.68445">
        <ele>109</ele>
        <time>2014-09-28T09:25:54.000Z</time>
      </trkpt>
      <trkpt lat="49.22989" lon="1.6847">
        <ele>108</ele>
        <time>2014-09-28T09:25:56.000Z</time>
      </trkpt>
      <trkpt lat="49.22986" lon="1.68495">
        <ele>107</ele>
        <time>2014-09-28T09:25:58.000Z</time>
      </trkpt>
      <trkpt lat="49.22983" lon="1.68518">
        <ele>106</ele>
        <time>2014-09-28T09:26:00.000Z</time>
      </trkpt>
      <trkpt lat="49.22979" lon="1.6854">
        <ele>105</ele>
        <time>2014-09-28T09:26:02.000Z</time>
      </trkpt>
      <trkpt lat="49.22974" lon="1.68562">
        <ele>104</ele>
        <time>2014-09-28T09:26:04.000Z</time>
      </trkpt>
      <trkpt lat="49.22968" lon="1.68584">
        <ele>103</ele>
        <time>2014-09-28T09:26:06.000Z</time>
      </trkpt>
      <trkpt lat="49.22961" lon="1.68606">
        <ele>102</ele>
        <time>2014-09-28T09:26:08.000Z</time>
      </trkpt>
      <trkpt lat="49.22953" lon="1.68628">
        <ele>101</ele>
        <time>2014-09-28T09:26:10.000Z</time>
      </trkpt>
      <trkpt lat="49.22945" lon="1.68651">
        <ele>100</ele>
        <time>2014-09-28T09:26:12.000Z</time>
      </trkpt>
      <trkpt lat="49.22937" lon="1.68674">
        <ele>100</ele>
        <time>2014-09-28T09:26:14.000Z</time>
      </trkpt>
      <trkpt lat="49.22929" lon="1.68698">
        <ele>99</ele>
        <time>2014-09-28T09:26:16.000Z</time>
      </trkpt>
      <trkpt lat="49.22923" lon="1.68721">
        <ele>99</ele>
        <time>2014-09-28T09:26:18.000Z</time>
      </trkpt>
      <trkpt lat="49.22915" lon="1.68744">
        <ele>98</ele>
        <time>2014-09-28T09:26:20.000Z</time>
      </trkpt>
      <trkpt lat="49.22908" lon="1.68765">
        <ele>99</ele>
        <time>2014-09-28T09:26:22.000Z</time>
      </trkpt>
      <trkpt lat="49.22901" lon="1.68787">
        <ele>98</ele>
        <time>2014-09-28T09:26:24.000Z</time>
      </trkpt>
      <trkpt lat="49.22893" lon="1.68807">
        <ele>98</ele>
        <time>2014-09-28T09:26:26.000Z</time>
      </trkpt>
      <trkpt lat="49.22886" lon="1.68828">
        <ele>97</ele>
        <time>2014-09-28T09:26:28.000Z</time>
      </trkpt>
      <trkpt lat="49.22878" lon="1.68849">
        <ele>97</ele>
        <time>2014-09-28T09:26:30.000Z</time>
      </trkpt>
      <trkpt lat="49.22872" lon="1.68871">
        <ele>97</ele>
        <time>2014-09-28T09:26:32.000Z</time>
      </trkpt>
      <trkpt lat="49.22868" lon="1.68894">
        <ele>96</ele>
        <time>2014-09-28T09:26:34.000Z</time>
      </trkpt>
      <trkpt lat="49.22868" lon="1.68919">
        <ele>94</ele>
        <time>2014-09-28T09:26:36.000Z</time>
      </trkpt>
      <trkpt lat="49.22871" lon="1.68944">
        <ele>93</ele>
        <time>2014-09-28T09:26:38.000Z</time>
      </trkpt>
      <trkpt lat="49.22874" lon="1.68968">
        <ele>92</ele>
        <time>2014-09-28T09:26:40.000Z</time>
      </trkpt>
      <trkpt lat="49.22878" lon="1.68991">
        <ele>92</ele>
        <time>2014-09-28T09:26:42.000Z</time>
      </trkpt>
      <trkpt lat="49.22883" lon="1.69014">
        <ele>91</ele>
        <time>2014-09-28T09:26:44.000Z</time>
      </trkpt>
      <trkpt lat="49.22888" lon="1.69037">
        <ele>90</ele>
        <time>2014-09-28T09:26:46.000Z</time>
      </trkpt>
      <trkpt lat="49.22894" lon="1.6906">
        <ele>90</ele>
        <time>2014-09-28T09:26:48.000Z</time>
      </trkpt>
      <trkpt lat="49.22898" lon="1.69083">
        <ele>88</ele>
        <time>2014-09-28T09:26:50.000Z</time>
      </trkpt>
      <trkpt lat="49.22903" lon="1.69106">
        <ele>87</ele>
        <time>2014-09-28T09:26:52.000Z</time>
      </trkpt>
      <trkpt lat="49.22908" lon="1.69129">
        <ele>86</ele>
        <time>2014-09-28T09:26:54.000Z</time>
      </trkpt>
      <trkpt lat="49.22913" lon="1.69151">
        <ele>86</ele>
        <time>2014-09-28T09:26:56.000Z</time>
      </trkpt>
      <trkpt lat="49.22916" lon="1.69173">
        <ele>85</ele>
        <time>2014-09-28T09:26:58.000Z</time>
      </trkpt>
      <trkpt lat="49.2292" lon="1.69194">
        <ele>85</ele>
        <time>2014-09-28T09:27:00.000Z</time>
      </trkpt>
      <trkpt lat="49.22922" lon="1.69211">
        <ele>85</ele>
        <time>2014-09-28T09:27:02.000Z</time>
      </trkpt>
      <trkpt lat="49.22922" lon="1.69225">
        <ele>84</ele>
        <time>2014-09-28T09:27:04.000Z</time>
      </trkpt>
      <trkpt lat="49.22923" lon="1.69236">
        <ele>84</ele>
        <time>2014-09-28T09:27:06.000Z</time>
      </trkpt>
      <trkpt lat="49.22921" lon="1.69246">
        <ele>84</ele>
        <time>2014-09-28T09:27:08.000Z</time>
      </trkpt>
      <trkpt lat="49.22918" lon="1.69256">
        <ele>84</ele>
        <time>2014-09-28T09:27:10.000Z</time>
      </trkpt>
      <trkpt lat="49.22916" lon="1.69268">
        <ele>84</ele>
        <time>2014-09-28T09:27:12.000Z</time>
      </trkpt>
      <trkpt lat="49.22914" lon="1.69283">
        <ele>84</ele>
        <time>2014-09-28T09:27:14.000Z</time>
      </trkpt>
      <trkpt lat="49.22912" lon="1.69301">
        <ele>83</ele>
        <time>2014-09-28T09:27:16.000Z</time>
      </trkpt>
      <trkpt lat="49.22909" lon="1.69318">
        <ele>82</ele>
        <time>2014-09-28T09:27:18.000Z</time>
      </trkpt>
      <trkpt lat="49.22906" lon="1.69335">
        <ele>82</ele>
        <time>2014-09-28T09:27:20.000Z</time>
      </trkpt>
      <trkpt lat="49.22903" lon="1.69351">
        <ele>81</ele>
        <time>2014-09-28T09:27:22.000Z</time>
      </trkpt>
      <trkpt lat="49.229" lon="1.69366">
        <ele>81</ele>
        <time>2014-09-28T09:27:24.000Z</time>
      </trkpt>
      <trkpt lat="49.22898" lon="1.69378">
        <ele>81</ele>
        <time>2014-09-28T09:27:26.000Z</time>
      </trkpt>
      <trkpt lat="49.22897" lon="1.69388">
        <ele>81</ele>
        <time>2014-09-28T09:27:28.000Z</time>
      </trkpt>
      <trkpt lat="49.22895" lon="1.69397">
        <ele>80</ele>
        <time>2014-09-28T09:27:30.000Z</time>
      </trkpt>
      <trkpt lat="49.22895" lon="1.69397">
        <ele>80</ele>
        <time>2014-09-28T09:27:32.000Z</time>
      </trkpt>
      <trkpt lat="49.22896" lon="1.69412">
        <ele>80</ele>
        <time>2014-09-28T09:27:34.000Z</time>
      </trkpt>
      <trkpt lat="49.22902" lon="1.69416">
        <ele>80</ele>
        <time>2014-09-28T09:27:36.000Z</time>
      </trkpt>
      <trkpt lat="49.2291" lon="1.69422">
        <ele>80</ele>
        <time>2014-09-28T09:27:38.000Z</time>
      </trkpt>
      <trkpt lat="49.22918" lon="1.69431">
        <ele>80</ele>
        <time>2014-09-28T09:27:40.000Z</time>
      </trkpt>
      <trkpt lat="49.22926" lon="1.69439">
        <ele>80</ele>
        <time>2014-09-28T09:27:42.000Z</time>
      </trkpt>
      <trkpt lat="49.22935" lon="1.69447">
        <ele>80</ele>
        <time>2014-09-28T09:27:44.000Z</time>
      </trkpt>
      <trkpt lat="49.22944" lon="1.69456">
        <ele>80</ele>
        <time>2014-09-28T09:27:46.000Z</time>
      </trkpt>
      <trkpt lat="49.22954" lon="1.69465">
        <ele>80</ele>
        <time>2014-09-28T09:27:48.000Z</time>
      </trkpt>
      <trkpt lat="49.22964" lon="1.69473">
        <ele>80</ele>
        <time>2014-09-28T09:27:50.000Z</time>
      </trkpt>
      <trkpt lat="49.22973" lon="1.69482">
        <ele>80</ele>
        <time>2014-09-28T09:27:52.000Z</time>
      </trkpt>
      <trkpt lat="49.22983" lon="1.69491">
        <ele>80</ele>
        <time>2014-09-28T09:27:54.000Z</time>
      </trkpt>
      <trkpt lat="49.22993" lon="1.695">
        <ele>80</ele>
        <time>2014-09-28T09:27:56.000Z</time>
      </trkpt>
      <trkpt lat="49.23003" lon="1.6951">
        <ele>80</ele>
        <time>2014-09-28T09:27:58.000Z</time>
      </trkpt>
      <trkpt lat="49.23013" lon="1.6952">
        <ele>80</ele>
        <time>2014-09-28T09:28:00.000Z</time>
      </trkpt>
      <trkpt lat="49.23024" lon="1.6953">
        <ele>80</ele>
        <time>2014-09-28T09:28:02.000Z</time>
      </trkpt>
      <trkpt lat="49.23034" lon="1.69539">
        <ele>80</ele>
        <time>2014-09-28T09:28:04.000Z</time>
      </trkpt>
      <trkpt lat="49.23045" lon="1.69549">
        <ele>80</ele>
        <time>2014-09-28T09:28:06.000Z</time>
      </trkpt>
      <trkpt lat="49.23055" lon="1.69559">
        <ele>80</ele>
        <time>2014-09-28T09:28:08.000Z</time>
      </trkpt>
      <trkpt lat="49.23065" lon="1.69569">
        <ele>81</ele>
        <time>2014-09-28T09:28:10.000Z</time>
      </trkpt>
      <trkpt lat="49.23076" lon="1.69579">
        <ele>80</ele>
        <time>2014-09-28T09:28:12.000Z</time>
      </trkpt>
      <trkpt lat="49.23088" lon="1.69588">
        <ele>81</ele>
        <time>2014-09-28T09:28:14.000Z</time>
      </trkpt>
      <trkpt lat="49.231" lon="1.69598">
        <ele>80</ele>
        <time>2014-09-28T09:28:16.000Z</time>
      </trkpt>
      <trkpt lat="49.23111" lon="1.69607">
        <ele>80</ele>
        <time>2014-09-28T09:28:18.000Z</time>
      </trkpt>
      <trkpt lat="49.23124" lon="1.69616">
        <ele>80</ele>
        <time>2014-09-28T09:28:20.000Z</time>
      </trkpt>
      <trkpt lat="49.23135" lon="1.69624">
        <ele>80</ele>
        <time>2014-09-28T09:28:22.000Z</time>
      </trkpt>
      <trkpt lat="49.23147" lon="1.69632">
        <ele>80</ele>
        <time>2014-09-28T09:28:24.000Z</time>
      </trkpt>
      <trkpt lat="49.23159" lon="1.69639">
        <ele>80</ele>
        <time>2014-09-28T09:28:26.000Z</time>
      </trkpt>
      <trkpt lat="49.23171" lon="1.69646">
        <ele>80</ele>
        <time>2014-09-28T09:28:28.000Z</time>
      </trkpt>
      <trkpt lat="49.23183" lon="1.69653">
        <ele>80</ele>
        <time>2014-09-28T09:28:30.000Z</time>
      </trkpt>
      <trkpt lat="49.23196" lon="1.69659">
        <ele>80</ele>
        <time>2014-09-28T09:28:32.000Z</time>
      </trkpt>
      <trkpt lat="49.23209" lon="1.69665">
        <ele>80</ele>
        <time>2014-09-28T09:28:34.000Z</time>
      </trkpt>
      <trkpt lat="49.23222" lon="1.6967">
        <ele>80</ele>
        <time>2014-09-28T09:28:36.000Z</time>
      </trkpt>
      <trkpt lat="49.23235" lon="1.69675">
        <ele>80</ele>
        <time>2014-09-28T09:28:38.000Z</time>
      </trkpt>
      <trkpt lat="49.23247" lon="1.69679">
        <ele>80</ele>
        <time>2014-09-28T09:28:40.000Z</time>
      </trkpt>
      <trkpt lat="49.2326" lon="1.69683">
        <ele>80</ele>
        <time>2014-09-28T09:28:42.000Z</time>
      </trkpt>
      <trkpt lat="49.23272" lon="1.69686">
        <ele>80</ele>
        <time>2014-09-28T09:28:44.000Z</time>
      </trkpt>
      <trkpt lat="49.23284" lon="1.69689">
        <ele>79</ele>
        <time>2014-09-28T09:28:46.000Z</time>
      </trkpt>
      <trkpt lat="49.23297" lon="1.69691">
        <ele>79</ele>
        <time>2014-09-28T09:28:48.000Z</time>
      </trkpt>
      <trkpt lat="49.23309" lon="1.69693">
        <ele>80</ele>
        <time>2014-09-28T09:28:50.000Z</time>
      </trkpt>
      <trkpt lat="49.23321" lon="1.69695">
        <ele>80</ele>
        <time>2014-09-28T09:28:52.000Z</time>
      </trkpt>
      <trkpt lat="49.23334" lon="1.69696">
        <ele>79</ele>
        <time>2014-09-28T09:28:54.000Z</time>
      </trkpt>
      <trkpt lat="49.23346" lon="1.69696">
        <ele>79</ele>
        <time>2014-09-28T09:28:56.000Z</time>
      </trkpt>
      <trkpt lat="49.23359" lon="1.69697">
        <ele>79</ele>
        <time>2014-09-28T09:28:58.000Z</time>
      </trkpt>
      <trkpt lat="49.23372" lon="1.69696">
        <ele>79</ele>
        <time>2014-09-28T09:29:00.000Z</time>
      </trkpt>
      <trkpt lat="49.23385" lon="1.69696">
        <ele>79</ele>
        <time>2014-09-28T09:29:02.000Z</time>
      </trkpt>
      <trkpt lat="49.23398" lon="1.69696">
        <ele>79</ele>
        <time>2014-09-28T09:29:04.000Z</time>
      </trkpt>
      <trkpt lat="49.23411" lon="1.69696">
        <ele>79</ele>
        <time>2014-09-28T09:29:06.000Z</time>
      </trkpt>
      <trkpt lat="49.23424" lon="1.69696">
        <ele>79</ele>
        <time>2014-09-28T09:29:08.000Z</time>
      </trkpt>
      <trkpt lat="49.23438" lon="1.69696">
        <ele>80</ele>
        <time>2014-09-28T09:29:10.000Z</time>
      </trkpt>
      <trkpt lat="49.23451" lon="1.69695">
        <ele>80</ele>
        <time>2014-09-28T09:29:12.000Z</time>
      </trkpt>
      <trkpt lat="49.23464" lon="1.69695">
        <ele>80</ele>
        <time>2014-09-28T09:29:14.000Z</time>
      </trkpt>
      <trkpt lat="49.23478" lon="1.69697">
        <ele>80</ele>
        <time>2014-09-28T09:29:16.000Z</time>
      </trkpt>
      <trkpt lat="49.23492" lon="1.69697">
        <ele>80</ele>
        <time>2014-09-28T09:29:18.000Z</time>
      </trkpt>
      <trkpt lat="49.23505" lon="1.69697">
        <ele>80</ele>
        <time>2014-09-28T09:29:20.000Z</time>
      </trkpt>
      <trkpt lat="49.23519" lon="1.69697">
        <ele>80</ele>
        <time>2014-09-28T09:29:22.000Z</time>
      </trkpt>
      <trkpt lat="49.23531" lon="1.69697">
        <ele>79</ele>
        <time>2014-09-28T09:29:24.000Z</time>
      </trkpt>
      <trkpt lat="49.23544" lon="1.69699">
        <ele>79</ele>
        <time>2014-09-28T09:29:26.000Z</time>
      </trkpt>
      <trkpt lat="49.23557" lon="1.69701">
        <ele>80</ele>
        <time>2014-09-28T09:29:28.000Z</time>
      </trkpt>
      <trkpt lat="49.23569" lon="1.69703">
        <ele>80</ele>
        <time>2014-09-28T09:29:30.000Z</time>
      </trkpt>
      <trkpt lat="49.23582" lon="1.69705">
        <ele>79</ele>
        <time>2014-09-28T09:29:32.000Z</time>
      </trkpt>
      <trkpt lat="49.23595" lon="1.69709">
        <ele>79</ele>
        <time>2014-09-28T09:29:34.000Z</time>
      </trkpt>
      <trkpt lat="49.23608" lon="1.69713">
        <ele>79</ele>
        <time>2014-09-28T09:29:36.000Z</time>
      </trkpt>
      <trkpt lat="49.23621" lon="1.69716">
        <ele>80</ele>
        <time>2014-09-28T09:29:38.000Z</time>
      </trkpt>
      <trkpt lat="49.23633" lon="1.6972">
        <ele>80</ele>
        <time>2014-09-28T09:29:40.000Z</time>
      </trkpt>
      <trkpt lat="49.23646" lon="1.69725">
        <ele>80</ele>
        <time>2014-09-28T09:29:42.000Z</time>
      </trkpt>
      <trkpt lat="49.23658" lon="1.6973">
        <ele>80</ele>
        <time>2014-09-28T09:29:44.000Z</time>
      </trkpt>
      <trkpt lat="49.2367" lon="1.69735">
        <ele>81</ele>
        <time>2014-09-28T09:29:46.000Z</time>
      </trkpt>
      <trkpt lat="49.23683" lon="1.6974">
        <ele>81</ele>
        <time>2014-09-28T09:29:48.000Z</time>
      </trkpt>
      <trkpt lat="49.23695" lon="1.69745">
        <ele>81</ele>
        <time>2014-09-28T09:29:50.000Z</time>
      </trkpt>
      <trkpt lat="49.23706" lon="1.69752">
        <ele>81</ele>
        <time>2014-09-28T09:29:52.000Z</time>
      </trkpt>
      <trkpt lat="49.23718" lon="1.69759">
        <ele>81</ele>
        <time>2014-09-28T09:29:54.000Z</time>
      </trkpt>
      <trkpt lat="49.23729" lon="1.69764">
        <ele>81</ele>
        <time>2014-09-28T09:29:56.000Z</time>
      </trkpt>
      <trkpt lat="49.23742" lon="1.69771">
        <ele>80</ele>
        <time>2014-09-28T09:29:58.000Z</time>
      </trkpt>
      <trkpt lat="49.23753" lon="1.69779">
        <ele>80</ele>
        <time>2014-09-28T09:30:00.000Z</time>
      </trkpt>
      <trkpt lat="49.23765" lon="1.69787">
        <ele>80</ele>
        <time>2014-09-28T09:30:02.000Z</time>
      </trkpt>
      <trkpt lat="49.23777" lon="1.69794">
        <ele>80</ele>
        <time>2014-09-28T09:30:04.000Z</time>
      </trkpt>
      <trkpt lat="49.23788" lon="1.69801">
        <ele>80</ele>
        <time>2014-09-28T09:30:06.000Z</time>
      </trkpt>
      <trkpt lat="49.23799" lon="1.6981">
        <ele>80</ele>
        <time>2014-09-28T09:30:08.000Z</time>
      </trkpt>
      <trkpt lat="49.23812" lon="1.69819">
        <ele>79</ele>
        <time>2014-09-28T09:30:10.000Z</time>
      </trkpt>
      <trkpt lat="49.23823" lon="1.69827">
        <ele>79</ele>
        <time>2014-09-28T09:30:12.000Z</time>
      </trkpt>
      <trkpt lat="49.23834" lon="1.69836">
        <ele>79</ele>
        <time>2014-09-28T09:30:14.000Z</time>
      </trkpt>
      <trkpt lat="49.23846" lon="1.69845">
        <ele>80</ele>
        <time>2014-09-28T09:30:16.000Z</time>
      </trkpt>
      <trkpt lat="49.23857" lon="1.69854">
        <ele>79</ele>
        <time>2014-09-28T09:30:18.000Z</time>
      </trkpt>
      <trkpt lat="49.23869" lon="1.69863">
        <ele>79</ele>
        <time>2014-09-28T09:30:20.000Z</time>
      </trkpt>
      <trkpt lat="49.23881" lon="1.69871">
        <ele>79</ele>
        <time>2014-09-28T09:30:22.000Z</time>
      </trkpt>
      <trkpt lat="49.23893" lon="1.6988">
        <ele>79</ele>
        <time>2014-09-28T09:30:24.000Z</time>
      </trkpt>
      <trkpt lat="49.23904" lon="1.69888">
        <ele>79</ele>
        <time>2014-09-28T09:30:26.000Z</time>
      </trkpt>
      <trkpt lat="49.23915" lon="1.69895">
        <ele>79</ele>
        <time>2014-09-28T09:30:28.000Z</time>
      </trkpt>
      <trkpt lat="49.23926" lon="1.69901">
        <ele>79</ele>
        <time>2014-09-28T09:30:30.000Z</time>
      </trkpt>
      <trkpt lat="49.23936" lon="1.69907">
        <ele>78</ele>
        <time>2014-09-28T09:30:32.000Z</time>
      </trkpt>
      <trkpt lat="49.23947" lon="1.69915">
        <ele>78</ele>
        <time>2014-09-28T09:30:34.000Z</time>
      </trkpt>
      <trkpt lat="49.23957" lon="1.69923">
        <ele>78</ele>
        <time>2014-09-28T09:30:36.000Z</time>
      </trkpt>
      <trkpt lat="49.23968" lon="1.69933">
        <ele>78</ele>
        <time>2014-09-28T09:30:38.000Z</time>
      </trkpt>
      <trkpt lat="49.2398" lon="1.69941">
        <ele>78</ele>
        <time>2014-09-28T09:30:40.000Z</time>
      </trkpt>
      <trkpt lat="49.23992" lon="1.69949">
        <ele>78</ele>
        <time>2014-09-28T09:30:42.000Z</time>
      </trkpt>
      <trkpt lat="49.24004" lon="1.69956">
        <ele>78</ele>
        <time>2014-09-28T09:30:44.000Z</time>
      </trkpt>
      <trkpt lat="49.24015" lon="1.69965">
        <ele>78</ele>
        <time>2014-09-28T09:30:46.000Z</time>
      </trkpt>
      <trkpt lat="49.24024" lon="1.69969">
        <ele>79</ele>
        <time>2014-09-28T09:30:48.000Z</time>
      </trkpt>
      <trkpt lat="49.24034" lon="1.69975">
        <ele>78</ele>
        <time>2014-09-28T09:30:50.000Z</time>
      </trkpt>
      <trkpt lat="49.24044" lon="1.69983">
        <ele>78</ele>
        <time>2014-09-28T09:30:52.000Z</time>
      </trkpt>
      <trkpt lat="49.2405" lon="1.69989">
        <ele>78</ele>
        <time>2014-09-28T09:30:54.000Z</time>
      </trkpt>
      <trkpt lat="49.24059" lon="1.69994">
        <ele>78</ele>
        <time>2014-09-28T09:30:56.000Z</time>
      </trkpt>
      <trkpt lat="49.24071" lon="1.69999">
        <ele>78</ele>
        <time>2014-09-28T09:30:58.000Z</time>
      </trkpt>
      <trkpt lat="49.24082" lon="1.70003">
        <ele>78</ele>
        <time>2014-09-28T09:31:00.000Z</time>
      </trkpt>
      <trkpt lat="49.24092" lon="1.70005">
        <ele>79</ele>
        <time>2014-09-28T09:31:02.000Z</time>
      </trkpt>
      <trkpt lat="49.241" lon="1.70009">
        <ele>79</ele>
        <time>2014-09-28T09:31:04.000Z</time>
      </trkpt>
      <trkpt lat="49.24106" lon="1.70013">
        <ele>80</ele>
        <time>2014-09-28T09:31:06.000Z</time>
      </trkpt>
      <trkpt lat="49.24114" lon="1.70017">
        <ele>80</ele>
        <time>2014-09-28T09:31:08.000Z</time>
      </trkpt>
      <trkpt lat="49.24124" lon="1.70018">
        <ele>80</ele>
        <time>2014-09-28T09:31:10.000Z</time>
      </trkpt>
      <trkpt lat="49.24134" lon="1.70018">
        <ele>80</ele>
        <time>2014-09-28T09:31:12.000Z</time>
      </trkpt>
      <trkpt lat="49.24144" lon="1.70022">
        <ele>80</ele>
        <time>2014-09-28T09:31:14.000Z</time>
      </trkpt>
      <trkpt lat="49.24155" lon="1.70025">
        <ele>80</ele>
        <time>2014-09-28T09:31:16.000Z</time>
      </trkpt>
      <trkpt lat="49.24168" lon="1.70029">
        <ele>80</ele>
        <time>2014-09-28T09:31:18.000Z</time>
      </trkpt>
      <trkpt lat="49.2418" lon="1.70032">
        <ele>80</ele>
        <time>2014-09-28T09:31:20.000Z</time>
      </trkpt>
      <trkpt lat="49.24192" lon="1.70037">
        <ele>80</ele>
        <time>2014-09-28T09:31:22.000Z</time>
      </trkpt>
      <trkpt lat="49.24204" lon="1.70041">
        <ele>80</ele>
        <time>2014-09-28T09:31:24.000Z</time>
      </trkpt>
      <trkpt lat="49.24218" lon="1.70046">
        <ele>80</ele>
        <time>2014-09-28T09:31:26.000Z</time>
      </trkpt>
      <trkpt lat="49.24232" lon="1.7005">
        <ele>81</ele>
        <time>2014-09-28T09:31:28.000Z</time>
      </trkpt>
      <trkpt lat="49.24246" lon="1.70056">
        <ele>81</ele>
        <time>2014-09-28T09:31:31.000Z</time>
      </trkpt>
      <trkpt lat="49.2426" lon="1.70061">
        <ele>82</ele>
        <time>2014-09-28T09:31:33.000Z</time>
      </trkpt>
      <trkpt lat="49.24274" lon="1.70065">
        <ele>83</ele>
        <time>2014-09-28T09:31:35.000Z</time>
      </trkpt>
      <trkpt lat="49.24287" lon="1.7007">
        <ele>84</ele>
        <time>2014-09-28T09:31:37.000Z</time>
      </trkpt>
      <trkpt lat="49.24301" lon="1.70075">
        <ele>83</ele>
        <time>2014-09-28T09:31:39.000Z</time>
      </trkpt>
      <trkpt lat="49.24313" lon="1.7008">
        <ele>83</ele>
        <time>2014-09-28T09:31:41.000Z</time>
      </trkpt>
      <trkpt lat="49.24325" lon="1.70082">
        <ele>84</ele>
        <time>2014-09-28T09:31:43.000Z</time>
      </trkpt>
      <trkpt lat="49.24337" lon="1.70086">
        <ele>83</ele>
        <time>2014-09-28T09:31:45.000Z</time>
      </trkpt>
      <trkpt lat="49.24347" lon="1.70089">
        <ele>83</ele>
        <time>2014-09-28T09:31:47.000Z</time>
      </trkpt>
      <trkpt lat="49.24356" lon="1.70093">
        <ele>83</ele>
        <time>2014-09-28T09:31:49.000Z</time>
      </trkpt>
      <trkpt lat="49.24366" lon="1.70096">
        <ele>84</ele>
        <time>2014-09-28T09:31:51.000Z</time>
      </trkpt>
      <trkpt lat="49.24374" lon="1.70099">
        <ele>84</ele>
        <time>2014-09-28T09:31:53.000Z</time>
      </trkpt>
      <trkpt lat="49.24381" lon="1.70101">
        <ele>85</ele>
        <time>2014-09-28T09:31:55.000Z</time>
      </trkpt>
      <trkpt lat="49.24381" lon="1.70101">
        <ele>85</ele>
        <time>2014-09-28T09:31:57.000Z</time>
      </trkpt>
      <trkpt lat="49.24389" lon="1.70109">
        <ele>85</ele>
        <time>2014-09-28T09:31:59.000Z</time>
      </trkpt>
      <trkpt lat="49.24389" lon="1.70109">
        <ele>85</ele>
        <time>2014-09-28T09:32:01.000Z</time>
      </trkpt>
      <trkpt lat="49.24396" lon="1.70112">
        <ele>85</ele>
        <time>2014-09-28T09:32:03.000Z</time>
      </trkpt>
      <trkpt lat="49.24401" lon="1.70116">
        <ele>84</ele>
        <time>2014-09-28T09:32:05.000Z</time>
      </trkpt>
      <trkpt lat="49.24408" lon="1.7012">
        <ele>83</ele>
        <time>2014-09-28T09:32:07.000Z</time>
      </trkpt>
      <trkpt lat="49.24416" lon="1.70125">
        <ele>83</ele>
        <time>2014-09-28T09:32:09.000Z</time>
      </trkpt>
      <trkpt lat="49.24424" lon="1.70131">
        <ele>83</ele>
        <time>2014-09-28T09:32:11.000Z</time>
      </trkpt>
      <trkpt lat="49.24432" lon="1.70138">
        <ele>83</ele>
        <time>2014-09-28T09:32:13.000Z</time>
      </trkpt>
      <trkpt lat="49.24441" lon="1.70146">
        <ele>83</ele>
        <time>2014-09-28T09:32:15.000Z</time>
      </trkpt>
      <trkpt lat="49.24451" lon="1.70155">
        <ele>82</ele>
        <time>2014-09-28T09:32:17.000Z</time>
      </trkpt>
      <trkpt lat="49.24463" lon="1.70166">
        <ele>82</ele>
        <time>2014-09-28T09:32:19.000Z</time>
      </trkpt>
      <trkpt lat="49.24474" lon="1.70176">
        <ele>82</ele>
        <time>2014-09-28T09:32:21.000Z</time>
      </trkpt>
      <trkpt lat="49.24485" lon="1.70188">
        <ele>82</ele>
        <time>2014-09-28T09:32:23.000Z</time>
      </trkpt>
      <trkpt lat="49.24495" lon="1.702">
        <ele>82</ele>
        <time>2014-09-28T09:32:25.000Z</time>
      </trkpt>
      <trkpt lat="49.24503" lon="1.70211">
        <ele>82</ele>
        <time>2014-09-28T09:32:27.000Z</time>
      </trkpt>
      <trkpt lat="49.2451" lon="1.70221">
        <ele>82</ele>
        <time>2014-09-28T09:32:29.000Z</time>
      </trkpt>
      <trkpt lat="49.24517" lon="1.70232">
        <ele>82</ele>
        <time>2014-09-28T09:32:31.000Z</time>
      </trkpt>
      <trkpt lat="49.24524" lon="1.70245">
        <ele>82</ele>
        <time>2014-09-28T09:32:33.000Z</time>
      </trkpt>
      <trkpt lat="49.24532" lon="1.7026">
        <ele>82</ele>
        <time>2014-09-28T09:32:35.000Z</time>
      </trkpt>
      <trkpt lat="49.24539" lon="1.70275">
        <ele>83</ele>
        <time>2014-09-28T09:32:37.000Z</time>
      </trkpt>
      <trkpt lat="49.24547" lon="1.70291">
        <ele>83</ele>
        <time>2014-09-28T09:32:39.000Z</time>
      </trkpt>
      <trkpt lat="49.24555" lon="1.70309">
        <ele>83</ele>
        <time>2014-09-28T09:32:41.000Z</time>
      </trkpt>
      <trkpt lat="49.24563" lon="1.70326">
        <ele>83</ele>
        <time>2014-09-28T09:32:43.000Z</time>
      </trkpt>
      <trkpt lat="49.24572" lon="1.70343">
        <ele>83</ele>
        <time>2014-09-28T09:32:45.000Z</time>
      </trkpt>
      <trkpt lat="49.2458" lon="1.70361">
        <ele>82</ele>
        <time>2014-09-28T09:32:47.000Z</time>
      </trkpt>
      <trkpt lat="49.24588" lon="1.70379">
        <ele>81</ele>
        <time>2014-09-28T09:32:49.000Z</time>
      </trkpt>
      <trkpt lat="49.24597" lon="1.70396">
        <ele>81</ele>
        <time>2014-09-28T09:32:51.000Z</time>
      </trkpt>
      <trkpt lat="49.24606" lon="1.70413">
        <ele>81</ele>
        <time>2014-09-28T09:32:53.000Z</time>
      </trkpt>
      <trkpt lat="49.24615" lon="1.7043">
        <ele>81</ele>
        <time>2014-09-28T09:32:55.000Z</time>
      </trkpt>
      <trkpt lat="49.24623" lon="1.70446">
        <ele>80</ele>
        <time>2014-09-28T09:32:57.000Z</time>
      </trkpt>
      <trkpt lat="49.24633" lon="1.70461">
        <ele>80</ele>
        <time>2014-09-28T09:32:59.000Z</time>
      </trkpt>
      <trkpt lat="49.24642" lon="1.70477">
        <ele>80</ele>
        <time>2014-09-28T09:33:01.000Z</time>
      </trkpt>
      <trkpt lat="49.2465" lon="1.70493">
        <ele>80</ele>
        <time>2014-09-28T09:33:03.000Z</time>
      </trkpt>
      <trkpt lat="49.24659" lon="1.70509">
        <ele>80</ele>
        <time>2014-09-28T09:33:05.000Z</time>
      </trkpt>
      <trkpt lat="49.24669" lon="1.70524">
        <ele>80</ele>
        <time>2014-09-28T09:33:07.000Z</time>
      </trkpt>
      <trkpt lat="49.24677" lon="1.7054">
        <ele>80</ele>
        <time>2014-09-28T09:33:09.000Z</time>
      </trkpt>
      <trkpt lat="49.24685" lon="1.70556">
        <ele>81</ele>
        <time>2014-09-28T09:33:11.000Z</time>
      </trkpt>
      <trkpt lat="49.24693" lon="1.7057">
        <ele>80</ele>
        <time>2014-09-28T09:33:13.000Z</time>
      </trkpt>
      <trkpt lat="49.24701" lon="1.70584">
        <ele>79</ele>
        <time>2014-09-28T09:33:15.000Z</time>
      </trkpt>
      <trkpt lat="49.24709" lon="1.70599">
        <ele>79</ele>
        <time>2014-09-28T09:33:17.000Z</time>
      </trkpt>
      <trkpt lat="49.24717" lon="1.70612">
        <ele>79</ele>
        <time>2014-09-28T09:33:19.000Z</time>
      </trkpt>
      <trkpt lat="49.24726" lon="1.70628">
        <ele>79</ele>
        <time>2014-09-28T09:33:21.000Z</time>
      </trkpt>
      <trkpt lat="49.24735" lon="1.70644">
        <ele>79</ele>
        <time>2014-09-28T09:33:23.000Z</time>
      </trkpt>
      <trkpt lat="49.24744" lon="1.70661">
        <ele>80</ele>
        <time>2014-09-28T09:33:25.000Z</time>
      </trkpt>
      <trkpt lat="49.24752" lon="1.70677">
        <ele>80</ele>
        <time>2014-09-28T09:33:27.000Z</time>
      </trkpt>
      <trkpt lat="49.24761" lon="1.70693">
        <ele>81</ele>
        <time>2014-09-28T09:33:29.000Z</time>
      </trkpt>
      <trkpt lat="49.24769" lon="1.70708">
        <ele>81</ele>
        <time>2014-09-28T09:33:31.000Z</time>
      </trkpt>
      <trkpt lat="49.24778" lon="1.70722">
        <ele>81</ele>
        <time>2014-09-28T09:33:33.000Z</time>
      </trkpt>
      <trkpt lat="49.24786" lon="1.70736">
        <ele>81</ele>
        <time>2014-09-28T09:33:35.000Z</time>
      </trkpt>
      <trkpt lat="49.24794" lon="1.7075">
        <ele>81</ele>
        <time>2014-09-28T09:33:37.000Z</time>
      </trkpt>
      <trkpt lat="49.24801" lon="1.70764">
        <ele>81</ele>
        <time>2014-09-28T09:33:39.000Z</time>
      </trkpt>
      <trkpt lat="49.24809" lon="1.70779">
        <ele>80</ele>
        <time>2014-09-28T09:33:41.000Z</time>
      </trkpt>
      <trkpt lat="49.24817" lon="1.70792">
        <ele>79</ele>
        <time>2014-09-28T09:33:43.000Z</time>
      </trkpt>
      <trkpt lat="49.24825" lon="1.70808">
        <ele>79</ele>
        <time>2014-09-28T09:33:45.000Z</time>
      </trkpt>
      <trkpt lat="49.24835" lon="1.70822">
        <ele>79</ele>
        <time>2014-09-28T09:33:47.000Z</time>
      </trkpt>
      <trkpt lat="49.24844" lon="1.70835">
        <ele>79</ele>
        <time>2014-09-28T09:33:49.000Z</time>
      </trkpt>
      <trkpt lat="49.24851" lon="1.70847">
        <ele>79</ele>
        <time>2014-09-28T09:33:51.000Z</time>
      </trkpt>
      <trkpt lat="49.2486" lon="1.70861">
        <ele>79</ele>
        <time>2014-09-28T09:33:53.000Z</time>
      </trkpt>
      <trkpt lat="49.24868" lon="1.70875">
        <ele>79</ele>
        <time>2014-09-28T09:33:55.000Z</time>
      </trkpt>
      <trkpt lat="49.24876" lon="1.70891">
        <ele>80</ele>
        <time>2014-09-28T09:33:57.000Z</time>
      </trkpt>
      <trkpt lat="49.24883" lon="1.70907">
        <ele>79</ele>
        <time>2014-09-28T09:33:59.000Z</time>
      </trkpt>
      <trkpt lat="49.24891" lon="1.70924">
        <ele>79</ele>
        <time>2014-09-28T09:34:01.000Z</time>
      </trkpt>
      <trkpt lat="49.24901" lon="1.70942">
        <ele>78</ele>
        <time>2014-09-28T09:34:03.000Z</time>
      </trkpt>
      <trkpt lat="49.2491" lon="1.7096">
        <ele>78</ele>
        <time>2014-09-28T09:34:05.000Z</time>
      </trkpt>
      <trkpt lat="49.24921" lon="1.70977">
        <ele>78</ele>
        <time>2014-09-28T09:34:07.000Z</time>
      </trkpt>
      <trkpt lat="49.2493" lon="1.70994">
        <ele>78</ele>
        <time>2014-09-28T09:34:09.000Z</time>
      </trkpt>
      <trkpt lat="49.24939" lon="1.71009">
        <ele>79</ele>
        <time>2014-09-28T09:34:11.000Z</time>
      </trkpt>
      <trkpt lat="49.24949" lon="1.71025">
        <ele>79</ele>
        <time>2014-09-28T09:34:13.000Z</time>
      </trkpt>
      <trkpt lat="49.24959" lon="1.71039">
        <ele>79</ele>
        <time>2014-09-28T09:34:15.000Z</time>
      </trkpt>
      <trkpt lat="49.24969" lon="1.71054">
        <ele>79</ele>
        <time>2014-09-28T09:34:17.000Z</time>
      </trkpt>
      <trkpt lat="49.2498" lon="1.71068">
        <ele>79</ele>
        <time>2014-09-28T09:34:19.000Z</time>
      </trkpt>
      <trkpt lat="49.2499" lon="1.71081">
        <ele>79</ele>
        <time>2014-09-28T09:34:21.000Z</time>
      </trkpt>
      <trkpt lat="49.25001" lon="1.71093">
        <ele>79</ele>
        <time>2014-09-28T09:34:23.000Z</time>
      </trkpt>
      <trkpt lat="49.25013" lon="1.71106">
        <ele>79</ele>
        <time>2014-09-28T09:34:25.000Z</time>
      </trkpt>
      <trkpt lat="49.25025" lon="1.71118">
        <ele>79</ele>
        <time>2014-09-28T09:34:27.000Z</time>
      </trkpt>
      <trkpt lat="49.25037" lon="1.71129">
        <ele>80</ele>
        <time>2014-09-28T09:34:29.000Z</time>
      </trkpt>
      <trkpt lat="49.25048" lon="1.7114">
        <ele>79</ele>
        <time>2014-09-28T09:34:31.000Z</time>
      </trkpt>
      <trkpt lat="49.2506" lon="1.7115">
        <ele>79</ele>
        <time>2014-09-28T09:34:33.000Z</time>
      </trkpt>
      <trkpt lat="49.25073" lon="1.71159">
        <ele>79</ele>
        <time>2014-09-28T09:34:35.000Z</time>
      </trkpt>
      <trkpt lat="49.25085" lon="1.71167">
        <ele>79</ele>
        <time>2014-09-28T09:34:37.000Z</time>
      </trkpt>
      <trkpt lat="49.25098" lon="1.71175">
        <ele>78</ele>
        <time>2014-09-28T09:34:39.000Z</time>
      </trkpt>
      <trkpt lat="49.2511" lon="1.71183">
        <ele>78</ele>
        <time>2014-09-28T09:34:41.000Z</time>
      </trkpt>
      <trkpt lat="49.25123" lon="1.71189">
        <ele>78</ele>
        <time>2014-09-28T09:34:43.000Z</time>
      </trkpt>
      <trkpt lat="49.25135" lon="1.71196">
        <ele>78</ele>
        <time>2014-09-28T09:34:45.000Z</time>
      </trkpt>
      <trkpt lat="49.25148" lon="1.71202">
        <ele>79</ele>
        <time>2014-09-28T09:34:47.000Z</time>
      </trkpt>
      <trkpt lat="49.25159" lon="1.71208">
        <ele>79</ele>
        <time>2014-09-28T09:34:49.000Z</time>
      </trkpt>
      <trkpt lat="49.25171" lon="1.71212">
        <ele>78</ele>
        <time>2014-09-28T09:34:51.000Z</time>
      </trkpt>
      <trkpt lat="49.25183" lon="1.71215">
        <ele>78</ele>
        <time>2014-09-28T09:34:53.000Z</time>
      </trkpt>
      <trkpt lat="49.25195" lon="1.71217">
        <ele>79</ele>
        <time>2014-09-28T09:34:55.000Z</time>
      </trkpt>
      <trkpt lat="49.25206" lon="1.7122">
        <ele>79</ele>
        <time>2014-09-28T09:34:57.000Z</time>
      </trkpt>
      <trkpt lat="49.25218" lon="1.71223">
        <ele>79</ele>
        <time>2014-09-28T09:34:59.000Z</time>
      </trkpt>
      <trkpt lat="49.25229" lon="1.71225">
        <ele>79</ele>
        <time>2014-09-28T09:35:01.000Z</time>
      </trkpt>
      <trkpt lat="49.25242" lon="1.71226">
        <ele>79</ele>
        <time>2014-09-28T09:35:03.000Z</time>
      </trkpt>
      <trkpt lat="49.25254" lon="1.71226">
        <ele>79</ele>
        <time>2014-09-28T09:35:05.000Z</time>
      </trkpt>
      <trkpt lat="49.25267" lon="1.71226">
        <ele>80</ele>
        <time>2014-09-28T09:35:07.000Z</time>
      </trkpt>
      <trkpt lat="49.25278" lon="1.71226">
        <ele>80</ele>
        <time>2014-09-28T09:35:09.000Z</time>
      </trkpt>
      <trkpt lat="49.2529" lon="1.71226">
        <ele>79</ele>
        <time>2014-09-28T09:35:11.000Z</time>
      </trkpt>
      <trkpt lat="49.25301" lon="1.71226">
        <ele>80</ele>
        <time>2014-09-28T09:35:13.000Z</time>
      </trkpt>
      <trkpt lat="49.25313" lon="1.71225">
        <ele>80</ele>
        <time>2014-09-28T09:35:15.000Z</time>
      </trkpt>
      <trkpt lat="49.25325" lon="1.71223">
        <ele>80</ele>
        <time>2014-09-28T09:35:17.000Z</time>
      </trkpt>
      <trkpt lat="49.25337" lon="1.7122">
        <ele>80</ele>
        <time>2014-09-28T09:35:19.000Z</time>
      </trkpt>
      <trkpt lat="49.25348" lon="1.71219">
        <ele>80</ele>
        <time>2014-09-28T09:35:21.000Z</time>
      </trkpt>
      <trkpt lat="49.25358" lon="1.71217">
        <ele>81</ele>
        <time>2014-09-28T09:35:23.000Z</time>
      </trkpt>
      <trkpt lat="49.25368" lon="1.71215">
        <ele>81</ele>
        <time>2014-09-28T09:35:25.000Z</time>
      </trkpt>
      <trkpt lat="49.25378" lon="1.71214">
        <ele>80</ele>
        <time>2014-09-28T09:35:27.000Z</time>
      </trkpt>
      <trkpt lat="49.25386" lon="1.71212">
        <ele>81</ele>
        <time>2014-09-28T09:35:29.000Z</time>
      </trkpt>
      <trkpt lat="49.25394" lon="1.7121">
        <ele>81</ele>
        <time>2014-09-28T09:35:31.000Z</time>
      </trkpt>
      <trkpt lat="49.25401" lon="1.71209">
        <ele>81</ele>
        <time>2014-09-28T09:35:33.000Z</time>
      </trkpt>
      <trkpt lat="49.25401" lon="1.71209">
        <ele>81</ele>
        <time>2014-09-28T09:35:35.000Z</time>
      </trkpt>
      <trkpt lat="49.25409" lon="1.7121">
        <ele>82</ele>
        <time>2014-09-28T09:35:37.000Z</time>
      </trkpt>
      <trkpt lat="49.25409" lon="1.7121">
        <ele>82</ele>
        <time>2014-09-28T09:35:39.000Z</time>
      </trkpt>
      <trkpt lat="49.25409" lon="1.7121">
        <ele>82</ele>
        <time>2014-09-28T09:35:41.000Z</time>
      </trkpt>
      <trkpt lat="49.25419" lon="1.7121">
        <ele>81</ele>
        <time>2014-09-28T09:36:14.000Z</time>
      </trkpt>
      <trkpt lat="49.25419" lon="1.7121">
        <ele>81</ele>
        <time>2014-09-28T09:36:16.000Z</time>
      </trkpt>
      <trkpt lat="49.25426" lon="1.71209">
        <ele>82</ele>
        <time>2014-09-28T09:36:18.000Z</time>
      </trkpt>
      <trkpt lat="49.25438" lon="1.71204">
        <ele>82</ele>
        <time>2014-09-28T09:36:22.000Z</time>
      </trkpt>
      <trkpt lat="49.25447" lon="1.71202">
        <ele>82</ele>
        <time>2014-09-28T09:36:24.000Z</time>
      </trkpt>
      <trkpt lat="49.25456" lon="1.71201">
        <ele>81</ele>
        <time>2014-09-28T09:36:26.000Z</time>
      </trkpt>
      <trkpt lat="49.25466" lon="1.71199">
        <ele>81</ele>
        <time>2014-09-28T09:36:28.000Z</time>
      </trkpt>
      <trkpt lat="49.25477" lon="1.71198">
        <ele>81</ele>
        <time>2014-09-28T09:36:29.000Z</time>
      </trkpt>
      <trkpt lat="49.2549" lon="1.71195">
        <ele>80</ele>
        <time>2014-09-28T09:36:32.000Z</time>
      </trkpt>
      <trkpt lat="49.25503" lon="1.7119">
        <ele>81</ele>
        <time>2014-09-28T09:36:34.000Z</time>
      </trkpt>
      <trkpt lat="49.25515" lon="1.71189">
        <ele>80</ele>
        <time>2014-09-28T09:36:36.000Z</time>
      </trkpt>
      <trkpt lat="49.25529" lon="1.71188">
        <ele>80</ele>
        <time>2014-09-28T09:36:38.000Z</time>
      </trkpt>
      <trkpt lat="49.25542" lon="1.71185">
        <ele>79</ele>
        <time>2014-09-28T09:36:40.000Z</time>
      </trkpt>
      <trkpt lat="49.25556" lon="1.71181">
        <ele>78</ele>
        <time>2014-09-28T09:36:42.000Z</time>
      </trkpt>
      <trkpt lat="49.2557" lon="1.71178">
        <ele>79</ele>
        <time>2014-09-28T09:36:44.000Z</time>
      </trkpt>
      <trkpt lat="49.25584" lon="1.71176">
        <ele>79</ele>
        <time>2014-09-28T09:36:46.000Z</time>
      </trkpt>
      <trkpt lat="49.25598" lon="1.71175">
        <ele>80</ele>
        <time>2014-09-28T09:36:48.000Z</time>
      </trkpt>
      <trkpt lat="49.25612" lon="1.71174">
        <ele>80</ele>
        <time>2014-09-28T09:36:50.000Z</time>
      </trkpt>
      <trkpt lat="49.25627" lon="1.7117">
        <ele>81</ele>
        <time>2014-09-28T09:36:52.000Z</time>
      </trkpt>
      <trkpt lat="49.25639" lon="1.71169">
        <ele>81</ele>
        <time>2014-09-28T09:36:53.000Z</time>
      </trkpt>
      <trkpt lat="49.25652" lon="1.71168">
        <ele>81</ele>
        <time>2014-09-28T09:36:55.000Z</time>
      </trkpt>
      <trkpt lat="49.25666" lon="1.71165">
        <ele>82</ele>
        <time>2014-09-28T09:36:57.000Z</time>
      </trkpt>
      <trkpt lat="49.2568" lon="1.71162">
        <ele>81</ele>
        <time>2014-09-28T09:36:59.000Z</time>
      </trkpt>
      <trkpt lat="49.25694" lon="1.71161">
        <ele>81</ele>
        <time>2014-09-28T09:37:01.000Z</time>
      </trkpt>
      <trkpt lat="49.25708" lon="1.71159">
        <ele>81</ele>
        <time>2014-09-28T09:37:03.000Z</time>
      </trkpt>
      <trkpt lat="49.25722" lon="1.71155">
        <ele>80</ele>
        <time>2014-09-28T09:37:05.000Z</time>
      </trkpt>
      <trkpt lat="49.25737" lon="1.71153">
        <ele>79</ele>
        <time>2014-09-28T09:37:07.000Z</time>
      </trkpt>
      <trkpt lat="49.25751" lon="1.7115">
        <ele>79</ele>
        <time>2014-09-28T09:37:09.000Z</time>
      </trkpt>
      <trkpt lat="49.25763" lon="1.71147">
        <ele>79</ele>
        <time>2014-09-28T09:37:11.000Z</time>
      </trkpt>
      <trkpt lat="49.25775" lon="1.71144">
        <ele>79</ele>
        <time>2014-09-28T09:37:13.000Z</time>
      </trkpt>
      <trkpt lat="49.25788" lon="1.71145">
        <ele>79</ele>
        <time>2014-09-28T09:37:15.000Z</time>
      </trkpt>
      <trkpt lat="49.25802" lon="1.71145">
        <ele>79</ele>
        <time>2014-09-28T09:37:17.000Z</time>
      </trkpt>
      <trkpt lat="49.25816" lon="1.71141">
        <ele>78</ele>
        <time>2014-09-28T09:37:19.000Z</time>
      </trkpt>
      <trkpt lat="49.2583" lon="1.71138">
        <ele>78</ele>
        <time>2014-09-28T09:37:22.000Z</time>
      </trkpt>
      <trkpt lat="49.25843" lon="1.71135">
        <ele>78</ele>
        <time>2014-09-28T09:37:23.000Z</time>
      </trkpt>
      <trkpt lat="49.25855" lon="1.71131">
        <ele>79</ele>
        <time>2014-09-28T09:37:25.000Z</time>
      </trkpt>
      <trkpt lat="49.25867" lon="1.7113">
        <ele>80</ele>
        <time>2014-09-28T09:37:27.000Z</time>
      </trkpt>
      <trkpt lat="49.25882" lon="1.71129">
        <ele>80</ele>
        <time>2014-09-28T09:37:29.000Z</time>
      </trkpt>
      <trkpt lat="49.25895" lon="1.71128">
        <ele>79</ele>
        <time>2014-09-28T09:37:31.000Z</time>
      </trkpt>
      <trkpt lat="49.25908" lon="1.71125">
        <ele>80</ele>
        <time>2014-09-28T09:37:33.000Z</time>
      </trkpt>
      <trkpt lat="49.2592" lon="1.71125">
        <ele>79</ele>
        <time>2014-09-28T09:37:35.000Z</time>
      </trkpt>
      <trkpt lat="49.25933" lon="1.71127">
        <ele>79</ele>
        <time>2014-09-28T09:37:37.000Z</time>
      </trkpt>
      <trkpt lat="49.25945" lon="1.71128">
        <ele>79</ele>
        <time>2014-09-28T09:37:39.000Z</time>
      </trkpt>
      <trkpt lat="49.25959" lon="1.71129">
        <ele>79</ele>
        <time>2014-09-28T09:37:41.000Z</time>
      </trkpt>
      <trkpt lat="49.25972" lon="1.71131">
        <ele>79</ele>
        <time>2014-09-28T09:37:43.000Z</time>
      </trkpt>
      <trkpt lat="49.25986" lon="1.71132">
        <ele>79</ele>
        <time>2014-09-28T09:37:45.000Z</time>
      </trkpt>
      <trkpt lat="49.25998" lon="1.71135">
        <ele>79</ele>
        <time>2014-09-28T09:37:47.000Z</time>
      </trkpt>
      <trkpt lat="49.26011" lon="1.71137">
        <ele>79</ele>
        <time>2014-09-28T09:37:49.000Z</time>
      </trkpt>
      <trkpt lat="49.26024" lon="1.71139">
        <ele>78</ele>
        <time>2014-09-28T09:37:51.000Z</time>
      </trkpt>
      <trkpt lat="49.26038" lon="1.7114">
        <ele>78</ele>
        <time>2014-09-28T09:37:53.000Z</time>
      </trkpt>
      <trkpt lat="49.26051" lon="1.71139">
        <ele>79</ele>
        <time>2014-09-28T09:37:55.000Z</time>
      </trkpt>
      <trkpt lat="49.26063" lon="1.7114">
        <ele>79</ele>
        <time>2014-09-28T09:37:57.000Z</time>
      </trkpt>
      <trkpt lat="49.26075" lon="1.71139">
        <ele>79</ele>
        <time>2014-09-28T09:37:59.000Z</time>
      </trkpt>
      <trkpt lat="49.26086" lon="1.71139">
        <ele>79</ele>
        <time>2014-09-28T09:38:01.000Z</time>
      </trkpt>
      <trkpt lat="49.26094" lon="1.7114">
        <ele>79</ele>
        <time>2014-09-28T09:38:03.000Z</time>
      </trkpt>
      <trkpt lat="49.261" lon="1.71142">
        <ele>79</ele>
        <time>2014-09-28T09:38:05.000Z</time>
      </trkpt>
      <trkpt lat="49.26106" lon="1.7114">
        <ele>79</ele>
        <time>2014-09-28T09:38:07.000Z</time>
      </trkpt>
      <trkpt lat="49.26114" lon="1.71137">
        <ele>79</ele>
        <time>2014-09-28T09:38:09.000Z</time>
      </trkpt>
      <trkpt lat="49.26123" lon="1.71137">
        <ele>79</ele>
        <time>2014-09-28T09:38:11.000Z</time>
      </trkpt>
      <trkpt lat="49.26132" lon="1.71138">
        <ele>79</ele>
        <time>2014-09-28T09:38:13.000Z</time>
      </trkpt>
      <trkpt lat="49.2614" lon="1.7114">
        <ele>79</ele>
        <time>2014-09-28T09:38:15.000Z</time>
      </trkpt>
      <trkpt lat="49.2615" lon="1.71142">
        <ele>79</ele>
        <time>2014-09-28T09:38:17.000Z</time>
      </trkpt>
      <trkpt lat="49.26163" lon="1.71142">
        <ele>79</ele>
        <time>2014-09-28T09:38:19.000Z</time>
      </trkpt>
      <trkpt lat="49.26175" lon="1.71141">
        <ele>79</ele>
        <time>2014-09-28T09:38:21.000Z</time>
      </trkpt>
      <trkpt lat="49.26187" lon="1.71143">
        <ele>80</ele>
        <time>2014-09-28T09:38:23.000Z</time>
      </trkpt>
      <trkpt lat="49.26199" lon="1.71147">
        <ele>80</ele>
        <time>2014-09-28T09:38:25.000Z</time>
      </trkpt>
      <trkpt lat="49.26211" lon="1.7115">
        <ele>80</ele>
        <time>2014-09-28T09:38:27.000Z</time>
      </trkpt>
      <trkpt lat="49.26222" lon="1.71154">
        <ele>80</ele>
        <time>2014-09-28T09:38:29.000Z</time>
      </trkpt>
      <trkpt lat="49.26234" lon="1.71161">
        <ele>80</ele>
        <time>2014-09-28T09:38:31.000Z</time>
      </trkpt>
      <trkpt lat="49.26248" lon="1.7117">
        <ele>80</ele>
        <time>2014-09-28T09:38:33.000Z</time>
      </trkpt>
      <trkpt lat="49.26261" lon="1.71179">
        <ele>80</ele>
        <time>2014-09-28T09:38:35.000Z</time>
      </trkpt>
      <trkpt lat="49.26273" lon="1.71189">
        <ele>81</ele>
        <time>2014-09-28T09:38:37.000Z</time>
      </trkpt>
      <trkpt lat="49.26286" lon="1.71201">
        <ele>81</ele>
        <time>2014-09-28T09:38:39.000Z</time>
      </trkpt>
      <trkpt lat="49.26297" lon="1.71212">
        <ele>81</ele>
        <time>2014-09-28T09:38:41.000Z</time>
      </trkpt>
      <trkpt lat="49.26306" lon="1.71221">
        <ele>81</ele>
        <time>2014-09-28T09:38:43.000Z</time>
      </trkpt>
      <trkpt lat="49.26316" lon="1.71231">
        <ele>81</ele>
        <time>2014-09-28T09:38:45.000Z</time>
      </trkpt>
      <trkpt lat="49.26328" lon="1.71243">
        <ele>81</ele>
        <time>2014-09-28T09:38:47.000Z</time>
      </trkpt>
      <trkpt lat="49.26336" lon="1.71256">
        <ele>81</ele>
        <time>2014-09-28T09:38:49.000Z</time>
      </trkpt>
      <trkpt lat="49.26344" lon="1.71269">
        <ele>80</ele>
        <time>2014-09-28T09:38:51.000Z</time>
      </trkpt>
      <trkpt lat="49.26351" lon="1.71282">
        <ele>80</ele>
        <time>2014-09-28T09:38:53.000Z</time>
      </trkpt>
      <trkpt lat="49.26358" lon="1.71298">
        <ele>80</ele>
        <time>2014-09-28T09:38:55.000Z</time>
      </trkpt>
      <trkpt lat="49.26365" lon="1.71312">
        <ele>79</ele>
        <time>2014-09-28T09:38:57.000Z</time>
      </trkpt>
      <trkpt lat="49.26371" lon="1.71325">
        <ele>79</ele>
        <time>2014-09-28T09:38:59.000Z</time>
      </trkpt>
      <trkpt lat="49.26375" lon="1.7134">
        <ele>79</ele>
        <time>2014-09-28T09:39:01.000Z</time>
      </trkpt>
      <trkpt lat="49.26383" lon="1.71356">
        <ele>79</ele>
        <time>2014-09-28T09:39:03.000Z</time>
      </trkpt>
      <trkpt lat="49.2639" lon="1.71376">
        <ele>80</ele>
        <time>2014-09-28T09:39:05.000Z</time>
      </trkpt>
      <trkpt lat="49.26397" lon="1.71394">
        <ele>81</ele>
        <time>2014-09-28T09:39:07.000Z</time>
      </trkpt>
      <trkpt lat="49.26401" lon="1.7141">
        <ele>80</ele>
        <time>2014-09-28T09:39:09.000Z</time>
      </trkpt>
      <trkpt lat="49.26405" lon="1.71429">
        <ele>81</ele>
        <time>2014-09-28T09:39:11.000Z</time>
      </trkpt>
      <trkpt lat="49.26409" lon="1.71448">
        <ele>81</ele>
        <time>2014-09-28T09:39:13.000Z</time>
      </trkpt>
      <trkpt lat="49.26413" lon="1.71468">
        <ele>81</ele>
        <time>2014-09-28T09:39:15.000Z</time>
      </trkpt>
      <trkpt lat="49.26416" lon="1.71487">
        <ele>81</ele>
        <time>2014-09-28T09:39:17.000Z</time>
      </trkpt>
      <trkpt lat="49.26418" lon="1.71508">
        <ele>81</ele>
        <time>2014-09-28T09:39:19.000Z</time>
      </trkpt>
      <trkpt lat="49.26418" lon="1.71526">
        <ele>82</ele>
        <time>2014-09-28T09:39:21.000Z</time>
      </trkpt>
      <trkpt lat="49.2642" lon="1.71544">
        <ele>82</ele>
        <time>2014-09-28T09:39:23.000Z</time>
      </trkpt>
      <trkpt lat="49.2642" lon="1.71561">
        <ele>82</ele>
        <time>2014-09-28T09:39:25.000Z</time>
      </trkpt>
      <trkpt lat="49.26419" lon="1.71582">
        <ele>82</ele>
        <time>2014-09-28T09:39:27.000Z</time>
      </trkpt>
      <trkpt lat="49.26418" lon="1.71605">
        <ele>82</ele>
        <time>2014-09-28T09:39:29.000Z</time>
      </trkpt>
      <trkpt lat="49.26418" lon="1.71625">
        <ele>82</ele>
        <time>2014-09-28T09:39:31.000Z</time>
      </trkpt>
      <trkpt lat="49.26418" lon="1.71643">
        <ele>82</ele>
        <time>2014-09-28T09:39:33.000Z</time>
      </trkpt>
      <trkpt lat="49.26418" lon="1.71665">
        <ele>82</ele>
        <time>2014-09-28T09:39:35.000Z</time>
      </trkpt>
      <trkpt lat="49.26419" lon="1.71684">
        <ele>82</ele>
        <time>2014-09-28T09:39:37.000Z</time>
      </trkpt>
      <trkpt lat="49.26419" lon="1.71703">
        <ele>83</ele>
        <time>2014-09-28T09:39:39.000Z</time>
      </trkpt>
      <trkpt lat="49.26417" lon="1.71727">
        <ele>84</ele>
        <time>2014-09-28T09:39:41.000Z</time>
      </trkpt>
      <trkpt lat="49.26416" lon="1.71748">
        <ele>85</ele>
        <time>2014-09-28T09:39:43.000Z</time>
      </trkpt>
      <trkpt lat="49.26416" lon="1.71766">
        <ele>85</ele>
        <time>2014-09-28T09:39:45.000Z</time>
      </trkpt>
      <trkpt lat="49.26416" lon="1.71785">
        <ele>84</ele>
        <time>2014-09-28T09:39:47.000Z</time>
      </trkpt>
      <trkpt lat="49.26415" lon="1.718">
        <ele>83</ele>
        <time>2014-09-28T09:39:49.000Z</time>
      </trkpt>
      <trkpt lat="49.26416" lon="1.71819">
        <ele>83</ele>
        <time>2014-09-28T09:39:51.000Z</time>
      </trkpt>
      <trkpt lat="49.26415" lon="1.71838">
        <ele>83</ele>
        <time>2014-09-28T09:39:53.000Z</time>
      </trkpt>
      <trkpt lat="49.26416" lon="1.71858">
        <ele>85</ele>
        <time>2014-09-28T09:39:55.000Z</time>
      </trkpt>
      <trkpt lat="49.26416" lon="1.71879">
        <ele>84</ele>
        <time>2014-09-28T09:39:57.000Z</time>
      </trkpt>
      <trkpt lat="49.26416" lon="1.71899">
        <ele>84</ele>
        <time>2014-09-28T09:39:59.000Z</time>
      </trkpt>
      <trkpt lat="49.26416" lon="1.71918">
        <ele>83</ele>
        <time>2014-09-28T09:40:01.000Z</time>
      </trkpt>
      <trkpt lat="49.26417" lon="1.71938">
        <ele>84</ele>
        <time>2014-09-28T09:40:03.000Z</time>
      </trkpt>
      <trkpt lat="49.26417" lon="1.71962">
        <ele>84</ele>
        <time>2014-09-28T09:40:05.000Z</time>
      </trkpt>
      <trkpt lat="49.26416" lon="1.71984">
        <ele>84</ele>
        <time>2014-09-28T09:40:07.000Z</time>
      </trkpt>
      <trkpt lat="49.26416" lon="1.72005">
        <ele>83</ele>
        <time>2014-09-28T09:40:09.000Z</time>
      </trkpt>
      <trkpt lat="49.26416" lon="1.72027">
        <ele>84</ele>
        <time>2014-09-28T09:40:11.000Z</time>
      </trkpt>
      <trkpt lat="49.26416" lon="1.72049">
        <ele>83</ele>
        <time>2014-09-28T09:40:13.000Z</time>
      </trkpt>
      <trkpt lat="49.26415" lon="1.7207">
        <ele>83</ele>
        <time>2014-09-28T09:40:15.000Z</time>
      </trkpt>
      <trkpt lat="49.26415" lon="1.72091">
        <ele>84</ele>
        <time>2014-09-28T09:40:17.000Z</time>
      </trkpt>
      <trkpt lat="49.26416" lon="1.72112">
        <ele>84</ele>
        <time>2014-09-28T09:40:19.000Z</time>
      </trkpt>
      <trkpt lat="49.26415" lon="1.72132">
        <ele>84</ele>
        <time>2014-09-28T09:40:21.000Z</time>
      </trkpt>
      <trkpt lat="49.26413" lon="1.72154">
        <ele>83</ele>
        <time>2014-09-28T09:40:23.000Z</time>
      </trkpt>
      <trkpt lat="49.26413" lon="1.72173">
        <ele>83</ele>
        <time>2014-09-28T09:40:25.000Z</time>
      </trkpt>
      <trkpt lat="49.26412" lon="1.72195">
        <ele>83</ele>
        <time>2014-09-28T09:40:27.000Z</time>
      </trkpt>
      <trkpt lat="49.2641" lon="1.72215">
        <ele>84</ele>
        <time>2014-09-28T09:40:29.000Z</time>
      </trkpt>
      <trkpt lat="49.26411" lon="1.72234">
        <ele>83</ele>
        <time>2014-09-28T09:40:31.000Z</time>
      </trkpt>
      <trkpt lat="49.26413" lon="1.72253">
        <ele>83</ele>
        <time>2014-09-28T09:40:33.000Z</time>
      </trkpt>
      <trkpt lat="49.26414" lon="1.72276">
        <ele>83</ele>
        <time>2014-09-28T09:40:35.000Z</time>
      </trkpt>
      <trkpt lat="49.26415" lon="1.72297">
        <ele>83</ele>
        <time>2014-09-28T09:40:37.000Z</time>
      </trkpt>
      <trkpt lat="49.26414" lon="1.72318">
        <ele>83</ele>
        <time>2014-09-28T09:40:39.000Z</time>
      </trkpt>
      <trkpt lat="49.26415" lon="1.72339">
        <ele>82</ele>
        <time>2014-09-28T09:40:41.000Z</time>
      </trkpt>
      <trkpt lat="49.26415" lon="1.72357">
        <ele>82</ele>
        <time>2014-09-28T09:40:43.000Z</time>
      </trkpt>
      <trkpt lat="49.26416" lon="1.72373">
        <ele>82</ele>
        <time>2014-09-28T09:40:45.000Z</time>
      </trkpt>
      <trkpt lat="49.26417" lon="1.72393">
        <ele>81</ele>
        <time>2014-09-28T09:40:47.000Z</time>
      </trkpt>
      <trkpt lat="49.26419" lon="1.72413">
        <ele>82</ele>
        <time>2014-09-28T09:40:49.000Z</time>
      </trkpt>
      <trkpt lat="49.26421" lon="1.72434">
        <ele>82</ele>
        <time>2014-09-28T09:40:51.000Z</time>
      </trkpt>
      <trkpt lat="49.26422" lon="1.72454">
        <ele>82</ele>
        <time>2014-09-28T09:40:53.000Z</time>
      </trkpt>
      <trkpt lat="49.26423" lon="1.72475">
        <ele>83</ele>
        <time>2014-09-28T09:40:55.000Z</time>
      </trkpt>
      <trkpt lat="49.26425" lon="1.72496">
        <ele>83</ele>
        <time>2014-09-28T09:40:57.000Z</time>
      </trkpt>
      <trkpt lat="49.26428" lon="1.72518">
        <ele>83</ele>
        <time>2014-09-28T09:40:59.000Z</time>
      </trkpt>
      <trkpt lat="49.2643" lon="1.7254">
        <ele>84</ele>
        <time>2014-09-28T09:41:01.000Z</time>
      </trkpt>
      <trkpt lat="49.26432" lon="1.72563">
        <ele>84</ele>
        <time>2014-09-28T09:41:03.000Z</time>
      </trkpt>
      <trkpt lat="49.26436" lon="1.72584">
        <ele>85</ele>
        <time>2014-09-28T09:41:05.000Z</time>
      </trkpt>
      <trkpt lat="49.2644" lon="1.72605">
        <ele>86</ele>
        <time>2014-09-28T09:41:07.000Z</time>
      </trkpt>
      <trkpt lat="49.26443" lon="1.72623">
        <ele>86</ele>
        <time>2014-09-28T09:41:09.000Z</time>
      </trkpt>
      <trkpt lat="49.26447" lon="1.72643">
        <ele>87</ele>
        <time>2014-09-28T09:41:11.000Z</time>
      </trkpt>
      <trkpt lat="49.26451" lon="1.72663">
        <ele>87</ele>
        <time>2014-09-28T09:41:13.000Z</time>
      </trkpt>
      <trkpt lat="49.26454" lon="1.72681">
        <ele>87</ele>
        <time>2014-09-28T09:41:15.000Z</time>
      </trkpt>
      <trkpt lat="49.26455" lon="1.72699">
        <ele>86</ele>
        <time>2014-09-28T09:41:17.000Z</time>
      </trkpt>
      <trkpt lat="49.26459" lon="1.72719">
        <ele>86</ele>
        <time>2014-09-28T09:41:19.000Z</time>
      </trkpt>
      <trkpt lat="49.26465" lon="1.7274">
        <ele>86</ele>
        <time>2014-09-28T09:41:21.000Z</time>
      </trkpt>
      <trkpt lat="49.26469" lon="1.72759">
        <ele>85</ele>
        <time>2014-09-28T09:41:23.000Z</time>
      </trkpt>
      <trkpt lat="49.26474" lon="1.72779">
        <ele>85</ele>
        <time>2014-09-28T09:41:25.000Z</time>
      </trkpt>
      <trkpt lat="49.26477" lon="1.72798">
        <ele>85</ele>
        <time>2014-09-28T09:41:27.000Z</time>
      </trkpt>
      <trkpt lat="49.26481" lon="1.72816">
        <ele>84</ele>
        <time>2014-09-28T09:41:29.000Z</time>
      </trkpt>
      <trkpt lat="49.26484" lon="1.72833">
        <ele>84</ele>
        <time>2014-09-28T09:41:31.000Z</time>
      </trkpt>
      <trkpt lat="49.26488" lon="1.72849">
        <ele>84</ele>
        <time>2014-09-28T09:41:33.000Z</time>
      </trkpt>
      <trkpt lat="49.26493" lon="1.72864">
        <ele>84</ele>
        <time>2014-09-28T09:41:35.000Z</time>
      </trkpt>
      <trkpt lat="49.26501" lon="1.72883">
        <ele>83</ele>
        <time>2014-09-28T09:41:37.000Z</time>
      </trkpt>
      <trkpt lat="49.26506" lon="1.729">
        <ele>83</ele>
        <time>2014-09-28T09:41:39.000Z</time>
      </trkpt>
      <trkpt lat="49.26512" lon="1.72918">
        <ele>83</ele>
        <time>2014-09-28T09:41:41.000Z</time>
      </trkpt>
      <trkpt lat="49.26517" lon="1.7294">
        <ele>83</ele>
        <time>2014-09-28T09:41:43.000Z</time>
      </trkpt>
      <trkpt lat="49.26521" lon="1.72958">
        <ele>83</ele>
        <time>2014-09-28T09:41:45.000Z</time>
      </trkpt>
      <trkpt lat="49.26526" lon="1.72975">
        <ele>83</ele>
        <time>2014-09-28T09:41:47.000Z</time>
      </trkpt>
      <trkpt lat="49.26532" lon="1.72993">
        <ele>83</ele>
        <time>2014-09-28T09:41:49.000Z</time>
      </trkpt>
      <trkpt lat="49.26538" lon="1.73011">
        <ele>83</ele>
        <time>2014-09-28T09:41:51.000Z</time>
      </trkpt>
      <trkpt lat="49.26546" lon="1.7303">
        <ele>83</ele>
        <time>2014-09-28T09:41:53.000Z</time>
      </trkpt>
      <trkpt lat="49.26555" lon="1.73052">
        <ele>84</ele>
        <time>2014-09-28T09:41:55.000Z</time>
      </trkpt>
      <trkpt lat="49.26564" lon="1.7307">
        <ele>84</ele>
        <time>2014-09-28T09:41:57.000Z</time>
      </trkpt>
      <trkpt lat="49.26573" lon="1.73085">
        <ele>85</ele>
        <time>2014-09-28T09:41:59.000Z</time>
      </trkpt>
      <trkpt lat="49.2658" lon="1.73101">
        <ele>85</ele>
        <time>2014-09-28T09:42:01.000Z</time>
      </trkpt>
      <trkpt lat="49.26589" lon="1.73122">
        <ele>85</ele>
        <time>2014-09-28T09:42:03.000Z</time>
      </trkpt>
      <trkpt lat="49.26601" lon="1.7314">
        <ele>86</ele>
        <time>2014-09-28T09:42:05.000Z</time>
      </trkpt>
      <trkpt lat="49.2661" lon="1.73155">
        <ele>86</ele>
        <time>2014-09-28T09:42:07.000Z</time>
      </trkpt>
      <trkpt lat="49.2662" lon="1.73173">
        <ele>87</ele>
        <time>2014-09-28T09:42:09.000Z</time>
      </trkpt>
      <trkpt lat="49.2663" lon="1.73194">
        <ele>87</ele>
        <time>2014-09-28T09:42:11.000Z</time>
      </trkpt>
      <trkpt lat="49.26637" lon="1.73213">
        <ele>87</ele>
        <time>2014-09-28T09:42:12.000Z</time>
      </trkpt>
      <trkpt lat="49.26644" lon="1.73231">
        <ele>87</ele>
        <time>2014-09-28T09:42:15.000Z</time>
      </trkpt>
      <trkpt lat="49.26651" lon="1.7325">
        <ele>87</ele>
        <time>2014-09-28T09:42:17.000Z</time>
      </trkpt>
      <trkpt lat="49.26659" lon="1.73267">
        <ele>87</ele>
        <time>2014-09-28T09:42:19.000Z</time>
      </trkpt>
      <trkpt lat="49.26668" lon="1.73283">
        <ele>87</ele>
        <time>2014-09-28T09:42:21.000Z</time>
      </trkpt>
      <trkpt lat="49.26678" lon="1.73298">
        <ele>88</ele>
        <time>2014-09-28T09:42:23.000Z</time>
      </trkpt>
      <trkpt lat="49.26687" lon="1.73313">
        <ele>88</ele>
        <time>2014-09-28T09:42:25.000Z</time>
      </trkpt>
      <trkpt lat="49.26695" lon="1.73329">
        <ele>88</ele>
        <time>2014-09-28T09:42:27.000Z</time>
      </trkpt>
      <trkpt lat="49.26702" lon="1.73344">
        <ele>87</ele>
        <time>2014-09-28T09:42:29.000Z</time>
      </trkpt>
      <trkpt lat="49.26712" lon="1.73361">
        <ele>87</ele>
        <time>2014-09-28T09:42:31.000Z</time>
      </trkpt>
      <trkpt lat="49.26723" lon="1.73379">
        <ele>88</ele>
        <time>2014-09-28T09:42:33.000Z</time>
      </trkpt>
      <trkpt lat="49.26733" lon="1.73398">
        <ele>89</ele>
        <time>2014-09-28T09:42:35.000Z</time>
      </trkpt>
      <trkpt lat="49.26741" lon="1.73414">
        <ele>89</ele>
        <time>2014-09-28T09:42:37.000Z</time>
      </trkpt>
      <trkpt lat="49.2675" lon="1.73431">
        <ele>89</ele>
        <time>2014-09-28T09:42:39.000Z</time>
      </trkpt>
      <trkpt lat="49.26757" lon="1.73448">
        <ele>90</ele>
        <time>2014-09-28T09:42:41.000Z</time>
      </trkpt>
      <trkpt lat="49.26763" lon="1.73462">
        <ele>90</ele>
        <time>2014-09-28T09:42:43.000Z</time>
      </trkpt>
      <trkpt lat="49.26772" lon="1.7348">
        <ele>90</ele>
        <time>2014-09-28T09:42:45.000Z</time>
      </trkpt>
      <trkpt lat="49.26786" lon="1.73499">
        <ele>91</ele>
        <time>2014-09-28T09:42:47.000Z</time>
      </trkpt>
      <trkpt lat="49.26797" lon="1.73518">
        <ele>91</ele>
        <time>2014-09-28T09:42:49.000Z</time>
      </trkpt>
      <trkpt lat="49.26807" lon="1.73536">
        <ele>91</ele>
        <time>2014-09-28T09:42:51.000Z</time>
      </trkpt>
      <trkpt lat="49.26818" lon="1.73555">
        <ele>89</ele>
        <time>2014-09-28T09:42:53.000Z</time>
      </trkpt>
      <trkpt lat="49.26828" lon="1.73575">
        <ele>89</ele>
        <time>2014-09-28T09:42:55.000Z</time>
      </trkpt>
      <trkpt lat="49.26838" lon="1.73594">
        <ele>88</ele>
        <time>2014-09-28T09:42:57.000Z</time>
      </trkpt>
      <trkpt lat="49.26848" lon="1.73612">
        <ele>88</ele>
        <time>2014-09-28T09:42:59.000Z</time>
      </trkpt>
      <trkpt lat="49.26857" lon="1.7363">
        <ele>89</ele>
        <time>2014-09-28T09:43:01.000Z</time>
      </trkpt>
      <trkpt lat="49.26867" lon="1.73649">
        <ele>89</ele>
        <time>2014-09-28T09:43:03.000Z</time>
      </trkpt>
      <trkpt lat="49.26876" lon="1.73668">
        <ele>87</ele>
        <time>2014-09-28T09:43:05.000Z</time>
      </trkpt>
      <trkpt lat="49.26887" lon="1.73686">
        <ele>86</ele>
        <time>2014-09-28T09:43:07.000Z</time>
      </trkpt>
      <trkpt lat="49.26895" lon="1.73704">
        <ele>84</ele>
        <time>2014-09-28T09:43:09.000Z</time>
      </trkpt>
      <trkpt lat="49.26904" lon="1.7372">
        <ele>82</ele>
        <time>2014-09-28T09:43:11.000Z</time>
      </trkpt>
      <trkpt lat="49.26913" lon="1.73738">
        <ele>82</ele>
        <time>2014-09-28T09:43:13.000Z</time>
      </trkpt>
      <trkpt lat="49.26924" lon="1.73756">
        <ele>82</ele>
        <time>2014-09-28T09:43:15.000Z</time>
      </trkpt>
      <trkpt lat="49.26935" lon="1.73774">
        <ele>83</ele>
        <time>2014-09-28T09:43:17.000Z</time>
      </trkpt>
      <trkpt lat="49.26946" lon="1.73794">
        <ele>83</ele>
        <time>2014-09-28T09:43:19.000Z</time>
      </trkpt>
      <trkpt lat="49.26956" lon="1.73815">
        <ele>84</ele>
        <time>2014-09-28T09:43:21.000Z</time>
      </trkpt>
      <trkpt lat="49.26967" lon="1.73835">
        <ele>85</ele>
        <time>2014-09-28T09:43:23.000Z</time>
      </trkpt>
      <trkpt lat="49.26979" lon="1.73859">
        <ele>83</ele>
        <time>2014-09-28T09:43:25.000Z</time>
      </trkpt>
      <trkpt lat="49.26991" lon="1.7388">
        <ele>83</ele>
        <time>2014-09-28T09:43:27.000Z</time>
      </trkpt>
      <trkpt lat="49.27002" lon="1.73903">
        <ele>83</ele>
        <time>2014-09-28T09:43:29.000Z</time>
      </trkpt>
      <trkpt lat="49.27014" lon="1.73926">
        <ele>83</ele>
        <time>2014-09-28T09:43:31.000Z</time>
      </trkpt>
      <trkpt lat="49.27025" lon="1.73947">
        <ele>83</ele>
        <time>2014-09-28T09:43:33.000Z</time>
      </trkpt>
      <trkpt lat="49.27036" lon="1.73967">
        <ele>82</ele>
        <time>2014-09-28T09:43:35.000Z</time>
      </trkpt>
      <trkpt lat="49.27045" lon="1.73984">
        <ele>81</ele>
        <time>2014-09-28T09:43:37.000Z</time>
      </trkpt>
      <trkpt lat="49.27054" lon="1.74001">
        <ele>82</ele>
        <time>2014-09-28T09:43:39.000Z</time>
      </trkpt>
      <trkpt lat="49.27063" lon="1.74017">
        <ele>82</ele>
        <time>2014-09-28T09:43:41.000Z</time>
      </trkpt>
      <trkpt lat="49.27071" lon="1.74033">
        <ele>82</ele>
        <time>2014-09-28T09:43:43.000Z</time>
      </trkpt>
      <trkpt lat="49.27078" lon="1.74047">
        <ele>82</ele>
        <time>2014-09-28T09:43:45.000Z</time>
      </trkpt>
      <trkpt lat="49.27085" lon="1.7406">
        <ele>82</ele>
        <time>2014-09-28T09:43:47.000Z</time>
      </trkpt>
      <trkpt lat="49.2709" lon="1.74072">
        <ele>82</ele>
        <time>2014-09-28T09:43:49.000Z</time>
      </trkpt>
      <trkpt lat="49.27096" lon="1.74082">
        <ele>82</ele>
        <time>2014-09-28T09:43:51.000Z</time>
      </trkpt>
      <trkpt lat="49.271" lon="1.74091">
        <ele>82</ele>
        <time>2014-09-28T09:43:53.000Z</time>
      </trkpt>
      <trkpt lat="49.271" lon="1.74091">
        <ele>82</ele>
        <time>2014-09-28T09:43:55.000Z</time>
      </trkpt>
      <trkpt lat="49.271" lon="1.74096">
        <ele>82</ele>
        <time>2014-09-28T09:43:57.000Z</time>
      </trkpt>
      <trkpt lat="49.271" lon="1.74096">
        <ele>82</ele>
        <time>2014-09-28T09:43:59.000Z</time>
      </trkpt>
      <trkpt lat="49.27097" lon="1.74101">
        <ele>82</ele>
        <time>2014-09-28T09:45:44.000Z</time>
      </trkpt>
      <trkpt lat="49.27092" lon="1.74106">
        <ele>83</ele>
        <time>2014-09-28T09:45:46.000Z</time>
      </trkpt>
      <trkpt lat="49.27087" lon="1.74111">
        <ele>83</ele>
        <time>2014-09-28T09:45:48.000Z</time>
      </trkpt>
      <trkpt lat="49.27081" lon="1.74117">
        <ele>83</ele>
        <time>2014-09-28T09:45:50.000Z</time>
      </trkpt>
      <trkpt lat="49.27074" lon="1.74122">
        <ele>83</ele>
        <time>2014-09-28T09:45:52.000Z</time>
      </trkpt>
      <trkpt lat="49.2706" lon="1.74135">
        <ele>84</ele>
        <time>2014-09-28T09:45:54.000Z</time>
      </trkpt>
      <trkpt lat="49.27052" lon="1.74142">
        <ele>84</ele>
        <time>2014-09-28T09:45:56.000Z</time>
      </trkpt>
      <trkpt lat="49.27044" lon="1.74149">
        <ele>84</ele>
        <time>2014-09-28T09:45:58.000Z</time>
      </trkpt>
      <trkpt lat="49.27036" lon="1.74156">
        <ele>84</ele>
        <time>2014-09-28T09:46:00.000Z</time>
      </trkpt>
      <trkpt lat="49.27027" lon="1.74164">
        <ele>84</ele>
        <time>2014-09-28T09:46:02.000Z</time>
      </trkpt>
      <trkpt lat="49.27018" lon="1.74171">
        <ele>84</ele>
        <time>2014-09-28T09:46:04.000Z</time>
      </trkpt>
      <trkpt lat="49.27008" lon="1.74179">
        <ele>84</ele>
        <time>2014-09-28T09:46:06.000Z</time>
      </trkpt>
      <trkpt lat="49.26999" lon="1.74186">
        <ele>84</ele>
        <time>2014-09-28T09:46:08.000Z</time>
      </trkpt>
      <trkpt lat="49.26989" lon="1.74192">
        <ele>84</ele>
        <time>2014-09-28T09:46:10.000Z</time>
      </trkpt>
      <trkpt lat="49.26978" lon="1.74196">
        <ele>84</ele>
        <time>2014-09-28T09:46:12.000Z</time>
      </trkpt>
      <trkpt lat="49.26967" lon="1.742">
        <ele>84</ele>
        <time>2014-09-28T09:46:14.000Z</time>
      </trkpt>
      <trkpt lat="49.26957" lon="1.74204">
        <ele>84</ele>
        <time>2014-09-28T09:46:16.000Z</time>
      </trkpt>
      <trkpt lat="49.26945" lon="1.74209">
        <ele>83</ele>
        <time>2014-09-28T09:46:18.000Z</time>
      </trkpt>
      <trkpt lat="49.26935" lon="1.74213">
        <ele>83</ele>
        <time>2014-09-28T09:46:20.000Z</time>
      </trkpt>
      <trkpt lat="49.26924" lon="1.74218">
        <ele>83</ele>
        <time>2014-09-28T09:46:22.000Z</time>
      </trkpt>
      <trkpt lat="49.26913" lon="1.74222">
        <ele>82</ele>
        <time>2014-09-28T09:46:24.000Z</time>
      </trkpt>
      <trkpt lat="49.26903" lon="1.74226">
        <ele>82</ele>
        <time>2014-09-28T09:46:26.000Z</time>
      </trkpt>
      <trkpt lat="49.26892" lon="1.74229">
        <ele>82</ele>
        <time>2014-09-28T09:46:28.000Z</time>
      </trkpt>
      <trkpt lat="49.26883" lon="1.74229">
        <ele>82</ele>
        <time>2014-09-28T09:46:30.000Z</time>
      </trkpt>
      <trkpt lat="49.26875" lon="1.7423">
        <ele>83</ele>
        <time>2014-09-28T09:46:32.000Z</time>
      </trkpt>
      <trkpt lat="49.26866" lon="1.74231">
        <ele>83</ele>
        <time>2014-09-28T09:46:34.000Z</time>
      </trkpt>
      <trkpt lat="49.2686" lon="1.74231">
        <ele>83</ele>
        <time>2014-09-28T09:46:36.000Z</time>
      </trkpt>
      <trkpt lat="49.26853" lon="1.74229">
        <ele>83</ele>
        <time>2014-09-28T09:46:38.000Z</time>
      </trkpt>
      <trkpt lat="49.26846" lon="1.74223">
        <ele>84</ele>
        <time>2014-09-28T09:46:40.000Z</time>
      </trkpt>
      <trkpt lat="49.26839" lon="1.74215">
        <ele>84</ele>
        <time>2014-09-28T09:46:42.000Z</time>
      </trkpt>
      <trkpt lat="49.26831" lon="1.74211">
        <ele>85</ele>
        <time>2014-09-28T09:46:44.000Z</time>
      </trkpt>
      <trkpt lat="49.26824" lon="1.74215">
        <ele>86</ele>
        <time>2014-09-28T09:46:46.000Z</time>
      </trkpt>
      <trkpt lat="49.26818" lon="1.74224">
        <ele>86</ele>
        <time>2014-09-28T09:46:48.000Z</time>
      </trkpt>
      <trkpt lat="49.26812" lon="1.74231">
        <ele>86</ele>
        <time>2014-09-28T09:46:50.000Z</time>
      </trkpt>
      <trkpt lat="49.26805" lon="1.7424">
        <ele>86</ele>
        <time>2014-09-28T09:46:52.000Z</time>
      </trkpt>
      <trkpt lat="49.26799" lon="1.74249">
        <ele>87</ele>
        <time>2014-09-28T09:46:54.000Z</time>
      </trkpt>
      <trkpt lat="49.26794" lon="1.7426">
        <ele>87</ele>
        <time>2014-09-28T09:46:56.000Z</time>
      </trkpt>
      <trkpt lat="49.26792" lon="1.74273">
        <ele>88</ele>
        <time>2014-09-28T09:46:58.000Z</time>
      </trkpt>
      <trkpt lat="49.26789" lon="1.74287">
        <ele>88</ele>
        <time>2014-09-28T09:47:00.000Z</time>
      </trkpt>
      <trkpt lat="49.26786" lon="1.74299">
        <ele>89</ele>
        <time>2014-09-28T09:47:02.000Z</time>
      </trkpt>
      <trkpt lat="49.26783" lon="1.74312">
        <ele>89</ele>
        <time>2014-09-28T09:47:04.000Z</time>
      </trkpt>
      <trkpt lat="49.26781" lon="1.74329">
        <ele>90</ele>
        <time>2014-09-28T09:47:06.000Z</time>
      </trkpt>
      <trkpt lat="49.2678" lon="1.74343">
        <ele>91</ele>
        <time>2014-09-28T09:47:08.000Z</time>
      </trkpt>
      <trkpt lat="49.26777" lon="1.74357">
        <ele>91</ele>
        <time>2014-09-28T09:47:10.000Z</time>
      </trkpt>
      <trkpt lat="49.26774" lon="1.74371">
        <ele>91</ele>
        <time>2014-09-28T09:47:12.000Z</time>
      </trkpt>
      <trkpt lat="49.26772" lon="1.74387">
        <ele>91</ele>
        <time>2014-09-28T09:47:14.000Z</time>
      </trkpt>
      <trkpt lat="49.26771" lon="1.74401">
        <ele>91</ele>
        <time>2014-09-28T09:47:16.000Z</time>
      </trkpt>
      <trkpt lat="49.2677" lon="1.74415">
        <ele>91</ele>
        <time>2014-09-28T09:47:18.000Z</time>
      </trkpt>
      <trkpt lat="49.26768" lon="1.7443">
        <ele>91</ele>
        <time>2014-09-28T09:47:20.000Z</time>
      </trkpt>
      <trkpt lat="49.26766" lon="1.74448">
        <ele>90</ele>
        <time>2014-09-28T09:47:22.000Z</time>
      </trkpt>
      <trkpt lat="49.26765" lon="1.74466">
        <ele>90</ele>
        <time>2014-09-28T09:47:24.000Z</time>
      </trkpt>
      <trkpt lat="49.26762" lon="1.74481">
        <ele>91</ele>
        <time>2014-09-28T09:47:26.000Z</time>
      </trkpt>
      <trkpt lat="49.26758" lon="1.74497">
        <ele>91</ele>
        <time>2014-09-28T09:47:28.000Z</time>
      </trkpt>
      <trkpt lat="49.26753" lon="1.74509">
        <ele>92</ele>
        <time>2014-09-28T09:47:30.000Z</time>
      </trkpt>
      <trkpt lat="49.26748" lon="1.74518">
        <ele>94</ele>
        <time>2014-09-28T09:47:32.000Z</time>
      </trkpt>
      <trkpt lat="49.26742" lon="1.74524">
        <ele>94</ele>
        <time>2014-09-28T09:47:34.000Z</time>
      </trkpt>
      <trkpt lat="49.26732" lon="1.74524">
        <ele>93</ele>
        <time>2014-09-28T09:47:36.000Z</time>
      </trkpt>
      <trkpt lat="49.26723" lon="1.7452">
        <ele>92</ele>
        <time>2014-09-28T09:47:38.000Z</time>
      </trkpt>
      <trkpt lat="49.26715" lon="1.74516">
        <ele>92</ele>
        <time>2014-09-28T09:47:40.000Z</time>
      </trkpt>
      <trkpt lat="49.26708" lon="1.74511">
        <ele>92</ele>
        <time>2014-09-28T09:47:42.000Z</time>
      </trkpt>
      <trkpt lat="49.26701" lon="1.74508">
        <ele>92</ele>
        <time>2014-09-28T09:47:44.000Z</time>
      </trkpt>
      <trkpt lat="49.26695" lon="1.74504">
        <ele>92</ele>
        <time>2014-09-28T09:47:46.000Z</time>
      </trkpt>
      <trkpt lat="49.2669" lon="1.74498">
        <ele>92</ele>
        <time>2014-09-28T09:47:48.000Z</time>
      </trkpt>
      <trkpt lat="49.2669" lon="1.74498">
        <ele>92</ele>
        <time>2014-09-28T09:47:50.000Z</time>
      </trkpt>
      <trkpt lat="49.26681" lon="1.74489">
        <ele>92</ele>
        <time>2014-09-28T09:47:52.000Z</time>
      </trkpt>
      <trkpt lat="49.26675" lon="1.74485">
        <ele>91</ele>
        <time>2014-09-28T09:47:54.000Z</time>
      </trkpt>
      <trkpt lat="49.26675" lon="1.74485">
        <ele>91</ele>
        <time>2014-09-28T09:47:56.000Z</time>
      </trkpt>
      <trkpt lat="49.26666" lon="1.74476">
        <ele>92</ele>
        <time>2014-09-28T09:47:58.000Z</time>
      </trkpt>
      <trkpt lat="49.26657" lon="1.74466">
        <ele>93</ele>
        <time>2014-09-28T09:48:02.000Z</time>
      </trkpt>
      <trkpt lat="49.26657" lon="1.74466">
        <ele>93</ele>
        <time>2014-09-28T09:48:04.000Z</time>
      </trkpt>
      <trkpt lat="49.26648" lon="1.74458">
        <ele>94</ele>
        <time>2014-09-28T09:48:06.000Z</time>
      </trkpt>
      <trkpt lat="49.26648" lon="1.74458">
        <ele>94</ele>
        <time>2014-09-28T09:48:08.000Z</time>
      </trkpt>
      <trkpt lat="49.2664" lon="1.74446">
        <ele>94</ele>
        <time>2014-09-28T09:48:10.000Z</time>
      </trkpt>
      <trkpt lat="49.26636" lon="1.7444">
        <ele>94</ele>
        <time>2014-09-28T09:48:12.000Z</time>
      </trkpt>
      <trkpt lat="49.26636" lon="1.7444">
        <ele>94</ele>
        <time>2014-09-28T09:48:14.000Z</time>
      </trkpt>
      <trkpt lat="49.26628" lon="1.7443">
        <ele>94</ele>
        <time>2014-09-28T09:48:16.000Z</time>
      </trkpt>
      <trkpt lat="49.26628" lon="1.7443">
        <ele>94</ele>
        <time>2014-09-28T09:48:18.000Z</time>
      </trkpt>
      <trkpt lat="49.26622" lon="1.74419">
        <ele>94</ele>
        <time>2014-09-28T09:48:20.000Z</time>
      </trkpt>
      <trkpt lat="49.26622" lon="1.74419">
        <ele>94</ele>
        <time>2014-09-28T09:48:22.000Z</time>
      </trkpt>
      <trkpt lat="49.26616" lon="1.74409">
        <ele>94</ele>
        <time>2014-09-28T09:48:24.000Z</time>
      </trkpt>
      <trkpt lat="49.2661" lon="1.74399">
        <ele>95</ele>
        <time>2014-09-28T09:48:28.000Z</time>
      </trkpt>
      <trkpt lat="49.26604" lon="1.74387">
        <ele>97</ele>
        <time>2014-09-28T09:48:32.000Z</time>
      </trkpt>
      <trkpt lat="49.26604" lon="1.74387">
        <ele>97</ele>
        <time>2014-09-28T09:48:34.000Z</time>
      </trkpt>
      <trkpt lat="49.26599" lon="1.74376">
        <ele>98</ele>
        <time>2014-09-28T09:48:36.000Z</time>
      </trkpt>
      <trkpt lat="49.26599" lon="1.74376">
        <ele>98</ele>
        <time>2014-09-28T09:48:38.000Z</time>
      </trkpt>
      <trkpt lat="49.26593" lon="1.74369">
        <ele>98</ele>
        <time>2014-09-28T09:48:40.000Z</time>
      </trkpt>
      <trkpt lat="49.26593" lon="1.74369">
        <ele>98</ele>
        <time>2014-09-28T09:48:42.000Z</time>
      </trkpt>
      <trkpt lat="49.26586" lon="1.74361">
        <ele>99</ele>
        <time>2014-09-28T09:48:44.000Z</time>
      </trkpt>
      <trkpt lat="49.26579" lon="1.74351">
        <ele>100</ele>
        <time>2014-09-28T09:48:48.000Z</time>
      </trkpt>
      <trkpt lat="49.26572" lon="1.74344">
        <ele>101</ele>
        <time>2014-09-28T09:48:52.000Z</time>
      </trkpt>
      <trkpt lat="49.26572" lon="1.74344">
        <ele>101</ele>
        <time>2014-09-28T09:48:54.000Z</time>
      </trkpt>
      <trkpt lat="49.26565" lon="1.74338">
        <ele>103</ele>
        <time>2014-09-28T09:48:56.000Z</time>
      </trkpt>
      <trkpt lat="49.26557" lon="1.74332">
        <ele>104</ele>
        <time>2014-09-28T09:49:00.000Z</time>
      </trkpt>
      <trkpt lat="49.26548" lon="1.74328">
        <ele>105</ele>
        <time>2014-09-28T09:49:04.000Z</time>
      </trkpt>
      <trkpt lat="49.2654" lon="1.74322">
        <ele>106</ele>
        <time>2014-09-28T09:49:08.000Z</time>
      </trkpt>
      <trkpt lat="49.2653" lon="1.74316">
        <ele>106</ele>
        <time>2014-09-28T09:49:12.000Z</time>
      </trkpt>
      <trkpt lat="49.26521" lon="1.7431">
        <ele>106</ele>
        <time>2014-09-28T09:49:16.000Z</time>
      </trkpt>
      <trkpt lat="49.26511" lon="1.74304">
        <ele>107</ele>
        <time>2014-09-28T09:49:20.000Z</time>
      </trkpt>
      <trkpt lat="49.265" lon="1.74298">
        <ele>109</ele>
        <time>2014-09-28T09:49:24.000Z</time>
      </trkpt>
      <trkpt lat="49.26494" lon="1.74294">
        <ele>108</ele>
        <time>2014-09-28T09:49:26.000Z</time>
      </trkpt>
      <trkpt lat="49.26489" lon="1.74289">
        <ele>108</ele>
        <time>2014-09-28T09:49:28.000Z</time>
      </trkpt>
      <trkpt lat="49.26484" lon="1.74285">
        <ele>108</ele>
        <time>2014-09-28T09:49:30.000Z</time>
      </trkpt>
      <trkpt lat="49.26478" lon="1.7428">
        <ele>108</ele>
        <time>2014-09-28T09:49:32.000Z</time>
      </trkpt>
      <trkpt lat="49.26472" lon="1.74275">
        <ele>108</ele>
        <time>2014-09-28T09:49:34.000Z</time>
      </trkpt>
      <trkpt lat="49.26466" lon="1.7427">
        <ele>109</ele>
        <time>2014-09-28T09:49:36.000Z</time>
      </trkpt>
      <trkpt lat="49.26461" lon="1.74264">
        <ele>109</ele>
        <time>2014-09-28T09:49:38.000Z</time>
      </trkpt>
      <trkpt lat="49.26455" lon="1.7426">
        <ele>110</ele>
        <time>2014-09-28T09:49:40.000Z</time>
      </trkpt>
      <trkpt lat="49.26449" lon="1.74255">
        <ele>110</ele>
        <time>2014-09-28T09:49:42.000Z</time>
      </trkpt>
      <trkpt lat="49.26443" lon="1.74251">
        <ele>110</ele>
        <time>2014-09-28T09:49:44.000Z</time>
      </trkpt>
      <trkpt lat="49.26436" lon="1.74246">
        <ele>109</ele>
        <time>2014-09-28T09:49:46.000Z</time>
      </trkpt>
      <trkpt lat="49.2643" lon="1.74241">
        <ele>109</ele>
        <time>2014-09-28T09:49:48.000Z</time>
      </trkpt>
      <trkpt lat="49.26423" lon="1.74237">
        <ele>109</ele>
        <time>2014-09-28T09:49:50.000Z</time>
      </trkpt>
      <trkpt lat="49.26416" lon="1.74233">
        <ele>110</ele>
        <time>2014-09-28T09:49:52.000Z</time>
      </trkpt>
      <trkpt lat="49.26409" lon="1.74229">
        <ele>110</ele>
        <time>2014-09-28T09:49:54.000Z</time>
      </trkpt>
      <trkpt lat="49.26402" lon="1.74225">
        <ele>110</ele>
        <time>2014-09-28T09:49:56.000Z</time>
      </trkpt>
      <trkpt lat="49.26394" lon="1.74222">
        <ele>110</ele>
        <time>2014-09-28T09:49:58.000Z</time>
      </trkpt>
      <trkpt lat="49.26386" lon="1.74219">
        <ele>110</ele>
        <time>2014-09-28T09:50:00.000Z</time>
      </trkpt>
      <trkpt lat="49.26378" lon="1.74216">
        <ele>110</ele>
        <time>2014-09-28T09:50:02.000Z</time>
      </trkpt>
      <trkpt lat="49.2637" lon="1.74215">
        <ele>110</ele>
        <time>2014-09-28T09:50:04.000Z</time>
      </trkpt>
      <trkpt lat="49.26362" lon="1.74213">
        <ele>111</ele>
        <time>2014-09-28T09:50:06.000Z</time>
      </trkpt>
      <trkpt lat="49.26355" lon="1.74211">
        <ele>110</ele>
        <time>2014-09-28T09:50:08.000Z</time>
      </trkpt>
      <trkpt lat="49.26347" lon="1.7421">
        <ele>110</ele>
        <time>2014-09-28T09:50:10.000Z</time>
      </trkpt>
      <trkpt lat="49.2634" lon="1.74205">
        <ele>110</ele>
        <time>2014-09-28T09:50:12.000Z</time>
      </trkpt>
      <trkpt lat="49.26333" lon="1.74201">
        <ele>110</ele>
        <time>2014-09-28T09:50:14.000Z</time>
      </trkpt>
      <trkpt lat="49.26326" lon="1.742">
        <ele>111</ele>
        <time>2014-09-28T09:50:16.000Z</time>
      </trkpt>
      <trkpt lat="49.26326" lon="1.742">
        <ele>111</ele>
        <time>2014-09-28T09:50:18.000Z</time>
      </trkpt>
      <trkpt lat="49.26326" lon="1.742">
        <ele>111</ele>
        <time>2014-09-28T09:50:20.000Z</time>
      </trkpt>
      <trkpt lat="49.26317" lon="1.74196">
        <ele>113</ele>
        <time>2014-09-28T09:51:04.000Z</time>
      </trkpt>
      <trkpt lat="49.26307" lon="1.74195">
        <ele>114</ele>
        <time>2014-09-28T09:51:08.000Z</time>
      </trkpt>
      <trkpt lat="49.26299" lon="1.74195">
        <ele>114</ele>
        <time>2014-09-28T09:51:10.000Z</time>
      </trkpt>
      <trkpt lat="49.26291" lon="1.74194">
        <ele>114</ele>
        <time>2014-09-28T09:51:12.000Z</time>
      </trkpt>
      <trkpt lat="49.26284" lon="1.74192">
        <ele>114</ele>
        <time>2014-09-28T09:51:14.000Z</time>
      </trkpt>
      <trkpt lat="49.26275" lon="1.74191">
        <ele>114</ele>
        <time>2014-09-28T09:51:16.000Z</time>
      </trkpt>
      <trkpt lat="49.26268" lon="1.74189">
        <ele>114</ele>
        <time>2014-09-28T09:51:18.000Z</time>
      </trkpt>
      <trkpt lat="49.2626" lon="1.74188">
        <ele>114</ele>
        <time>2014-09-28T09:51:20.000Z</time>
      </trkpt>
      <trkpt lat="49.26253" lon="1.74185">
        <ele>113</ele>
        <time>2014-09-28T09:51:22.000Z</time>
      </trkpt>
      <trkpt lat="49.26245" lon="1.74184">
        <ele>113</ele>
        <time>2014-09-28T09:51:24.000Z</time>
      </trkpt>
      <trkpt lat="49.26237" lon="1.74182">
        <ele>114</ele>
        <time>2014-09-28T09:51:26.000Z</time>
      </trkpt>
      <trkpt lat="49.26229" lon="1.74181">
        <ele>114</ele>
        <time>2014-09-28T09:51:28.000Z</time>
      </trkpt>
      <trkpt lat="49.2622" lon="1.7418">
        <ele>114</ele>
        <time>2014-09-28T09:51:30.000Z</time>
      </trkpt>
      <trkpt lat="49.26213" lon="1.74178">
        <ele>114</ele>
        <time>2014-09-28T09:51:32.000Z</time>
      </trkpt>
      <trkpt lat="49.26205" lon="1.74178">
        <ele>115</ele>
        <time>2014-09-28T09:51:34.000Z</time>
      </trkpt>
      <trkpt lat="49.26197" lon="1.74176">
        <ele>114</ele>
        <time>2014-09-28T09:51:36.000Z</time>
      </trkpt>
      <trkpt lat="49.26189" lon="1.74173">
        <ele>115</ele>
        <time>2014-09-28T09:51:38.000Z</time>
      </trkpt>
      <trkpt lat="49.26181" lon="1.74172">
        <ele>115</ele>
        <time>2014-09-28T09:51:40.000Z</time>
      </trkpt>
      <trkpt lat="49.26173" lon="1.7417">
        <ele>115</ele>
        <time>2014-09-28T09:51:42.000Z</time>
      </trkpt>
      <trkpt lat="49.26163" lon="1.74169">
        <ele>115</ele>
        <time>2014-09-28T09:51:44.000Z</time>
      </trkpt>
      <trkpt lat="49.26155" lon="1.74166">
        <ele>116</ele>
        <time>2014-09-28T09:51:46.000Z</time>
      </trkpt>
      <trkpt lat="49.26146" lon="1.74164">
        <ele>116</ele>
        <time>2014-09-28T09:51:48.000Z</time>
      </trkpt>
      <trkpt lat="49.26138" lon="1.74162">
        <ele>117</ele>
        <time>2014-09-28T09:51:50.000Z</time>
      </trkpt>
      <trkpt lat="49.26128" lon="1.7416">
        <ele>117</ele>
        <time>2014-09-28T09:51:52.000Z</time>
      </trkpt>
      <trkpt lat="49.2612" lon="1.7416">
        <ele>117</ele>
        <time>2014-09-28T09:51:54.000Z</time>
      </trkpt>
      <trkpt lat="49.26112" lon="1.74162">
        <ele>117</ele>
        <time>2014-09-28T09:51:56.000Z</time>
      </trkpt>
      <trkpt lat="49.26108" lon="1.74169">
        <ele>117</ele>
        <time>2014-09-28T09:51:58.000Z</time>
      </trkpt>
      <trkpt lat="49.26107" lon="1.74179">
        <ele>117</ele>
        <time>2014-09-28T09:52:00.000Z</time>
      </trkpt>
      <trkpt lat="49.26104" lon="1.7419">
        <ele>118</ele>
        <time>2014-09-28T09:52:02.000Z</time>
      </trkpt>
      <trkpt lat="49.261" lon="1.742">
        <ele>118</ele>
        <time>2014-09-28T09:52:04.000Z</time>
      </trkpt>
      <trkpt lat="49.26091" lon="1.74203">
        <ele>117</ele>
        <time>2014-09-28T09:52:06.000Z</time>
      </trkpt>
      <trkpt lat="49.26081" lon="1.74203">
        <ele>116</ele>
        <time>2014-09-28T09:52:08.000Z</time>
      </trkpt>
      <trkpt lat="49.26071" lon="1.742">
        <ele>115</ele>
        <time>2014-09-28T09:52:10.000Z</time>
      </trkpt>
      <trkpt lat="49.26062" lon="1.74197">
        <ele>115</ele>
        <time>2014-09-28T09:52:12.000Z</time>
      </trkpt>
      <trkpt lat="49.26054" lon="1.74196">
        <ele>114</ele>
        <time>2014-09-28T09:52:14.000Z</time>
      </trkpt>
      <trkpt lat="49.26045" lon="1.74195">
        <ele>115</ele>
        <time>2014-09-28T09:52:16.000Z</time>
      </trkpt>
      <trkpt lat="49.26038" lon="1.74192">
        <ele>116</ele>
        <time>2014-09-28T09:52:18.000Z</time>
      </trkpt>
      <trkpt lat="49.2603" lon="1.7419">
        <ele>116</ele>
        <time>2014-09-28T09:52:20.000Z</time>
      </trkpt>
      <trkpt lat="49.26023" lon="1.74188">
        <ele>116</ele>
        <time>2014-09-28T09:52:22.000Z</time>
      </trkpt>
      <trkpt lat="49.26015" lon="1.74186">
        <ele>116</ele>
        <time>2014-09-28T09:52:24.000Z</time>
      </trkpt>
      <trkpt lat="49.26007" lon="1.74184">
        <ele>117</ele>
        <time>2014-09-28T09:52:26.000Z</time>
      </trkpt>
      <trkpt lat="49.26" lon="1.7418">
        <ele>117</ele>
        <time>2014-09-28T09:52:28.000Z</time>
      </trkpt>
      <trkpt lat="49.25998" lon="1.7417">
        <ele>116</ele>
        <time>2014-09-28T09:52:30.000Z</time>
      </trkpt>
      <trkpt lat="49.25999" lon="1.74157">
        <ele>117</ele>
        <time>2014-09-28T09:52:32.000Z</time>
      </trkpt>
      <trkpt lat="49.26" lon="1.74145">
        <ele>117</ele>
        <time>2014-09-28T09:52:34.000Z</time>
      </trkpt>
      <trkpt lat="49.26001" lon="1.74133">
        <ele>117</ele>
        <time>2014-09-28T09:52:36.000Z</time>
      </trkpt>
      <trkpt lat="49.26002" lon="1.74123">
        <ele>117</ele>
        <time>2014-09-28T09:52:38.000Z</time>
      </trkpt>
      <trkpt lat="49.26" lon="1.74112">
        <ele>118</ele>
        <time>2014-09-28T09:52:39.000Z</time>
      </trkpt>
      <trkpt lat="49.25994" lon="1.74109">
        <ele>118</ele>
        <time>2014-09-28T09:52:42.000Z</time>
      </trkpt>
      <trkpt lat="49.25988" lon="1.7411">
        <ele>119</ele>
        <time>2014-09-28T09:52:44.000Z</time>
      </trkpt>
      <trkpt lat="49.2598" lon="1.74111">
        <ele>119</ele>
        <time>2014-09-28T09:52:46.000Z</time>
      </trkpt>
      <trkpt lat="49.25973" lon="1.74114">
        <ele>119</ele>
        <time>2014-09-28T09:52:48.000Z</time>
      </trkpt>
      <trkpt lat="49.25961" lon="1.74117">
        <ele>118</ele>
        <time>2014-09-28T09:52:50.000Z</time>
      </trkpt>
      <trkpt lat="49.25951" lon="1.74118">
        <ele>118</ele>
        <time>2014-09-28T09:52:52.000Z</time>
      </trkpt>
      <trkpt lat="49.25941" lon="1.74117">
        <ele>118</ele>
        <time>2014-09-28T09:52:54.000Z</time>
      </trkpt>
      <trkpt lat="49.25933" lon="1.74115">
        <ele>118</ele>
        <time>2014-09-28T09:52:56.000Z</time>
      </trkpt>
      <trkpt lat="49.25925" lon="1.74113">
        <ele>118</ele>
        <time>2014-09-28T09:52:58.000Z</time>
      </trkpt>
      <trkpt lat="49.25917" lon="1.7411">
        <ele>118</ele>
        <time>2014-09-28T09:53:00.000Z</time>
      </trkpt>
      <trkpt lat="49.25911" lon="1.74106">
        <ele>118</ele>
        <time>2014-09-28T09:53:02.000Z</time>
      </trkpt>
      <trkpt lat="49.25905" lon="1.74103">
        <ele>118</ele>
        <time>2014-09-28T09:53:04.000Z</time>
      </trkpt>
      <trkpt lat="49.25899" lon="1.74102">
        <ele>118</ele>
        <time>2014-09-28T09:53:06.000Z</time>
      </trkpt>
      <trkpt lat="49.25899" lon="1.74102">
        <ele>118</ele>
        <time>2014-09-28T09:53:08.000Z</time>
      </trkpt>
      <trkpt lat="49.2589" lon="1.74097">
        <ele>118</ele>
        <time>2014-09-28T09:53:10.000Z</time>
      </trkpt>
      <trkpt lat="49.25885" lon="1.74096">
        <ele>119</ele>
        <time>2014-09-28T09:53:12.000Z</time>
      </trkpt>
      <trkpt lat="49.25885" lon="1.74096">
        <ele>119</ele>
        <time>2014-09-28T09:53:14.000Z</time>
      </trkpt>
      <trkpt lat="49.25875" lon="1.7409">
        <ele>119</ele>
        <time>2014-09-28T09:53:16.000Z</time>
      </trkpt>
      <trkpt lat="49.25869" lon="1.74087">
        <ele>119</ele>
        <time>2014-09-28T09:53:18.000Z</time>
      </trkpt>
      <trkpt lat="49.25863" lon="1.74083">
        <ele>119</ele>
        <time>2014-09-28T09:53:20.000Z</time>
      </trkpt>
      <trkpt lat="49.25857" lon="1.7407">
        <ele>121</ele>
        <time>2014-09-28T09:53:24.000Z</time>
      </trkpt>
      <trkpt lat="49.25857" lon="1.7407">
        <ele>121</ele>
        <time>2014-09-28T09:53:26.000Z</time>
      </trkpt>
      <trkpt lat="49.25853" lon="1.74065">
        <ele>122</ele>
        <time>2014-09-28T09:53:28.000Z</time>
      </trkpt>
      <trkpt lat="49.2585" lon="1.74058">
        <ele>122</ele>
        <time>2014-09-28T09:53:30.000Z</time>
      </trkpt>
      <trkpt lat="49.2585" lon="1.74049">
        <ele>123</ele>
        <time>2014-09-28T09:53:32.000Z</time>
      </trkpt>
      <trkpt lat="49.25848" lon="1.7404">
        <ele>123</ele>
        <time>2014-09-28T09:53:34.000Z</time>
      </trkpt>
      <trkpt lat="49.25847" lon="1.74032">
        <ele>124</ele>
        <time>2014-09-28T09:53:36.000Z</time>
      </trkpt>
      <trkpt lat="49.25845" lon="1.7402">
        <ele>125</ele>
        <time>2014-09-28T09:53:38.000Z</time>
      </trkpt>
      <trkpt lat="49.25845" lon="1.7402">
        <ele>125</ele>
        <time>2014-09-28T09:53:40.000Z</time>
      </trkpt>
    </trkseg>
  </trk>
</gpx>